<?xml version="1.0" encoding="UTF-8" standalone="no" ?>
<gpx xmlns="http://www.topografix.com/GPX/1/1" xmlns:xsi="http://www.w3.org/2001/XMLSchema-instance" xsi:schemaLocation="http://www.topografix.com/GPX/1/1 http://www.topografix.com/GPX/1/1/gpx.xsd" version="1.1" creator="VisuGPX - https://www.visugpx.com">
  <metadata>
    <name>Route - Wettstein Platzerwasel 84-1750</name>
  </metadata>
  <trk>
    <name><![CDATA[3875232-platzerroul]]></name>
    <trkseg>
      <trkpt lat="48.13444" lon="7.1451">
        <ele>591</ele>
        <time>2019-04-12T10:16:54Z</time>
      </trkpt>
      <trkpt lat="48.13438" lon="7.14515">
        <ele>590</ele>
        <time>2019-04-12T10:17:54Z</time>
      </trkpt>
      <trkpt lat="48.13432" lon="7.14516">
        <ele>589</ele>
        <time>2019-04-12T10:18:54Z</time>
      </trkpt>
      <trkpt lat="48.13422" lon="7.14508">
        <ele>588</ele>
        <time>2019-04-12T10:19:54Z</time>
      </trkpt>
      <trkpt lat="48.13416" lon="7.14504">
        <ele>587</ele>
        <time>2019-04-12T10:20:54Z</time>
      </trkpt>
      <trkpt lat="48.13407" lon="7.14502">
        <ele>586</ele>
        <time>2019-04-12T10:21:54Z</time>
      </trkpt>
      <trkpt lat="48.13393" lon="7.14498">
        <ele>585</ele>
        <time>2019-04-12T10:22:54Z</time>
      </trkpt>
      <trkpt lat="48.13393" lon="7.14498">
        <ele>585</ele>
        <time>2019-04-12T10:23:54Z</time>
      </trkpt>
      <trkpt lat="48.13375" lon="7.14509">
        <ele>583</ele>
        <time>2019-04-12T10:24:54Z</time>
      </trkpt>
      <trkpt lat="48.13356" lon="7.14524">
        <ele>580</ele>
        <time>2019-04-12T10:25:54Z</time>
      </trkpt>
      <trkpt lat="48.13335" lon="7.14539">
        <ele>577</ele>
        <time>2019-04-12T10:26:54Z</time>
      </trkpt>
      <trkpt lat="48.13323" lon="7.1455">
        <ele>576</ele>
        <time>2019-04-12T10:27:54Z</time>
      </trkpt>
      <trkpt lat="48.13296" lon="7.14572">
        <ele>573</ele>
        <time>2019-04-12T10:28:54Z</time>
      </trkpt>
      <trkpt lat="48.13272" lon="7.14589">
        <ele>571</ele>
        <time>2019-04-12T10:29:54Z</time>
      </trkpt>
      <trkpt lat="48.1325" lon="7.14606">
        <ele>570</ele>
        <time>2019-04-12T10:30:54Z</time>
      </trkpt>
      <trkpt lat="48.13232" lon="7.14617">
        <ele>569</ele>
        <time>2019-04-12T10:31:54Z</time>
      </trkpt>
      <trkpt lat="48.13203" lon="7.1463">
        <ele>567</ele>
        <time>2019-04-12T10:32:54Z</time>
      </trkpt>
      <trkpt lat="48.13191" lon="7.14636">
        <ele>566</ele>
        <time>2019-04-12T10:33:54Z</time>
      </trkpt>
      <trkpt lat="48.13158" lon="7.14655">
        <ele>563</ele>
        <time>2019-04-12T10:34:54Z</time>
      </trkpt>
      <trkpt lat="48.13112" lon="7.14683">
        <ele>563</ele>
        <time>2019-04-12T10:35:54Z</time>
      </trkpt>
      <trkpt lat="48.13082" lon="7.14699">
        <ele>562</ele>
        <time>2019-04-12T10:36:54Z</time>
      </trkpt>
      <trkpt lat="48.13059" lon="7.14714">
        <ele>566</ele>
        <time>2019-04-12T10:37:54Z</time>
      </trkpt>
      <trkpt lat="48.13045" lon="7.14724">
        <ele>567</ele>
        <time>2019-04-12T10:38:54Z</time>
      </trkpt>
      <trkpt lat="48.13024" lon="7.14742">
        <ele>568</ele>
        <time>2019-04-12T10:39:54Z</time>
      </trkpt>
      <trkpt lat="48.13" lon="7.14763">
        <ele>568</ele>
        <time>2019-04-12T10:40:54Z</time>
      </trkpt>
      <trkpt lat="48.12983" lon="7.14777">
        <ele>566</ele>
        <time>2019-04-12T10:41:54Z</time>
      </trkpt>
      <trkpt lat="48.12983" lon="7.14777">
        <ele>566</ele>
        <time>2019-04-12T10:42:54Z</time>
      </trkpt>
      <trkpt lat="48.12958" lon="7.14804">
        <ele>561</ele>
        <time>2019-04-12T10:43:54Z</time>
      </trkpt>
      <trkpt lat="48.12934" lon="7.14827">
        <ele>553</ele>
        <time>2019-04-12T10:44:54Z</time>
      </trkpt>
      <trkpt lat="48.12913" lon="7.14847">
        <ele>547</ele>
        <time>2019-04-12T10:45:54Z</time>
      </trkpt>
      <trkpt lat="48.12898" lon="7.14861">
        <ele>545</ele>
        <time>2019-04-12T10:46:54Z</time>
      </trkpt>
      <trkpt lat="48.12886" lon="7.14873">
        <ele>542</ele>
        <time>2019-04-12T10:47:54Z</time>
      </trkpt>
      <trkpt lat="48.12872" lon="7.14892">
        <ele>539</ele>
        <time>2019-04-12T10:48:54Z</time>
      </trkpt>
      <trkpt lat="48.12858" lon="7.14912">
        <ele>535</ele>
        <time>2019-04-12T10:49:54Z</time>
      </trkpt>
      <trkpt lat="48.12845" lon="7.14938">
        <ele>533</ele>
        <time>2019-04-12T10:50:54Z</time>
      </trkpt>
      <trkpt lat="48.12833" lon="7.14961">
        <ele>531</ele>
        <time>2019-04-12T10:51:54Z</time>
      </trkpt>
      <trkpt lat="48.12823" lon="7.14981">
        <ele>531</ele>
        <time>2019-04-12T10:52:54Z</time>
      </trkpt>
      <trkpt lat="48.12814" lon="7.14998">
        <ele>531</ele>
        <time>2019-04-12T10:53:54Z</time>
      </trkpt>
      <trkpt lat="48.12803" lon="7.15009">
        <ele>530</ele>
        <time>2019-04-12T10:54:54Z</time>
      </trkpt>
      <trkpt lat="48.12792" lon="7.15019">
        <ele>529</ele>
        <time>2019-04-12T10:55:54Z</time>
      </trkpt>
      <trkpt lat="48.12784" lon="7.15024">
        <ele>529</ele>
        <time>2019-04-12T10:56:54Z</time>
      </trkpt>
      <trkpt lat="48.12779" lon="7.1503">
        <ele>529</ele>
        <time>2019-04-12T10:57:54Z</time>
      </trkpt>
      <trkpt lat="48.12776" lon="7.15044">
        <ele>528</ele>
        <time>2019-04-12T10:58:54Z</time>
      </trkpt>
      <trkpt lat="48.12772" lon="7.15065">
        <ele>527</ele>
        <time>2019-04-12T10:59:54Z</time>
      </trkpt>
      <trkpt lat="48.1277" lon="7.15077">
        <ele>526</ele>
        <time>2019-04-12T11:00:54Z</time>
      </trkpt>
      <trkpt lat="48.12763" lon="7.15088">
        <ele>526</ele>
        <time>2019-04-12T11:01:54Z</time>
      </trkpt>
      <trkpt lat="48.12751" lon="7.15107">
        <ele>524</ele>
        <time>2019-04-12T11:02:54Z</time>
      </trkpt>
      <trkpt lat="48.12738" lon="7.15124">
        <ele>524</ele>
        <time>2019-04-12T11:03:54Z</time>
      </trkpt>
      <trkpt lat="48.12731" lon="7.15133">
        <ele>523</ele>
        <time>2019-04-12T11:04:54Z</time>
      </trkpt>
      <trkpt lat="48.12719" lon="7.15158">
        <ele>521</ele>
        <time>2019-04-12T11:05:54Z</time>
      </trkpt>
      <trkpt lat="48.12718" lon="7.15197">
        <ele>520</ele>
        <time>2019-04-12T11:06:54Z</time>
      </trkpt>
      <trkpt lat="48.12714" lon="7.15236">
        <ele>518</ele>
        <time>2019-04-12T11:07:54Z</time>
      </trkpt>
      <trkpt lat="48.12713" lon="7.15249">
        <ele>518</ele>
        <time>2019-04-12T11:08:54Z</time>
      </trkpt>
      <trkpt lat="48.1271" lon="7.15268">
        <ele>518</ele>
        <time>2019-04-12T11:09:54Z</time>
      </trkpt>
      <trkpt lat="48.12705" lon="7.15287">
        <ele>518</ele>
        <time>2019-04-12T11:10:54Z</time>
      </trkpt>
      <trkpt lat="48.12701" lon="7.153">
        <ele>517</ele>
        <time>2019-04-12T11:11:54Z</time>
      </trkpt>
      <trkpt lat="48.12693" lon="7.15317">
        <ele>516</ele>
        <time>2019-04-12T11:12:54Z</time>
      </trkpt>
      <trkpt lat="48.12678" lon="7.15346">
        <ele>513</ele>
        <time>2019-04-12T11:13:54Z</time>
      </trkpt>
      <trkpt lat="48.12661" lon="7.15372">
        <ele>511</ele>
        <time>2019-04-12T11:14:54Z</time>
      </trkpt>
      <trkpt lat="48.12649" lon="7.15387">
        <ele>510</ele>
        <time>2019-04-12T11:15:54Z</time>
      </trkpt>
      <trkpt lat="48.12644" lon="7.15395">
        <ele>510</ele>
        <time>2019-04-12T11:16:54Z</time>
      </trkpt>
      <trkpt lat="48.1264" lon="7.15404">
        <ele>509</ele>
        <time>2019-04-12T11:17:54Z</time>
      </trkpt>
      <trkpt lat="48.12633" lon="7.15418">
        <ele>509</ele>
        <time>2019-04-12T11:18:54Z</time>
      </trkpt>
      <trkpt lat="48.12623" lon="7.1543">
        <ele>508</ele>
        <time>2019-04-12T11:19:54Z</time>
      </trkpt>
      <trkpt lat="48.12617" lon="7.15442">
        <ele>507</ele>
        <time>2019-04-12T11:20:54Z</time>
      </trkpt>
      <trkpt lat="48.12617" lon="7.15442">
        <ele>507</ele>
        <time>2019-04-12T11:21:54Z</time>
      </trkpt>
      <trkpt lat="48.12605" lon="7.15443">
        <ele>507</ele>
        <time>2019-04-12T11:22:54Z</time>
      </trkpt>
      <trkpt lat="48.12598" lon="7.15453">
        <ele>506</ele>
        <time>2019-04-12T11:23:54Z</time>
      </trkpt>
      <trkpt lat="48.12587" lon="7.15466">
        <ele>505</ele>
        <time>2019-04-12T11:24:54Z</time>
      </trkpt>
      <trkpt lat="48.12574" lon="7.15471">
        <ele>505</ele>
        <time>2019-04-12T11:25:54Z</time>
      </trkpt>
      <trkpt lat="48.1255" lon="7.15472">
        <ele>505</ele>
        <time>2019-04-12T11:26:54Z</time>
      </trkpt>
      <trkpt lat="48.1255" lon="7.15472">
        <ele>505</ele>
        <time>2019-04-12T11:27:54Z</time>
      </trkpt>
      <trkpt lat="48.12542" lon="7.15417">
        <ele>507</ele>
        <time>2019-04-12T11:28:54Z</time>
      </trkpt>
      <trkpt lat="48.12535" lon="7.15396">
        <ele>508</ele>
        <time>2019-04-12T11:29:54Z</time>
      </trkpt>
      <trkpt lat="48.12531" lon="7.15381">
        <ele>509</ele>
        <time>2019-04-12T11:30:54Z</time>
      </trkpt>
      <trkpt lat="48.1252" lon="7.15358">
        <ele>510</ele>
        <time>2019-04-12T11:31:54Z</time>
      </trkpt>
      <trkpt lat="48.12504" lon="7.15334">
        <ele>511</ele>
        <time>2019-04-12T11:32:54Z</time>
      </trkpt>
      <trkpt lat="48.12484" lon="7.15307">
        <ele>513</ele>
        <time>2019-04-12T11:33:54Z</time>
      </trkpt>
      <trkpt lat="48.12473" lon="7.153">
        <ele>513</ele>
        <time>2019-04-12T11:34:54Z</time>
      </trkpt>
      <trkpt lat="48.1246" lon="7.15292">
        <ele>513</ele>
        <time>2019-04-12T11:35:54Z</time>
      </trkpt>
      <trkpt lat="48.1245" lon="7.15289">
        <ele>513</ele>
        <time>2019-04-12T11:36:54Z</time>
      </trkpt>
      <trkpt lat="48.12428" lon="7.15284">
        <ele>513</ele>
        <time>2019-04-12T11:37:54Z</time>
      </trkpt>
      <trkpt lat="48.124" lon="7.1528">
        <ele>514</ele>
        <time>2019-04-12T11:38:54Z</time>
      </trkpt>
      <trkpt lat="48.1237" lon="7.15277">
        <ele>514</ele>
        <time>2019-04-12T11:39:54Z</time>
      </trkpt>
      <trkpt lat="48.12359" lon="7.15275">
        <ele>514</ele>
        <time>2019-04-12T11:40:54Z</time>
      </trkpt>
      <trkpt lat="48.12347" lon="7.1527">
        <ele>514</ele>
        <time>2019-04-12T11:41:54Z</time>
      </trkpt>
      <trkpt lat="48.12336" lon="7.15262">
        <ele>514</ele>
        <time>2019-04-12T11:42:54Z</time>
      </trkpt>
      <trkpt lat="48.1233" lon="7.15255">
        <ele>514</ele>
        <time>2019-04-12T11:43:54Z</time>
      </trkpt>
      <trkpt lat="48.12329" lon="7.15255">
        <ele>514</ele>
        <time>2019-04-12T11:44:54Z</time>
      </trkpt>
      <trkpt lat="48.1232" lon="7.15242">
        <ele>515</ele>
        <time>2019-04-12T11:45:54Z</time>
      </trkpt>
      <trkpt lat="48.12306" lon="7.15219">
        <ele>517</ele>
        <time>2019-04-12T11:46:54Z</time>
      </trkpt>
      <trkpt lat="48.123" lon="7.15207">
        <ele>517</ele>
        <time>2019-04-12T11:47:54Z</time>
      </trkpt>
      <trkpt lat="48.12289" lon="7.15187">
        <ele>518</ele>
        <time>2019-04-12T11:48:54Z</time>
      </trkpt>
      <trkpt lat="48.12267" lon="7.15146">
        <ele>519</ele>
        <time>2019-04-12T11:49:54Z</time>
      </trkpt>
      <trkpt lat="48.12239" lon="7.15097">
        <ele>522</ele>
        <time>2019-04-12T11:50:54Z</time>
      </trkpt>
      <trkpt lat="48.12234" lon="7.15087">
        <ele>522</ele>
        <time>2019-04-12T11:51:54Z</time>
      </trkpt>
      <trkpt lat="48.12215" lon="7.15053">
        <ele>524</ele>
        <time>2019-04-12T11:52:54Z</time>
      </trkpt>
      <trkpt lat="48.12192" lon="7.15012">
        <ele>526</ele>
        <time>2019-04-12T11:53:54Z</time>
      </trkpt>
      <trkpt lat="48.12174" lon="7.14981">
        <ele>528</ele>
        <time>2019-04-12T11:54:54Z</time>
      </trkpt>
      <trkpt lat="48.12157" lon="7.1495">
        <ele>530</ele>
        <time>2019-04-12T11:55:54Z</time>
      </trkpt>
      <trkpt lat="48.12137" lon="7.14914">
        <ele>533</ele>
        <time>2019-04-12T11:56:54Z</time>
      </trkpt>
      <trkpt lat="48.12117" lon="7.14879">
        <ele>534</ele>
        <time>2019-04-12T11:57:54Z</time>
      </trkpt>
      <trkpt lat="48.12105" lon="7.14855">
        <ele>535</ele>
        <time>2019-04-12T11:58:54Z</time>
      </trkpt>
      <trkpt lat="48.12074" lon="7.14797">
        <ele>540</ele>
        <time>2019-04-12T11:59:54Z</time>
      </trkpt>
      <trkpt lat="48.12066" lon="7.14781">
        <ele>541</ele>
        <time>2019-04-12T12:00:54Z</time>
      </trkpt>
      <trkpt lat="48.12061" lon="7.14766">
        <ele>542</ele>
        <time>2019-04-12T12:01:54Z</time>
      </trkpt>
      <trkpt lat="48.12054" lon="7.14749">
        <ele>542</ele>
        <time>2019-04-12T12:02:54Z</time>
      </trkpt>
      <trkpt lat="48.12049" lon="7.14734">
        <ele>543</ele>
        <time>2019-04-12T12:03:54Z</time>
      </trkpt>
      <trkpt lat="48.12043" lon="7.14723">
        <ele>543</ele>
        <time>2019-04-12T12:04:54Z</time>
      </trkpt>
      <trkpt lat="48.12033" lon="7.14703">
        <ele>544</ele>
        <time>2019-04-12T12:05:54Z</time>
      </trkpt>
      <trkpt lat="48.12024" lon="7.14686">
        <ele>544</ele>
        <time>2019-04-12T12:06:54Z</time>
      </trkpt>
      <trkpt lat="48.12012" lon="7.14665">
        <ele>544</ele>
        <time>2019-04-12T12:07:54Z</time>
      </trkpt>
      <trkpt lat="48.12002" lon="7.1465">
        <ele>544</ele>
        <time>2019-04-12T12:08:54Z</time>
      </trkpt>
      <trkpt lat="48.11975" lon="7.14596">
        <ele>550</ele>
        <time>2019-04-12T12:09:54Z</time>
      </trkpt>
      <trkpt lat="48.11961" lon="7.1457">
        <ele>551</ele>
        <time>2019-04-12T12:10:54Z</time>
      </trkpt>
      <trkpt lat="48.11955" lon="7.14562">
        <ele>551</ele>
        <time>2019-04-12T12:11:54Z</time>
      </trkpt>
      <trkpt lat="48.1195" lon="7.14556">
        <ele>552</ele>
        <time>2019-04-12T12:12:54Z</time>
      </trkpt>
      <trkpt lat="48.11941" lon="7.14548">
        <ele>552</ele>
        <time>2019-04-12T12:13:54Z</time>
      </trkpt>
      <trkpt lat="48.1191" lon="7.14527">
        <ele>554</ele>
        <time>2019-04-12T12:14:54Z</time>
      </trkpt>
      <trkpt lat="48.11875" lon="7.14499">
        <ele>555</ele>
        <time>2019-04-12T12:15:54Z</time>
      </trkpt>
      <trkpt lat="48.11851" lon="7.14475">
        <ele>557</ele>
        <time>2019-04-12T12:16:54Z</time>
      </trkpt>
      <trkpt lat="48.11837" lon="7.14455">
        <ele>557</ele>
        <time>2019-04-12T12:17:54Z</time>
      </trkpt>
      <trkpt lat="48.11822" lon="7.14425">
        <ele>558</ele>
        <time>2019-04-12T12:18:54Z</time>
      </trkpt>
      <trkpt lat="48.1181" lon="7.14392">
        <ele>560</ele>
        <time>2019-04-12T12:19:54Z</time>
      </trkpt>
      <trkpt lat="48.11803" lon="7.14363">
        <ele>561</ele>
        <time>2019-04-12T12:20:54Z</time>
      </trkpt>
      <trkpt lat="48.11802" lon="7.14354">
        <ele>561</ele>
        <time>2019-04-12T12:21:54Z</time>
      </trkpt>
      <trkpt lat="48.118" lon="7.14338">
        <ele>562</ele>
        <time>2019-04-12T12:22:54Z</time>
      </trkpt>
      <trkpt lat="48.118" lon="7.14326">
        <ele>562</ele>
        <time>2019-04-12T12:23:54Z</time>
      </trkpt>
      <trkpt lat="48.118" lon="7.14326">
        <ele>562</ele>
        <time>2019-04-12T12:24:54Z</time>
      </trkpt>
      <trkpt lat="48.11793" lon="7.14329">
        <ele>562</ele>
        <time>2019-04-12T12:25:54Z</time>
      </trkpt>
      <trkpt lat="48.11789" lon="7.14332">
        <ele>562</ele>
        <time>2019-04-12T12:26:54Z</time>
      </trkpt>
      <trkpt lat="48.11782" lon="7.14336">
        <ele>562</ele>
        <time>2019-04-12T12:27:54Z</time>
      </trkpt>
      <trkpt lat="48.1176" lon="7.1435">
        <ele>562</ele>
        <time>2019-04-12T12:28:54Z</time>
      </trkpt>
      <trkpt lat="48.11754" lon="7.14353">
        <ele>562</ele>
        <time>2019-04-12T12:29:54Z</time>
      </trkpt>
      <trkpt lat="48.1175" lon="7.14355">
        <ele>562</ele>
        <time>2019-04-12T12:30:54Z</time>
      </trkpt>
      <trkpt lat="48.11714" lon="7.14371">
        <ele>564</ele>
        <time>2019-04-12T12:31:54Z</time>
      </trkpt>
      <trkpt lat="48.11673" lon="7.14388">
        <ele>564</ele>
        <time>2019-04-12T12:32:54Z</time>
      </trkpt>
      <trkpt lat="48.11645" lon="7.14397">
        <ele>566</ele>
        <time>2019-04-12T12:33:54Z</time>
      </trkpt>
      <trkpt lat="48.1161" lon="7.14411">
        <ele>567</ele>
        <time>2019-04-12T12:34:54Z</time>
      </trkpt>
      <trkpt lat="48.11598" lon="7.14413">
        <ele>568</ele>
        <time>2019-04-12T12:35:54Z</time>
      </trkpt>
      <trkpt lat="48.11583" lon="7.14412">
        <ele>569</ele>
        <time>2019-04-12T12:36:54Z</time>
      </trkpt>
      <trkpt lat="48.11558" lon="7.144">
        <ele>571</ele>
        <time>2019-04-12T12:37:54Z</time>
      </trkpt>
      <trkpt lat="48.11546" lon="7.14392">
        <ele>573</ele>
        <time>2019-04-12T12:38:54Z</time>
      </trkpt>
      <trkpt lat="48.1153" lon="7.14384">
        <ele>574</ele>
        <time>2019-04-12T12:39:54Z</time>
      </trkpt>
      <trkpt lat="48.11509" lon="7.14382">
        <ele>575</ele>
        <time>2019-04-12T12:40:54Z</time>
      </trkpt>
      <trkpt lat="48.11498" lon="7.14382">
        <ele>576</ele>
        <time>2019-04-12T12:41:54Z</time>
      </trkpt>
      <trkpt lat="48.11483" lon="7.14391">
        <ele>576</ele>
        <time>2019-04-12T12:42:54Z</time>
      </trkpt>
      <trkpt lat="48.1147" lon="7.14399">
        <ele>577</ele>
        <time>2019-04-12T12:43:54Z</time>
      </trkpt>
      <trkpt lat="48.11459" lon="7.14408">
        <ele>576</ele>
        <time>2019-04-12T12:44:54Z</time>
      </trkpt>
      <trkpt lat="48.11441" lon="7.14419">
        <ele>577</ele>
        <time>2019-04-12T12:45:54Z</time>
      </trkpt>
      <trkpt lat="48.11421" lon="7.14434">
        <ele>577</ele>
        <time>2019-04-12T12:46:54Z</time>
      </trkpt>
      <trkpt lat="48.11418" lon="7.14434">
        <ele>577</ele>
        <time>2019-04-12T12:47:54Z</time>
      </trkpt>
      <trkpt lat="48.11406" lon="7.14437">
        <ele>577</ele>
        <time>2019-04-12T12:48:54Z</time>
      </trkpt>
      <trkpt lat="48.11396" lon="7.14438">
        <ele>577</ele>
        <time>2019-04-12T12:49:54Z</time>
      </trkpt>
      <trkpt lat="48.11379" lon="7.14436">
        <ele>578</ele>
        <time>2019-04-12T12:50:54Z</time>
      </trkpt>
      <trkpt lat="48.11343" lon="7.14422">
        <ele>579</ele>
        <time>2019-04-12T12:51:54Z</time>
      </trkpt>
      <trkpt lat="48.11293" lon="7.14405">
        <ele>582</ele>
        <time>2019-04-12T12:52:54Z</time>
      </trkpt>
      <trkpt lat="48.11264" lon="7.14396">
        <ele>584</ele>
        <time>2019-04-12T12:53:54Z</time>
      </trkpt>
      <trkpt lat="48.11245" lon="7.14392">
        <ele>585</ele>
        <time>2019-04-12T12:54:54Z</time>
      </trkpt>
      <trkpt lat="48.11226" lon="7.14392">
        <ele>586</ele>
        <time>2019-04-12T12:55:54Z</time>
      </trkpt>
      <trkpt lat="48.11182" lon="7.14396">
        <ele>587</ele>
        <time>2019-04-12T12:56:54Z</time>
      </trkpt>
      <trkpt lat="48.11137" lon="7.14396">
        <ele>587</ele>
        <time>2019-04-12T12:57:54Z</time>
      </trkpt>
      <trkpt lat="48.11109" lon="7.14397">
        <ele>586</ele>
        <time>2019-04-12T12:58:54Z</time>
      </trkpt>
      <trkpt lat="48.1109" lon="7.14405">
        <ele>585</ele>
        <time>2019-04-12T12:59:54Z</time>
      </trkpt>
      <trkpt lat="48.11058" lon="7.1442">
        <ele>585</ele>
        <time>2019-04-12T13:00:54Z</time>
      </trkpt>
      <trkpt lat="48.11055" lon="7.14421">
        <ele>585</ele>
        <time>2019-04-12T13:01:54Z</time>
      </trkpt>
      <trkpt lat="48.11032" lon="7.14425">
        <ele>586</ele>
        <time>2019-04-12T13:02:54Z</time>
      </trkpt>
      <trkpt lat="48.11008" lon="7.14423">
        <ele>588</ele>
        <time>2019-04-12T13:03:54Z</time>
      </trkpt>
      <trkpt lat="48.10989" lon="7.14416">
        <ele>590</ele>
        <time>2019-04-12T13:04:54Z</time>
      </trkpt>
      <trkpt lat="48.1096" lon="7.14406">
        <ele>592</ele>
        <time>2019-04-12T13:05:54Z</time>
      </trkpt>
      <trkpt lat="48.10924" lon="7.14393">
        <ele>596</ele>
        <time>2019-04-12T13:06:54Z</time>
      </trkpt>
      <trkpt lat="48.10894" lon="7.14377">
        <ele>599</ele>
        <time>2019-04-12T13:07:54Z</time>
      </trkpt>
      <trkpt lat="48.10867" lon="7.14359">
        <ele>601</ele>
        <time>2019-04-12T13:08:54Z</time>
      </trkpt>
      <trkpt lat="48.10842" lon="7.14341">
        <ele>602</ele>
        <time>2019-04-12T13:09:54Z</time>
      </trkpt>
      <trkpt lat="48.10801" lon="7.14301">
        <ele>606</ele>
        <time>2019-04-12T13:10:54Z</time>
      </trkpt>
      <trkpt lat="48.1077" lon="7.14278">
        <ele>607</ele>
        <time>2019-04-12T13:11:54Z</time>
      </trkpt>
      <trkpt lat="48.10724" lon="7.14241">
        <ele>608</ele>
        <time>2019-04-12T13:12:54Z</time>
      </trkpt>
      <trkpt lat="48.10712" lon="7.1423">
        <ele>609</ele>
        <time>2019-04-12T13:13:54Z</time>
      </trkpt>
      <trkpt lat="48.10699" lon="7.14213">
        <ele>611</ele>
        <time>2019-04-12T13:14:54Z</time>
      </trkpt>
      <trkpt lat="48.10684" lon="7.14184">
        <ele>612</ele>
        <time>2019-04-12T13:15:54Z</time>
      </trkpt>
      <trkpt lat="48.10672" lon="7.1416">
        <ele>613</ele>
        <time>2019-04-12T13:16:54Z</time>
      </trkpt>
      <trkpt lat="48.10656" lon="7.14128">
        <ele>615</ele>
        <time>2019-04-12T13:17:54Z</time>
      </trkpt>
      <trkpt lat="48.10646" lon="7.14109">
        <ele>617</ele>
        <time>2019-04-12T13:18:54Z</time>
      </trkpt>
      <trkpt lat="48.10638" lon="7.14094">
        <ele>618</ele>
        <time>2019-04-12T13:19:54Z</time>
      </trkpt>
      <trkpt lat="48.10631" lon="7.14082">
        <ele>618</ele>
        <time>2019-04-12T13:20:54Z</time>
      </trkpt>
      <trkpt lat="48.10603" lon="7.1405">
        <ele>618</ele>
        <time>2019-04-12T13:21:54Z</time>
      </trkpt>
      <trkpt lat="48.10568" lon="7.14012">
        <ele>619</ele>
        <time>2019-04-12T13:22:54Z</time>
      </trkpt>
      <trkpt lat="48.10537" lon="7.1398">
        <ele>622</ele>
        <time>2019-04-12T13:23:54Z</time>
      </trkpt>
      <trkpt lat="48.1051" lon="7.13951">
        <ele>624</ele>
        <time>2019-04-12T13:24:54Z</time>
      </trkpt>
      <trkpt lat="48.10501" lon="7.13942">
        <ele>624</ele>
        <time>2019-04-12T13:25:54Z</time>
      </trkpt>
      <trkpt lat="48.10484" lon="7.13925">
        <ele>625</ele>
        <time>2019-04-12T13:26:54Z</time>
      </trkpt>
      <trkpt lat="48.10473" lon="7.13916">
        <ele>626</ele>
        <time>2019-04-12T13:27:54Z</time>
      </trkpt>
      <trkpt lat="48.10454" lon="7.13905">
        <ele>629</ele>
        <time>2019-04-12T13:28:54Z</time>
      </trkpt>
      <trkpt lat="48.10431" lon="7.13894">
        <ele>632</ele>
        <time>2019-04-12T13:29:54Z</time>
      </trkpt>
      <trkpt lat="48.10418" lon="7.13885">
        <ele>634</ele>
        <time>2019-04-12T13:30:54Z</time>
      </trkpt>
      <trkpt lat="48.10411" lon="7.13876">
        <ele>636</ele>
        <time>2019-04-12T13:31:54Z</time>
      </trkpt>
      <trkpt lat="48.104" lon="7.13857">
        <ele>641</ele>
        <time>2019-04-12T13:32:54Z</time>
      </trkpt>
      <trkpt lat="48.10384" lon="7.1383">
        <ele>646</ele>
        <time>2019-04-12T13:33:54Z</time>
      </trkpt>
      <trkpt lat="48.10374" lon="7.13813">
        <ele>650</ele>
        <time>2019-04-12T13:34:54Z</time>
      </trkpt>
      <trkpt lat="48.10357" lon="7.13792">
        <ele>654</ele>
        <time>2019-04-12T13:35:54Z</time>
      </trkpt>
      <trkpt lat="48.10335" lon="7.13764">
        <ele>657</ele>
        <time>2019-04-12T13:36:54Z</time>
      </trkpt>
      <trkpt lat="48.10312" lon="7.13738">
        <ele>661</ele>
        <time>2019-04-12T13:37:54Z</time>
      </trkpt>
      <trkpt lat="48.10295" lon="7.13718">
        <ele>662</ele>
        <time>2019-04-12T13:38:54Z</time>
      </trkpt>
      <trkpt lat="48.10281" lon="7.13694">
        <ele>662</ele>
        <time>2019-04-12T13:39:54Z</time>
      </trkpt>
      <trkpt lat="48.10269" lon="7.1367">
        <ele>660</ele>
        <time>2019-04-12T13:40:54Z</time>
      </trkpt>
      <trkpt lat="48.10259" lon="7.13649">
        <ele>658</ele>
        <time>2019-04-12T13:41:54Z</time>
      </trkpt>
      <trkpt lat="48.10252" lon="7.13626">
        <ele>657</ele>
        <time>2019-04-12T13:42:54Z</time>
      </trkpt>
      <trkpt lat="48.10245" lon="7.13611">
        <ele>657</ele>
        <time>2019-04-12T13:43:54Z</time>
      </trkpt>
      <trkpt lat="48.10237" lon="7.13597">
        <ele>657</ele>
        <time>2019-04-12T13:44:54Z</time>
      </trkpt>
      <trkpt lat="48.10228" lon="7.1359">
        <ele>656</ele>
        <time>2019-04-12T13:45:54Z</time>
      </trkpt>
      <trkpt lat="48.10215" lon="7.13582">
        <ele>655</ele>
        <time>2019-04-12T13:46:54Z</time>
      </trkpt>
      <trkpt lat="48.10199" lon="7.13576">
        <ele>655</ele>
        <time>2019-04-12T13:47:54Z</time>
      </trkpt>
      <trkpt lat="48.10184" lon="7.13572">
        <ele>655</ele>
        <time>2019-04-12T13:48:54Z</time>
      </trkpt>
      <trkpt lat="48.10161" lon="7.13568">
        <ele>654</ele>
        <time>2019-04-12T13:49:54Z</time>
      </trkpt>
      <trkpt lat="48.10131" lon="7.13564">
        <ele>656</ele>
        <time>2019-04-12T13:50:54Z</time>
      </trkpt>
      <trkpt lat="48.10097" lon="7.13563">
        <ele>658</ele>
        <time>2019-04-12T13:51:54Z</time>
      </trkpt>
      <trkpt lat="48.10058" lon="7.13565">
        <ele>660</ele>
        <time>2019-04-12T13:52:54Z</time>
      </trkpt>
      <trkpt lat="48.1002" lon="7.13569">
        <ele>663</ele>
        <time>2019-04-12T13:53:54Z</time>
      </trkpt>
      <trkpt lat="48.09972" lon="7.13578">
        <ele>669</ele>
        <time>2019-04-12T13:54:54Z</time>
      </trkpt>
      <trkpt lat="48.09954" lon="7.13584">
        <ele>672</ele>
        <time>2019-04-12T13:55:54Z</time>
      </trkpt>
      <trkpt lat="48.09937" lon="7.13593">
        <ele>675</ele>
        <time>2019-04-12T13:56:54Z</time>
      </trkpt>
      <trkpt lat="48.0992" lon="7.13608">
        <ele>678</ele>
        <time>2019-04-12T13:57:54Z</time>
      </trkpt>
      <trkpt lat="48.09902" lon="7.13631">
        <ele>680</ele>
        <time>2019-04-12T13:58:54Z</time>
      </trkpt>
      <trkpt lat="48.09888" lon="7.13651">
        <ele>680</ele>
        <time>2019-04-12T13:59:54Z</time>
      </trkpt>
      <trkpt lat="48.09866" lon="7.13677">
        <ele>681</ele>
        <time>2019-04-12T14:00:54Z</time>
      </trkpt>
      <trkpt lat="48.0985" lon="7.1369">
        <ele>682</ele>
        <time>2019-04-12T14:01:54Z</time>
      </trkpt>
      <trkpt lat="48.09836" lon="7.13698">
        <ele>683</ele>
        <time>2019-04-12T14:02:54Z</time>
      </trkpt>
      <trkpt lat="48.09832" lon="7.137">
        <ele>683</ele>
        <time>2019-04-12T14:03:54Z</time>
      </trkpt>
      <trkpt lat="48.09817" lon="7.13704">
        <ele>682</ele>
        <time>2019-04-12T14:04:54Z</time>
      </trkpt>
      <trkpt lat="48.09812" lon="7.13704">
        <ele>682</ele>
        <time>2019-04-12T14:05:54Z</time>
      </trkpt>
      <trkpt lat="48.09798" lon="7.13703">
        <ele>682</ele>
        <time>2019-04-12T14:06:54Z</time>
      </trkpt>
      <trkpt lat="48.09787" lon="7.13702">
        <ele>682</ele>
        <time>2019-04-12T14:07:54Z</time>
      </trkpt>
      <trkpt lat="48.09777" lon="7.13703">
        <ele>682</ele>
        <time>2019-04-12T14:08:54Z</time>
      </trkpt>
      <trkpt lat="48.09766" lon="7.13705">
        <ele>682</ele>
        <time>2019-04-12T14:09:54Z</time>
      </trkpt>
      <trkpt lat="48.09751" lon="7.13711">
        <ele>682</ele>
        <time>2019-04-12T14:10:54Z</time>
      </trkpt>
      <trkpt lat="48.09733" lon="7.13717">
        <ele>682</ele>
        <time>2019-04-12T14:11:54Z</time>
      </trkpt>
      <trkpt lat="48.09717" lon="7.13723">
        <ele>683</ele>
        <time>2019-04-12T14:12:54Z</time>
      </trkpt>
      <trkpt lat="48.09705" lon="7.13725">
        <ele>683</ele>
        <time>2019-04-12T14:13:54Z</time>
      </trkpt>
      <trkpt lat="48.09698" lon="7.13722">
        <ele>684</ele>
        <time>2019-04-12T14:14:54Z</time>
      </trkpt>
      <trkpt lat="48.09694" lon="7.13718">
        <ele>684</ele>
        <time>2019-04-12T14:15:54Z</time>
      </trkpt>
      <trkpt lat="48.0969" lon="7.13712">
        <ele>684</ele>
        <time>2019-04-12T14:16:54Z</time>
      </trkpt>
      <trkpt lat="48.09688" lon="7.13701">
        <ele>685</ele>
        <time>2019-04-12T14:17:54Z</time>
      </trkpt>
      <trkpt lat="48.09685" lon="7.1369">
        <ele>685</ele>
        <time>2019-04-12T14:18:54Z</time>
      </trkpt>
      <trkpt lat="48.09679" lon="7.13657">
        <ele>687</ele>
        <time>2019-04-12T14:19:54Z</time>
      </trkpt>
      <trkpt lat="48.09671" lon="7.13611">
        <ele>691</ele>
        <time>2019-04-12T14:20:54Z</time>
      </trkpt>
      <trkpt lat="48.09663" lon="7.1357">
        <ele>693</ele>
        <time>2019-04-12T14:21:54Z</time>
      </trkpt>
      <trkpt lat="48.09657" lon="7.13533">
        <ele>696</ele>
        <time>2019-04-12T14:22:54Z</time>
      </trkpt>
      <trkpt lat="48.09649" lon="7.13491">
        <ele>699</ele>
        <time>2019-04-12T14:23:54Z</time>
      </trkpt>
      <trkpt lat="48.09641" lon="7.13432">
        <ele>704</ele>
        <time>2019-04-12T14:24:54Z</time>
      </trkpt>
      <trkpt lat="48.09636" lon="7.13397">
        <ele>706</ele>
        <time>2019-04-12T14:25:54Z</time>
      </trkpt>
      <trkpt lat="48.09635" lon="7.13376">
        <ele>708</ele>
        <time>2019-04-12T14:26:54Z</time>
      </trkpt>
      <trkpt lat="48.09635" lon="7.13368">
        <ele>708</ele>
        <time>2019-04-12T14:27:54Z</time>
      </trkpt>
      <trkpt lat="48.09635" lon="7.13361">
        <ele>709</ele>
        <time>2019-04-12T14:28:54Z</time>
      </trkpt>
      <trkpt lat="48.09639" lon="7.13353">
        <ele>709</ele>
        <time>2019-04-12T14:29:54Z</time>
      </trkpt>
      <trkpt lat="48.0964" lon="7.13349">
        <ele>709</ele>
        <time>2019-04-12T14:30:54Z</time>
      </trkpt>
      <trkpt lat="48.09643" lon="7.13345">
        <ele>709</ele>
        <time>2019-04-12T14:31:54Z</time>
      </trkpt>
      <trkpt lat="48.09649" lon="7.13342">
        <ele>709</ele>
        <time>2019-04-12T14:32:54Z</time>
      </trkpt>
      <trkpt lat="48.09654" lon="7.13342">
        <ele>709</ele>
        <time>2019-04-12T14:33:54Z</time>
      </trkpt>
      <trkpt lat="48.09658" lon="7.13343">
        <ele>709</ele>
        <time>2019-04-12T14:34:54Z</time>
      </trkpt>
      <trkpt lat="48.09661" lon="7.13344">
        <ele>709</ele>
        <time>2019-04-12T14:35:54Z</time>
      </trkpt>
      <trkpt lat="48.09667" lon="7.13351">
        <ele>708</ele>
        <time>2019-04-12T14:36:54Z</time>
      </trkpt>
      <trkpt lat="48.09672" lon="7.13358">
        <ele>709</ele>
        <time>2019-04-12T14:37:54Z</time>
      </trkpt>
      <trkpt lat="48.09679" lon="7.13371">
        <ele>709</ele>
        <time>2019-04-12T14:38:54Z</time>
      </trkpt>
      <trkpt lat="48.0968" lon="7.13375">
        <ele>709</ele>
        <time>2019-04-12T14:39:54Z</time>
      </trkpt>
      <trkpt lat="48.09693" lon="7.13409">
        <ele>709</ele>
        <time>2019-04-12T14:40:54Z</time>
      </trkpt>
      <trkpt lat="48.09705" lon="7.13441">
        <ele>709</ele>
        <time>2019-04-12T14:41:54Z</time>
      </trkpt>
      <trkpt lat="48.09718" lon="7.13477">
        <ele>708</ele>
        <time>2019-04-12T14:42:54Z</time>
      </trkpt>
      <trkpt lat="48.0973" lon="7.13509">
        <ele>708</ele>
        <time>2019-04-12T14:43:54Z</time>
      </trkpt>
      <trkpt lat="48.09736" lon="7.13523">
        <ele>707</ele>
        <time>2019-04-12T14:44:54Z</time>
      </trkpt>
      <trkpt lat="48.09738" lon="7.13526">
        <ele>707</ele>
        <time>2019-04-12T14:45:54Z</time>
      </trkpt>
      <trkpt lat="48.09745" lon="7.13539">
        <ele>707</ele>
        <time>2019-04-12T14:46:54Z</time>
      </trkpt>
      <trkpt lat="48.09752" lon="7.13546">
        <ele>707</ele>
        <time>2019-04-12T14:47:54Z</time>
      </trkpt>
      <trkpt lat="48.09763" lon="7.13555">
        <ele>707</ele>
        <time>2019-04-12T14:48:54Z</time>
      </trkpt>
      <trkpt lat="48.09786" lon="7.13565">
        <ele>708</ele>
        <time>2019-04-12T14:49:54Z</time>
      </trkpt>
      <trkpt lat="48.098" lon="7.13574">
        <ele>709</ele>
        <time>2019-04-12T14:50:54Z</time>
      </trkpt>
      <trkpt lat="48.09809" lon="7.13579">
        <ele>709</ele>
        <time>2019-04-12T14:51:54Z</time>
      </trkpt>
      <trkpt lat="48.09817" lon="7.13581">
        <ele>710</ele>
        <time>2019-04-12T14:52:54Z</time>
      </trkpt>
      <trkpt lat="48.09821" lon="7.1358">
        <ele>710</ele>
        <time>2019-04-12T14:53:54Z</time>
      </trkpt>
      <trkpt lat="48.09827" lon="7.13577">
        <ele>711</ele>
        <time>2019-04-12T14:54:54Z</time>
      </trkpt>
      <trkpt lat="48.09831" lon="7.13573">
        <ele>712</ele>
        <time>2019-04-12T14:55:54Z</time>
      </trkpt>
      <trkpt lat="48.09838" lon="7.13561">
        <ele>712</ele>
        <time>2019-04-12T14:56:54Z</time>
      </trkpt>
      <trkpt lat="48.09844" lon="7.13546">
        <ele>712</ele>
        <time>2019-04-12T14:57:54Z</time>
      </trkpt>
      <trkpt lat="48.09848" lon="7.13529">
        <ele>713</ele>
        <time>2019-04-12T14:58:54Z</time>
      </trkpt>
      <trkpt lat="48.09853" lon="7.13503">
        <ele>716</ele>
        <time>2019-04-12T14:59:54Z</time>
      </trkpt>
      <trkpt lat="48.09859" lon="7.13477">
        <ele>717</ele>
        <time>2019-04-12T15:00:54Z</time>
      </trkpt>
      <trkpt lat="48.09864" lon="7.13459">
        <ele>718</ele>
        <time>2019-04-12T15:01:54Z</time>
      </trkpt>
      <trkpt lat="48.09874" lon="7.13437">
        <ele>720</ele>
        <time>2019-04-12T15:02:54Z</time>
      </trkpt>
      <trkpt lat="48.09887" lon="7.13424">
        <ele>721</ele>
        <time>2019-04-12T15:03:54Z</time>
      </trkpt>
      <trkpt lat="48.09901" lon="7.13413">
        <ele>722</ele>
        <time>2019-04-12T15:04:54Z</time>
      </trkpt>
      <trkpt lat="48.09918" lon="7.13405">
        <ele>722</ele>
        <time>2019-04-12T15:05:54Z</time>
      </trkpt>
      <trkpt lat="48.09939" lon="7.13398">
        <ele>723</ele>
        <time>2019-04-12T15:06:54Z</time>
      </trkpt>
      <trkpt lat="48.09964" lon="7.13392">
        <ele>723</ele>
        <time>2019-04-12T15:07:54Z</time>
      </trkpt>
      <trkpt lat="48.09982" lon="7.13385">
        <ele>724</ele>
        <time>2019-04-12T15:08:54Z</time>
      </trkpt>
      <trkpt lat="48.09998" lon="7.13376">
        <ele>725</ele>
        <time>2019-04-12T15:09:54Z</time>
      </trkpt>
      <trkpt lat="48.10014" lon="7.13365">
        <ele>725</ele>
        <time>2019-04-12T15:10:54Z</time>
      </trkpt>
      <trkpt lat="48.1003" lon="7.13348">
        <ele>725</ele>
        <time>2019-04-12T15:11:54Z</time>
      </trkpt>
      <trkpt lat="48.10048" lon="7.13326">
        <ele>725</ele>
        <time>2019-04-12T15:12:54Z</time>
      </trkpt>
      <trkpt lat="48.10063" lon="7.13308">
        <ele>726</ele>
        <time>2019-04-12T15:13:54Z</time>
      </trkpt>
      <trkpt lat="48.10087" lon="7.13282">
        <ele>727</ele>
        <time>2019-04-12T15:14:54Z</time>
      </trkpt>
      <trkpt lat="48.10118" lon="7.13255">
        <ele>732</ele>
        <time>2019-04-12T15:15:54Z</time>
      </trkpt>
      <trkpt lat="48.1013" lon="7.13242">
        <ele>733</ele>
        <time>2019-04-12T15:16:54Z</time>
      </trkpt>
      <trkpt lat="48.10133" lon="7.1324">
        <ele>733</ele>
        <time>2019-04-12T15:17:54Z</time>
      </trkpt>
      <trkpt lat="48.10149" lon="7.13228">
        <ele>734</ele>
        <time>2019-04-12T15:18:54Z</time>
      </trkpt>
      <trkpt lat="48.10159" lon="7.13223">
        <ele>734</ele>
        <time>2019-04-12T15:19:54Z</time>
      </trkpt>
      <trkpt lat="48.10169" lon="7.13218">
        <ele>735</ele>
        <time>2019-04-12T15:20:54Z</time>
      </trkpt>
      <trkpt lat="48.10193" lon="7.13216">
        <ele>735</ele>
        <time>2019-04-12T15:21:54Z</time>
      </trkpt>
      <trkpt lat="48.10215" lon="7.1321">
        <ele>736</ele>
        <time>2019-04-12T15:22:54Z</time>
      </trkpt>
      <trkpt lat="48.10228" lon="7.13206">
        <ele>737</ele>
        <time>2019-04-12T15:23:54Z</time>
      </trkpt>
      <trkpt lat="48.10242" lon="7.13199">
        <ele>738</ele>
        <time>2019-04-12T15:24:54Z</time>
      </trkpt>
      <trkpt lat="48.10256" lon="7.13186">
        <ele>741</ele>
        <time>2019-04-12T15:25:54Z</time>
      </trkpt>
      <trkpt lat="48.10271" lon="7.13168">
        <ele>744</ele>
        <time>2019-04-12T15:26:54Z</time>
      </trkpt>
      <trkpt lat="48.10294" lon="7.13144">
        <ele>746</ele>
        <time>2019-04-12T15:27:54Z</time>
      </trkpt>
      <trkpt lat="48.103" lon="7.13138">
        <ele>746</ele>
        <time>2019-04-12T15:28:54Z</time>
      </trkpt>
      <trkpt lat="48.10306" lon="7.13132">
        <ele>746</ele>
        <time>2019-04-12T15:29:54Z</time>
      </trkpt>
      <trkpt lat="48.10318" lon="7.13116">
        <ele>747</ele>
        <time>2019-04-12T15:30:54Z</time>
      </trkpt>
      <trkpt lat="48.10331" lon="7.13102">
        <ele>748</ele>
        <time>2019-04-12T15:31:54Z</time>
      </trkpt>
      <trkpt lat="48.10346" lon="7.13081">
        <ele>748</ele>
        <time>2019-04-12T15:32:54Z</time>
      </trkpt>
      <trkpt lat="48.10357" lon="7.13064">
        <ele>748</ele>
        <time>2019-04-12T15:33:54Z</time>
      </trkpt>
      <trkpt lat="48.10365" lon="7.13049">
        <ele>748</ele>
        <time>2019-04-12T15:34:54Z</time>
      </trkpt>
      <trkpt lat="48.10373" lon="7.13033">
        <ele>749</ele>
        <time>2019-04-12T15:35:54Z</time>
      </trkpt>
      <trkpt lat="48.10381" lon="7.13015">
        <ele>749</ele>
        <time>2019-04-12T15:36:54Z</time>
      </trkpt>
      <trkpt lat="48.10394" lon="7.12983">
        <ele>750</ele>
        <time>2019-04-12T15:37:54Z</time>
      </trkpt>
      <trkpt lat="48.10403" lon="7.12956">
        <ele>752</ele>
        <time>2019-04-12T15:38:54Z</time>
      </trkpt>
      <trkpt lat="48.10412" lon="7.1293">
        <ele>754</ele>
        <time>2019-04-12T15:39:54Z</time>
      </trkpt>
      <trkpt lat="48.10413" lon="7.12927">
        <ele>754</ele>
        <time>2019-04-12T15:40:54Z</time>
      </trkpt>
      <trkpt lat="48.10422" lon="7.12896">
        <ele>755</ele>
        <time>2019-04-12T15:41:54Z</time>
      </trkpt>
      <trkpt lat="48.10422" lon="7.12894">
        <ele>755</ele>
        <time>2019-04-12T15:42:54Z</time>
      </trkpt>
      <trkpt lat="48.10429" lon="7.12873">
        <ele>756</ele>
        <time>2019-04-12T15:43:54Z</time>
      </trkpt>
      <trkpt lat="48.10431" lon="7.12863">
        <ele>757</ele>
        <time>2019-04-12T15:44:54Z</time>
      </trkpt>
      <trkpt lat="48.10436" lon="7.12846">
        <ele>758</ele>
        <time>2019-04-12T15:45:54Z</time>
      </trkpt>
      <trkpt lat="48.1044" lon="7.12833">
        <ele>759</ele>
        <time>2019-04-12T15:46:54Z</time>
      </trkpt>
      <trkpt lat="48.10445" lon="7.12823">
        <ele>760</ele>
        <time>2019-04-12T15:47:54Z</time>
      </trkpt>
      <trkpt lat="48.10453" lon="7.12811">
        <ele>761</ele>
        <time>2019-04-12T15:48:54Z</time>
      </trkpt>
      <trkpt lat="48.10455" lon="7.12809">
        <ele>761</ele>
        <time>2019-04-12T15:49:54Z</time>
      </trkpt>
      <trkpt lat="48.10465" lon="7.12799">
        <ele>762</ele>
        <time>2019-04-12T15:50:54Z</time>
      </trkpt>
      <trkpt lat="48.10496" lon="7.12775">
        <ele>766</ele>
        <time>2019-04-12T15:51:54Z</time>
      </trkpt>
      <trkpt lat="48.10531" lon="7.12749">
        <ele>769</ele>
        <time>2019-04-12T15:52:54Z</time>
      </trkpt>
      <trkpt lat="48.10563" lon="7.12725">
        <ele>770</ele>
        <time>2019-04-12T15:53:54Z</time>
      </trkpt>
      <trkpt lat="48.10588" lon="7.12707">
        <ele>772</ele>
        <time>2019-04-12T15:54:54Z</time>
      </trkpt>
      <trkpt lat="48.10606" lon="7.12693">
        <ele>774</ele>
        <time>2019-04-12T15:55:54Z</time>
      </trkpt>
      <trkpt lat="48.10624" lon="7.12672">
        <ele>775</ele>
        <time>2019-04-12T15:56:54Z</time>
      </trkpt>
      <trkpt lat="48.10634" lon="7.12656">
        <ele>776</ele>
        <time>2019-04-12T15:57:54Z</time>
      </trkpt>
      <trkpt lat="48.10643" lon="7.12633">
        <ele>777</ele>
        <time>2019-04-12T15:58:54Z</time>
      </trkpt>
      <trkpt lat="48.10652" lon="7.12606">
        <ele>779</ele>
        <time>2019-04-12T15:59:54Z</time>
      </trkpt>
      <trkpt lat="48.10653" lon="7.12591">
        <ele>779</ele>
        <time>2019-04-12T16:00:54Z</time>
      </trkpt>
      <trkpt lat="48.10653" lon="7.12567">
        <ele>780</ele>
        <time>2019-04-12T16:01:54Z</time>
      </trkpt>
      <trkpt lat="48.10651" lon="7.12549">
        <ele>781</ele>
        <time>2019-04-12T16:02:54Z</time>
      </trkpt>
      <trkpt lat="48.10648" lon="7.12531">
        <ele>782</ele>
        <time>2019-04-12T16:03:54Z</time>
      </trkpt>
      <trkpt lat="48.10643" lon="7.12509">
        <ele>782</ele>
        <time>2019-04-12T16:04:54Z</time>
      </trkpt>
      <trkpt lat="48.10637" lon="7.12485">
        <ele>782</ele>
        <time>2019-04-12T16:05:54Z</time>
      </trkpt>
      <trkpt lat="48.1063" lon="7.1246">
        <ele>780</ele>
        <time>2019-04-12T16:06:54Z</time>
      </trkpt>
      <trkpt lat="48.10623" lon="7.1243">
        <ele>780</ele>
        <time>2019-04-12T16:07:54Z</time>
      </trkpt>
      <trkpt lat="48.10615" lon="7.12395">
        <ele>779</ele>
        <time>2019-04-12T16:08:54Z</time>
      </trkpt>
      <trkpt lat="48.1061" lon="7.12369">
        <ele>780</ele>
        <time>2019-04-12T16:09:54Z</time>
      </trkpt>
      <trkpt lat="48.10598" lon="7.12321">
        <ele>780</ele>
        <time>2019-04-12T16:10:54Z</time>
      </trkpt>
      <trkpt lat="48.1059" lon="7.12292">
        <ele>781</ele>
        <time>2019-04-12T16:11:54Z</time>
      </trkpt>
      <trkpt lat="48.10582" lon="7.12272">
        <ele>781</ele>
        <time>2019-04-12T16:12:54Z</time>
      </trkpt>
      <trkpt lat="48.10579" lon="7.12268">
        <ele>782</ele>
        <time>2019-04-12T16:13:54Z</time>
      </trkpt>
      <trkpt lat="48.10579" lon="7.12268">
        <ele>782</ele>
        <time>2019-04-12T16:14:54Z</time>
      </trkpt>
      <trkpt lat="48.10574" lon="7.12268">
        <ele>782</ele>
        <time>2019-04-12T16:15:54Z</time>
      </trkpt>
      <trkpt lat="48.1057" lon="7.12271">
        <ele>782</ele>
        <time>2019-04-12T16:16:54Z</time>
      </trkpt>
      <trkpt lat="48.10554" lon="7.12283">
        <ele>782</ele>
        <time>2019-04-12T16:17:54Z</time>
      </trkpt>
      <trkpt lat="48.10524" lon="7.1231">
        <ele>781</ele>
        <time>2019-04-12T16:18:54Z</time>
      </trkpt>
      <trkpt lat="48.10483" lon="7.12347">
        <ele>782</ele>
        <time>2019-04-12T16:19:54Z</time>
      </trkpt>
      <trkpt lat="48.10462" lon="7.12365">
        <ele>784</ele>
        <time>2019-04-12T16:20:54Z</time>
      </trkpt>
      <trkpt lat="48.1045" lon="7.12373">
        <ele>785</ele>
        <time>2019-04-12T16:21:54Z</time>
      </trkpt>
      <trkpt lat="48.10437" lon="7.12378">
        <ele>786</ele>
        <time>2019-04-12T16:22:54Z</time>
      </trkpt>
      <trkpt lat="48.10419" lon="7.12384">
        <ele>789</ele>
        <time>2019-04-12T16:23:54Z</time>
      </trkpt>
      <trkpt lat="48.10396" lon="7.12388">
        <ele>790</ele>
        <time>2019-04-12T16:24:54Z</time>
      </trkpt>
      <trkpt lat="48.10375" lon="7.12391">
        <ele>790</ele>
        <time>2019-04-12T16:25:54Z</time>
      </trkpt>
      <trkpt lat="48.10356" lon="7.12398">
        <ele>791</ele>
        <time>2019-04-12T16:26:54Z</time>
      </trkpt>
      <trkpt lat="48.10338" lon="7.12413">
        <ele>790</ele>
        <time>2019-04-12T16:27:54Z</time>
      </trkpt>
      <trkpt lat="48.10316" lon="7.12435">
        <ele>790</ele>
        <time>2019-04-12T16:28:54Z</time>
      </trkpt>
      <trkpt lat="48.10296" lon="7.12458">
        <ele>791</ele>
        <time>2019-04-12T16:29:54Z</time>
      </trkpt>
      <trkpt lat="48.10271" lon="7.12487">
        <ele>793</ele>
        <time>2019-04-12T16:30:54Z</time>
      </trkpt>
      <trkpt lat="48.10254" lon="7.12512">
        <ele>796</ele>
        <time>2019-04-12T16:31:54Z</time>
      </trkpt>
      <trkpt lat="48.10245" lon="7.12529">
        <ele>798</ele>
        <time>2019-04-12T16:32:54Z</time>
      </trkpt>
      <trkpt lat="48.10234" lon="7.12554">
        <ele>801</ele>
        <time>2019-04-12T16:33:54Z</time>
      </trkpt>
      <trkpt lat="48.10221" lon="7.12585">
        <ele>805</ele>
        <time>2019-04-12T16:34:54Z</time>
      </trkpt>
      <trkpt lat="48.10212" lon="7.12606">
        <ele>807</ele>
        <time>2019-04-12T16:35:54Z</time>
      </trkpt>
      <trkpt lat="48.10211" lon="7.12608">
        <ele>807</ele>
        <time>2019-04-12T16:36:54Z</time>
      </trkpt>
      <trkpt lat="48.10204" lon="7.12648">
        <ele>808</ele>
        <time>2019-04-12T16:37:54Z</time>
      </trkpt>
      <trkpt lat="48.10194" lon="7.12694">
        <ele>809</ele>
        <time>2019-04-12T16:38:54Z</time>
      </trkpt>
      <trkpt lat="48.10181" lon="7.12745">
        <ele>810</ele>
        <time>2019-04-12T16:39:54Z</time>
      </trkpt>
      <trkpt lat="48.10165" lon="7.12803">
        <ele>813</ele>
        <time>2019-04-12T16:40:54Z</time>
      </trkpt>
      <trkpt lat="48.1015" lon="7.12851">
        <ele>815</ele>
        <time>2019-04-12T16:41:54Z</time>
      </trkpt>
      <trkpt lat="48.10137" lon="7.12886">
        <ele>814</ele>
        <time>2019-04-12T16:42:54Z</time>
      </trkpt>
      <trkpt lat="48.10127" lon="7.12907">
        <ele>814</ele>
        <time>2019-04-12T16:43:54Z</time>
      </trkpt>
      <trkpt lat="48.10119" lon="7.12919">
        <ele>814</ele>
        <time>2019-04-12T16:44:54Z</time>
      </trkpt>
      <trkpt lat="48.10109" lon="7.12928">
        <ele>814</ele>
        <time>2019-04-12T16:45:54Z</time>
      </trkpt>
      <trkpt lat="48.10102" lon="7.12933">
        <ele>814</ele>
        <time>2019-04-12T16:46:54Z</time>
      </trkpt>
      <trkpt lat="48.10096" lon="7.12936">
        <ele>815</ele>
        <time>2019-04-12T16:47:54Z</time>
      </trkpt>
      <trkpt lat="48.10088" lon="7.12938">
        <ele>816</ele>
        <time>2019-04-12T16:48:54Z</time>
      </trkpt>
      <trkpt lat="48.10077" lon="7.12942">
        <ele>816</ele>
        <time>2019-04-12T16:49:54Z</time>
      </trkpt>
      <trkpt lat="48.10058" lon="7.12946">
        <ele>818</ele>
        <time>2019-04-12T16:50:54Z</time>
      </trkpt>
      <trkpt lat="48.10042" lon="7.12948">
        <ele>819</ele>
        <time>2019-04-12T16:51:54Z</time>
      </trkpt>
      <trkpt lat="48.10031" lon="7.12952">
        <ele>819</ele>
        <time>2019-04-12T16:52:54Z</time>
      </trkpt>
      <trkpt lat="48.10022" lon="7.12959">
        <ele>818</ele>
        <time>2019-04-12T16:53:54Z</time>
      </trkpt>
      <trkpt lat="48.10009" lon="7.1297">
        <ele>817</ele>
        <time>2019-04-12T16:54:54Z</time>
      </trkpt>
      <trkpt lat="48.10003" lon="7.12974">
        <ele>817</ele>
        <time>2019-04-12T16:55:54Z</time>
      </trkpt>
      <trkpt lat="48.09995" lon="7.12976">
        <ele>816</ele>
        <time>2019-04-12T16:56:54Z</time>
      </trkpt>
      <trkpt lat="48.09975" lon="7.12979">
        <ele>815</ele>
        <time>2019-04-12T16:57:54Z</time>
      </trkpt>
      <trkpt lat="48.09955" lon="7.12975">
        <ele>816</ele>
        <time>2019-04-12T16:58:54Z</time>
      </trkpt>
      <trkpt lat="48.09932" lon="7.12966">
        <ele>817</ele>
        <time>2019-04-12T16:59:54Z</time>
      </trkpt>
      <trkpt lat="48.0992" lon="7.12961">
        <ele>818</ele>
        <time>2019-04-12T17:00:54Z</time>
      </trkpt>
      <trkpt lat="48.09911" lon="7.12953">
        <ele>818</ele>
        <time>2019-04-12T17:01:54Z</time>
      </trkpt>
      <trkpt lat="48.09899" lon="7.12944">
        <ele>818</ele>
        <time>2019-04-12T17:02:54Z</time>
      </trkpt>
      <trkpt lat="48.09891" lon="7.12931">
        <ele>819</ele>
        <time>2019-04-12T17:03:54Z</time>
      </trkpt>
      <trkpt lat="48.09873" lon="7.12894">
        <ele>822</ele>
        <time>2019-04-12T17:04:54Z</time>
      </trkpt>
      <trkpt lat="48.09848" lon="7.12837">
        <ele>824</ele>
        <time>2019-04-12T17:05:54Z</time>
      </trkpt>
      <trkpt lat="48.09834" lon="7.12803">
        <ele>824</ele>
        <time>2019-04-12T17:06:54Z</time>
      </trkpt>
      <trkpt lat="48.09822" lon="7.12765">
        <ele>825</ele>
        <time>2019-04-12T17:07:54Z</time>
      </trkpt>
      <trkpt lat="48.09809" lon="7.12722">
        <ele>827</ele>
        <time>2019-04-12T17:08:54Z</time>
      </trkpt>
      <trkpt lat="48.09798" lon="7.12696">
        <ele>828</ele>
        <time>2019-04-12T17:09:54Z</time>
      </trkpt>
      <trkpt lat="48.09788" lon="7.12674">
        <ele>829</ele>
        <time>2019-04-12T17:10:54Z</time>
      </trkpt>
      <trkpt lat="48.0977" lon="7.12635">
        <ele>830</ele>
        <time>2019-04-12T17:11:54Z</time>
      </trkpt>
      <trkpt lat="48.09752" lon="7.12593">
        <ele>833</ele>
        <time>2019-04-12T17:12:54Z</time>
      </trkpt>
      <trkpt lat="48.09727" lon="7.12533">
        <ele>834</ele>
        <time>2019-04-12T17:13:54Z</time>
      </trkpt>
      <trkpt lat="48.09709" lon="7.12489">
        <ele>835</ele>
        <time>2019-04-12T17:14:54Z</time>
      </trkpt>
      <trkpt lat="48.09693" lon="7.12452">
        <ele>836</ele>
        <time>2019-04-12T17:15:54Z</time>
      </trkpt>
      <trkpt lat="48.09675" lon="7.12418">
        <ele>835</ele>
        <time>2019-04-12T17:16:54Z</time>
      </trkpt>
      <trkpt lat="48.09662" lon="7.12394">
        <ele>834</ele>
        <time>2019-04-12T17:17:54Z</time>
      </trkpt>
      <trkpt lat="48.09648" lon="7.12354">
        <ele>833</ele>
        <time>2019-04-12T17:18:54Z</time>
      </trkpt>
      <trkpt lat="48.09638" lon="7.12315">
        <ele>833</ele>
        <time>2019-04-12T17:19:54Z</time>
      </trkpt>
      <trkpt lat="48.09629" lon="7.12275">
        <ele>833</ele>
        <time>2019-04-12T17:20:54Z</time>
      </trkpt>
      <trkpt lat="48.09623" lon="7.12251">
        <ele>832</ele>
        <time>2019-04-12T17:21:54Z</time>
      </trkpt>
      <trkpt lat="48.09621" lon="7.12241">
        <ele>833</ele>
        <time>2019-04-12T17:22:54Z</time>
      </trkpt>
      <trkpt lat="48.09612" lon="7.12201">
        <ele>835</ele>
        <time>2019-04-12T17:23:54Z</time>
      </trkpt>
      <trkpt lat="48.09604" lon="7.12165">
        <ele>838</ele>
        <time>2019-04-12T17:24:54Z</time>
      </trkpt>
      <trkpt lat="48.09595" lon="7.12129">
        <ele>839</ele>
        <time>2019-04-12T17:25:54Z</time>
      </trkpt>
      <trkpt lat="48.09587" lon="7.12096">
        <ele>841</ele>
        <time>2019-04-12T17:26:54Z</time>
      </trkpt>
      <trkpt lat="48.09578" lon="7.12051">
        <ele>841</ele>
        <time>2019-04-12T17:27:54Z</time>
      </trkpt>
      <trkpt lat="48.0957" lon="7.12015">
        <ele>841</ele>
        <time>2019-04-12T17:28:54Z</time>
      </trkpt>
      <trkpt lat="48.09562" lon="7.11965">
        <ele>841</ele>
        <time>2019-04-12T17:29:54Z</time>
      </trkpt>
      <trkpt lat="48.09557" lon="7.1194">
        <ele>841</ele>
        <time>2019-04-12T17:30:54Z</time>
      </trkpt>
      <trkpt lat="48.09554" lon="7.11922">
        <ele>841</ele>
        <time>2019-04-12T17:31:54Z</time>
      </trkpt>
      <trkpt lat="48.09546" lon="7.11884">
        <ele>844</ele>
        <time>2019-04-12T17:32:54Z</time>
      </trkpt>
      <trkpt lat="48.0954" lon="7.11855">
        <ele>847</ele>
        <time>2019-04-12T17:33:54Z</time>
      </trkpt>
      <trkpt lat="48.09536" lon="7.1184">
        <ele>849</ele>
        <time>2019-04-12T17:34:54Z</time>
      </trkpt>
      <trkpt lat="48.0953" lon="7.11827">
        <ele>851</ele>
        <time>2019-04-12T17:35:54Z</time>
      </trkpt>
      <trkpt lat="48.09521" lon="7.11818">
        <ele>852</ele>
        <time>2019-04-12T17:36:54Z</time>
      </trkpt>
      <trkpt lat="48.09512" lon="7.11814">
        <ele>853</ele>
        <time>2019-04-12T17:37:54Z</time>
      </trkpt>
      <trkpt lat="48.09506" lon="7.11813">
        <ele>854</ele>
        <time>2019-04-12T17:38:54Z</time>
      </trkpt>
      <trkpt lat="48.09498" lon="7.11815">
        <ele>854</ele>
        <time>2019-04-12T17:39:54Z</time>
      </trkpt>
      <trkpt lat="48.09489" lon="7.11819">
        <ele>856</ele>
        <time>2019-04-12T17:40:54Z</time>
      </trkpt>
      <trkpt lat="48.09473" lon="7.11834">
        <ele>860</ele>
        <time>2019-04-12T17:41:54Z</time>
      </trkpt>
      <trkpt lat="48.09454" lon="7.11853">
        <ele>863</ele>
        <time>2019-04-12T17:42:54Z</time>
      </trkpt>
      <trkpt lat="48.09443" lon="7.11868">
        <ele>864</ele>
        <time>2019-04-12T17:43:54Z</time>
      </trkpt>
      <trkpt lat="48.09434" lon="7.11883">
        <ele>865</ele>
        <time>2019-04-12T17:44:54Z</time>
      </trkpt>
      <trkpt lat="48.09427" lon="7.11898">
        <ele>866</ele>
        <time>2019-04-12T17:45:54Z</time>
      </trkpt>
      <trkpt lat="48.09419" lon="7.11921">
        <ele>866</ele>
        <time>2019-04-12T17:46:54Z</time>
      </trkpt>
      <trkpt lat="48.09408" lon="7.1195">
        <ele>865</ele>
        <time>2019-04-12T17:47:54Z</time>
      </trkpt>
      <trkpt lat="48.09402" lon="7.11968">
        <ele>865</ele>
        <time>2019-04-12T17:48:54Z</time>
      </trkpt>
      <trkpt lat="48.09396" lon="7.11994">
        <ele>863</ele>
        <time>2019-04-12T17:49:54Z</time>
      </trkpt>
      <trkpt lat="48.09392" lon="7.12019">
        <ele>863</ele>
        <time>2019-04-12T17:50:54Z</time>
      </trkpt>
      <trkpt lat="48.09389" lon="7.12045">
        <ele>862</ele>
        <time>2019-04-12T17:51:54Z</time>
      </trkpt>
      <trkpt lat="48.09387" lon="7.12069">
        <ele>860</ele>
        <time>2019-04-12T17:52:54Z</time>
      </trkpt>
      <trkpt lat="48.09383" lon="7.12093">
        <ele>860</ele>
        <time>2019-04-12T17:53:54Z</time>
      </trkpt>
      <trkpt lat="48.09378" lon="7.12113">
        <ele>861</ele>
        <time>2019-04-12T17:54:54Z</time>
      </trkpt>
      <trkpt lat="48.09369" lon="7.12138">
        <ele>862</ele>
        <time>2019-04-12T17:55:54Z</time>
      </trkpt>
      <trkpt lat="48.09359" lon="7.12168">
        <ele>864</ele>
        <time>2019-04-12T17:56:54Z</time>
      </trkpt>
      <trkpt lat="48.09351" lon="7.12191">
        <ele>864</ele>
        <time>2019-04-12T17:57:54Z</time>
      </trkpt>
      <trkpt lat="48.09343" lon="7.12209">
        <ele>864</ele>
        <time>2019-04-12T17:58:54Z</time>
      </trkpt>
      <trkpt lat="48.09339" lon="7.12219">
        <ele>864</ele>
        <time>2019-04-12T17:59:54Z</time>
      </trkpt>
      <trkpt lat="48.09337" lon="7.12224">
        <ele>864</ele>
        <time>2019-04-12T18:00:54Z</time>
      </trkpt>
      <trkpt lat="48.09335" lon="7.12228">
        <ele>864</ele>
        <time>2019-04-12T18:01:54Z</time>
      </trkpt>
      <trkpt lat="48.09317" lon="7.12255">
        <ele>863</ele>
        <time>2019-04-12T18:02:54Z</time>
      </trkpt>
      <trkpt lat="48.09308" lon="7.12266">
        <ele>863</ele>
        <time>2019-04-12T18:03:54Z</time>
      </trkpt>
      <trkpt lat="48.09301" lon="7.12274">
        <ele>863</ele>
        <time>2019-04-12T18:04:54Z</time>
      </trkpt>
      <trkpt lat="48.09292" lon="7.12281">
        <ele>863</ele>
        <time>2019-04-12T18:05:54Z</time>
      </trkpt>
      <trkpt lat="48.09282" lon="7.12289">
        <ele>863</ele>
        <time>2019-04-12T18:06:54Z</time>
      </trkpt>
      <trkpt lat="48.09275" lon="7.12293">
        <ele>863</ele>
        <time>2019-04-12T18:07:54Z</time>
      </trkpt>
      <trkpt lat="48.09258" lon="7.12302">
        <ele>864</ele>
        <time>2019-04-12T18:08:54Z</time>
      </trkpt>
      <trkpt lat="48.09247" lon="7.12308">
        <ele>864</ele>
        <time>2019-04-12T18:09:54Z</time>
      </trkpt>
      <trkpt lat="48.09235" lon="7.12312">
        <ele>862</ele>
        <time>2019-04-12T18:10:54Z</time>
      </trkpt>
      <trkpt lat="48.09227" lon="7.12312">
        <ele>861</ele>
        <time>2019-04-12T18:11:54Z</time>
      </trkpt>
      <trkpt lat="48.09216" lon="7.1231">
        <ele>860</ele>
        <time>2019-04-12T18:12:54Z</time>
      </trkpt>
      <trkpt lat="48.09201" lon="7.12295">
        <ele>860</ele>
        <time>2019-04-12T18:13:54Z</time>
      </trkpt>
      <trkpt lat="48.09193" lon="7.12283">
        <ele>861</ele>
        <time>2019-04-12T18:14:54Z</time>
      </trkpt>
      <trkpt lat="48.09185" lon="7.12269">
        <ele>862</ele>
        <time>2019-04-12T18:15:54Z</time>
      </trkpt>
      <trkpt lat="48.09178" lon="7.12254">
        <ele>863</ele>
        <time>2019-04-12T18:16:54Z</time>
      </trkpt>
      <trkpt lat="48.09171" lon="7.12226">
        <ele>864</ele>
        <time>2019-04-12T18:17:54Z</time>
      </trkpt>
      <trkpt lat="48.09166" lon="7.12195">
        <ele>866</ele>
        <time>2019-04-12T18:18:54Z</time>
      </trkpt>
      <trkpt lat="48.0916" lon="7.12165">
        <ele>867</ele>
        <time>2019-04-12T18:19:54Z</time>
      </trkpt>
      <trkpt lat="48.09155" lon="7.12128">
        <ele>868</ele>
        <time>2019-04-12T18:20:54Z</time>
      </trkpt>
      <trkpt lat="48.0915" lon="7.12086">
        <ele>870</ele>
        <time>2019-04-12T18:21:54Z</time>
      </trkpt>
      <trkpt lat="48.09145" lon="7.12041">
        <ele>871</ele>
        <time>2019-04-12T18:22:54Z</time>
      </trkpt>
      <trkpt lat="48.0914" lon="7.12003">
        <ele>872</ele>
        <time>2019-04-12T18:23:54Z</time>
      </trkpt>
      <trkpt lat="48.09134" lon="7.11944">
        <ele>877</ele>
        <time>2019-04-12T18:24:54Z</time>
      </trkpt>
      <trkpt lat="48.09131" lon="7.11901">
        <ele>882</ele>
        <time>2019-04-12T18:25:54Z</time>
      </trkpt>
      <trkpt lat="48.09128" lon="7.11874">
        <ele>886</ele>
        <time>2019-04-12T18:26:54Z</time>
      </trkpt>
      <trkpt lat="48.09126" lon="7.11866">
        <ele>887</ele>
        <time>2019-04-12T18:27:54Z</time>
      </trkpt>
      <trkpt lat="48.09125" lon="7.11859">
        <ele>888</ele>
        <time>2019-04-12T18:28:54Z</time>
      </trkpt>
      <trkpt lat="48.09121" lon="7.11854">
        <ele>889</ele>
        <time>2019-04-12T18:29:54Z</time>
      </trkpt>
      <trkpt lat="48.09114" lon="7.11846">
        <ele>889</ele>
        <time>2019-04-12T18:30:54Z</time>
      </trkpt>
      <trkpt lat="48.09109" lon="7.11842">
        <ele>890</ele>
        <time>2019-04-12T18:31:54Z</time>
      </trkpt>
      <trkpt lat="48.09099" lon="7.11841">
        <ele>889</ele>
        <time>2019-04-12T18:32:54Z</time>
      </trkpt>
      <trkpt lat="48.09075" lon="7.1184">
        <ele>887</ele>
        <time>2019-04-12T18:33:54Z</time>
      </trkpt>
      <trkpt lat="48.0905" lon="7.11838">
        <ele>886</ele>
        <time>2019-04-12T18:34:54Z</time>
      </trkpt>
      <trkpt lat="48.09026" lon="7.11834">
        <ele>885</ele>
        <time>2019-04-12T18:35:54Z</time>
      </trkpt>
      <trkpt lat="48.09008" lon="7.11828">
        <ele>885</ele>
        <time>2019-04-12T18:36:54Z</time>
      </trkpt>
      <trkpt lat="48.09001" lon="7.11824">
        <ele>885</ele>
        <time>2019-04-12T18:37:54Z</time>
      </trkpt>
      <trkpt lat="48.08984" lon="7.11813">
        <ele>887</ele>
        <time>2019-04-12T18:38:54Z</time>
      </trkpt>
      <trkpt lat="48.08958" lon="7.11796">
        <ele>888</ele>
        <time>2019-04-12T18:39:54Z</time>
      </trkpt>
      <trkpt lat="48.08939" lon="7.11782">
        <ele>889</ele>
        <time>2019-04-12T18:40:54Z</time>
      </trkpt>
      <trkpt lat="48.0893" lon="7.11776">
        <ele>889</ele>
        <time>2019-04-12T18:41:54Z</time>
      </trkpt>
      <trkpt lat="48.08905" lon="7.1176">
        <ele>889</ele>
        <time>2019-04-12T18:42:54Z</time>
      </trkpt>
      <trkpt lat="48.08872" lon="7.11739">
        <ele>889</ele>
        <time>2019-04-12T18:43:54Z</time>
      </trkpt>
      <trkpt lat="48.08855" lon="7.11727">
        <ele>888</ele>
        <time>2019-04-12T18:44:54Z</time>
      </trkpt>
      <trkpt lat="48.08851" lon="7.11725">
        <ele>888</ele>
        <time>2019-04-12T18:45:54Z</time>
      </trkpt>
      <trkpt lat="48.08843" lon="7.1172">
        <ele>888</ele>
        <time>2019-04-12T18:46:54Z</time>
      </trkpt>
      <trkpt lat="48.08835" lon="7.11713">
        <ele>887</ele>
        <time>2019-04-12T18:47:54Z</time>
      </trkpt>
      <trkpt lat="48.08829" lon="7.11709">
        <ele>888</ele>
        <time>2019-04-12T18:48:54Z</time>
      </trkpt>
      <trkpt lat="48.08825" lon="7.11704">
        <ele>888</ele>
        <time>2019-04-12T18:49:54Z</time>
      </trkpt>
      <trkpt lat="48.08821" lon="7.117">
        <ele>888</ele>
        <time>2019-04-12T18:50:54Z</time>
      </trkpt>
      <trkpt lat="48.08817" lon="7.11693">
        <ele>889</ele>
        <time>2019-04-12T18:51:54Z</time>
      </trkpt>
      <trkpt lat="48.08813" lon="7.11685">
        <ele>889</ele>
        <time>2019-04-12T18:52:54Z</time>
      </trkpt>
      <trkpt lat="48.08807" lon="7.11668">
        <ele>890</ele>
        <time>2019-04-12T18:53:54Z</time>
      </trkpt>
      <trkpt lat="48.08798" lon="7.11636">
        <ele>890</ele>
        <time>2019-04-12T18:54:54Z</time>
      </trkpt>
      <trkpt lat="48.08795" lon="7.11622">
        <ele>889</ele>
        <time>2019-04-12T18:55:54Z</time>
      </trkpt>
      <trkpt lat="48.0879" lon="7.116">
        <ele>889</ele>
        <time>2019-04-12T18:56:54Z</time>
      </trkpt>
      <trkpt lat="48.08785" lon="7.11573">
        <ele>888</ele>
        <time>2019-04-12T18:57:54Z</time>
      </trkpt>
      <trkpt lat="48.0878" lon="7.11542">
        <ele>886</ele>
        <time>2019-04-12T18:58:54Z</time>
      </trkpt>
      <trkpt lat="48.08777" lon="7.11523">
        <ele>885</ele>
        <time>2019-04-12T18:59:54Z</time>
      </trkpt>
      <trkpt lat="48.08775" lon="7.11505">
        <ele>884</ele>
        <time>2019-04-12T19:00:54Z</time>
      </trkpt>
      <trkpt lat="48.08775" lon="7.11486">
        <ele>882</ele>
        <time>2019-04-12T19:01:54Z</time>
      </trkpt>
      <trkpt lat="48.08775" lon="7.11474">
        <ele>881</ele>
        <time>2019-04-12T19:02:54Z</time>
      </trkpt>
      <trkpt lat="48.08776" lon="7.11462">
        <ele>880</ele>
        <time>2019-04-12T19:03:54Z</time>
      </trkpt>
      <trkpt lat="48.08778" lon="7.11444">
        <ele>878</ele>
        <time>2019-04-12T19:04:54Z</time>
      </trkpt>
      <trkpt lat="48.0878" lon="7.1143">
        <ele>877</ele>
        <time>2019-04-12T19:05:54Z</time>
      </trkpt>
      <trkpt lat="48.08786" lon="7.11386">
        <ele>876</ele>
        <time>2019-04-12T19:06:54Z</time>
      </trkpt>
      <trkpt lat="48.0879" lon="7.11354">
        <ele>875</ele>
        <time>2019-04-12T19:07:54Z</time>
      </trkpt>
      <trkpt lat="48.08791" lon="7.11342">
        <ele>875</ele>
        <time>2019-04-12T19:08:54Z</time>
      </trkpt>
      <trkpt lat="48.08792" lon="7.11329">
        <ele>875</ele>
        <time>2019-04-12T19:09:54Z</time>
      </trkpt>
      <trkpt lat="48.08791" lon="7.11318">
        <ele>875</ele>
        <time>2019-04-12T19:10:54Z</time>
      </trkpt>
      <trkpt lat="48.08789" lon="7.1131">
        <ele>875</ele>
        <time>2019-04-12T19:11:54Z</time>
      </trkpt>
      <trkpt lat="48.08786" lon="7.11305">
        <ele>874</ele>
        <time>2019-04-12T19:12:54Z</time>
      </trkpt>
      <trkpt lat="48.08783" lon="7.11302">
        <ele>873</ele>
        <time>2019-04-12T19:13:54Z</time>
      </trkpt>
      <trkpt lat="48.08779" lon="7.11299">
        <ele>873</ele>
        <time>2019-04-12T19:14:54Z</time>
      </trkpt>
      <trkpt lat="48.08775" lon="7.11299">
        <ele>872</ele>
        <time>2019-04-12T19:15:54Z</time>
      </trkpt>
      <trkpt lat="48.08772" lon="7.113">
        <ele>871</ele>
        <time>2019-04-12T19:16:54Z</time>
      </trkpt>
      <trkpt lat="48.08768" lon="7.11302">
        <ele>870</ele>
        <time>2019-04-12T19:17:54Z</time>
      </trkpt>
      <trkpt lat="48.08765" lon="7.11306">
        <ele>869</ele>
        <time>2019-04-12T19:18:54Z</time>
      </trkpt>
      <trkpt lat="48.08763" lon="7.11311">
        <ele>868</ele>
        <time>2019-04-12T19:19:54Z</time>
      </trkpt>
      <trkpt lat="48.08758" lon="7.11326">
        <ele>867</ele>
        <time>2019-04-12T19:20:54Z</time>
      </trkpt>
      <trkpt lat="48.08753" lon="7.11348">
        <ele>866</ele>
        <time>2019-04-12T19:21:54Z</time>
      </trkpt>
      <trkpt lat="48.08748" lon="7.11364">
        <ele>866</ele>
        <time>2019-04-12T19:22:54Z</time>
      </trkpt>
      <trkpt lat="48.08743" lon="7.11373">
        <ele>866</ele>
        <time>2019-04-12T19:23:54Z</time>
      </trkpt>
      <trkpt lat="48.08738" lon="7.11381">
        <ele>866</ele>
        <time>2019-04-12T19:24:54Z</time>
      </trkpt>
      <trkpt lat="48.0873" lon="7.11388">
        <ele>866</ele>
        <time>2019-04-12T19:25:54Z</time>
      </trkpt>
      <trkpt lat="48.08724" lon="7.11392">
        <ele>866</ele>
        <time>2019-04-12T19:26:54Z</time>
      </trkpt>
      <trkpt lat="48.08711" lon="7.11397">
        <ele>866</ele>
        <time>2019-04-12T19:27:54Z</time>
      </trkpt>
      <trkpt lat="48.08697" lon="7.11399">
        <ele>865</ele>
        <time>2019-04-12T19:28:54Z</time>
      </trkpt>
      <trkpt lat="48.08686" lon="7.11397">
        <ele>864</ele>
        <time>2019-04-12T19:29:54Z</time>
      </trkpt>
      <trkpt lat="48.08675" lon="7.11393">
        <ele>863</ele>
        <time>2019-04-12T19:30:54Z</time>
      </trkpt>
      <trkpt lat="48.08663" lon="7.11388">
        <ele>862</ele>
        <time>2019-04-12T19:31:54Z</time>
      </trkpt>
      <trkpt lat="48.08655" lon="7.11383">
        <ele>861</ele>
        <time>2019-04-12T19:32:54Z</time>
      </trkpt>
      <trkpt lat="48.08635" lon="7.11375">
        <ele>859</ele>
        <time>2019-04-12T19:33:54Z</time>
      </trkpt>
      <trkpt lat="48.08615" lon="7.11369">
        <ele>858</ele>
        <time>2019-04-12T19:34:54Z</time>
      </trkpt>
      <trkpt lat="48.08576" lon="7.11361">
        <ele>855</ele>
        <time>2019-04-12T19:35:54Z</time>
      </trkpt>
      <trkpt lat="48.08538" lon="7.11354">
        <ele>850</ele>
        <time>2019-04-12T19:36:54Z</time>
      </trkpt>
      <trkpt lat="48.0851" lon="7.1135">
        <ele>847</ele>
        <time>2019-04-12T19:37:54Z</time>
      </trkpt>
      <trkpt lat="48.08484" lon="7.11349">
        <ele>845</ele>
        <time>2019-04-12T19:38:54Z</time>
      </trkpt>
      <trkpt lat="48.0846" lon="7.11347">
        <ele>843</ele>
        <time>2019-04-12T19:39:54Z</time>
      </trkpt>
      <trkpt lat="48.08438" lon="7.11344">
        <ele>841</ele>
        <time>2019-04-12T19:40:54Z</time>
      </trkpt>
      <trkpt lat="48.08411" lon="7.1134">
        <ele>838</ele>
        <time>2019-04-12T19:41:54Z</time>
      </trkpt>
      <trkpt lat="48.08389" lon="7.11338">
        <ele>837</ele>
        <time>2019-04-12T19:42:54Z</time>
      </trkpt>
      <trkpt lat="48.08361" lon="7.11338">
        <ele>836</ele>
        <time>2019-04-12T19:43:54Z</time>
      </trkpt>
      <trkpt lat="48.08347" lon="7.11337">
        <ele>835</ele>
        <time>2019-04-12T19:44:54Z</time>
      </trkpt>
      <trkpt lat="48.08332" lon="7.11334">
        <ele>833</ele>
        <time>2019-04-12T19:45:54Z</time>
      </trkpt>
      <trkpt lat="48.08317" lon="7.1133">
        <ele>832</ele>
        <time>2019-04-12T19:46:54Z</time>
      </trkpt>
      <trkpt lat="48.083" lon="7.11326">
        <ele>830</ele>
        <time>2019-04-12T19:47:54Z</time>
      </trkpt>
      <trkpt lat="48.08283" lon="7.11324">
        <ele>830</ele>
        <time>2019-04-12T19:48:54Z</time>
      </trkpt>
      <trkpt lat="48.08254" lon="7.11324">
        <ele>829</ele>
        <time>2019-04-12T19:49:54Z</time>
      </trkpt>
      <trkpt lat="48.0824" lon="7.11325">
        <ele>829</ele>
        <time>2019-04-12T19:50:54Z</time>
      </trkpt>
      <trkpt lat="48.08228" lon="7.11326">
        <ele>828</ele>
        <time>2019-04-12T19:51:54Z</time>
      </trkpt>
      <trkpt lat="48.08215" lon="7.11326">
        <ele>827</ele>
        <time>2019-04-12T19:52:54Z</time>
      </trkpt>
      <trkpt lat="48.08202" lon="7.11326">
        <ele>826</ele>
        <time>2019-04-12T19:53:54Z</time>
      </trkpt>
      <trkpt lat="48.08184" lon="7.11324">
        <ele>824</ele>
        <time>2019-04-12T19:54:54Z</time>
      </trkpt>
      <trkpt lat="48.08163" lon="7.11323">
        <ele>822</ele>
        <time>2019-04-12T19:55:54Z</time>
      </trkpt>
      <trkpt lat="48.08146" lon="7.11323">
        <ele>820</ele>
        <time>2019-04-12T19:56:54Z</time>
      </trkpt>
      <trkpt lat="48.08125" lon="7.11323">
        <ele>819</ele>
        <time>2019-04-12T19:57:54Z</time>
      </trkpt>
      <trkpt lat="48.08113" lon="7.11321">
        <ele>817</ele>
        <time>2019-04-12T19:58:54Z</time>
      </trkpt>
      <trkpt lat="48.08101" lon="7.11317">
        <ele>816</ele>
        <time>2019-04-12T19:59:54Z</time>
      </trkpt>
      <trkpt lat="48.08088" lon="7.11313">
        <ele>814</ele>
        <time>2019-04-12T20:00:54Z</time>
      </trkpt>
      <trkpt lat="48.0807" lon="7.11308">
        <ele>810</ele>
        <time>2019-04-12T20:01:54Z</time>
      </trkpt>
      <trkpt lat="48.08064" lon="7.11304">
        <ele>809</ele>
        <time>2019-04-12T20:02:54Z</time>
      </trkpt>
      <trkpt lat="48.08057" lon="7.11295">
        <ele>806</ele>
        <time>2019-04-12T20:03:54Z</time>
      </trkpt>
      <trkpt lat="48.08053" lon="7.11284">
        <ele>805</ele>
        <time>2019-04-12T20:04:54Z</time>
      </trkpt>
      <trkpt lat="48.08053" lon="7.11273">
        <ele>804</ele>
        <time>2019-04-12T20:05:54Z</time>
      </trkpt>
      <trkpt lat="48.08053" lon="7.11267">
        <ele>804</ele>
        <time>2019-04-12T20:06:54Z</time>
      </trkpt>
      <trkpt lat="48.08055" lon="7.1126">
        <ele>804</ele>
        <time>2019-04-12T20:07:54Z</time>
      </trkpt>
      <trkpt lat="48.08057" lon="7.11256">
        <ele>804</ele>
        <time>2019-04-12T20:08:54Z</time>
      </trkpt>
      <trkpt lat="48.0806" lon="7.11253">
        <ele>804</ele>
        <time>2019-04-12T20:09:54Z</time>
      </trkpt>
      <trkpt lat="48.08063" lon="7.11251">
        <ele>804</ele>
        <time>2019-04-12T20:10:54Z</time>
      </trkpt>
      <trkpt lat="48.08068" lon="7.1125">
        <ele>805</ele>
        <time>2019-04-12T20:11:54Z</time>
      </trkpt>
      <trkpt lat="48.08078" lon="7.11253">
        <ele>807</ele>
        <time>2019-04-12T20:12:54Z</time>
      </trkpt>
      <trkpt lat="48.08095" lon="7.11262">
        <ele>809</ele>
        <time>2019-04-12T20:13:54Z</time>
      </trkpt>
      <trkpt lat="48.08103" lon="7.11264">
        <ele>809</ele>
        <time>2019-04-12T20:14:54Z</time>
      </trkpt>
      <trkpt lat="48.08111" lon="7.11264">
        <ele>810</ele>
        <time>2019-04-12T20:15:54Z</time>
      </trkpt>
      <trkpt lat="48.08121" lon="7.11262">
        <ele>810</ele>
        <time>2019-04-12T20:16:54Z</time>
      </trkpt>
      <trkpt lat="48.08133" lon="7.11256">
        <ele>809</ele>
        <time>2019-04-12T20:17:54Z</time>
      </trkpt>
      <trkpt lat="48.08149" lon="7.11246">
        <ele>808</ele>
        <time>2019-04-12T20:18:54Z</time>
      </trkpt>
      <trkpt lat="48.08165" lon="7.11239">
        <ele>807</ele>
        <time>2019-04-12T20:19:54Z</time>
      </trkpt>
      <trkpt lat="48.08176" lon="7.11235">
        <ele>806</ele>
        <time>2019-04-12T20:20:54Z</time>
      </trkpt>
      <trkpt lat="48.08187" lon="7.11232">
        <ele>805</ele>
        <time>2019-04-12T20:21:54Z</time>
      </trkpt>
      <trkpt lat="48.08217" lon="7.11227">
        <ele>804</ele>
        <time>2019-04-12T20:22:54Z</time>
      </trkpt>
      <trkpt lat="48.08238" lon="7.11223">
        <ele>803</ele>
        <time>2019-04-12T20:23:54Z</time>
      </trkpt>
      <trkpt lat="48.08269" lon="7.1122">
        <ele>801</ele>
        <time>2019-04-12T20:24:54Z</time>
      </trkpt>
      <trkpt lat="48.08281" lon="7.1122">
        <ele>800</ele>
        <time>2019-04-12T20:25:54Z</time>
      </trkpt>
      <trkpt lat="48.08291" lon="7.11221">
        <ele>800</ele>
        <time>2019-04-12T20:26:54Z</time>
      </trkpt>
      <trkpt lat="48.08312" lon="7.11222">
        <ele>799</ele>
        <time>2019-04-12T20:27:54Z</time>
      </trkpt>
      <trkpt lat="48.08328" lon="7.11225">
        <ele>799</ele>
        <time>2019-04-12T20:28:54Z</time>
      </trkpt>
      <trkpt lat="48.08343" lon="7.11227">
        <ele>799</ele>
        <time>2019-04-12T20:29:54Z</time>
      </trkpt>
      <trkpt lat="48.08353" lon="7.11227">
        <ele>799</ele>
        <time>2019-04-12T20:30:54Z</time>
      </trkpt>
      <trkpt lat="48.08364" lon="7.11225">
        <ele>799</ele>
        <time>2019-04-12T20:31:54Z</time>
      </trkpt>
      <trkpt lat="48.08378" lon="7.11222">
        <ele>798</ele>
        <time>2019-04-12T20:32:54Z</time>
      </trkpt>
      <trkpt lat="48.08404" lon="7.11213">
        <ele>797</ele>
        <time>2019-04-12T20:33:54Z</time>
      </trkpt>
      <trkpt lat="48.08416" lon="7.11208">
        <ele>796</ele>
        <time>2019-04-12T20:34:54Z</time>
      </trkpt>
      <trkpt lat="48.08427" lon="7.11204">
        <ele>797</ele>
        <time>2019-04-12T20:35:54Z</time>
      </trkpt>
      <trkpt lat="48.08436" lon="7.11201">
        <ele>798</ele>
        <time>2019-04-12T20:36:54Z</time>
      </trkpt>
      <trkpt lat="48.08447" lon="7.11196">
        <ele>799</ele>
        <time>2019-04-12T20:37:54Z</time>
      </trkpt>
      <trkpt lat="48.08455" lon="7.11193">
        <ele>800</ele>
        <time>2019-04-12T20:38:54Z</time>
      </trkpt>
      <trkpt lat="48.0846" lon="7.11189">
        <ele>800</ele>
        <time>2019-04-12T20:39:54Z</time>
      </trkpt>
      <trkpt lat="48.08466" lon="7.11182">
        <ele>800</ele>
        <time>2019-04-12T20:40:54Z</time>
      </trkpt>
      <trkpt lat="48.08468" lon="7.11176">
        <ele>799</ele>
        <time>2019-04-12T20:41:54Z</time>
      </trkpt>
      <trkpt lat="48.0847" lon="7.1117">
        <ele>799</ele>
        <time>2019-04-12T20:42:54Z</time>
      </trkpt>
      <trkpt lat="48.08469" lon="7.11162">
        <ele>798</ele>
        <time>2019-04-12T20:43:54Z</time>
      </trkpt>
      <trkpt lat="48.08467" lon="7.11155">
        <ele>797</ele>
        <time>2019-04-12T20:44:54Z</time>
      </trkpt>
      <trkpt lat="48.08464" lon="7.11152">
        <ele>797</ele>
        <time>2019-04-12T20:45:54Z</time>
      </trkpt>
      <trkpt lat="48.08461" lon="7.1115">
        <ele>796</ele>
        <time>2019-04-12T20:46:54Z</time>
      </trkpt>
      <trkpt lat="48.08457" lon="7.1115">
        <ele>795</ele>
        <time>2019-04-12T20:47:54Z</time>
      </trkpt>
      <trkpt lat="48.08452" lon="7.11152">
        <ele>794</ele>
        <time>2019-04-12T20:48:54Z</time>
      </trkpt>
      <trkpt lat="48.08444" lon="7.1116">
        <ele>792</ele>
        <time>2019-04-12T20:49:54Z</time>
      </trkpt>
      <trkpt lat="48.08435" lon="7.11169">
        <ele>791</ele>
        <time>2019-04-12T20:50:54Z</time>
      </trkpt>
      <trkpt lat="48.08426" lon="7.11173">
        <ele>790</ele>
        <time>2019-04-12T20:51:54Z</time>
      </trkpt>
      <trkpt lat="48.08408" lon="7.11179">
        <ele>788</ele>
        <time>2019-04-12T20:52:54Z</time>
      </trkpt>
      <trkpt lat="48.08385" lon="7.11183">
        <ele>788</ele>
        <time>2019-04-12T20:53:54Z</time>
      </trkpt>
      <trkpt lat="48.08369" lon="7.11185">
        <ele>788</ele>
        <time>2019-04-12T20:54:54Z</time>
      </trkpt>
      <trkpt lat="48.08359" lon="7.11184">
        <ele>787</ele>
        <time>2019-04-12T20:55:54Z</time>
      </trkpt>
      <trkpt lat="48.08353" lon="7.11182">
        <ele>786</ele>
        <time>2019-04-12T20:56:54Z</time>
      </trkpt>
      <trkpt lat="48.08341" lon="7.11177">
        <ele>784</ele>
        <time>2019-04-12T20:57:54Z</time>
      </trkpt>
      <trkpt lat="48.08321" lon="7.11162">
        <ele>780</ele>
        <time>2019-04-12T20:58:54Z</time>
      </trkpt>
      <trkpt lat="48.08288" lon="7.11134">
        <ele>777</ele>
        <time>2019-04-12T20:59:54Z</time>
      </trkpt>
      <trkpt lat="48.08262" lon="7.11113">
        <ele>773</ele>
        <time>2019-04-12T21:00:54Z</time>
      </trkpt>
      <trkpt lat="48.08238" lon="7.1109">
        <ele>769</ele>
        <time>2019-04-12T21:01:54Z</time>
      </trkpt>
      <trkpt lat="48.08215" lon="7.11065">
        <ele>767</ele>
        <time>2019-04-12T21:02:54Z</time>
      </trkpt>
      <trkpt lat="48.08194" lon="7.1104">
        <ele>765</ele>
        <time>2019-04-12T21:03:54Z</time>
      </trkpt>
      <trkpt lat="48.08163" lon="7.11006">
        <ele>763</ele>
        <time>2019-04-12T21:04:54Z</time>
      </trkpt>
      <trkpt lat="48.08135" lon="7.10973">
        <ele>760</ele>
        <time>2019-04-12T21:05:54Z</time>
      </trkpt>
      <trkpt lat="48.08106" lon="7.1094">
        <ele>758</ele>
        <time>2019-04-12T21:06:54Z</time>
      </trkpt>
      <trkpt lat="48.08083" lon="7.10908">
        <ele>755</ele>
        <time>2019-04-12T21:07:54Z</time>
      </trkpt>
      <trkpt lat="48.08075" lon="7.10898">
        <ele>754</ele>
        <time>2019-04-12T21:08:54Z</time>
      </trkpt>
      <trkpt lat="48.08065" lon="7.10888">
        <ele>753</ele>
        <time>2019-04-12T21:09:54Z</time>
      </trkpt>
      <trkpt lat="48.08055" lon="7.10878">
        <ele>752</ele>
        <time>2019-04-12T21:10:54Z</time>
      </trkpt>
      <trkpt lat="48.08047" lon="7.10872">
        <ele>751</ele>
        <time>2019-04-12T21:11:54Z</time>
      </trkpt>
      <trkpt lat="48.08027" lon="7.10858">
        <ele>750</ele>
        <time>2019-04-12T21:12:54Z</time>
      </trkpt>
      <trkpt lat="48.08004" lon="7.10842">
        <ele>747</ele>
        <time>2019-04-12T21:13:54Z</time>
      </trkpt>
      <trkpt lat="48.07995" lon="7.10836">
        <ele>747</ele>
        <time>2019-04-12T21:14:54Z</time>
      </trkpt>
      <trkpt lat="48.07982" lon="7.10829">
        <ele>746</ele>
        <time>2019-04-12T21:15:54Z</time>
      </trkpt>
      <trkpt lat="48.07976" lon="7.10825">
        <ele>746</ele>
        <time>2019-04-12T21:16:54Z</time>
      </trkpt>
      <trkpt lat="48.07965" lon="7.10819">
        <ele>746</ele>
        <time>2019-04-12T21:17:54Z</time>
      </trkpt>
      <trkpt lat="48.0796" lon="7.10816">
        <ele>745</ele>
        <time>2019-04-12T21:18:54Z</time>
      </trkpt>
      <trkpt lat="48.07954" lon="7.10811">
        <ele>745</ele>
        <time>2019-04-12T21:19:54Z</time>
      </trkpt>
      <trkpt lat="48.07945" lon="7.10802">
        <ele>744</ele>
        <time>2019-04-12T21:20:54Z</time>
      </trkpt>
      <trkpt lat="48.07936" lon="7.10792">
        <ele>743</ele>
        <time>2019-04-12T21:21:54Z</time>
      </trkpt>
      <trkpt lat="48.07922" lon="7.10776">
        <ele>742</ele>
        <time>2019-04-12T21:22:54Z</time>
      </trkpt>
      <trkpt lat="48.07916" lon="7.10768">
        <ele>741</ele>
        <time>2019-04-12T21:23:54Z</time>
      </trkpt>
      <trkpt lat="48.07905" lon="7.10755">
        <ele>739</ele>
        <time>2019-04-12T21:24:54Z</time>
      </trkpt>
      <trkpt lat="48.0789" lon="7.1074">
        <ele>737</ele>
        <time>2019-04-12T21:25:54Z</time>
      </trkpt>
      <trkpt lat="48.07873" lon="7.10727">
        <ele>736</ele>
        <time>2019-04-12T21:26:54Z</time>
      </trkpt>
      <trkpt lat="48.0786" lon="7.10718">
        <ele>735</ele>
        <time>2019-04-12T21:27:54Z</time>
      </trkpt>
      <trkpt lat="48.07839" lon="7.10706">
        <ele>735</ele>
        <time>2019-04-12T21:28:54Z</time>
      </trkpt>
      <trkpt lat="48.07813" lon="7.10693">
        <ele>731</ele>
        <time>2019-04-12T21:29:54Z</time>
      </trkpt>
      <trkpt lat="48.0779" lon="7.10682">
        <ele>729</ele>
        <time>2019-04-12T21:30:54Z</time>
      </trkpt>
      <trkpt lat="48.07771" lon="7.10672">
        <ele>727</ele>
        <time>2019-04-12T21:31:54Z</time>
      </trkpt>
      <trkpt lat="48.07756" lon="7.10664">
        <ele>726</ele>
        <time>2019-04-12T21:32:54Z</time>
      </trkpt>
      <trkpt lat="48.07751" lon="7.10659">
        <ele>725</ele>
        <time>2019-04-12T21:33:54Z</time>
      </trkpt>
      <trkpt lat="48.07748" lon="7.10654">
        <ele>725</ele>
        <time>2019-04-12T21:34:54Z</time>
      </trkpt>
      <trkpt lat="48.07745" lon="7.1065">
        <ele>724</ele>
        <time>2019-04-12T21:35:54Z</time>
      </trkpt>
      <trkpt lat="48.07744" lon="7.10645">
        <ele>723</ele>
        <time>2019-04-12T21:36:54Z</time>
      </trkpt>
      <trkpt lat="48.07743" lon="7.10639">
        <ele>723</ele>
        <time>2019-04-12T21:37:54Z</time>
      </trkpt>
      <trkpt lat="48.07743" lon="7.10634">
        <ele>722</ele>
        <time>2019-04-12T21:38:54Z</time>
      </trkpt>
      <trkpt lat="48.07745" lon="7.10629">
        <ele>722</ele>
        <time>2019-04-12T21:39:54Z</time>
      </trkpt>
      <trkpt lat="48.07748" lon="7.10624">
        <ele>722</ele>
        <time>2019-04-12T21:40:54Z</time>
      </trkpt>
      <trkpt lat="48.07751" lon="7.1062">
        <ele>722</ele>
        <time>2019-04-12T21:41:54Z</time>
      </trkpt>
      <trkpt lat="48.07754" lon="7.10618">
        <ele>721</ele>
        <time>2019-04-12T21:42:54Z</time>
      </trkpt>
      <trkpt lat="48.07761" lon="7.10615">
        <ele>721</ele>
        <time>2019-04-12T21:43:54Z</time>
      </trkpt>
      <trkpt lat="48.07767" lon="7.10614">
        <ele>721</ele>
        <time>2019-04-12T21:44:54Z</time>
      </trkpt>
      <trkpt lat="48.07785" lon="7.1061">
        <ele>721</ele>
        <time>2019-04-12T21:45:54Z</time>
      </trkpt>
      <trkpt lat="48.07803" lon="7.10608">
        <ele>720</ele>
        <time>2019-04-12T21:46:54Z</time>
      </trkpt>
      <trkpt lat="48.07818" lon="7.10607">
        <ele>720</ele>
        <time>2019-04-12T21:47:54Z</time>
      </trkpt>
      <trkpt lat="48.07833" lon="7.10609">
        <ele>720</ele>
        <time>2019-04-12T21:48:54Z</time>
      </trkpt>
      <trkpt lat="48.0784" lon="7.1061">
        <ele>720</ele>
        <time>2019-04-12T21:49:54Z</time>
      </trkpt>
      <trkpt lat="48.07858" lon="7.10616">
        <ele>719</ele>
        <time>2019-04-12T21:50:54Z</time>
      </trkpt>
      <trkpt lat="48.07889" lon="7.10624">
        <ele>718</ele>
        <time>2019-04-12T21:51:54Z</time>
      </trkpt>
      <trkpt lat="48.0791" lon="7.1063">
        <ele>718</ele>
        <time>2019-04-12T21:52:54Z</time>
      </trkpt>
      <trkpt lat="48.07925" lon="7.1063">
        <ele>717</ele>
        <time>2019-04-12T21:53:54Z</time>
      </trkpt>
      <trkpt lat="48.07937" lon="7.10628">
        <ele>717</ele>
        <time>2019-04-12T21:54:54Z</time>
      </trkpt>
      <trkpt lat="48.07948" lon="7.10625">
        <ele>716</ele>
        <time>2019-04-12T21:55:54Z</time>
      </trkpt>
      <trkpt lat="48.07962" lon="7.1062">
        <ele>716</ele>
        <time>2019-04-12T21:56:54Z</time>
      </trkpt>
      <trkpt lat="48.07974" lon="7.10613">
        <ele>714</ele>
        <time>2019-04-12T21:57:54Z</time>
      </trkpt>
      <trkpt lat="48.07981" lon="7.10609">
        <ele>714</ele>
        <time>2019-04-12T21:58:54Z</time>
      </trkpt>
      <trkpt lat="48.07991" lon="7.10605">
        <ele>713</ele>
        <time>2019-04-12T21:59:54Z</time>
      </trkpt>
      <trkpt lat="48.08002" lon="7.10603">
        <ele>713</ele>
        <time>2019-04-12T22:00:54Z</time>
      </trkpt>
      <trkpt lat="48.08007" lon="7.10604">
        <ele>713</ele>
        <time>2019-04-12T22:01:54Z</time>
      </trkpt>
      <trkpt lat="48.08012" lon="7.10605">
        <ele>712</ele>
        <time>2019-04-12T22:02:54Z</time>
      </trkpt>
      <trkpt lat="48.08023" lon="7.10611">
        <ele>713</ele>
        <time>2019-04-12T22:03:54Z</time>
      </trkpt>
      <trkpt lat="48.08029" lon="7.10613">
        <ele>713</ele>
        <time>2019-04-12T22:04:54Z</time>
      </trkpt>
      <trkpt lat="48.08035" lon="7.10613">
        <ele>712</ele>
        <time>2019-04-12T22:05:54Z</time>
      </trkpt>
      <trkpt lat="48.08039" lon="7.1061">
        <ele>712</ele>
        <time>2019-04-12T22:06:54Z</time>
      </trkpt>
      <trkpt lat="48.08044" lon="7.10605">
        <ele>710</ele>
        <time>2019-04-12T22:07:54Z</time>
      </trkpt>
      <trkpt lat="48.08046" lon="7.10599">
        <ele>709</ele>
        <time>2019-04-12T22:08:54Z</time>
      </trkpt>
      <trkpt lat="48.08047" lon="7.10592">
        <ele>707</ele>
        <time>2019-04-12T22:09:54Z</time>
      </trkpt>
      <trkpt lat="48.08045" lon="7.10583">
        <ele>706</ele>
        <time>2019-04-12T22:10:54Z</time>
      </trkpt>
      <trkpt lat="48.08041" lon="7.10577">
        <ele>705</ele>
        <time>2019-04-12T22:11:54Z</time>
      </trkpt>
      <trkpt lat="48.08037" lon="7.10573">
        <ele>704</ele>
        <time>2019-04-12T22:12:54Z</time>
      </trkpt>
      <trkpt lat="48.08031" lon="7.10572">
        <ele>704</ele>
        <time>2019-04-12T22:13:54Z</time>
      </trkpt>
      <trkpt lat="48.08026" lon="7.1057">
        <ele>704</ele>
        <time>2019-04-12T22:14:54Z</time>
      </trkpt>
      <trkpt lat="48.08017" lon="7.10571">
        <ele>705</ele>
        <time>2019-04-12T22:15:54Z</time>
      </trkpt>
      <trkpt lat="48.07999" lon="7.1057">
        <ele>706</ele>
        <time>2019-04-12T22:16:54Z</time>
      </trkpt>
      <trkpt lat="48.07981" lon="7.10569">
        <ele>705</ele>
        <time>2019-04-12T22:17:54Z</time>
      </trkpt>
      <trkpt lat="48.07961" lon="7.10564">
        <ele>704</ele>
        <time>2019-04-12T22:18:54Z</time>
      </trkpt>
      <trkpt lat="48.07948" lon="7.10561">
        <ele>703</ele>
        <time>2019-04-12T22:19:54Z</time>
      </trkpt>
      <trkpt lat="48.07929" lon="7.10555">
        <ele>701</ele>
        <time>2019-04-12T22:20:54Z</time>
      </trkpt>
      <trkpt lat="48.07914" lon="7.10548">
        <ele>699</ele>
        <time>2019-04-12T22:21:54Z</time>
      </trkpt>
      <trkpt lat="48.07896" lon="7.10537">
        <ele>698</ele>
        <time>2019-04-12T22:22:54Z</time>
      </trkpt>
      <trkpt lat="48.07875" lon="7.10523">
        <ele>697</ele>
        <time>2019-04-12T22:23:54Z</time>
      </trkpt>
      <trkpt lat="48.07858" lon="7.10511">
        <ele>695</ele>
        <time>2019-04-12T22:24:54Z</time>
      </trkpt>
      <trkpt lat="48.07832" lon="7.10497">
        <ele>693</ele>
        <time>2019-04-12T22:25:54Z</time>
      </trkpt>
      <trkpt lat="48.07796" lon="7.10479">
        <ele>691</ele>
        <time>2019-04-12T22:26:54Z</time>
      </trkpt>
      <trkpt lat="48.07755" lon="7.10459">
        <ele>689</ele>
        <time>2019-04-12T22:27:54Z</time>
      </trkpt>
      <trkpt lat="48.07741" lon="7.10451">
        <ele>689</ele>
        <time>2019-04-12T22:28:54Z</time>
      </trkpt>
      <trkpt lat="48.07728" lon="7.10443">
        <ele>688</ele>
        <time>2019-04-12T22:29:54Z</time>
      </trkpt>
      <trkpt lat="48.0772" lon="7.10437">
        <ele>688</ele>
        <time>2019-04-12T22:30:54Z</time>
      </trkpt>
      <trkpt lat="48.07714" lon="7.10431">
        <ele>688</ele>
        <time>2019-04-12T22:31:54Z</time>
      </trkpt>
      <trkpt lat="48.07702" lon="7.1042">
        <ele>687</ele>
        <time>2019-04-12T22:32:54Z</time>
      </trkpt>
      <trkpt lat="48.07683" lon="7.104">
        <ele>684</ele>
        <time>2019-04-12T22:33:54Z</time>
      </trkpt>
      <trkpt lat="48.07675" lon="7.10391">
        <ele>683</ele>
        <time>2019-04-12T22:34:54Z</time>
      </trkpt>
      <trkpt lat="48.07664" lon="7.10381">
        <ele>681</ele>
        <time>2019-04-12T22:35:54Z</time>
      </trkpt>
      <trkpt lat="48.07652" lon="7.10373">
        <ele>679</ele>
        <time>2019-04-12T22:36:54Z</time>
      </trkpt>
      <trkpt lat="48.07643" lon="7.10369">
        <ele>678</ele>
        <time>2019-04-12T22:37:54Z</time>
      </trkpt>
      <trkpt lat="48.07637" lon="7.10366">
        <ele>677</ele>
        <time>2019-04-12T22:38:54Z</time>
      </trkpt>
      <trkpt lat="48.07623" lon="7.10364">
        <ele>677</ele>
        <time>2019-04-12T22:39:54Z</time>
      </trkpt>
      <trkpt lat="48.07611" lon="7.10362">
        <ele>677</ele>
        <time>2019-04-12T22:40:54Z</time>
      </trkpt>
      <trkpt lat="48.07594" lon="7.10361">
        <ele>677</ele>
        <time>2019-04-12T22:41:54Z</time>
      </trkpt>
      <trkpt lat="48.07578" lon="7.10358">
        <ele>676</ele>
        <time>2019-04-12T22:42:54Z</time>
      </trkpt>
      <trkpt lat="48.07562" lon="7.10354">
        <ele>675</ele>
        <time>2019-04-12T22:43:54Z</time>
      </trkpt>
      <trkpt lat="48.07539" lon="7.10347">
        <ele>672</ele>
        <time>2019-04-12T22:44:54Z</time>
      </trkpt>
      <trkpt lat="48.07512" lon="7.10342">
        <ele>671</ele>
        <time>2019-04-12T22:45:54Z</time>
      </trkpt>
      <trkpt lat="48.07473" lon="7.10337">
        <ele>669</ele>
        <time>2019-04-12T22:46:54Z</time>
      </trkpt>
      <trkpt lat="48.07458" lon="7.10336">
        <ele>669</ele>
        <time>2019-04-12T22:47:54Z</time>
      </trkpt>
      <trkpt lat="48.0742" lon="7.10332">
        <ele>668</ele>
        <time>2019-04-12T22:48:54Z</time>
      </trkpt>
      <trkpt lat="48.0741" lon="7.10331">
        <ele>666</ele>
        <time>2019-04-12T22:49:54Z</time>
      </trkpt>
      <trkpt lat="48.07399" lon="7.10334">
        <ele>666</ele>
        <time>2019-04-12T22:50:54Z</time>
      </trkpt>
      <trkpt lat="48.07391" lon="7.10338">
        <ele>665</ele>
        <time>2019-04-12T22:51:54Z</time>
      </trkpt>
      <trkpt lat="48.07382" lon="7.10346">
        <ele>664</ele>
        <time>2019-04-12T22:52:54Z</time>
      </trkpt>
      <trkpt lat="48.07372" lon="7.10357">
        <ele>664</ele>
        <time>2019-04-12T22:53:54Z</time>
      </trkpt>
      <trkpt lat="48.07366" lon="7.10361">
        <ele>663</ele>
        <time>2019-04-12T22:54:54Z</time>
      </trkpt>
      <trkpt lat="48.07363" lon="7.10362">
        <ele>662</ele>
        <time>2019-04-12T22:55:54Z</time>
      </trkpt>
      <trkpt lat="48.07359" lon="7.10362">
        <ele>662</ele>
        <time>2019-04-12T22:56:54Z</time>
      </trkpt>
      <trkpt lat="48.07354" lon="7.10361">
        <ele>661</ele>
        <time>2019-04-12T22:57:54Z</time>
      </trkpt>
      <trkpt lat="48.07352" lon="7.10357">
        <ele>660</ele>
        <time>2019-04-12T22:58:54Z</time>
      </trkpt>
      <trkpt lat="48.07349" lon="7.10352">
        <ele>660</ele>
        <time>2019-04-12T22:59:54Z</time>
      </trkpt>
      <trkpt lat="48.07348" lon="7.10346">
        <ele>659</ele>
        <time>2019-04-12T23:00:54Z</time>
      </trkpt>
      <trkpt lat="48.07349" lon="7.1034">
        <ele>659</ele>
        <time>2019-04-12T23:01:54Z</time>
      </trkpt>
      <trkpt lat="48.0735" lon="7.10336">
        <ele>659</ele>
        <time>2019-04-12T23:02:54Z</time>
      </trkpt>
      <trkpt lat="48.07351" lon="7.10331">
        <ele>659</ele>
        <time>2019-04-12T23:03:54Z</time>
      </trkpt>
      <trkpt lat="48.07354" lon="7.10327">
        <ele>658</ele>
        <time>2019-04-12T23:04:54Z</time>
      </trkpt>
      <trkpt lat="48.0736" lon="7.10322">
        <ele>658</ele>
        <time>2019-04-12T23:05:54Z</time>
      </trkpt>
      <trkpt lat="48.07364" lon="7.10319">
        <ele>658</ele>
        <time>2019-04-12T23:06:54Z</time>
      </trkpt>
      <trkpt lat="48.07387" lon="7.10309">
        <ele>658</ele>
        <time>2019-04-12T23:07:54Z</time>
      </trkpt>
      <trkpt lat="48.07424" lon="7.10296">
        <ele>657</ele>
        <time>2019-04-12T23:08:54Z</time>
      </trkpt>
      <trkpt lat="48.07457" lon="7.10286">
        <ele>655</ele>
        <time>2019-04-12T23:09:54Z</time>
      </trkpt>
      <trkpt lat="48.07474" lon="7.10284">
        <ele>654</ele>
        <time>2019-04-12T23:10:54Z</time>
      </trkpt>
      <trkpt lat="48.07492" lon="7.10283">
        <ele>654</ele>
        <time>2019-04-12T23:11:54Z</time>
      </trkpt>
      <trkpt lat="48.07506" lon="7.10283">
        <ele>654</ele>
        <time>2019-04-12T23:12:54Z</time>
      </trkpt>
      <trkpt lat="48.07516" lon="7.1028">
        <ele>653</ele>
        <time>2019-04-12T23:13:54Z</time>
      </trkpt>
      <trkpt lat="48.07527" lon="7.10277">
        <ele>652</ele>
        <time>2019-04-12T23:14:54Z</time>
      </trkpt>
      <trkpt lat="48.07574" lon="7.10267">
        <ele>649</ele>
        <time>2019-04-12T23:15:54Z</time>
      </trkpt>
      <trkpt lat="48.07614" lon="7.10263">
        <ele>647</ele>
        <time>2019-04-12T23:16:54Z</time>
      </trkpt>
      <trkpt lat="48.07654" lon="7.10261">
        <ele>646</ele>
        <time>2019-04-12T23:17:54Z</time>
      </trkpt>
      <trkpt lat="48.07698" lon="7.10257">
        <ele>643</ele>
        <time>2019-04-12T23:18:54Z</time>
      </trkpt>
      <trkpt lat="48.07744" lon="7.10256">
        <ele>641</ele>
        <time>2019-04-12T23:19:54Z</time>
      </trkpt>
      <trkpt lat="48.07769" lon="7.10256">
        <ele>641</ele>
        <time>2019-04-12T23:20:54Z</time>
      </trkpt>
      <trkpt lat="48.07787" lon="7.10255">
        <ele>640</ele>
        <time>2019-04-12T23:21:54Z</time>
      </trkpt>
      <trkpt lat="48.07826" lon="7.10255">
        <ele>640</ele>
        <time>2019-04-12T23:22:54Z</time>
      </trkpt>
      <trkpt lat="48.07849" lon="7.10254">
        <ele>641</ele>
        <time>2019-04-12T23:23:54Z</time>
      </trkpt>
      <trkpt lat="48.07855" lon="7.10252">
        <ele>641</ele>
        <time>2019-04-12T23:24:54Z</time>
      </trkpt>
      <trkpt lat="48.07859" lon="7.10249">
        <ele>641</ele>
        <time>2019-04-12T23:25:54Z</time>
      </trkpt>
      <trkpt lat="48.07864" lon="7.10244">
        <ele>642</ele>
        <time>2019-04-12T23:26:54Z</time>
      </trkpt>
      <trkpt lat="48.07865" lon="7.10239">
        <ele>642</ele>
        <time>2019-04-12T23:27:54Z</time>
      </trkpt>
      <trkpt lat="48.07866" lon="7.10232">
        <ele>643</ele>
        <time>2019-04-12T23:28:54Z</time>
      </trkpt>
      <trkpt lat="48.07866" lon="7.10218">
        <ele>643</ele>
        <time>2019-04-12T23:29:54Z</time>
      </trkpt>
      <trkpt lat="48.07859" lon="7.10176">
        <ele>642</ele>
        <time>2019-04-12T23:30:54Z</time>
      </trkpt>
      <trkpt lat="48.07852" lon="7.1013">
        <ele>640</ele>
        <time>2019-04-12T23:31:54Z</time>
      </trkpt>
      <trkpt lat="48.07842" lon="7.10063">
        <ele>635</ele>
        <time>2019-04-12T23:32:54Z</time>
      </trkpt>
      <trkpt lat="48.07836" lon="7.10013">
        <ele>631</ele>
        <time>2019-04-12T23:33:54Z</time>
      </trkpt>
      <trkpt lat="48.07833" lon="7.09985">
        <ele>630</ele>
        <time>2019-04-12T23:34:54Z</time>
      </trkpt>
      <trkpt lat="48.07831" lon="7.09958">
        <ele>630</ele>
        <time>2019-04-12T23:35:54Z</time>
      </trkpt>
      <trkpt lat="48.07832" lon="7.09936">
        <ele>630</ele>
        <time>2019-04-12T23:36:54Z</time>
      </trkpt>
      <trkpt lat="48.07833" lon="7.09908">
        <ele>630</ele>
        <time>2019-04-12T23:37:54Z</time>
      </trkpt>
      <trkpt lat="48.07834" lon="7.099">
        <ele>630</ele>
        <time>2019-04-12T23:38:54Z</time>
      </trkpt>
      <trkpt lat="48.07834" lon="7.09886">
        <ele>629</ele>
        <time>2019-04-12T23:39:54Z</time>
      </trkpt>
      <trkpt lat="48.07833" lon="7.09875">
        <ele>629</ele>
        <time>2019-04-12T23:40:54Z</time>
      </trkpt>
      <trkpt lat="48.07829" lon="7.09861">
        <ele>628</ele>
        <time>2019-04-12T23:41:54Z</time>
      </trkpt>
      <trkpt lat="48.07824" lon="7.09852">
        <ele>628</ele>
        <time>2019-04-12T23:42:54Z</time>
      </trkpt>
      <trkpt lat="48.07819" lon="7.09842">
        <ele>628</ele>
        <time>2019-04-12T23:43:54Z</time>
      </trkpt>
      <trkpt lat="48.07811" lon="7.09834">
        <ele>628</ele>
        <time>2019-04-12T23:44:54Z</time>
      </trkpt>
      <trkpt lat="48.07804" lon="7.0983">
        <ele>628</ele>
        <time>2019-04-12T23:45:54Z</time>
      </trkpt>
      <trkpt lat="48.078" lon="7.09829">
        <ele>628</ele>
        <time>2019-04-12T23:46:54Z</time>
      </trkpt>
      <trkpt lat="48.07795" lon="7.09829">
        <ele>628</ele>
        <time>2019-04-12T23:47:54Z</time>
      </trkpt>
      <trkpt lat="48.0779" lon="7.09831">
        <ele>628</ele>
        <time>2019-04-12T23:48:54Z</time>
      </trkpt>
      <trkpt lat="48.07782" lon="7.09836">
        <ele>627</ele>
        <time>2019-04-12T23:49:54Z</time>
      </trkpt>
      <trkpt lat="48.07774" lon="7.09845">
        <ele>627</ele>
        <time>2019-04-12T23:50:54Z</time>
      </trkpt>
      <trkpt lat="48.07765" lon="7.09859">
        <ele>625</ele>
        <time>2019-04-12T23:51:54Z</time>
      </trkpt>
      <trkpt lat="48.07749" lon="7.09891">
        <ele>622</ele>
        <time>2019-04-12T23:52:54Z</time>
      </trkpt>
      <trkpt lat="48.07735" lon="7.09913">
        <ele>622</ele>
        <time>2019-04-12T23:53:54Z</time>
      </trkpt>
      <trkpt lat="48.07727" lon="7.09926">
        <ele>622</ele>
        <time>2019-04-12T23:54:54Z</time>
      </trkpt>
      <trkpt lat="48.07714" lon="7.09941">
        <ele>623</ele>
        <time>2019-04-12T23:55:54Z</time>
      </trkpt>
      <trkpt lat="48.07692" lon="7.09963">
        <ele>622</ele>
        <time>2019-04-12T23:56:54Z</time>
      </trkpt>
      <trkpt lat="48.07658" lon="7.09993">
        <ele>618</ele>
        <time>2019-04-12T23:57:54Z</time>
      </trkpt>
      <trkpt lat="48.07624" lon="7.10017">
        <ele>617</ele>
        <time>2019-04-12T23:58:54Z</time>
      </trkpt>
      <trkpt lat="48.07606" lon="7.10027">
        <ele>617</ele>
        <time>2019-04-12T23:59:54Z</time>
      </trkpt>
      <trkpt lat="48.07594" lon="7.10031">
        <ele>616</ele>
        <time>2019-04-13T00:00:54Z</time>
      </trkpt>
      <trkpt lat="48.07572" lon="7.10034">
        <ele>615</ele>
        <time>2019-04-13T00:01:54Z</time>
      </trkpt>
      <trkpt lat="48.07543" lon="7.10038">
        <ele>612</ele>
        <time>2019-04-13T00:02:54Z</time>
      </trkpt>
      <trkpt lat="48.07519" lon="7.10042">
        <ele>610</ele>
        <time>2019-04-13T00:03:54Z</time>
      </trkpt>
      <trkpt lat="48.07498" lon="7.10048">
        <ele>607</ele>
        <time>2019-04-13T00:04:54Z</time>
      </trkpt>
      <trkpt lat="48.07472" lon="7.10057">
        <ele>603</ele>
        <time>2019-04-13T00:05:54Z</time>
      </trkpt>
      <trkpt lat="48.07453" lon="7.10064">
        <ele>601</ele>
        <time>2019-04-13T00:06:54Z</time>
      </trkpt>
      <trkpt lat="48.0744" lon="7.10068">
        <ele>599</ele>
        <time>2019-04-13T00:07:54Z</time>
      </trkpt>
      <trkpt lat="48.0743" lon="7.10069">
        <ele>598</ele>
        <time>2019-04-13T00:08:54Z</time>
      </trkpt>
      <trkpt lat="48.07414" lon="7.1007">
        <ele>597</ele>
        <time>2019-04-13T00:09:54Z</time>
      </trkpt>
      <trkpt lat="48.07387" lon="7.10068">
        <ele>595</ele>
        <time>2019-04-13T00:10:54Z</time>
      </trkpt>
      <trkpt lat="48.0736" lon="7.10064">
        <ele>593</ele>
        <time>2019-04-13T00:11:54Z</time>
      </trkpt>
      <trkpt lat="48.07333" lon="7.10063">
        <ele>591</ele>
        <time>2019-04-13T00:12:54Z</time>
      </trkpt>
      <trkpt lat="48.07322" lon="7.10063">
        <ele>590</ele>
        <time>2019-04-13T00:13:54Z</time>
      </trkpt>
      <trkpt lat="48.07313" lon="7.10062">
        <ele>589</ele>
        <time>2019-04-13T00:14:54Z</time>
      </trkpt>
      <trkpt lat="48.07309" lon="7.1006">
        <ele>589</ele>
        <time>2019-04-13T00:15:54Z</time>
      </trkpt>
      <trkpt lat="48.07306" lon="7.10059">
        <ele>589</ele>
        <time>2019-04-13T00:16:54Z</time>
      </trkpt>
      <trkpt lat="48.07295" lon="7.1006">
        <ele>588</ele>
        <time>2019-04-13T00:17:54Z</time>
      </trkpt>
      <trkpt lat="48.07295" lon="7.1006">
        <ele>588</ele>
        <time>2019-04-13T00:18:54Z</time>
      </trkpt>
      <trkpt lat="48.07293" lon="7.10065">
        <ele>588</ele>
        <time>2019-04-13T00:19:54Z</time>
      </trkpt>
      <trkpt lat="48.07293" lon="7.10065">
        <ele>588</ele>
        <time>2019-04-13T00:20:54Z</time>
      </trkpt>
      <trkpt lat="48.07291" lon="7.10072">
        <ele>587</ele>
        <time>2019-04-13T00:21:54Z</time>
      </trkpt>
      <trkpt lat="48.07289" lon="7.10077">
        <ele>587</ele>
        <time>2019-04-13T00:22:54Z</time>
      </trkpt>
      <trkpt lat="48.07286" lon="7.10081">
        <ele>587</ele>
        <time>2019-04-13T00:23:54Z</time>
      </trkpt>
      <trkpt lat="48.07283" lon="7.10085">
        <ele>587</ele>
        <time>2019-04-13T00:24:54Z</time>
      </trkpt>
      <trkpt lat="48.0728" lon="7.10088">
        <ele>587</ele>
        <time>2019-04-13T00:25:54Z</time>
      </trkpt>
      <trkpt lat="48.07275" lon="7.1009">
        <ele>588</ele>
        <time>2019-04-13T00:26:54Z</time>
      </trkpt>
      <trkpt lat="48.0727" lon="7.10092">
        <ele>588</ele>
        <time>2019-04-13T00:27:54Z</time>
      </trkpt>
      <trkpt lat="48.07263" lon="7.10093">
        <ele>587</ele>
        <time>2019-04-13T00:28:54Z</time>
      </trkpt>
      <trkpt lat="48.07257" lon="7.10092">
        <ele>587</ele>
        <time>2019-04-13T00:29:54Z</time>
      </trkpt>
      <trkpt lat="48.07254" lon="7.10091">
        <ele>586</ele>
        <time>2019-04-13T00:30:54Z</time>
      </trkpt>
      <trkpt lat="48.07249" lon="7.1009">
        <ele>586</ele>
        <time>2019-04-13T00:31:54Z</time>
      </trkpt>
      <trkpt lat="48.07244" lon="7.10088">
        <ele>585</ele>
        <time>2019-04-13T00:32:54Z</time>
      </trkpt>
      <trkpt lat="48.07234" lon="7.10084">
        <ele>584</ele>
        <time>2019-04-13T00:33:54Z</time>
      </trkpt>
      <trkpt lat="48.0722" lon="7.10078">
        <ele>583</ele>
        <time>2019-04-13T00:34:54Z</time>
      </trkpt>
      <trkpt lat="48.07204" lon="7.10071">
        <ele>582</ele>
        <time>2019-04-13T00:35:54Z</time>
      </trkpt>
      <trkpt lat="48.07189" lon="7.10064">
        <ele>581</ele>
        <time>2019-04-13T00:36:54Z</time>
      </trkpt>
      <trkpt lat="48.07181" lon="7.10061">
        <ele>581</ele>
        <time>2019-04-13T00:37:54Z</time>
      </trkpt>
      <trkpt lat="48.07175" lon="7.10058">
        <ele>580</ele>
        <time>2019-04-13T00:38:54Z</time>
      </trkpt>
      <trkpt lat="48.07171" lon="7.10057">
        <ele>580</ele>
        <time>2019-04-13T00:39:54Z</time>
      </trkpt>
      <trkpt lat="48.07167" lon="7.10056">
        <ele>579</ele>
        <time>2019-04-13T00:40:54Z</time>
      </trkpt>
      <trkpt lat="48.07162" lon="7.10055">
        <ele>579</ele>
        <time>2019-04-13T00:41:54Z</time>
      </trkpt>
      <trkpt lat="48.07157" lon="7.10054">
        <ele>578</ele>
        <time>2019-04-13T00:42:54Z</time>
      </trkpt>
      <trkpt lat="48.07152" lon="7.10056">
        <ele>577</ele>
        <time>2019-04-13T00:43:54Z</time>
      </trkpt>
      <trkpt lat="48.07149" lon="7.10057">
        <ele>577</ele>
        <time>2019-04-13T00:44:54Z</time>
      </trkpt>
      <trkpt lat="48.07143" lon="7.10059">
        <ele>576</ele>
        <time>2019-04-13T00:45:54Z</time>
      </trkpt>
      <trkpt lat="48.07139" lon="7.10063">
        <ele>575</ele>
        <time>2019-04-13T00:46:54Z</time>
      </trkpt>
      <trkpt lat="48.07137" lon="7.10066">
        <ele>575</ele>
        <time>2019-04-13T00:47:54Z</time>
      </trkpt>
      <trkpt lat="48.07133" lon="7.1007">
        <ele>575</ele>
        <time>2019-04-13T00:48:54Z</time>
      </trkpt>
      <trkpt lat="48.0713" lon="7.10075">
        <ele>575</ele>
        <time>2019-04-13T00:49:54Z</time>
      </trkpt>
      <trkpt lat="48.07125" lon="7.10085">
        <ele>574</ele>
        <time>2019-04-13T00:50:54Z</time>
      </trkpt>
      <trkpt lat="48.0712" lon="7.10094">
        <ele>575</ele>
        <time>2019-04-13T00:51:54Z</time>
      </trkpt>
      <trkpt lat="48.07117" lon="7.101">
        <ele>575</ele>
        <time>2019-04-13T00:52:54Z</time>
      </trkpt>
      <trkpt lat="48.07113" lon="7.10106">
        <ele>576</ele>
        <time>2019-04-13T00:53:54Z</time>
      </trkpt>
      <trkpt lat="48.07106" lon="7.10114">
        <ele>575</ele>
        <time>2019-04-13T00:54:54Z</time>
      </trkpt>
      <trkpt lat="48.07098" lon="7.10125">
        <ele>575</ele>
        <time>2019-04-13T00:55:54Z</time>
      </trkpt>
      <trkpt lat="48.07087" lon="7.10136">
        <ele>574</ele>
        <time>2019-04-13T00:56:54Z</time>
      </trkpt>
      <trkpt lat="48.07067" lon="7.1016">
        <ele>572</ele>
        <time>2019-04-13T00:57:54Z</time>
      </trkpt>
      <trkpt lat="48.07037" lon="7.10195">
        <ele>569</ele>
        <time>2019-04-13T00:58:54Z</time>
      </trkpt>
      <trkpt lat="48.07016" lon="7.10219">
        <ele>566</ele>
        <time>2019-04-13T00:59:54Z</time>
      </trkpt>
      <trkpt lat="48.06985" lon="7.10255">
        <ele>563</ele>
        <time>2019-04-13T01:00:54Z</time>
      </trkpt>
      <trkpt lat="48.06975" lon="7.10268">
        <ele>562</ele>
        <time>2019-04-13T01:01:54Z</time>
      </trkpt>
      <trkpt lat="48.06969" lon="7.1028">
        <ele>562</ele>
        <time>2019-04-13T01:02:54Z</time>
      </trkpt>
      <trkpt lat="48.06962" lon="7.10293">
        <ele>562</ele>
        <time>2019-04-13T01:03:54Z</time>
      </trkpt>
      <trkpt lat="48.06958" lon="7.10301">
        <ele>562</ele>
        <time>2019-04-13T01:04:54Z</time>
      </trkpt>
      <trkpt lat="48.06956" lon="7.10309">
        <ele>562</ele>
        <time>2019-04-13T01:05:54Z</time>
      </trkpt>
      <trkpt lat="48.06953" lon="7.10317">
        <ele>562</ele>
        <time>2019-04-13T01:06:54Z</time>
      </trkpt>
      <trkpt lat="48.0695" lon="7.10329">
        <ele>562</ele>
        <time>2019-04-13T01:07:54Z</time>
      </trkpt>
      <trkpt lat="48.06949" lon="7.10331">
        <ele>562</ele>
        <time>2019-04-13T01:08:54Z</time>
      </trkpt>
      <trkpt lat="48.06944" lon="7.10345">
        <ele>562</ele>
        <time>2019-04-13T01:09:54Z</time>
      </trkpt>
      <trkpt lat="48.06942" lon="7.10351">
        <ele>562</ele>
        <time>2019-04-13T01:10:54Z</time>
      </trkpt>
      <trkpt lat="48.06941" lon="7.10355">
        <ele>562</ele>
        <time>2019-04-13T01:11:54Z</time>
      </trkpt>
      <trkpt lat="48.06937" lon="7.10361">
        <ele>562</ele>
        <time>2019-04-13T01:12:54Z</time>
      </trkpt>
      <trkpt lat="48.06933" lon="7.10365">
        <ele>562</ele>
        <time>2019-04-13T01:13:54Z</time>
      </trkpt>
      <trkpt lat="48.0693" lon="7.10367">
        <ele>562</ele>
        <time>2019-04-13T01:14:54Z</time>
      </trkpt>
      <trkpt lat="48.06926" lon="7.10368">
        <ele>561</ele>
        <time>2019-04-13T01:15:54Z</time>
      </trkpt>
      <trkpt lat="48.0692" lon="7.10371">
        <ele>561</ele>
        <time>2019-04-13T01:16:54Z</time>
      </trkpt>
      <trkpt lat="48.06916" lon="7.10371">
        <ele>560</ele>
        <time>2019-04-13T01:17:54Z</time>
      </trkpt>
      <trkpt lat="48.06912" lon="7.10371">
        <ele>560</ele>
        <time>2019-04-13T01:18:54Z</time>
      </trkpt>
      <trkpt lat="48.06907" lon="7.10369">
        <ele>560</ele>
        <time>2019-04-13T01:19:54Z</time>
      </trkpt>
      <trkpt lat="48.06902" lon="7.10367">
        <ele>559</ele>
        <time>2019-04-13T01:20:54Z</time>
      </trkpt>
      <trkpt lat="48.06897" lon="7.10365">
        <ele>559</ele>
        <time>2019-04-13T01:21:54Z</time>
      </trkpt>
      <trkpt lat="48.06891" lon="7.10361">
        <ele>558</ele>
        <time>2019-04-13T01:22:54Z</time>
      </trkpt>
      <trkpt lat="48.06885" lon="7.10356">
        <ele>557</ele>
        <time>2019-04-13T01:23:54Z</time>
      </trkpt>
      <trkpt lat="48.06873" lon="7.10348">
        <ele>555</ele>
        <time>2019-04-13T01:24:54Z</time>
      </trkpt>
      <trkpt lat="48.06861" lon="7.10339">
        <ele>553</ele>
        <time>2019-04-13T01:25:54Z</time>
      </trkpt>
      <trkpt lat="48.06849" lon="7.10332">
        <ele>551</ele>
        <time>2019-04-13T01:26:54Z</time>
      </trkpt>
      <trkpt lat="48.06844" lon="7.10329">
        <ele>550</ele>
        <time>2019-04-13T01:27:54Z</time>
      </trkpt>
      <trkpt lat="48.0684" lon="7.10327">
        <ele>550</ele>
        <time>2019-04-13T01:28:54Z</time>
      </trkpt>
      <trkpt lat="48.06833" lon="7.10324">
        <ele>549</ele>
        <time>2019-04-13T01:29:54Z</time>
      </trkpt>
      <trkpt lat="48.06828" lon="7.10323">
        <ele>549</ele>
        <time>2019-04-13T01:30:54Z</time>
      </trkpt>
      <trkpt lat="48.06825" lon="7.10323">
        <ele>548</ele>
        <time>2019-04-13T01:31:54Z</time>
      </trkpt>
      <trkpt lat="48.06821" lon="7.10322">
        <ele>548</ele>
        <time>2019-04-13T01:32:54Z</time>
      </trkpt>
      <trkpt lat="48.06818" lon="7.10323">
        <ele>548</ele>
        <time>2019-04-13T01:33:54Z</time>
      </trkpt>
      <trkpt lat="48.06814" lon="7.10323">
        <ele>547</ele>
        <time>2019-04-13T01:34:54Z</time>
      </trkpt>
      <trkpt lat="48.06805" lon="7.10326">
        <ele>547</ele>
        <time>2019-04-13T01:35:54Z</time>
      </trkpt>
      <trkpt lat="48.06793" lon="7.10333">
        <ele>546</ele>
        <time>2019-04-13T01:36:54Z</time>
      </trkpt>
      <trkpt lat="48.06772" lon="7.10344">
        <ele>546</ele>
        <time>2019-04-13T01:37:54Z</time>
      </trkpt>
      <trkpt lat="48.06763" lon="7.1035">
        <ele>547</ele>
        <time>2019-04-13T01:38:54Z</time>
      </trkpt>
      <trkpt lat="48.06752" lon="7.10356">
        <ele>547</ele>
        <time>2019-04-13T01:39:54Z</time>
      </trkpt>
      <trkpt lat="48.06743" lon="7.10362">
        <ele>547</ele>
        <time>2019-04-13T01:40:54Z</time>
      </trkpt>
      <trkpt lat="48.06729" lon="7.1037">
        <ele>547</ele>
        <time>2019-04-13T01:41:54Z</time>
      </trkpt>
      <trkpt lat="48.06714" lon="7.1038">
        <ele>546</ele>
        <time>2019-04-13T01:42:54Z</time>
      </trkpt>
      <trkpt lat="48.06701" lon="7.1039">
        <ele>546</ele>
        <time>2019-04-13T01:43:54Z</time>
      </trkpt>
      <trkpt lat="48.06686" lon="7.10401">
        <ele>545</ele>
        <time>2019-04-13T01:44:54Z</time>
      </trkpt>
      <trkpt lat="48.0667" lon="7.10411">
        <ele>543</ele>
        <time>2019-04-13T01:45:54Z</time>
      </trkpt>
      <trkpt lat="48.06653" lon="7.10424">
        <ele>543</ele>
        <time>2019-04-13T01:46:54Z</time>
      </trkpt>
      <trkpt lat="48.06645" lon="7.10429">
        <ele>542</ele>
        <time>2019-04-13T01:47:54Z</time>
      </trkpt>
      <trkpt lat="48.06638" lon="7.10433">
        <ele>542</ele>
        <time>2019-04-13T01:48:54Z</time>
      </trkpt>
      <trkpt lat="48.06627" lon="7.10437">
        <ele>542</ele>
        <time>2019-04-13T01:49:54Z</time>
      </trkpt>
      <trkpt lat="48.06616" lon="7.1044">
        <ele>541</ele>
        <time>2019-04-13T01:50:54Z</time>
      </trkpt>
      <trkpt lat="48.06604" lon="7.10441">
        <ele>539</ele>
        <time>2019-04-13T01:51:54Z</time>
      </trkpt>
      <trkpt lat="48.06589" lon="7.10441">
        <ele>537</ele>
        <time>2019-04-13T01:52:54Z</time>
      </trkpt>
      <trkpt lat="48.0657" lon="7.10441">
        <ele>536</ele>
        <time>2019-04-13T01:53:54Z</time>
      </trkpt>
      <trkpt lat="48.06555" lon="7.1044">
        <ele>535</ele>
        <time>2019-04-13T01:54:54Z</time>
      </trkpt>
      <trkpt lat="48.06545" lon="7.10438">
        <ele>534</ele>
        <time>2019-04-13T01:55:54Z</time>
      </trkpt>
      <trkpt lat="48.06536" lon="7.10434">
        <ele>533</ele>
        <time>2019-04-13T01:56:54Z</time>
      </trkpt>
      <trkpt lat="48.06527" lon="7.10429">
        <ele>532</ele>
        <time>2019-04-13T01:57:54Z</time>
      </trkpt>
      <trkpt lat="48.06515" lon="7.1042">
        <ele>530</ele>
        <time>2019-04-13T01:58:54Z</time>
      </trkpt>
      <trkpt lat="48.06504" lon="7.10415">
        <ele>529</ele>
        <time>2019-04-13T01:59:54Z</time>
      </trkpt>
      <trkpt lat="48.06498" lon="7.10413">
        <ele>528</ele>
        <time>2019-04-13T02:00:54Z</time>
      </trkpt>
      <trkpt lat="48.06489" lon="7.10411">
        <ele>527</ele>
        <time>2019-04-13T02:01:54Z</time>
      </trkpt>
      <trkpt lat="48.06485" lon="7.10412">
        <ele>527</ele>
        <time>2019-04-13T02:02:54Z</time>
      </trkpt>
      <trkpt lat="48.06479" lon="7.10413">
        <ele>527</ele>
        <time>2019-04-13T02:03:54Z</time>
      </trkpt>
      <trkpt lat="48.06474" lon="7.10415">
        <ele>527</ele>
        <time>2019-04-13T02:04:54Z</time>
      </trkpt>
      <trkpt lat="48.0647" lon="7.10418">
        <ele>527</ele>
        <time>2019-04-13T02:05:54Z</time>
      </trkpt>
      <trkpt lat="48.06468" lon="7.10419">
        <ele>527</ele>
        <time>2019-04-13T02:06:54Z</time>
      </trkpt>
      <trkpt lat="48.06463" lon="7.10422">
        <ele>527</ele>
        <time>2019-04-13T02:07:54Z</time>
      </trkpt>
      <trkpt lat="48.06459" lon="7.10427">
        <ele>527</ele>
        <time>2019-04-13T02:08:54Z</time>
      </trkpt>
      <trkpt lat="48.06455" lon="7.10432">
        <ele>527</ele>
        <time>2019-04-13T02:09:54Z</time>
      </trkpt>
      <trkpt lat="48.06452" lon="7.10437">
        <ele>527</ele>
        <time>2019-04-13T02:10:54Z</time>
      </trkpt>
      <trkpt lat="48.0645" lon="7.10442">
        <ele>528</ele>
        <time>2019-04-13T02:11:54Z</time>
      </trkpt>
      <trkpt lat="48.06446" lon="7.1045">
        <ele>528</ele>
        <time>2019-04-13T02:12:54Z</time>
      </trkpt>
      <trkpt lat="48.06443" lon="7.10458">
        <ele>528</ele>
        <time>2019-04-13T02:13:54Z</time>
      </trkpt>
      <trkpt lat="48.0644" lon="7.10468">
        <ele>529</ele>
        <time>2019-04-13T02:14:54Z</time>
      </trkpt>
      <trkpt lat="48.06437" lon="7.10476">
        <ele>529</ele>
        <time>2019-04-13T02:15:54Z</time>
      </trkpt>
      <trkpt lat="48.06433" lon="7.10484">
        <ele>529</ele>
        <time>2019-04-13T02:16:54Z</time>
      </trkpt>
      <trkpt lat="48.06429" lon="7.10491">
        <ele>529</ele>
        <time>2019-04-13T02:17:54Z</time>
      </trkpt>
      <trkpt lat="48.06426" lon="7.10496">
        <ele>529</ele>
        <time>2019-04-13T02:18:54Z</time>
      </trkpt>
      <trkpt lat="48.06421" lon="7.10501">
        <ele>529</ele>
        <time>2019-04-13T02:19:54Z</time>
      </trkpt>
      <trkpt lat="48.06414" lon="7.10506">
        <ele>528</ele>
        <time>2019-04-13T02:20:54Z</time>
      </trkpt>
      <trkpt lat="48.06407" lon="7.1051">
        <ele>527</ele>
        <time>2019-04-13T02:21:54Z</time>
      </trkpt>
      <trkpt lat="48.06397" lon="7.10513">
        <ele>526</ele>
        <time>2019-04-13T02:22:54Z</time>
      </trkpt>
      <trkpt lat="48.06386" lon="7.10515">
        <ele>525</ele>
        <time>2019-04-13T02:23:54Z</time>
      </trkpt>
      <trkpt lat="48.06364" lon="7.10517">
        <ele>522</ele>
        <time>2019-04-13T02:24:54Z</time>
      </trkpt>
      <trkpt lat="48.06348" lon="7.10517">
        <ele>519</ele>
        <time>2019-04-13T02:25:54Z</time>
      </trkpt>
      <trkpt lat="48.06342" lon="7.10514">
        <ele>518</ele>
        <time>2019-04-13T02:26:54Z</time>
      </trkpt>
      <trkpt lat="48.06339" lon="7.10512">
        <ele>518</ele>
        <time>2019-04-13T02:27:54Z</time>
      </trkpt>
      <trkpt lat="48.06337" lon="7.10511">
        <ele>517</ele>
        <time>2019-04-13T02:28:54Z</time>
      </trkpt>
      <trkpt lat="48.06334" lon="7.10508">
        <ele>517</ele>
        <time>2019-04-13T02:29:54Z</time>
      </trkpt>
      <trkpt lat="48.06331" lon="7.10504">
        <ele>516</ele>
        <time>2019-04-13T02:30:54Z</time>
      </trkpt>
      <trkpt lat="48.06329" lon="7.10498">
        <ele>515</ele>
        <time>2019-04-13T02:31:54Z</time>
      </trkpt>
      <trkpt lat="48.06328" lon="7.10493">
        <ele>515</ele>
        <time>2019-04-13T02:32:54Z</time>
      </trkpt>
      <trkpt lat="48.06326" lon="7.10486">
        <ele>514</ele>
        <time>2019-04-13T02:33:54Z</time>
      </trkpt>
      <trkpt lat="48.06326" lon="7.10482">
        <ele>513</ele>
        <time>2019-04-13T02:34:54Z</time>
      </trkpt>
      <trkpt lat="48.06326" lon="7.10475">
        <ele>513</ele>
        <time>2019-04-13T02:35:54Z</time>
      </trkpt>
      <trkpt lat="48.06327" lon="7.10468">
        <ele>512</ele>
        <time>2019-04-13T02:36:54Z</time>
      </trkpt>
      <trkpt lat="48.06329" lon="7.10459">
        <ele>512</ele>
        <time>2019-04-13T02:37:54Z</time>
      </trkpt>
      <trkpt lat="48.06335" lon="7.10446">
        <ele>512</ele>
        <time>2019-04-13T02:38:54Z</time>
      </trkpt>
      <trkpt lat="48.06337" lon="7.10441">
        <ele>512</ele>
        <time>2019-04-13T02:39:54Z</time>
      </trkpt>
      <trkpt lat="48.06345" lon="7.10427">
        <ele>512</ele>
        <time>2019-04-13T02:40:54Z</time>
      </trkpt>
      <trkpt lat="48.06354" lon="7.10412">
        <ele>512</ele>
        <time>2019-04-13T02:41:54Z</time>
      </trkpt>
      <trkpt lat="48.06362" lon="7.10401">
        <ele>512</ele>
        <time>2019-04-13T02:42:54Z</time>
      </trkpt>
      <trkpt lat="48.06373" lon="7.10389">
        <ele>513</ele>
        <time>2019-04-13T02:43:54Z</time>
      </trkpt>
      <trkpt lat="48.06381" lon="7.10382">
        <ele>513</ele>
        <time>2019-04-13T02:44:54Z</time>
      </trkpt>
      <trkpt lat="48.06393" lon="7.10374">
        <ele>514</ele>
        <time>2019-04-13T02:45:54Z</time>
      </trkpt>
      <trkpt lat="48.06401" lon="7.10369">
        <ele>515</ele>
        <time>2019-04-13T02:46:54Z</time>
      </trkpt>
      <trkpt lat="48.06412" lon="7.10364">
        <ele>515</ele>
        <time>2019-04-13T02:47:54Z</time>
      </trkpt>
      <trkpt lat="48.06424" lon="7.10358">
        <ele>516</ele>
        <time>2019-04-13T02:48:54Z</time>
      </trkpt>
      <trkpt lat="48.0643" lon="7.10352">
        <ele>515</ele>
        <time>2019-04-13T02:49:54Z</time>
      </trkpt>
      <trkpt lat="48.06434" lon="7.10347">
        <ele>515</ele>
        <time>2019-04-13T02:50:54Z</time>
      </trkpt>
      <trkpt lat="48.06437" lon="7.10342">
        <ele>515</ele>
        <time>2019-04-13T02:51:54Z</time>
      </trkpt>
      <trkpt lat="48.06439" lon="7.10338">
        <ele>514</ele>
        <time>2019-04-13T02:52:54Z</time>
      </trkpt>
      <trkpt lat="48.0644" lon="7.10334">
        <ele>514</ele>
        <time>2019-04-13T02:53:54Z</time>
      </trkpt>
      <trkpt lat="48.06441" lon="7.10329">
        <ele>514</ele>
        <time>2019-04-13T02:54:54Z</time>
      </trkpt>
      <trkpt lat="48.06441" lon="7.10324">
        <ele>514</ele>
        <time>2019-04-13T02:55:54Z</time>
      </trkpt>
      <trkpt lat="48.06442" lon="7.10318">
        <ele>513</ele>
        <time>2019-04-13T02:56:54Z</time>
      </trkpt>
      <trkpt lat="48.06441" lon="7.10311">
        <ele>513</ele>
        <time>2019-04-13T02:57:54Z</time>
      </trkpt>
      <trkpt lat="48.06435" lon="7.1029">
        <ele>512</ele>
        <time>2019-04-13T02:58:54Z</time>
      </trkpt>
      <trkpt lat="48.06434" lon="7.10285">
        <ele>512</ele>
        <time>2019-04-13T02:59:54Z</time>
      </trkpt>
      <trkpt lat="48.06431" lon="7.10276">
        <ele>512</ele>
        <time>2019-04-13T03:00:54Z</time>
      </trkpt>
      <trkpt lat="48.06428" lon="7.10268">
        <ele>512</ele>
        <time>2019-04-13T03:01:54Z</time>
      </trkpt>
      <trkpt lat="48.06425" lon="7.10261">
        <ele>511</ele>
        <time>2019-04-13T03:02:54Z</time>
      </trkpt>
      <trkpt lat="48.06422" lon="7.10255">
        <ele>511</ele>
        <time>2019-04-13T03:03:54Z</time>
      </trkpt>
      <trkpt lat="48.06421" lon="7.10252">
        <ele>511</ele>
        <time>2019-04-13T03:04:54Z</time>
      </trkpt>
      <trkpt lat="48.06418" lon="7.10247">
        <ele>511</ele>
        <time>2019-04-13T03:05:54Z</time>
      </trkpt>
      <trkpt lat="48.06415" lon="7.10246">
        <ele>511</ele>
        <time>2019-04-13T03:06:54Z</time>
      </trkpt>
      <trkpt lat="48.06411" lon="7.10243">
        <ele>511</ele>
        <time>2019-04-13T03:07:54Z</time>
      </trkpt>
      <trkpt lat="48.06406" lon="7.10241">
        <ele>511</ele>
        <time>2019-04-13T03:08:54Z</time>
      </trkpt>
      <trkpt lat="48.06398" lon="7.10244">
        <ele>511</ele>
        <time>2019-04-13T03:09:54Z</time>
      </trkpt>
      <trkpt lat="48.06388" lon="7.1025">
        <ele>510</ele>
        <time>2019-04-13T03:10:54Z</time>
      </trkpt>
      <trkpt lat="48.06368" lon="7.10267">
        <ele>508</ele>
        <time>2019-04-13T03:11:54Z</time>
      </trkpt>
      <trkpt lat="48.06354" lon="7.10278">
        <ele>507</ele>
        <time>2019-04-13T03:12:54Z</time>
      </trkpt>
      <trkpt lat="48.06327" lon="7.10301">
        <ele>504</ele>
        <time>2019-04-13T03:13:54Z</time>
      </trkpt>
      <trkpt lat="48.06322" lon="7.10306">
        <ele>504</ele>
        <time>2019-04-13T03:14:54Z</time>
      </trkpt>
      <trkpt lat="48.0631" lon="7.10315">
        <ele>503</ele>
        <time>2019-04-13T03:15:54Z</time>
      </trkpt>
      <trkpt lat="48.06298" lon="7.10325">
        <ele>502</ele>
        <time>2019-04-13T03:16:54Z</time>
      </trkpt>
      <trkpt lat="48.06283" lon="7.10337">
        <ele>501</ele>
        <time>2019-04-13T03:17:54Z</time>
      </trkpt>
      <trkpt lat="48.06272" lon="7.10346">
        <ele>501</ele>
        <time>2019-04-13T03:18:54Z</time>
      </trkpt>
      <trkpt lat="48.06257" lon="7.10356">
        <ele>500</ele>
        <time>2019-04-13T03:19:54Z</time>
      </trkpt>
      <trkpt lat="48.06249" lon="7.1036">
        <ele>500</ele>
        <time>2019-04-13T03:20:54Z</time>
      </trkpt>
      <trkpt lat="48.06242" lon="7.10358">
        <ele>499</ele>
        <time>2019-04-13T03:21:54Z</time>
      </trkpt>
      <trkpt lat="48.06234" lon="7.10355">
        <ele>499</ele>
        <time>2019-04-13T03:22:54Z</time>
      </trkpt>
      <trkpt lat="48.06229" lon="7.10351">
        <ele>498</ele>
        <time>2019-04-13T03:23:54Z</time>
      </trkpt>
      <trkpt lat="48.06223" lon="7.10346">
        <ele>498</ele>
        <time>2019-04-13T03:24:54Z</time>
      </trkpt>
      <trkpt lat="48.06215" lon="7.10333">
        <ele>498</ele>
        <time>2019-04-13T03:25:54Z</time>
      </trkpt>
      <trkpt lat="48.06204" lon="7.10319">
        <ele>498</ele>
        <time>2019-04-13T03:26:54Z</time>
      </trkpt>
      <trkpt lat="48.06196" lon="7.10309">
        <ele>498</ele>
        <time>2019-04-13T03:27:54Z</time>
      </trkpt>
      <trkpt lat="48.06184" lon="7.10294">
        <ele>497</ele>
        <time>2019-04-13T03:28:54Z</time>
      </trkpt>
      <trkpt lat="48.06173" lon="7.10283">
        <ele>497</ele>
        <time>2019-04-13T03:29:54Z</time>
      </trkpt>
      <trkpt lat="48.06162" lon="7.10276">
        <ele>496</ele>
        <time>2019-04-13T03:30:54Z</time>
      </trkpt>
      <trkpt lat="48.0615" lon="7.10267">
        <ele>496</ele>
        <time>2019-04-13T03:31:54Z</time>
      </trkpt>
      <trkpt lat="48.06137" lon="7.10259">
        <ele>495</ele>
        <time>2019-04-13T03:32:54Z</time>
      </trkpt>
      <trkpt lat="48.06103" lon="7.10238">
        <ele>494</ele>
        <time>2019-04-13T03:33:54Z</time>
      </trkpt>
      <trkpt lat="48.06091" lon="7.1023">
        <ele>493</ele>
        <time>2019-04-13T03:34:54Z</time>
      </trkpt>
      <trkpt lat="48.06077" lon="7.10222">
        <ele>492</ele>
        <time>2019-04-13T03:35:54Z</time>
      </trkpt>
      <trkpt lat="48.06063" lon="7.10213">
        <ele>492</ele>
        <time>2019-04-13T03:36:54Z</time>
      </trkpt>
      <trkpt lat="48.0604" lon="7.102">
        <ele>490</ele>
        <time>2019-04-13T03:37:54Z</time>
      </trkpt>
      <trkpt lat="48.06016" lon="7.10187">
        <ele>489</ele>
        <time>2019-04-13T03:38:54Z</time>
      </trkpt>
      <trkpt lat="48.05995" lon="7.10177">
        <ele>488</ele>
        <time>2019-04-13T03:39:54Z</time>
      </trkpt>
      <trkpt lat="48.05969" lon="7.10164">
        <ele>488</ele>
        <time>2019-04-13T03:40:54Z</time>
      </trkpt>
      <trkpt lat="48.05955" lon="7.10159">
        <ele>488</ele>
        <time>2019-04-13T03:41:54Z</time>
      </trkpt>
      <trkpt lat="48.0595" lon="7.10158">
        <ele>488</ele>
        <time>2019-04-13T03:42:54Z</time>
      </trkpt>
      <trkpt lat="48.05944" lon="7.10157">
        <ele>488</ele>
        <time>2019-04-13T03:43:54Z</time>
      </trkpt>
      <trkpt lat="48.05937" lon="7.10159">
        <ele>487</ele>
        <time>2019-04-13T03:44:54Z</time>
      </trkpt>
      <trkpt lat="48.0593" lon="7.1016">
        <ele>487</ele>
        <time>2019-04-13T03:45:54Z</time>
      </trkpt>
      <trkpt lat="48.05922" lon="7.10164">
        <ele>486</ele>
        <time>2019-04-13T03:46:54Z</time>
      </trkpt>
      <trkpt lat="48.05912" lon="7.10168">
        <ele>486</ele>
        <time>2019-04-13T03:47:54Z</time>
      </trkpt>
      <trkpt lat="48.05896" lon="7.10179">
        <ele>484</ele>
        <time>2019-04-13T03:48:54Z</time>
      </trkpt>
      <trkpt lat="48.05854" lon="7.10209">
        <ele>481</ele>
        <time>2019-04-13T03:49:54Z</time>
      </trkpt>
      <trkpt lat="48.05832" lon="7.10222">
        <ele>480</ele>
        <time>2019-04-13T03:50:54Z</time>
      </trkpt>
      <trkpt lat="48.05803" lon="7.10238">
        <ele>479</ele>
        <time>2019-04-13T03:51:54Z</time>
      </trkpt>
      <trkpt lat="48.05781" lon="7.1025">
        <ele>479</ele>
        <time>2019-04-13T03:52:54Z</time>
      </trkpt>
      <trkpt lat="48.0572" lon="7.10282">
        <ele>476</ele>
        <time>2019-04-13T03:53:54Z</time>
      </trkpt>
      <trkpt lat="48.05658" lon="7.10315">
        <ele>473</ele>
        <time>2019-04-13T03:54:54Z</time>
      </trkpt>
      <trkpt lat="48.05622" lon="7.10333">
        <ele>473</ele>
        <time>2019-04-13T03:55:54Z</time>
      </trkpt>
      <trkpt lat="48.05588" lon="7.10353">
        <ele>472</ele>
        <time>2019-04-13T03:56:54Z</time>
      </trkpt>
      <trkpt lat="48.05577" lon="7.10359">
        <ele>471</ele>
        <time>2019-04-13T03:57:54Z</time>
      </trkpt>
      <trkpt lat="48.05564" lon="7.10365">
        <ele>468</ele>
        <time>2019-04-13T03:58:54Z</time>
      </trkpt>
      <trkpt lat="48.05552" lon="7.10367">
        <ele>467</ele>
        <time>2019-04-13T03:59:54Z</time>
      </trkpt>
      <trkpt lat="48.05546" lon="7.10367">
        <ele>466</ele>
        <time>2019-04-13T04:00:54Z</time>
      </trkpt>
      <trkpt lat="48.05541" lon="7.10368">
        <ele>465</ele>
        <time>2019-04-13T04:01:54Z</time>
      </trkpt>
      <trkpt lat="48.0553" lon="7.10365">
        <ele>465</ele>
        <time>2019-04-13T04:02:54Z</time>
      </trkpt>
      <trkpt lat="48.05521" lon="7.10362">
        <ele>465</ele>
        <time>2019-04-13T04:03:54Z</time>
      </trkpt>
      <trkpt lat="48.0551" lon="7.10356">
        <ele>465</ele>
        <time>2019-04-13T04:04:54Z</time>
      </trkpt>
      <trkpt lat="48.05502" lon="7.10348">
        <ele>465</ele>
        <time>2019-04-13T04:05:54Z</time>
      </trkpt>
      <trkpt lat="48.05492" lon="7.10337">
        <ele>465</ele>
        <time>2019-04-13T04:06:54Z</time>
      </trkpt>
      <trkpt lat="48.05486" lon="7.1033">
        <ele>466</ele>
        <time>2019-04-13T04:07:54Z</time>
      </trkpt>
      <trkpt lat="48.05481" lon="7.10321">
        <ele>466</ele>
        <time>2019-04-13T04:08:54Z</time>
      </trkpt>
      <trkpt lat="48.05475" lon="7.10311">
        <ele>466</ele>
        <time>2019-04-13T04:09:54Z</time>
      </trkpt>
      <trkpt lat="48.0547" lon="7.10299">
        <ele>467</ele>
        <time>2019-04-13T04:10:54Z</time>
      </trkpt>
      <trkpt lat="48.05468" lon="7.10293">
        <ele>467</ele>
        <time>2019-04-13T04:11:54Z</time>
      </trkpt>
      <trkpt lat="48.05461" lon="7.10277">
        <ele>467</ele>
        <time>2019-04-13T04:12:54Z</time>
      </trkpt>
      <trkpt lat="48.05452" lon="7.10251">
        <ele>467</ele>
        <time>2019-04-13T04:13:54Z</time>
      </trkpt>
      <trkpt lat="48.05446" lon="7.1023">
        <ele>466</ele>
        <time>2019-04-13T04:14:54Z</time>
      </trkpt>
      <trkpt lat="48.05442" lon="7.10213">
        <ele>465</ele>
        <time>2019-04-13T04:15:54Z</time>
      </trkpt>
      <trkpt lat="48.05438" lon="7.10199">
        <ele>464</ele>
        <time>2019-04-13T04:16:54Z</time>
      </trkpt>
      <trkpt lat="48.05435" lon="7.10179">
        <ele>464</ele>
        <time>2019-04-13T04:17:54Z</time>
      </trkpt>
      <trkpt lat="48.05432" lon="7.10161">
        <ele>464</ele>
        <time>2019-04-13T04:18:54Z</time>
      </trkpt>
      <trkpt lat="48.05431" lon="7.10157">
        <ele>463</ele>
        <time>2019-04-13T04:19:54Z</time>
      </trkpt>
      <trkpt lat="48.05426" lon="7.1012">
        <ele>462</ele>
        <time>2019-04-13T04:20:54Z</time>
      </trkpt>
      <trkpt lat="48.05423" lon="7.10095">
        <ele>462</ele>
        <time>2019-04-13T04:21:54Z</time>
      </trkpt>
      <trkpt lat="48.05422" lon="7.10089">
        <ele>461</ele>
        <time>2019-04-13T04:22:54Z</time>
      </trkpt>
      <trkpt lat="48.05421" lon="7.10085">
        <ele>461</ele>
        <time>2019-04-13T04:23:54Z</time>
      </trkpt>
      <trkpt lat="48.05418" lon="7.10078">
        <ele>460</ele>
        <time>2019-04-13T04:24:54Z</time>
      </trkpt>
      <trkpt lat="48.05414" lon="7.10071">
        <ele>460</ele>
        <time>2019-04-13T04:25:54Z</time>
      </trkpt>
      <trkpt lat="48.05411" lon="7.10067">
        <ele>460</ele>
        <time>2019-04-13T04:26:54Z</time>
      </trkpt>
      <trkpt lat="48.05407" lon="7.10063">
        <ele>459</ele>
        <time>2019-04-13T04:27:54Z</time>
      </trkpt>
      <trkpt lat="48.054" lon="7.10059">
        <ele>459</ele>
        <time>2019-04-13T04:28:54Z</time>
      </trkpt>
      <trkpt lat="48.05396" lon="7.10058">
        <ele>459</ele>
        <time>2019-04-13T04:29:54Z</time>
      </trkpt>
      <trkpt lat="48.05392" lon="7.10057">
        <ele>458</ele>
        <time>2019-04-13T04:30:54Z</time>
      </trkpt>
      <trkpt lat="48.0539" lon="7.10058">
        <ele>458</ele>
        <time>2019-04-13T04:31:54Z</time>
      </trkpt>
      <trkpt lat="48.05387" lon="7.10058">
        <ele>458</ele>
        <time>2019-04-13T04:32:54Z</time>
      </trkpt>
      <trkpt lat="48.05384" lon="7.1006">
        <ele>458</ele>
        <time>2019-04-13T04:33:54Z</time>
      </trkpt>
      <trkpt lat="48.05381" lon="7.10062">
        <ele>458</ele>
        <time>2019-04-13T04:34:54Z</time>
      </trkpt>
      <trkpt lat="48.05378" lon="7.10063">
        <ele>457</ele>
        <time>2019-04-13T04:35:54Z</time>
      </trkpt>
      <trkpt lat="48.05375" lon="7.10066">
        <ele>457</ele>
        <time>2019-04-13T04:36:54Z</time>
      </trkpt>
      <trkpt lat="48.05372" lon="7.1007">
        <ele>457</ele>
        <time>2019-04-13T04:37:54Z</time>
      </trkpt>
      <trkpt lat="48.0537" lon="7.10073">
        <ele>457</ele>
        <time>2019-04-13T04:38:54Z</time>
      </trkpt>
      <trkpt lat="48.05369" lon="7.10075">
        <ele>457</ele>
        <time>2019-04-13T04:39:54Z</time>
      </trkpt>
      <trkpt lat="48.05366" lon="7.10081">
        <ele>456</ele>
        <time>2019-04-13T04:40:54Z</time>
      </trkpt>
      <trkpt lat="48.05352" lon="7.10123">
        <ele>455</ele>
        <time>2019-04-13T04:41:54Z</time>
      </trkpt>
      <trkpt lat="48.05326" lon="7.10209">
        <ele>452</ele>
        <time>2019-04-13T04:42:54Z</time>
      </trkpt>
      <trkpt lat="48.05324" lon="7.10216">
        <ele>452</ele>
        <time>2019-04-13T04:43:54Z</time>
      </trkpt>
      <trkpt lat="48.05299" lon="7.10294">
        <ele>451</ele>
        <time>2019-04-13T04:44:54Z</time>
      </trkpt>
      <trkpt lat="48.05276" lon="7.10365">
        <ele>450</ele>
        <time>2019-04-13T04:45:54Z</time>
      </trkpt>
      <trkpt lat="48.05272" lon="7.10379">
        <ele>450</ele>
        <time>2019-04-13T04:46:54Z</time>
      </trkpt>
      <trkpt lat="48.05228" lon="7.10518">
        <ele>448</ele>
        <time>2019-04-13T04:47:54Z</time>
      </trkpt>
      <trkpt lat="48.05208" lon="7.10579">
        <ele>446</ele>
        <time>2019-04-13T04:48:54Z</time>
      </trkpt>
      <trkpt lat="48.0518" lon="7.10669">
        <ele>446</ele>
        <time>2019-04-13T04:49:54Z</time>
      </trkpt>
      <trkpt lat="48.05136" lon="7.10807">
        <ele>442</ele>
        <time>2019-04-13T04:50:54Z</time>
      </trkpt>
      <trkpt lat="48.051" lon="7.10919">
        <ele>438</ele>
        <time>2019-04-13T04:51:54Z</time>
      </trkpt>
      <trkpt lat="48.05096" lon="7.10933">
        <ele>437</ele>
        <time>2019-04-13T04:52:54Z</time>
      </trkpt>
      <trkpt lat="48.05086" lon="7.10964">
        <ele>436</ele>
        <time>2019-04-13T04:53:54Z</time>
      </trkpt>
      <trkpt lat="48.0506" lon="7.11045">
        <ele>434</ele>
        <time>2019-04-13T04:54:54Z</time>
      </trkpt>
      <trkpt lat="48.05055" lon="7.11059">
        <ele>434</ele>
        <time>2019-04-13T04:55:54Z</time>
      </trkpt>
      <trkpt lat="48.05044" lon="7.11094">
        <ele>433</ele>
        <time>2019-04-13T04:56:54Z</time>
      </trkpt>
      <trkpt lat="48.05026" lon="7.11151">
        <ele>431</ele>
        <time>2019-04-13T04:57:54Z</time>
      </trkpt>
      <trkpt lat="48.05017" lon="7.11179">
        <ele>430</ele>
        <time>2019-04-13T04:58:54Z</time>
      </trkpt>
      <trkpt lat="48.05011" lon="7.11197">
        <ele>430</ele>
        <time>2019-04-13T04:59:54Z</time>
      </trkpt>
      <trkpt lat="48.04996" lon="7.11243">
        <ele>428</ele>
        <time>2019-04-13T05:00:54Z</time>
      </trkpt>
      <trkpt lat="48.04988" lon="7.11267">
        <ele>428</ele>
        <time>2019-04-13T05:01:54Z</time>
      </trkpt>
      <trkpt lat="48.04966" lon="7.11339">
        <ele>426</ele>
        <time>2019-04-13T05:02:54Z</time>
      </trkpt>
      <trkpt lat="48.04953" lon="7.11379">
        <ele>425</ele>
        <time>2019-04-13T05:03:54Z</time>
      </trkpt>
      <trkpt lat="48.04945" lon="7.11402">
        <ele>424</ele>
        <time>2019-04-13T05:04:54Z</time>
      </trkpt>
      <trkpt lat="48.04934" lon="7.1144">
        <ele>423</ele>
        <time>2019-04-13T05:05:54Z</time>
      </trkpt>
      <trkpt lat="48.04906" lon="7.11526">
        <ele>421</ele>
        <time>2019-04-13T05:06:54Z</time>
      </trkpt>
      <trkpt lat="48.04896" lon="7.11558">
        <ele>421</ele>
        <time>2019-04-13T05:07:54Z</time>
      </trkpt>
      <trkpt lat="48.04892" lon="7.11569">
        <ele>420</ele>
        <time>2019-04-13T05:08:54Z</time>
      </trkpt>
      <trkpt lat="48.04885" lon="7.11592">
        <ele>420</ele>
        <time>2019-04-13T05:09:54Z</time>
      </trkpt>
      <trkpt lat="48.0488" lon="7.11608">
        <ele>419</ele>
        <time>2019-04-13T05:10:54Z</time>
      </trkpt>
      <trkpt lat="48.04854" lon="7.1169">
        <ele>417</ele>
        <time>2019-04-13T05:11:54Z</time>
      </trkpt>
      <trkpt lat="48.04841" lon="7.11729">
        <ele>416</ele>
        <time>2019-04-13T05:12:54Z</time>
      </trkpt>
      <trkpt lat="48.04819" lon="7.118">
        <ele>414</ele>
        <time>2019-04-13T05:13:54Z</time>
      </trkpt>
      <trkpt lat="48.04791" lon="7.11888">
        <ele>413</ele>
        <time>2019-04-13T05:14:54Z</time>
      </trkpt>
      <trkpt lat="48.04778" lon="7.1193">
        <ele>412</ele>
        <time>2019-04-13T05:15:54Z</time>
      </trkpt>
      <trkpt lat="48.04757" lon="7.11997">
        <ele>411</ele>
        <time>2019-04-13T05:16:54Z</time>
      </trkpt>
      <trkpt lat="48.0475" lon="7.1202">
        <ele>411</ele>
        <time>2019-04-13T05:17:54Z</time>
      </trkpt>
      <trkpt lat="48.04741" lon="7.12047">
        <ele>411</ele>
        <time>2019-04-13T05:18:54Z</time>
      </trkpt>
      <trkpt lat="48.0473" lon="7.12077">
        <ele>410</ele>
        <time>2019-04-13T05:19:54Z</time>
      </trkpt>
      <trkpt lat="48.04724" lon="7.12092">
        <ele>410</ele>
        <time>2019-04-13T05:20:54Z</time>
      </trkpt>
      <trkpt lat="48.04719" lon="7.12103">
        <ele>410</ele>
        <time>2019-04-13T05:21:54Z</time>
      </trkpt>
      <trkpt lat="48.04714" lon="7.12111">
        <ele>410</ele>
        <time>2019-04-13T05:22:54Z</time>
      </trkpt>
      <trkpt lat="48.04703" lon="7.12132">
        <ele>409</ele>
        <time>2019-04-13T05:23:54Z</time>
      </trkpt>
      <trkpt lat="48.04696" lon="7.12143">
        <ele>409</ele>
        <time>2019-04-13T05:24:54Z</time>
      </trkpt>
      <trkpt lat="48.04674" lon="7.12178">
        <ele>408</ele>
        <time>2019-04-13T05:25:54Z</time>
      </trkpt>
      <trkpt lat="48.04658" lon="7.12205">
        <ele>408</ele>
        <time>2019-04-13T05:26:54Z</time>
      </trkpt>
      <trkpt lat="48.04642" lon="7.12231">
        <ele>407</ele>
        <time>2019-04-13T05:27:54Z</time>
      </trkpt>
      <trkpt lat="48.04623" lon="7.12261">
        <ele>407</ele>
        <time>2019-04-13T05:28:54Z</time>
      </trkpt>
      <trkpt lat="48.04607" lon="7.12286">
        <ele>407</ele>
        <time>2019-04-13T05:29:54Z</time>
      </trkpt>
      <trkpt lat="48.04576" lon="7.12337">
        <ele>407</ele>
        <time>2019-04-13T05:30:54Z</time>
      </trkpt>
      <trkpt lat="48.0455" lon="7.1238">
        <ele>406</ele>
        <time>2019-04-13T05:31:54Z</time>
      </trkpt>
      <trkpt lat="48.04534" lon="7.12407">
        <ele>406</ele>
        <time>2019-04-13T05:32:54Z</time>
      </trkpt>
      <trkpt lat="48.04529" lon="7.12419">
        <ele>405</ele>
        <time>2019-04-13T05:33:54Z</time>
      </trkpt>
      <trkpt lat="48.04523" lon="7.12433">
        <ele>405</ele>
        <time>2019-04-13T05:34:54Z</time>
      </trkpt>
      <trkpt lat="48.04509" lon="7.12467">
        <ele>404</ele>
        <time>2019-04-13T05:35:54Z</time>
      </trkpt>
      <trkpt lat="48.04491" lon="7.12518">
        <ele>403</ele>
        <time>2019-04-13T05:36:54Z</time>
      </trkpt>
      <trkpt lat="48.04468" lon="7.12577">
        <ele>401</ele>
        <time>2019-04-13T05:37:54Z</time>
      </trkpt>
      <trkpt lat="48.04465" lon="7.12584">
        <ele>401</ele>
        <time>2019-04-13T05:38:54Z</time>
      </trkpt>
      <trkpt lat="48.04442" lon="7.12638">
        <ele>400</ele>
        <time>2019-04-13T05:39:54Z</time>
      </trkpt>
      <trkpt lat="48.04433" lon="7.12654">
        <ele>399</ele>
        <time>2019-04-13T05:40:54Z</time>
      </trkpt>
      <trkpt lat="48.04421" lon="7.12675">
        <ele>399</ele>
        <time>2019-04-13T05:41:54Z</time>
      </trkpt>
      <trkpt lat="48.04406" lon="7.12699">
        <ele>399</ele>
        <time>2019-04-13T05:42:54Z</time>
      </trkpt>
      <trkpt lat="48.04398" lon="7.12711">
        <ele>398</ele>
        <time>2019-04-13T05:43:54Z</time>
      </trkpt>
      <trkpt lat="48.04382" lon="7.12735">
        <ele>398</ele>
        <time>2019-04-13T05:44:54Z</time>
      </trkpt>
      <trkpt lat="48.04367" lon="7.12756">
        <ele>397</ele>
        <time>2019-04-13T05:45:54Z</time>
      </trkpt>
      <trkpt lat="48.0435" lon="7.12779">
        <ele>396</ele>
        <time>2019-04-13T05:46:54Z</time>
      </trkpt>
      <trkpt lat="48.04334" lon="7.12802">
        <ele>395</ele>
        <time>2019-04-13T05:47:54Z</time>
      </trkpt>
      <trkpt lat="48.04323" lon="7.12819">
        <ele>395</ele>
        <time>2019-04-13T05:48:54Z</time>
      </trkpt>
      <trkpt lat="48.0432" lon="7.12823">
        <ele>395</ele>
        <time>2019-04-13T05:49:54Z</time>
      </trkpt>
      <trkpt lat="48.04307" lon="7.12841">
        <ele>395</ele>
        <time>2019-04-13T05:50:54Z</time>
      </trkpt>
      <trkpt lat="48.04296" lon="7.12858">
        <ele>395</ele>
        <time>2019-04-13T05:51:54Z</time>
      </trkpt>
      <trkpt lat="48.04292" lon="7.12867">
        <ele>395</ele>
        <time>2019-04-13T05:52:54Z</time>
      </trkpt>
      <trkpt lat="48.04285" lon="7.12883">
        <ele>395</ele>
        <time>2019-04-13T05:53:54Z</time>
      </trkpt>
      <trkpt lat="48.04276" lon="7.1291">
        <ele>395</ele>
        <time>2019-04-13T05:54:54Z</time>
      </trkpt>
      <trkpt lat="48.04264" lon="7.12946">
        <ele>394</ele>
        <time>2019-04-13T05:55:54Z</time>
      </trkpt>
      <trkpt lat="48.04258" lon="7.12965">
        <ele>393</ele>
        <time>2019-04-13T05:56:54Z</time>
      </trkpt>
      <trkpt lat="48.04247" lon="7.12997">
        <ele>392</ele>
        <time>2019-04-13T05:57:54Z</time>
      </trkpt>
      <trkpt lat="48.0424" lon="7.13018">
        <ele>392</ele>
        <time>2019-04-13T05:58:54Z</time>
      </trkpt>
      <trkpt lat="48.04231" lon="7.13044">
        <ele>392</ele>
        <time>2019-04-13T05:59:54Z</time>
      </trkpt>
      <trkpt lat="48.04226" lon="7.13059">
        <ele>391</ele>
        <time>2019-04-13T06:00:54Z</time>
      </trkpt>
      <trkpt lat="48.04222" lon="7.13069">
        <ele>391</ele>
        <time>2019-04-13T06:01:54Z</time>
      </trkpt>
      <trkpt lat="48.04221" lon="7.13074">
        <ele>391</ele>
        <time>2019-04-13T06:02:54Z</time>
      </trkpt>
      <trkpt lat="48.04219" lon="7.13079">
        <ele>391</ele>
        <time>2019-04-13T06:03:54Z</time>
      </trkpt>
      <trkpt lat="48.042" lon="7.13134">
        <ele>391</ele>
        <time>2019-04-13T06:04:54Z</time>
      </trkpt>
      <trkpt lat="48.04199" lon="7.13134">
        <ele>391</ele>
        <time>2019-04-13T06:05:54Z</time>
      </trkpt>
      <trkpt lat="48.04199" lon="7.13133">
        <ele>391</ele>
        <time>2019-04-13T06:06:54Z</time>
      </trkpt>
      <trkpt lat="48.04198" lon="7.13133">
        <ele>391</ele>
        <time>2019-04-13T06:07:54Z</time>
      </trkpt>
      <trkpt lat="48.04197" lon="7.13133">
        <ele>391</ele>
        <time>2019-04-13T06:08:54Z</time>
      </trkpt>
      <trkpt lat="48.04197" lon="7.13134">
        <ele>391</ele>
        <time>2019-04-13T06:09:54Z</time>
      </trkpt>
      <trkpt lat="48.04196" lon="7.13134">
        <ele>391</ele>
        <time>2019-04-13T06:10:54Z</time>
      </trkpt>
      <trkpt lat="48.04195" lon="7.13134">
        <ele>391</ele>
        <time>2019-04-13T06:11:54Z</time>
      </trkpt>
      <trkpt lat="48.04195" lon="7.13135">
        <ele>391</ele>
        <time>2019-04-13T06:12:54Z</time>
      </trkpt>
      <trkpt lat="48.04194" lon="7.13135">
        <ele>391</ele>
        <time>2019-04-13T06:13:54Z</time>
      </trkpt>
      <trkpt lat="48.04194" lon="7.13136">
        <ele>391</ele>
        <time>2019-04-13T06:14:54Z</time>
      </trkpt>
      <trkpt lat="48.04194" lon="7.13137">
        <ele>391</ele>
        <time>2019-04-13T06:15:54Z</time>
      </trkpt>
      <trkpt lat="48.04193" lon="7.13137">
        <ele>391</ele>
        <time>2019-04-13T06:16:54Z</time>
      </trkpt>
      <trkpt lat="48.04193" lon="7.13138">
        <ele>391</ele>
        <time>2019-04-13T06:17:54Z</time>
      </trkpt>
      <trkpt lat="48.04193" lon="7.13139">
        <ele>391</ele>
        <time>2019-04-13T06:18:54Z</time>
      </trkpt>
      <trkpt lat="48.04193" lon="7.1314">
        <ele>391</ele>
        <time>2019-04-13T06:19:54Z</time>
      </trkpt>
      <trkpt lat="48.04193" lon="7.13141">
        <ele>391</ele>
        <time>2019-04-13T06:20:54Z</time>
      </trkpt>
      <trkpt lat="48.04193" lon="7.13142">
        <ele>391</ele>
        <time>2019-04-13T06:21:54Z</time>
      </trkpt>
      <trkpt lat="48.04193" lon="7.13143">
        <ele>391</ele>
        <time>2019-04-13T06:22:54Z</time>
      </trkpt>
      <trkpt lat="48.04193" lon="7.13144">
        <ele>391</ele>
        <time>2019-04-13T06:23:54Z</time>
      </trkpt>
      <trkpt lat="48.04193" lon="7.13145">
        <ele>391</ele>
        <time>2019-04-13T06:24:54Z</time>
      </trkpt>
      <trkpt lat="48.04194" lon="7.13145">
        <ele>391</ele>
        <time>2019-04-13T06:25:54Z</time>
      </trkpt>
      <trkpt lat="48.04194" lon="7.13146">
        <ele>391</ele>
        <time>2019-04-13T06:26:54Z</time>
      </trkpt>
      <trkpt lat="48.04194" lon="7.13147">
        <ele>391</ele>
        <time>2019-04-13T06:27:54Z</time>
      </trkpt>
      <trkpt lat="48.04195" lon="7.13147">
        <ele>391</ele>
        <time>2019-04-13T06:28:54Z</time>
      </trkpt>
      <trkpt lat="48.04179" lon="7.13189">
        <ele>390</ele>
        <time>2019-04-13T06:29:54Z</time>
      </trkpt>
      <trkpt lat="48.04168" lon="7.13213">
        <ele>390</ele>
        <time>2019-04-13T06:30:54Z</time>
      </trkpt>
      <trkpt lat="48.0416" lon="7.13227">
        <ele>389</ele>
        <time>2019-04-13T06:31:54Z</time>
      </trkpt>
      <trkpt lat="48.04157" lon="7.13231">
        <ele>389</ele>
        <time>2019-04-13T06:32:54Z</time>
      </trkpt>
      <trkpt lat="48.04154" lon="7.13233">
        <ele>389</ele>
        <time>2019-04-13T06:33:54Z</time>
      </trkpt>
      <trkpt lat="48.04148" lon="7.13238">
        <ele>389</ele>
        <time>2019-04-13T06:34:54Z</time>
      </trkpt>
      <trkpt lat="48.04142" lon="7.13241">
        <ele>389</ele>
        <time>2019-04-13T06:35:54Z</time>
      </trkpt>
      <trkpt lat="48.04136" lon="7.13244">
        <ele>388</ele>
        <time>2019-04-13T06:36:54Z</time>
      </trkpt>
      <trkpt lat="48.04129" lon="7.13247">
        <ele>388</ele>
        <time>2019-04-13T06:37:54Z</time>
      </trkpt>
      <trkpt lat="48.04123" lon="7.13251">
        <ele>388</ele>
        <time>2019-04-13T06:38:54Z</time>
      </trkpt>
      <trkpt lat="48.04115" lon="7.13259">
        <ele>388</ele>
        <time>2019-04-13T06:39:54Z</time>
      </trkpt>
      <trkpt lat="48.04111" lon="7.13264">
        <ele>387</ele>
        <time>2019-04-13T06:40:54Z</time>
      </trkpt>
      <trkpt lat="48.04106" lon="7.13272">
        <ele>387</ele>
        <time>2019-04-13T06:41:54Z</time>
      </trkpt>
      <trkpt lat="48.04096" lon="7.13323">
        <ele>386</ele>
        <time>2019-04-13T06:42:54Z</time>
      </trkpt>
      <trkpt lat="48.04086" lon="7.13379">
        <ele>385</ele>
        <time>2019-04-13T06:43:54Z</time>
      </trkpt>
      <trkpt lat="48.04086" lon="7.13379">
        <ele>385</ele>
        <time>2019-04-13T06:44:54Z</time>
      </trkpt>
      <trkpt lat="48.04154" lon="7.13409">
        <ele>386</ele>
        <time>2019-04-13T06:45:54Z</time>
      </trkpt>
      <trkpt lat="48.04154" lon="7.13409">
        <ele>386</ele>
        <time>2019-04-13T06:46:54Z</time>
      </trkpt>
      <trkpt lat="48.0416" lon="7.13378">
        <ele>386</ele>
        <time>2019-04-13T06:47:54Z</time>
      </trkpt>
      <trkpt lat="48.04166" lon="7.13347">
        <ele>387</ele>
        <time>2019-04-13T06:48:54Z</time>
      </trkpt>
      <trkpt lat="48.0417" lon="7.1332">
        <ele>387</ele>
        <time>2019-04-13T06:49:54Z</time>
      </trkpt>
      <trkpt lat="48.04172" lon="7.13302">
        <ele>388</ele>
        <time>2019-04-13T06:50:54Z</time>
      </trkpt>
      <trkpt lat="48.04173" lon="7.13288">
        <ele>388</ele>
        <time>2019-04-13T06:51:54Z</time>
      </trkpt>
      <trkpt lat="48.04173" lon="7.13268">
        <ele>388</ele>
        <time>2019-04-13T06:52:54Z</time>
      </trkpt>
      <trkpt lat="48.04173" lon="7.13256">
        <ele>389</ele>
        <time>2019-04-13T06:53:54Z</time>
      </trkpt>
      <trkpt lat="48.04174" lon="7.13236">
        <ele>389</ele>
        <time>2019-04-13T06:54:54Z</time>
      </trkpt>
      <trkpt lat="48.04175" lon="7.13218">
        <ele>390</ele>
        <time>2019-04-13T06:55:54Z</time>
      </trkpt>
      <trkpt lat="48.04179" lon="7.13189">
        <ele>390</ele>
        <time>2019-04-13T06:56:54Z</time>
      </trkpt>
      <trkpt lat="48.04195" lon="7.13147">
        <ele>391</ele>
        <time>2019-04-13T06:57:54Z</time>
      </trkpt>
      <trkpt lat="48.04195" lon="7.13147">
        <ele>391</ele>
        <time>2019-04-13T06:58:54Z</time>
      </trkpt>
      <trkpt lat="48.04195" lon="7.13148">
        <ele>391</ele>
        <time>2019-04-13T06:59:54Z</time>
      </trkpt>
      <trkpt lat="48.04196" lon="7.13148">
        <ele>391</ele>
        <time>2019-04-13T07:00:54Z</time>
      </trkpt>
      <trkpt lat="48.04197" lon="7.13148">
        <ele>391</ele>
        <time>2019-04-13T07:01:54Z</time>
      </trkpt>
      <trkpt lat="48.04198" lon="7.13148">
        <ele>391</ele>
        <time>2019-04-13T07:02:54Z</time>
      </trkpt>
      <trkpt lat="48.04199" lon="7.13148">
        <ele>391</ele>
        <time>2019-04-13T07:03:54Z</time>
      </trkpt>
      <trkpt lat="48.042" lon="7.13148">
        <ele>391</ele>
        <time>2019-04-13T07:04:54Z</time>
      </trkpt>
      <trkpt lat="48.042" lon="7.13147">
        <ele>391</ele>
        <time>2019-04-13T07:05:54Z</time>
      </trkpt>
      <trkpt lat="48.04201" lon="7.13147">
        <ele>391</ele>
        <time>2019-04-13T07:06:54Z</time>
      </trkpt>
      <trkpt lat="48.04201" lon="7.13146">
        <ele>391</ele>
        <time>2019-04-13T07:07:54Z</time>
      </trkpt>
      <trkpt lat="48.04202" lon="7.13146">
        <ele>391</ele>
        <time>2019-04-13T07:08:54Z</time>
      </trkpt>
      <trkpt lat="48.04202" lon="7.13145">
        <ele>391</ele>
        <time>2019-04-13T07:09:54Z</time>
      </trkpt>
      <trkpt lat="48.04202" lon="7.13144">
        <ele>391</ele>
        <time>2019-04-13T07:10:54Z</time>
      </trkpt>
      <trkpt lat="48.04202" lon="7.13143">
        <ele>391</ele>
        <time>2019-04-13T07:11:54Z</time>
      </trkpt>
      <trkpt lat="48.04203" lon="7.13143">
        <ele>391</ele>
        <time>2019-04-13T07:12:54Z</time>
      </trkpt>
      <trkpt lat="48.04203" lon="7.13142">
        <ele>391</ele>
        <time>2019-04-13T07:13:54Z</time>
      </trkpt>
      <trkpt lat="48.04203" lon="7.13141">
        <ele>391</ele>
        <time>2019-04-13T07:14:54Z</time>
      </trkpt>
      <trkpt lat="48.04203" lon="7.1314">
        <ele>391</ele>
        <time>2019-04-13T07:15:54Z</time>
      </trkpt>
      <trkpt lat="48.04203" lon="7.13139">
        <ele>391</ele>
        <time>2019-04-13T07:16:54Z</time>
      </trkpt>
      <trkpt lat="48.04202" lon="7.13139">
        <ele>391</ele>
        <time>2019-04-13T07:17:54Z</time>
      </trkpt>
      <trkpt lat="48.04202" lon="7.13138">
        <ele>391</ele>
        <time>2019-04-13T07:18:54Z</time>
      </trkpt>
      <trkpt lat="48.04202" lon="7.13137">
        <ele>391</ele>
        <time>2019-04-13T07:19:54Z</time>
      </trkpt>
      <trkpt lat="48.04202" lon="7.13136">
        <ele>391</ele>
        <time>2019-04-13T07:20:54Z</time>
      </trkpt>
      <trkpt lat="48.04201" lon="7.13136">
        <ele>391</ele>
        <time>2019-04-13T07:21:54Z</time>
      </trkpt>
      <trkpt lat="48.04201" lon="7.13135">
        <ele>391</ele>
        <time>2019-04-13T07:22:54Z</time>
      </trkpt>
      <trkpt lat="48.042" lon="7.13135">
        <ele>391</ele>
        <time>2019-04-13T07:23:54Z</time>
      </trkpt>
      <trkpt lat="48.042" lon="7.13134">
        <ele>391</ele>
        <time>2019-04-13T07:24:54Z</time>
      </trkpt>
      <trkpt lat="48.04199" lon="7.13134">
        <ele>391</ele>
        <time>2019-04-13T07:25:54Z</time>
      </trkpt>
      <trkpt lat="48.04199" lon="7.13133">
        <ele>391</ele>
        <time>2019-04-13T07:26:54Z</time>
      </trkpt>
      <trkpt lat="48.04198" lon="7.13133">
        <ele>391</ele>
        <time>2019-04-13T07:27:54Z</time>
      </trkpt>
      <trkpt lat="48.04197" lon="7.13133">
        <ele>391</ele>
        <time>2019-04-13T07:28:54Z</time>
      </trkpt>
      <trkpt lat="48.04197" lon="7.13134">
        <ele>391</ele>
        <time>2019-04-13T07:29:54Z</time>
      </trkpt>
      <trkpt lat="48.04196" lon="7.13134">
        <ele>391</ele>
        <time>2019-04-13T07:30:54Z</time>
      </trkpt>
      <trkpt lat="48.04195" lon="7.13134">
        <ele>391</ele>
        <time>2019-04-13T07:31:54Z</time>
      </trkpt>
      <trkpt lat="48.04195" lon="7.13135">
        <ele>391</ele>
        <time>2019-04-13T07:32:54Z</time>
      </trkpt>
      <trkpt lat="48.04194" lon="7.13135">
        <ele>391</ele>
        <time>2019-04-13T07:33:54Z</time>
      </trkpt>
      <trkpt lat="48.04194" lon="7.13136">
        <ele>391</ele>
        <time>2019-04-13T07:34:54Z</time>
      </trkpt>
      <trkpt lat="48.04194" lon="7.13137">
        <ele>391</ele>
        <time>2019-04-13T07:35:54Z</time>
      </trkpt>
      <trkpt lat="48.04193" lon="7.13137">
        <ele>391</ele>
        <time>2019-04-13T07:36:54Z</time>
      </trkpt>
      <trkpt lat="48.04193" lon="7.13138">
        <ele>391</ele>
        <time>2019-04-13T07:37:54Z</time>
      </trkpt>
      <trkpt lat="48.04193" lon="7.13139">
        <ele>391</ele>
        <time>2019-04-13T07:38:54Z</time>
      </trkpt>
      <trkpt lat="48.04193" lon="7.1314">
        <ele>391</ele>
        <time>2019-04-13T07:39:54Z</time>
      </trkpt>
      <trkpt lat="48.04193" lon="7.13141">
        <ele>391</ele>
        <time>2019-04-13T07:40:54Z</time>
      </trkpt>
      <trkpt lat="48.04193" lon="7.13142">
        <ele>391</ele>
        <time>2019-04-13T07:41:54Z</time>
      </trkpt>
      <trkpt lat="48.04193" lon="7.13143">
        <ele>391</ele>
        <time>2019-04-13T07:42:54Z</time>
      </trkpt>
      <trkpt lat="48.04193" lon="7.13144">
        <ele>391</ele>
        <time>2019-04-13T07:43:54Z</time>
      </trkpt>
      <trkpt lat="48.04193" lon="7.13145">
        <ele>391</ele>
        <time>2019-04-13T07:44:54Z</time>
      </trkpt>
      <trkpt lat="48.04194" lon="7.13145">
        <ele>391</ele>
        <time>2019-04-13T07:45:54Z</time>
      </trkpt>
      <trkpt lat="48.04194" lon="7.13146">
        <ele>391</ele>
        <time>2019-04-13T07:46:54Z</time>
      </trkpt>
      <trkpt lat="48.04194" lon="7.13147">
        <ele>391</ele>
        <time>2019-04-13T07:47:54Z</time>
      </trkpt>
      <trkpt lat="48.04195" lon="7.13147">
        <ele>391</ele>
        <time>2019-04-13T07:48:54Z</time>
      </trkpt>
      <trkpt lat="48.04179" lon="7.13189">
        <ele>390</ele>
        <time>2019-04-13T07:49:54Z</time>
      </trkpt>
      <trkpt lat="48.04168" lon="7.13213">
        <ele>390</ele>
        <time>2019-04-13T07:50:54Z</time>
      </trkpt>
      <trkpt lat="48.0416" lon="7.13227">
        <ele>389</ele>
        <time>2019-04-13T07:51:54Z</time>
      </trkpt>
      <trkpt lat="48.0416" lon="7.13227">
        <ele>389</ele>
        <time>2019-04-13T07:52:54Z</time>
      </trkpt>
      <trkpt lat="48.04145" lon="7.13216">
        <ele>389</ele>
        <time>2019-04-13T07:53:54Z</time>
      </trkpt>
      <trkpt lat="48.04124" lon="7.13201">
        <ele>389</ele>
        <time>2019-04-13T07:54:54Z</time>
      </trkpt>
      <trkpt lat="48.04117" lon="7.13194">
        <ele>389</ele>
        <time>2019-04-13T07:55:54Z</time>
      </trkpt>
      <trkpt lat="48.04104" lon="7.13179">
        <ele>389</ele>
        <time>2019-04-13T07:56:54Z</time>
      </trkpt>
      <trkpt lat="48.04086" lon="7.13142">
        <ele>390</ele>
        <time>2019-04-13T07:57:54Z</time>
      </trkpt>
      <trkpt lat="48.04066" lon="7.131">
        <ele>390</ele>
        <time>2019-04-13T07:58:54Z</time>
      </trkpt>
      <trkpt lat="48.04042" lon="7.13038">
        <ele>393</ele>
        <time>2019-04-13T07:59:54Z</time>
      </trkpt>
      <trkpt lat="48.0403" lon="7.13002">
        <ele>394</ele>
        <time>2019-04-13T08:00:54Z</time>
      </trkpt>
      <trkpt lat="48.04011" lon="7.12951">
        <ele>396</ele>
        <time>2019-04-13T08:01:54Z</time>
      </trkpt>
      <trkpt lat="48.04007" lon="7.1294">
        <ele>396</ele>
        <time>2019-04-13T08:02:54Z</time>
      </trkpt>
      <trkpt lat="48.04001" lon="7.12927">
        <ele>396</ele>
        <time>2019-04-13T08:03:54Z</time>
      </trkpt>
      <trkpt lat="48.0399" lon="7.12901">
        <ele>397</ele>
        <time>2019-04-13T08:04:54Z</time>
      </trkpt>
      <trkpt lat="48.03983" lon="7.12883">
        <ele>396</ele>
        <time>2019-04-13T08:05:54Z</time>
      </trkpt>
      <trkpt lat="48.03983" lon="7.12883">
        <ele>396</ele>
        <time>2019-04-13T08:06:54Z</time>
      </trkpt>
      <trkpt lat="48.03985" lon="7.12879">
        <ele>397</ele>
        <time>2019-04-13T08:07:54Z</time>
      </trkpt>
      <trkpt lat="48.03985" lon="7.12874">
        <ele>397</ele>
        <time>2019-04-13T08:08:54Z</time>
      </trkpt>
      <trkpt lat="48.03985" lon="7.12868">
        <ele>397</ele>
        <time>2019-04-13T08:09:54Z</time>
      </trkpt>
      <trkpt lat="48.03983" lon="7.12864">
        <ele>397</ele>
        <time>2019-04-13T08:10:54Z</time>
      </trkpt>
      <trkpt lat="48.03979" lon="7.12862">
        <ele>397</ele>
        <time>2019-04-13T08:11:54Z</time>
      </trkpt>
      <trkpt lat="48.03976" lon="7.12861">
        <ele>396</ele>
        <time>2019-04-13T08:12:54Z</time>
      </trkpt>
      <trkpt lat="48.03973" lon="7.12863">
        <ele>396</ele>
        <time>2019-04-13T08:13:54Z</time>
      </trkpt>
      <trkpt lat="48.03973" lon="7.12854">
        <ele>396</ele>
        <time>2019-04-13T08:14:54Z</time>
      </trkpt>
      <trkpt lat="48.03971" lon="7.12846">
        <ele>396</ele>
        <time>2019-04-13T08:15:54Z</time>
      </trkpt>
      <trkpt lat="48.03968" lon="7.12836">
        <ele>396</ele>
        <time>2019-04-13T08:16:54Z</time>
      </trkpt>
      <trkpt lat="48.03966" lon="7.12828">
        <ele>396</ele>
        <time>2019-04-13T08:17:54Z</time>
      </trkpt>
      <trkpt lat="48.03963" lon="7.1282">
        <ele>396</ele>
        <time>2019-04-13T08:18:54Z</time>
      </trkpt>
      <trkpt lat="48.03956" lon="7.12799">
        <ele>396</ele>
        <time>2019-04-13T08:19:54Z</time>
      </trkpt>
      <trkpt lat="48.03945" lon="7.12771">
        <ele>396</ele>
        <time>2019-04-13T08:20:54Z</time>
      </trkpt>
      <trkpt lat="48.03936" lon="7.12751">
        <ele>396</ele>
        <time>2019-04-13T08:21:54Z</time>
      </trkpt>
      <trkpt lat="48.03924" lon="7.12726">
        <ele>396</ele>
        <time>2019-04-13T08:22:54Z</time>
      </trkpt>
      <trkpt lat="48.03914" lon="7.12708">
        <ele>397</ele>
        <time>2019-04-13T08:23:54Z</time>
      </trkpt>
      <trkpt lat="48.03903" lon="7.12687">
        <ele>398</ele>
        <time>2019-04-13T08:24:54Z</time>
      </trkpt>
      <trkpt lat="48.03881" lon="7.12653">
        <ele>399</ele>
        <time>2019-04-13T08:25:54Z</time>
      </trkpt>
      <trkpt lat="48.03851" lon="7.12583">
        <ele>399</ele>
        <time>2019-04-13T08:26:54Z</time>
      </trkpt>
      <trkpt lat="48.03843" lon="7.12566">
        <ele>399</ele>
        <time>2019-04-13T08:27:54Z</time>
      </trkpt>
      <trkpt lat="48.0383" lon="7.12544">
        <ele>398</ele>
        <time>2019-04-13T08:28:54Z</time>
      </trkpt>
      <trkpt lat="48.03817" lon="7.12522">
        <ele>398</ele>
        <time>2019-04-13T08:29:54Z</time>
      </trkpt>
      <trkpt lat="48.03801" lon="7.12499">
        <ele>398</ele>
        <time>2019-04-13T08:30:54Z</time>
      </trkpt>
      <trkpt lat="48.03793" lon="7.12485">
        <ele>399</ele>
        <time>2019-04-13T08:31:54Z</time>
      </trkpt>
      <trkpt lat="48.03786" lon="7.12472">
        <ele>399</ele>
        <time>2019-04-13T08:32:54Z</time>
      </trkpt>
      <trkpt lat="48.03781" lon="7.1246">
        <ele>400</ele>
        <time>2019-04-13T08:33:54Z</time>
      </trkpt>
      <trkpt lat="48.03777" lon="7.12447">
        <ele>400</ele>
        <time>2019-04-13T08:34:54Z</time>
      </trkpt>
      <trkpt lat="48.03771" lon="7.12428">
        <ele>400</ele>
        <time>2019-04-13T08:35:54Z</time>
      </trkpt>
      <trkpt lat="48.03758" lon="7.12372">
        <ele>401</ele>
        <time>2019-04-13T08:36:54Z</time>
      </trkpt>
      <trkpt lat="48.03749" lon="7.1233">
        <ele>401</ele>
        <time>2019-04-13T08:37:54Z</time>
      </trkpt>
      <trkpt lat="48.03733" lon="7.12263">
        <ele>403</ele>
        <time>2019-04-13T08:38:54Z</time>
      </trkpt>
      <trkpt lat="48.03719" lon="7.12197">
        <ele>404</ele>
        <time>2019-04-13T08:39:54Z</time>
      </trkpt>
      <trkpt lat="48.03711" lon="7.12161">
        <ele>404</ele>
        <time>2019-04-13T08:40:54Z</time>
      </trkpt>
      <trkpt lat="48.03699" lon="7.12107">
        <ele>405</ele>
        <time>2019-04-13T08:41:54Z</time>
      </trkpt>
      <trkpt lat="48.03692" lon="7.12079">
        <ele>405</ele>
        <time>2019-04-13T08:42:54Z</time>
      </trkpt>
      <trkpt lat="48.03684" lon="7.12052">
        <ele>406</ele>
        <time>2019-04-13T08:43:54Z</time>
      </trkpt>
      <trkpt lat="48.03675" lon="7.12025">
        <ele>407</ele>
        <time>2019-04-13T08:44:54Z</time>
      </trkpt>
      <trkpt lat="48.03665" lon="7.12001">
        <ele>406</ele>
        <time>2019-04-13T08:45:54Z</time>
      </trkpt>
      <trkpt lat="48.03655" lon="7.11981">
        <ele>408</ele>
        <time>2019-04-13T08:46:54Z</time>
      </trkpt>
      <trkpt lat="48.03645" lon="7.11963">
        <ele>409</ele>
        <time>2019-04-13T08:47:54Z</time>
      </trkpt>
      <trkpt lat="48.0364" lon="7.11954">
        <ele>409</ele>
        <time>2019-04-13T08:48:54Z</time>
      </trkpt>
      <trkpt lat="48.03624" lon="7.1193">
        <ele>409</ele>
        <time>2019-04-13T08:49:54Z</time>
      </trkpt>
      <trkpt lat="48.03608" lon="7.1191">
        <ele>408</ele>
        <time>2019-04-13T08:50:54Z</time>
      </trkpt>
      <trkpt lat="48.03596" lon="7.11893">
        <ele>408</ele>
        <time>2019-04-13T08:51:54Z</time>
      </trkpt>
      <trkpt lat="48.03586" lon="7.1188">
        <ele>407</ele>
        <time>2019-04-13T08:52:54Z</time>
      </trkpt>
      <trkpt lat="48.0357" lon="7.11858">
        <ele>408</ele>
        <time>2019-04-13T08:53:54Z</time>
      </trkpt>
      <trkpt lat="48.0356" lon="7.11843">
        <ele>408</ele>
        <time>2019-04-13T08:54:54Z</time>
      </trkpt>
      <trkpt lat="48.03551" lon="7.11828">
        <ele>408</ele>
        <time>2019-04-13T08:55:54Z</time>
      </trkpt>
      <trkpt lat="48.0354" lon="7.11804">
        <ele>410</ele>
        <time>2019-04-13T08:56:54Z</time>
      </trkpt>
      <trkpt lat="48.03525" lon="7.11769">
        <ele>411</ele>
        <time>2019-04-13T08:57:54Z</time>
      </trkpt>
      <trkpt lat="48.03493" lon="7.11684">
        <ele>413</ele>
        <time>2019-04-13T08:58:54Z</time>
      </trkpt>
      <trkpt lat="48.03464" lon="7.11604">
        <ele>413</ele>
        <time>2019-04-13T08:59:54Z</time>
      </trkpt>
      <trkpt lat="48.0345" lon="7.11564">
        <ele>411</ele>
        <time>2019-04-13T09:00:54Z</time>
      </trkpt>
      <trkpt lat="48.03442" lon="7.11538">
        <ele>410</ele>
        <time>2019-04-13T09:01:54Z</time>
      </trkpt>
      <trkpt lat="48.03437" lon="7.11522">
        <ele>409</ele>
        <time>2019-04-13T09:02:54Z</time>
      </trkpt>
      <trkpt lat="48.03432" lon="7.11502">
        <ele>409</ele>
        <time>2019-04-13T09:03:54Z</time>
      </trkpt>
      <trkpt lat="48.03431" lon="7.11495">
        <ele>409</ele>
        <time>2019-04-13T09:04:54Z</time>
      </trkpt>
      <trkpt lat="48.03425" lon="7.11465">
        <ele>409</ele>
        <time>2019-04-13T09:05:54Z</time>
      </trkpt>
      <trkpt lat="48.03418" lon="7.11431">
        <ele>410</ele>
        <time>2019-04-13T09:06:54Z</time>
      </trkpt>
      <trkpt lat="48.03415" lon="7.11418">
        <ele>410</ele>
        <time>2019-04-13T09:07:54Z</time>
      </trkpt>
      <trkpt lat="48.0341" lon="7.11405">
        <ele>410</ele>
        <time>2019-04-13T09:08:54Z</time>
      </trkpt>
      <trkpt lat="48.03392" lon="7.11341">
        <ele>413</ele>
        <time>2019-04-13T09:09:54Z</time>
      </trkpt>
      <trkpt lat="48.03375" lon="7.1128">
        <ele>418</ele>
        <time>2019-04-13T09:10:54Z</time>
      </trkpt>
      <trkpt lat="48.03374" lon="7.11277">
        <ele>418</ele>
        <time>2019-04-13T09:11:54Z</time>
      </trkpt>
      <trkpt lat="48.03365" lon="7.11248">
        <ele>418</ele>
        <time>2019-04-13T09:12:54Z</time>
      </trkpt>
      <trkpt lat="48.0336" lon="7.11233">
        <ele>419</ele>
        <time>2019-04-13T09:13:54Z</time>
      </trkpt>
      <trkpt lat="48.03354" lon="7.11217">
        <ele>419</ele>
        <time>2019-04-13T09:14:54Z</time>
      </trkpt>
      <trkpt lat="48.03348" lon="7.11204">
        <ele>418</ele>
        <time>2019-04-13T09:15:54Z</time>
      </trkpt>
      <trkpt lat="48.03335" lon="7.11181">
        <ele>416</ele>
        <time>2019-04-13T09:16:54Z</time>
      </trkpt>
      <trkpt lat="48.03323" lon="7.1116">
        <ele>417</ele>
        <time>2019-04-13T09:17:54Z</time>
      </trkpt>
      <trkpt lat="48.03312" lon="7.11139">
        <ele>418</ele>
        <time>2019-04-13T09:18:54Z</time>
      </trkpt>
      <trkpt lat="48.03295" lon="7.11105">
        <ele>419</ele>
        <time>2019-04-13T09:19:54Z</time>
      </trkpt>
      <trkpt lat="48.03279" lon="7.11068">
        <ele>420</ele>
        <time>2019-04-13T09:20:54Z</time>
      </trkpt>
      <trkpt lat="48.03267" lon="7.11038">
        <ele>420</ele>
        <time>2019-04-13T09:21:54Z</time>
      </trkpt>
      <trkpt lat="48.03262" lon="7.11027">
        <ele>420</ele>
        <time>2019-04-13T09:22:54Z</time>
      </trkpt>
      <trkpt lat="48.03257" lon="7.11017">
        <ele>420</ele>
        <time>2019-04-13T09:23:54Z</time>
      </trkpt>
      <trkpt lat="48.03244" lon="7.11002">
        <ele>420</ele>
        <time>2019-04-13T09:24:54Z</time>
      </trkpt>
      <trkpt lat="48.03244" lon="7.11001">
        <ele>420</ele>
        <time>2019-04-13T09:25:54Z</time>
      </trkpt>
      <trkpt lat="48.03226" lon="7.10984">
        <ele>420</ele>
        <time>2019-04-13T09:26:54Z</time>
      </trkpt>
      <trkpt lat="48.03207" lon="7.10968">
        <ele>419</ele>
        <time>2019-04-13T09:27:54Z</time>
      </trkpt>
      <trkpt lat="48.03189" lon="7.1095">
        <ele>419</ele>
        <time>2019-04-13T09:28:54Z</time>
      </trkpt>
      <trkpt lat="48.03185" lon="7.10946">
        <ele>419</ele>
        <time>2019-04-13T09:29:54Z</time>
      </trkpt>
      <trkpt lat="48.03166" lon="7.10926">
        <ele>419</ele>
        <time>2019-04-13T09:30:54Z</time>
      </trkpt>
      <trkpt lat="48.03149" lon="7.10905">
        <ele>419</ele>
        <time>2019-04-13T09:31:54Z</time>
      </trkpt>
      <trkpt lat="48.03138" lon="7.1089">
        <ele>420</ele>
        <time>2019-04-13T09:32:54Z</time>
      </trkpt>
      <trkpt lat="48.03128" lon="7.10874">
        <ele>420</ele>
        <time>2019-04-13T09:33:54Z</time>
      </trkpt>
      <trkpt lat="48.03117" lon="7.10856">
        <ele>420</ele>
        <time>2019-04-13T09:34:54Z</time>
      </trkpt>
      <trkpt lat="48.03095" lon="7.10809">
        <ele>420</ele>
        <time>2019-04-13T09:35:54Z</time>
      </trkpt>
      <trkpt lat="48.03066" lon="7.10744">
        <ele>422</ele>
        <time>2019-04-13T09:36:54Z</time>
      </trkpt>
      <trkpt lat="48.0306" lon="7.10733">
        <ele>423</ele>
        <time>2019-04-13T09:37:54Z</time>
      </trkpt>
      <trkpt lat="48.03054" lon="7.10722">
        <ele>423</ele>
        <time>2019-04-13T09:38:54Z</time>
      </trkpt>
      <trkpt lat="48.03038" lon="7.10693">
        <ele>424</ele>
        <time>2019-04-13T09:39:54Z</time>
      </trkpt>
      <trkpt lat="48.03019" lon="7.10663">
        <ele>424</ele>
        <time>2019-04-13T09:40:54Z</time>
      </trkpt>
      <trkpt lat="48.02997" lon="7.10629">
        <ele>426</ele>
        <time>2019-04-13T09:41:54Z</time>
      </trkpt>
      <trkpt lat="48.02993" lon="7.10622">
        <ele>427</ele>
        <time>2019-04-13T09:42:54Z</time>
      </trkpt>
      <trkpt lat="48.02984" lon="7.10607">
        <ele>428</ele>
        <time>2019-04-13T09:43:54Z</time>
      </trkpt>
      <trkpt lat="48.02963" lon="7.10574">
        <ele>430</ele>
        <time>2019-04-13T09:44:54Z</time>
      </trkpt>
      <trkpt lat="48.02938" lon="7.10527">
        <ele>436</ele>
        <time>2019-04-13T09:45:54Z</time>
      </trkpt>
      <trkpt lat="48.02903" lon="7.10461">
        <ele>443</ele>
        <time>2019-04-13T09:46:54Z</time>
      </trkpt>
      <trkpt lat="48.02861" lon="7.10381">
        <ele>446</ele>
        <time>2019-04-13T09:47:54Z</time>
      </trkpt>
      <trkpt lat="48.0284" lon="7.10342">
        <ele>444</ele>
        <time>2019-04-13T09:48:54Z</time>
      </trkpt>
      <trkpt lat="48.02822" lon="7.10308">
        <ele>443</ele>
        <time>2019-04-13T09:49:54Z</time>
      </trkpt>
      <trkpt lat="48.02809" lon="7.10284">
        <ele>442</ele>
        <time>2019-04-13T09:50:54Z</time>
      </trkpt>
      <trkpt lat="48.02802" lon="7.1027">
        <ele>442</ele>
        <time>2019-04-13T09:51:54Z</time>
      </trkpt>
      <trkpt lat="48.02799" lon="7.1026">
        <ele>442</ele>
        <time>2019-04-13T09:52:54Z</time>
      </trkpt>
      <trkpt lat="48.02795" lon="7.10247">
        <ele>442</ele>
        <time>2019-04-13T09:53:54Z</time>
      </trkpt>
      <trkpt lat="48.02787" lon="7.1022">
        <ele>442</ele>
        <time>2019-04-13T09:54:54Z</time>
      </trkpt>
      <trkpt lat="48.02783" lon="7.10199">
        <ele>443</ele>
        <time>2019-04-13T09:55:54Z</time>
      </trkpt>
      <trkpt lat="48.02778" lon="7.10179">
        <ele>444</ele>
        <time>2019-04-13T09:56:54Z</time>
      </trkpt>
      <trkpt lat="48.02774" lon="7.10165">
        <ele>444</ele>
        <time>2019-04-13T09:57:54Z</time>
      </trkpt>
      <trkpt lat="48.02769" lon="7.10151">
        <ele>444</ele>
        <time>2019-04-13T09:58:54Z</time>
      </trkpt>
      <trkpt lat="48.02763" lon="7.10135">
        <ele>443</ele>
        <time>2019-04-13T09:59:54Z</time>
      </trkpt>
      <trkpt lat="48.02758" lon="7.10122">
        <ele>443</ele>
        <time>2019-04-13T10:00:54Z</time>
      </trkpt>
      <trkpt lat="48.0275" lon="7.10104">
        <ele>442</ele>
        <time>2019-04-13T10:01:54Z</time>
      </trkpt>
      <trkpt lat="48.02741" lon="7.10085">
        <ele>443</ele>
        <time>2019-04-13T10:02:54Z</time>
      </trkpt>
      <trkpt lat="48.02729" lon="7.10058">
        <ele>442</ele>
        <time>2019-04-13T10:03:54Z</time>
      </trkpt>
      <trkpt lat="48.02718" lon="7.10036">
        <ele>441</ele>
        <time>2019-04-13T10:04:54Z</time>
      </trkpt>
      <trkpt lat="48.0271" lon="7.10021">
        <ele>440</ele>
        <time>2019-04-13T10:05:54Z</time>
      </trkpt>
      <trkpt lat="48.02706" lon="7.10011">
        <ele>440</ele>
        <time>2019-04-13T10:06:54Z</time>
      </trkpt>
      <trkpt lat="48.02704" lon="7.10004">
        <ele>440</ele>
        <time>2019-04-13T10:07:54Z</time>
      </trkpt>
      <trkpt lat="48.027" lon="7.09994">
        <ele>440</ele>
        <time>2019-04-13T10:08:54Z</time>
      </trkpt>
      <trkpt lat="48.02693" lon="7.09964">
        <ele>440</ele>
        <time>2019-04-13T10:09:54Z</time>
      </trkpt>
      <trkpt lat="48.0269" lon="7.09942">
        <ele>441</ele>
        <time>2019-04-13T10:10:54Z</time>
      </trkpt>
      <trkpt lat="48.02687" lon="7.09926">
        <ele>441</ele>
        <time>2019-04-13T10:11:54Z</time>
      </trkpt>
      <trkpt lat="48.0268" lon="7.09874">
        <ele>444</ele>
        <time>2019-04-13T10:12:54Z</time>
      </trkpt>
      <trkpt lat="48.02671" lon="7.09816">
        <ele>445</ele>
        <time>2019-04-13T10:13:54Z</time>
      </trkpt>
      <trkpt lat="48.02661" lon="7.0975">
        <ele>446</ele>
        <time>2019-04-13T10:14:54Z</time>
      </trkpt>
      <trkpt lat="48.02655" lon="7.09715">
        <ele>448</ele>
        <time>2019-04-13T10:15:54Z</time>
      </trkpt>
      <trkpt lat="48.02651" lon="7.09696">
        <ele>449</ele>
        <time>2019-04-13T10:16:54Z</time>
      </trkpt>
      <trkpt lat="48.02646" lon="7.09679">
        <ele>449</ele>
        <time>2019-04-13T10:17:54Z</time>
      </trkpt>
      <trkpt lat="48.0264" lon="7.09657">
        <ele>451</ele>
        <time>2019-04-13T10:18:54Z</time>
      </trkpt>
      <trkpt lat="48.02627" lon="7.09622">
        <ele>452</ele>
        <time>2019-04-13T10:19:54Z</time>
      </trkpt>
      <trkpt lat="48.02612" lon="7.09584">
        <ele>452</ele>
        <time>2019-04-13T10:20:54Z</time>
      </trkpt>
      <trkpt lat="48.026" lon="7.09553">
        <ele>449</ele>
        <time>2019-04-13T10:21:54Z</time>
      </trkpt>
      <trkpt lat="48.02595" lon="7.09536">
        <ele>448</ele>
        <time>2019-04-13T10:22:54Z</time>
      </trkpt>
      <trkpt lat="48.02591" lon="7.09519">
        <ele>447</ele>
        <time>2019-04-13T10:23:54Z</time>
      </trkpt>
      <trkpt lat="48.02589" lon="7.09504">
        <ele>446</ele>
        <time>2019-04-13T10:24:54Z</time>
      </trkpt>
      <trkpt lat="48.02587" lon="7.09478">
        <ele>447</ele>
        <time>2019-04-13T10:25:54Z</time>
      </trkpt>
      <trkpt lat="48.02587" lon="7.0945">
        <ele>449</ele>
        <time>2019-04-13T10:26:54Z</time>
      </trkpt>
      <trkpt lat="48.02587" lon="7.09435">
        <ele>450</ele>
        <time>2019-04-13T10:27:54Z</time>
      </trkpt>
      <trkpt lat="48.02591" lon="7.0935">
        <ele>457</ele>
        <time>2019-04-13T10:28:54Z</time>
      </trkpt>
      <trkpt lat="48.02595" lon="7.09285">
        <ele>458</ele>
        <time>2019-04-13T10:29:54Z</time>
      </trkpt>
      <trkpt lat="48.02599" lon="7.09226">
        <ele>458</ele>
        <time>2019-04-13T10:30:54Z</time>
      </trkpt>
      <trkpt lat="48.02604" lon="7.09141">
        <ele>458</ele>
        <time>2019-04-13T10:31:54Z</time>
      </trkpt>
      <trkpt lat="48.02605" lon="7.09111">
        <ele>458</ele>
        <time>2019-04-13T10:32:54Z</time>
      </trkpt>
      <trkpt lat="48.02605" lon="7.09079">
        <ele>457</ele>
        <time>2019-04-13T10:33:54Z</time>
      </trkpt>
      <trkpt lat="48.02603" lon="7.09065">
        <ele>458</ele>
        <time>2019-04-13T10:34:54Z</time>
      </trkpt>
      <trkpt lat="48.026" lon="7.09047">
        <ele>458</ele>
        <time>2019-04-13T10:35:54Z</time>
      </trkpt>
      <trkpt lat="48.02593" lon="7.09012">
        <ele>458</ele>
        <time>2019-04-13T10:36:54Z</time>
      </trkpt>
      <trkpt lat="48.02583" lon="7.08974">
        <ele>457</ele>
        <time>2019-04-13T10:37:54Z</time>
      </trkpt>
      <trkpt lat="48.02577" lon="7.08949">
        <ele>458</ele>
        <time>2019-04-13T10:38:54Z</time>
      </trkpt>
      <trkpt lat="48.02575" lon="7.08927">
        <ele>458</ele>
        <time>2019-04-13T10:39:54Z</time>
      </trkpt>
      <trkpt lat="48.02572" lon="7.08903">
        <ele>459</ele>
        <time>2019-04-13T10:40:54Z</time>
      </trkpt>
      <trkpt lat="48.02571" lon="7.08876">
        <ele>460</ele>
        <time>2019-04-13T10:41:54Z</time>
      </trkpt>
      <trkpt lat="48.0257" lon="7.08849">
        <ele>461</ele>
        <time>2019-04-13T10:42:54Z</time>
      </trkpt>
      <trkpt lat="48.02571" lon="7.08828">
        <ele>462</ele>
        <time>2019-04-13T10:43:54Z</time>
      </trkpt>
      <trkpt lat="48.02573" lon="7.08807">
        <ele>462</ele>
        <time>2019-04-13T10:44:54Z</time>
      </trkpt>
      <trkpt lat="48.02577" lon="7.08781">
        <ele>464</ele>
        <time>2019-04-13T10:45:54Z</time>
      </trkpt>
      <trkpt lat="48.02578" lon="7.08774">
        <ele>464</ele>
        <time>2019-04-13T10:46:54Z</time>
      </trkpt>
      <trkpt lat="48.02582" lon="7.08738">
        <ele>465</ele>
        <time>2019-04-13T10:47:54Z</time>
      </trkpt>
      <trkpt lat="48.02584" lon="7.08723">
        <ele>465</ele>
        <time>2019-04-13T10:48:54Z</time>
      </trkpt>
      <trkpt lat="48.02584" lon="7.08707">
        <ele>466</ele>
        <time>2019-04-13T10:49:54Z</time>
      </trkpt>
      <trkpt lat="48.02584" lon="7.08699">
        <ele>466</ele>
        <time>2019-04-13T10:50:54Z</time>
      </trkpt>
      <trkpt lat="48.02584" lon="7.08678">
        <ele>466</ele>
        <time>2019-04-13T10:51:54Z</time>
      </trkpt>
      <trkpt lat="48.02583" lon="7.08665">
        <ele>466</ele>
        <time>2019-04-13T10:52:54Z</time>
      </trkpt>
      <trkpt lat="48.02582" lon="7.08654">
        <ele>467</ele>
        <time>2019-04-13T10:53:54Z</time>
      </trkpt>
      <trkpt lat="48.02578" lon="7.08628">
        <ele>468</ele>
        <time>2019-04-13T10:54:54Z</time>
      </trkpt>
      <trkpt lat="48.02568" lon="7.08581">
        <ele>470</ele>
        <time>2019-04-13T10:55:54Z</time>
      </trkpt>
      <trkpt lat="48.02564" lon="7.08558">
        <ele>471</ele>
        <time>2019-04-13T10:56:54Z</time>
      </trkpt>
      <trkpt lat="48.02556" lon="7.08522">
        <ele>472</ele>
        <time>2019-04-13T10:57:54Z</time>
      </trkpt>
      <trkpt lat="48.02552" lon="7.08503">
        <ele>473</ele>
        <time>2019-04-13T10:58:54Z</time>
      </trkpt>
      <trkpt lat="48.02551" lon="7.08493">
        <ele>473</ele>
        <time>2019-04-13T10:59:54Z</time>
      </trkpt>
      <trkpt lat="48.0255" lon="7.08468">
        <ele>473</ele>
        <time>2019-04-13T11:00:54Z</time>
      </trkpt>
      <trkpt lat="48.02552" lon="7.08407">
        <ele>475</ele>
        <time>2019-04-13T11:01:54Z</time>
      </trkpt>
      <trkpt lat="48.02554" lon="7.08357">
        <ele>478</ele>
        <time>2019-04-13T11:02:54Z</time>
      </trkpt>
      <trkpt lat="48.02555" lon="7.08328">
        <ele>479</ele>
        <time>2019-04-13T11:03:54Z</time>
      </trkpt>
      <trkpt lat="48.02555" lon="7.08305">
        <ele>480</ele>
        <time>2019-04-13T11:04:54Z</time>
      </trkpt>
      <trkpt lat="48.02553" lon="7.08291">
        <ele>480</ele>
        <time>2019-04-13T11:05:54Z</time>
      </trkpt>
      <trkpt lat="48.02551" lon="7.08275">
        <ele>480</ele>
        <time>2019-04-13T11:06:54Z</time>
      </trkpt>
      <trkpt lat="48.02544" lon="7.08251">
        <ele>480</ele>
        <time>2019-04-13T11:07:54Z</time>
      </trkpt>
      <trkpt lat="48.02543" lon="7.08248">
        <ele>480</ele>
        <time>2019-04-13T11:08:54Z</time>
      </trkpt>
      <trkpt lat="48.02535" lon="7.0823">
        <ele>479</ele>
        <time>2019-04-13T11:09:54Z</time>
      </trkpt>
      <trkpt lat="48.02521" lon="7.08204">
        <ele>478</ele>
        <time>2019-04-13T11:10:54Z</time>
      </trkpt>
      <trkpt lat="48.02518" lon="7.08199">
        <ele>478</ele>
        <time>2019-04-13T11:11:54Z</time>
      </trkpt>
      <trkpt lat="48.02504" lon="7.08176">
        <ele>476</ele>
        <time>2019-04-13T11:12:54Z</time>
      </trkpt>
      <trkpt lat="48.02497" lon="7.08163">
        <ele>476</ele>
        <time>2019-04-13T11:13:54Z</time>
      </trkpt>
      <trkpt lat="48.02494" lon="7.0816">
        <ele>476</ele>
        <time>2019-04-13T11:14:54Z</time>
      </trkpt>
      <trkpt lat="48.0248" lon="7.08135">
        <ele>475</ele>
        <time>2019-04-13T11:15:54Z</time>
      </trkpt>
      <trkpt lat="48.02473" lon="7.08124">
        <ele>474</ele>
        <time>2019-04-13T11:16:54Z</time>
      </trkpt>
      <trkpt lat="48.0247" lon="7.08118">
        <ele>474</ele>
        <time>2019-04-13T11:17:54Z</time>
      </trkpt>
      <trkpt lat="48.02466" lon="7.08109">
        <ele>474</ele>
        <time>2019-04-13T11:18:54Z</time>
      </trkpt>
      <trkpt lat="48.02459" lon="7.08095">
        <ele>473</ele>
        <time>2019-04-13T11:19:54Z</time>
      </trkpt>
      <trkpt lat="48.02455" lon="7.08086">
        <ele>473</ele>
        <time>2019-04-13T11:20:54Z</time>
      </trkpt>
      <trkpt lat="48.02442" lon="7.08057">
        <ele>472</ele>
        <time>2019-04-13T11:21:54Z</time>
      </trkpt>
      <trkpt lat="48.02431" lon="7.08033">
        <ele>471</ele>
        <time>2019-04-13T11:22:54Z</time>
      </trkpt>
      <trkpt lat="48.02423" lon="7.08018">
        <ele>471</ele>
        <time>2019-04-13T11:23:54Z</time>
      </trkpt>
      <trkpt lat="48.02405" lon="7.07987">
        <ele>470</ele>
        <time>2019-04-13T11:24:54Z</time>
      </trkpt>
      <trkpt lat="48.02372" lon="7.07935">
        <ele>470</ele>
        <time>2019-04-13T11:25:54Z</time>
      </trkpt>
      <trkpt lat="48.02344" lon="7.07891">
        <ele>469</ele>
        <time>2019-04-13T11:26:54Z</time>
      </trkpt>
      <trkpt lat="48.02329" lon="7.07866">
        <ele>469</ele>
        <time>2019-04-13T11:27:54Z</time>
      </trkpt>
      <trkpt lat="48.02319" lon="7.0785">
        <ele>469</ele>
        <time>2019-04-13T11:28:54Z</time>
      </trkpt>
      <trkpt lat="48.02318" lon="7.07847">
        <ele>469</ele>
        <time>2019-04-13T11:29:54Z</time>
      </trkpt>
      <trkpt lat="48.02312" lon="7.07833">
        <ele>469</ele>
        <time>2019-04-13T11:30:54Z</time>
      </trkpt>
      <trkpt lat="48.02283" lon="7.07781">
        <ele>472</ele>
        <time>2019-04-13T11:31:54Z</time>
      </trkpt>
      <trkpt lat="48.02259" lon="7.07737">
        <ele>472</ele>
        <time>2019-04-13T11:32:54Z</time>
      </trkpt>
      <trkpt lat="48.02241" lon="7.07709">
        <ele>474</ele>
        <time>2019-04-13T11:33:54Z</time>
      </trkpt>
      <trkpt lat="48.02226" lon="7.07688">
        <ele>476</ele>
        <time>2019-04-13T11:34:54Z</time>
      </trkpt>
      <trkpt lat="48.02216" lon="7.07675">
        <ele>477</ele>
        <time>2019-04-13T11:35:54Z</time>
      </trkpt>
      <trkpt lat="48.02202" lon="7.07659">
        <ele>477</ele>
        <time>2019-04-13T11:36:54Z</time>
      </trkpt>
      <trkpt lat="48.02187" lon="7.07647">
        <ele>477</ele>
        <time>2019-04-13T11:37:54Z</time>
      </trkpt>
      <trkpt lat="48.02148" lon="7.07618">
        <ele>475</ele>
        <time>2019-04-13T11:38:54Z</time>
      </trkpt>
      <trkpt lat="48.02142" lon="7.07615">
        <ele>475</ele>
        <time>2019-04-13T11:39:54Z</time>
      </trkpt>
      <trkpt lat="48.02116" lon="7.07597">
        <ele>475</ele>
        <time>2019-04-13T11:40:54Z</time>
      </trkpt>
      <trkpt lat="48.02075" lon="7.0757">
        <ele>475</ele>
        <time>2019-04-13T11:41:54Z</time>
      </trkpt>
      <trkpt lat="48.02075" lon="7.07569">
        <ele>475</ele>
        <time>2019-04-13T11:42:54Z</time>
      </trkpt>
      <trkpt lat="48.02039" lon="7.07545">
        <ele>474</ele>
        <time>2019-04-13T11:43:54Z</time>
      </trkpt>
      <trkpt lat="48.02006" lon="7.07524">
        <ele>473</ele>
        <time>2019-04-13T11:44:54Z</time>
      </trkpt>
      <trkpt lat="48.01987" lon="7.07514">
        <ele>473</ele>
        <time>2019-04-13T11:45:54Z</time>
      </trkpt>
      <trkpt lat="48.01965" lon="7.07506">
        <ele>473</ele>
        <time>2019-04-13T11:46:54Z</time>
      </trkpt>
      <trkpt lat="48.01949" lon="7.07502">
        <ele>473</ele>
        <time>2019-04-13T11:47:54Z</time>
      </trkpt>
      <trkpt lat="48.01932" lon="7.07498">
        <ele>473</ele>
        <time>2019-04-13T11:48:54Z</time>
      </trkpt>
      <trkpt lat="48.01919" lon="7.07496">
        <ele>473</ele>
        <time>2019-04-13T11:49:54Z</time>
      </trkpt>
      <trkpt lat="48.01897" lon="7.07493">
        <ele>474</ele>
        <time>2019-04-13T11:50:54Z</time>
      </trkpt>
      <trkpt lat="48.01879" lon="7.07489">
        <ele>475</ele>
        <time>2019-04-13T11:51:54Z</time>
      </trkpt>
      <trkpt lat="48.01864" lon="7.07483">
        <ele>475</ele>
        <time>2019-04-13T11:52:54Z</time>
      </trkpt>
      <trkpt lat="48.01842" lon="7.07474">
        <ele>476</ele>
        <time>2019-04-13T11:53:54Z</time>
      </trkpt>
      <trkpt lat="48.01825" lon="7.07464">
        <ele>477</ele>
        <time>2019-04-13T11:54:54Z</time>
      </trkpt>
      <trkpt lat="48.01798" lon="7.07446">
        <ele>477</ele>
        <time>2019-04-13T11:55:54Z</time>
      </trkpt>
      <trkpt lat="48.01779" lon="7.07429">
        <ele>478</ele>
        <time>2019-04-13T11:56:54Z</time>
      </trkpt>
      <trkpt lat="48.0175" lon="7.07408">
        <ele>478</ele>
        <time>2019-04-13T11:57:54Z</time>
      </trkpt>
      <trkpt lat="48.01729" lon="7.07394">
        <ele>479</ele>
        <time>2019-04-13T11:58:54Z</time>
      </trkpt>
      <trkpt lat="48.01708" lon="7.07382">
        <ele>479</ele>
        <time>2019-04-13T11:59:54Z</time>
      </trkpt>
      <trkpt lat="48.01681" lon="7.07369">
        <ele>479</ele>
        <time>2019-04-13T12:00:54Z</time>
      </trkpt>
      <trkpt lat="48.01653" lon="7.07357">
        <ele>479</ele>
        <time>2019-04-13T12:01:54Z</time>
      </trkpt>
      <trkpt lat="48.01624" lon="7.07345">
        <ele>479</ele>
        <time>2019-04-13T12:02:54Z</time>
      </trkpt>
      <trkpt lat="48.01596" lon="7.07331">
        <ele>479</ele>
        <time>2019-04-13T12:03:54Z</time>
      </trkpt>
      <trkpt lat="48.01577" lon="7.07316">
        <ele>480</ele>
        <time>2019-04-13T12:04:54Z</time>
      </trkpt>
      <trkpt lat="48.01553" lon="7.07296">
        <ele>480</ele>
        <time>2019-04-13T12:05:54Z</time>
      </trkpt>
      <trkpt lat="48.01537" lon="7.07282">
        <ele>480</ele>
        <time>2019-04-13T12:06:54Z</time>
      </trkpt>
      <trkpt lat="48.0153" lon="7.07274">
        <ele>480</ele>
        <time>2019-04-13T12:07:54Z</time>
      </trkpt>
      <trkpt lat="48.0151" lon="7.07251">
        <ele>480</ele>
        <time>2019-04-13T12:08:54Z</time>
      </trkpt>
      <trkpt lat="48.01491" lon="7.07232">
        <ele>480</ele>
        <time>2019-04-13T12:09:54Z</time>
      </trkpt>
      <trkpt lat="48.01474" lon="7.07218">
        <ele>479</ele>
        <time>2019-04-13T12:10:54Z</time>
      </trkpt>
      <trkpt lat="48.01466" lon="7.07207">
        <ele>479</ele>
        <time>2019-04-13T12:11:54Z</time>
      </trkpt>
      <trkpt lat="48.01459" lon="7.07199">
        <ele>479</ele>
        <time>2019-04-13T12:12:54Z</time>
      </trkpt>
      <trkpt lat="48.01448" lon="7.07183">
        <ele>480</ele>
        <time>2019-04-13T12:13:54Z</time>
      </trkpt>
      <trkpt lat="48.01443" lon="7.07174">
        <ele>480</ele>
        <time>2019-04-13T12:14:54Z</time>
      </trkpt>
      <trkpt lat="48.01433" lon="7.07169">
        <ele>480</ele>
        <time>2019-04-13T12:15:54Z</time>
      </trkpt>
      <trkpt lat="48.01416" lon="7.0716">
        <ele>480</ele>
        <time>2019-04-13T12:16:54Z</time>
      </trkpt>
      <trkpt lat="48.01402" lon="7.07152">
        <ele>480</ele>
        <time>2019-04-13T12:17:54Z</time>
      </trkpt>
      <trkpt lat="48.01393" lon="7.07148">
        <ele>480</ele>
        <time>2019-04-13T12:18:54Z</time>
      </trkpt>
      <trkpt lat="48.01364" lon="7.0715">
        <ele>480</ele>
        <time>2019-04-13T12:19:54Z</time>
      </trkpt>
      <trkpt lat="48.01357" lon="7.07151">
        <ele>480</ele>
        <time>2019-04-13T12:20:54Z</time>
      </trkpt>
      <trkpt lat="48.0135" lon="7.07153">
        <ele>479</ele>
        <time>2019-04-13T12:21:54Z</time>
      </trkpt>
      <trkpt lat="48.01342" lon="7.07154">
        <ele>479</ele>
        <time>2019-04-13T12:22:54Z</time>
      </trkpt>
      <trkpt lat="48.0131" lon="7.0715">
        <ele>479</ele>
        <time>2019-04-13T12:23:54Z</time>
      </trkpt>
      <trkpt lat="48.01299" lon="7.07151">
        <ele>480</ele>
        <time>2019-04-13T12:24:54Z</time>
      </trkpt>
      <trkpt lat="48.01289" lon="7.07151">
        <ele>480</ele>
        <time>2019-04-13T12:25:54Z</time>
      </trkpt>
      <trkpt lat="48.01278" lon="7.0715">
        <ele>480</ele>
        <time>2019-04-13T12:26:54Z</time>
      </trkpt>
      <trkpt lat="48.01268" lon="7.07147">
        <ele>480</ele>
        <time>2019-04-13T12:27:54Z</time>
      </trkpt>
      <trkpt lat="48.01254" lon="7.07143">
        <ele>480</ele>
        <time>2019-04-13T12:28:54Z</time>
      </trkpt>
      <trkpt lat="48.01238" lon="7.07137">
        <ele>481</ele>
        <time>2019-04-13T12:29:54Z</time>
      </trkpt>
      <trkpt lat="48.01234" lon="7.07135">
        <ele>481</ele>
        <time>2019-04-13T12:30:54Z</time>
      </trkpt>
      <trkpt lat="48.01224" lon="7.0713">
        <ele>481</ele>
        <time>2019-04-13T12:31:54Z</time>
      </trkpt>
      <trkpt lat="48.01215" lon="7.07125">
        <ele>481</ele>
        <time>2019-04-13T12:32:54Z</time>
      </trkpt>
      <trkpt lat="48.01203" lon="7.07119">
        <ele>482</ele>
        <time>2019-04-13T12:33:54Z</time>
      </trkpt>
      <trkpt lat="48.0119" lon="7.0711">
        <ele>482</ele>
        <time>2019-04-13T12:34:54Z</time>
      </trkpt>
      <trkpt lat="48.0117" lon="7.07096">
        <ele>483</ele>
        <time>2019-04-13T12:35:54Z</time>
      </trkpt>
      <trkpt lat="48.01157" lon="7.07085">
        <ele>483</ele>
        <time>2019-04-13T12:36:54Z</time>
      </trkpt>
      <trkpt lat="48.01138" lon="7.07074">
        <ele>484</ele>
        <time>2019-04-13T12:37:54Z</time>
      </trkpt>
      <trkpt lat="48.01124" lon="7.07068">
        <ele>485</ele>
        <time>2019-04-13T12:38:54Z</time>
      </trkpt>
      <trkpt lat="48.01112" lon="7.07065">
        <ele>485</ele>
        <time>2019-04-13T12:39:54Z</time>
      </trkpt>
      <trkpt lat="48.01103" lon="7.07062">
        <ele>485</ele>
        <time>2019-04-13T12:40:54Z</time>
      </trkpt>
      <trkpt lat="48.01092" lon="7.07063">
        <ele>486</ele>
        <time>2019-04-13T12:41:54Z</time>
      </trkpt>
      <trkpt lat="48.01084" lon="7.07063">
        <ele>486</ele>
        <time>2019-04-13T12:42:54Z</time>
      </trkpt>
      <trkpt lat="48.01079" lon="7.07064">
        <ele>486</ele>
        <time>2019-04-13T12:43:54Z</time>
      </trkpt>
      <trkpt lat="48.01073" lon="7.07066">
        <ele>486</ele>
        <time>2019-04-13T12:44:54Z</time>
      </trkpt>
      <trkpt lat="48.01069" lon="7.0707">
        <ele>487</ele>
        <time>2019-04-13T12:45:54Z</time>
      </trkpt>
      <trkpt lat="48.01049" lon="7.07081">
        <ele>487</ele>
        <time>2019-04-13T12:46:54Z</time>
      </trkpt>
      <trkpt lat="48.01036" lon="7.07088">
        <ele>488</ele>
        <time>2019-04-13T12:47:54Z</time>
      </trkpt>
      <trkpt lat="48.01025" lon="7.07093">
        <ele>488</ele>
        <time>2019-04-13T12:48:54Z</time>
      </trkpt>
      <trkpt lat="48.01012" lon="7.07096">
        <ele>488</ele>
        <time>2019-04-13T12:49:54Z</time>
      </trkpt>
      <trkpt lat="48.01" lon="7.07098">
        <ele>489</ele>
        <time>2019-04-13T12:50:54Z</time>
      </trkpt>
      <trkpt lat="48.00982" lon="7.07099">
        <ele>489</ele>
        <time>2019-04-13T12:51:54Z</time>
      </trkpt>
      <trkpt lat="48.00963" lon="7.07101">
        <ele>490</ele>
        <time>2019-04-13T12:52:54Z</time>
      </trkpt>
      <trkpt lat="48.00947" lon="7.07104">
        <ele>491</ele>
        <time>2019-04-13T12:53:54Z</time>
      </trkpt>
      <trkpt lat="48.00922" lon="7.07109">
        <ele>492</ele>
        <time>2019-04-13T12:54:54Z</time>
      </trkpt>
      <trkpt lat="48.00904" lon="7.07116">
        <ele>492</ele>
        <time>2019-04-13T12:55:54Z</time>
      </trkpt>
      <trkpt lat="48.00896" lon="7.07119">
        <ele>492</ele>
        <time>2019-04-13T12:56:54Z</time>
      </trkpt>
      <trkpt lat="48.00881" lon="7.07124">
        <ele>492</ele>
        <time>2019-04-13T12:57:54Z</time>
      </trkpt>
      <trkpt lat="48.00877" lon="7.07126">
        <ele>492</ele>
        <time>2019-04-13T12:58:54Z</time>
      </trkpt>
      <trkpt lat="48.00868" lon="7.07128">
        <ele>493</ele>
        <time>2019-04-13T12:59:54Z</time>
      </trkpt>
      <trkpt lat="48.00857" lon="7.07129">
        <ele>493</ele>
        <time>2019-04-13T13:00:54Z</time>
      </trkpt>
      <trkpt lat="48.00843" lon="7.07127">
        <ele>493</ele>
        <time>2019-04-13T13:01:54Z</time>
      </trkpt>
      <trkpt lat="48.00822" lon="7.07122">
        <ele>494</ele>
        <time>2019-04-13T13:02:54Z</time>
      </trkpt>
      <trkpt lat="48.00801" lon="7.07117">
        <ele>496</ele>
        <time>2019-04-13T13:03:54Z</time>
      </trkpt>
      <trkpt lat="48.00789" lon="7.07115">
        <ele>497</ele>
        <time>2019-04-13T13:04:54Z</time>
      </trkpt>
      <trkpt lat="48.00778" lon="7.07115">
        <ele>498</ele>
        <time>2019-04-13T13:05:54Z</time>
      </trkpt>
      <trkpt lat="48.00774" lon="7.07116">
        <ele>498</ele>
        <time>2019-04-13T13:06:54Z</time>
      </trkpt>
      <trkpt lat="48.00768" lon="7.07116">
        <ele>498</ele>
        <time>2019-04-13T13:07:54Z</time>
      </trkpt>
      <trkpt lat="48.00753" lon="7.07121">
        <ele>499</ele>
        <time>2019-04-13T13:08:54Z</time>
      </trkpt>
      <trkpt lat="48.00744" lon="7.07127">
        <ele>500</ele>
        <time>2019-04-13T13:09:54Z</time>
      </trkpt>
      <trkpt lat="48.00733" lon="7.07137">
        <ele>501</ele>
        <time>2019-04-13T13:10:54Z</time>
      </trkpt>
      <trkpt lat="48.0072" lon="7.07152">
        <ele>503</ele>
        <time>2019-04-13T13:11:54Z</time>
      </trkpt>
      <trkpt lat="48.00709" lon="7.07172">
        <ele>504</ele>
        <time>2019-04-13T13:12:54Z</time>
      </trkpt>
      <trkpt lat="48.00695" lon="7.07204">
        <ele>505</ele>
        <time>2019-04-13T13:13:54Z</time>
      </trkpt>
      <trkpt lat="48.0068" lon="7.07234">
        <ele>507</ele>
        <time>2019-04-13T13:14:54Z</time>
      </trkpt>
      <trkpt lat="48.00667" lon="7.0726">
        <ele>508</ele>
        <time>2019-04-13T13:15:54Z</time>
      </trkpt>
      <trkpt lat="48.00652" lon="7.07283">
        <ele>509</ele>
        <time>2019-04-13T13:16:54Z</time>
      </trkpt>
      <trkpt lat="48.0065" lon="7.07285">
        <ele>510</ele>
        <time>2019-04-13T13:17:54Z</time>
      </trkpt>
      <trkpt lat="48.00639" lon="7.073">
        <ele>510</ele>
        <time>2019-04-13T13:18:54Z</time>
      </trkpt>
      <trkpt lat="48.00629" lon="7.07313">
        <ele>510</ele>
        <time>2019-04-13T13:19:54Z</time>
      </trkpt>
      <trkpt lat="48.00616" lon="7.07325">
        <ele>510</ele>
        <time>2019-04-13T13:20:54Z</time>
      </trkpt>
      <trkpt lat="48.00603" lon="7.07337">
        <ele>510</ele>
        <time>2019-04-13T13:21:54Z</time>
      </trkpt>
      <trkpt lat="48.00596" lon="7.07343">
        <ele>510</ele>
        <time>2019-04-13T13:22:54Z</time>
      </trkpt>
      <trkpt lat="48.00586" lon="7.07349">
        <ele>511</ele>
        <time>2019-04-13T13:23:54Z</time>
      </trkpt>
      <trkpt lat="48.00571" lon="7.07357">
        <ele>512</ele>
        <time>2019-04-13T13:24:54Z</time>
      </trkpt>
      <trkpt lat="48.00551" lon="7.07365">
        <ele>515</ele>
        <time>2019-04-13T13:25:54Z</time>
      </trkpt>
      <trkpt lat="48.00515" lon="7.07382">
        <ele>517</ele>
        <time>2019-04-13T13:26:54Z</time>
      </trkpt>
      <trkpt lat="48.00453" lon="7.07409">
        <ele>518</ele>
        <time>2019-04-13T13:27:54Z</time>
      </trkpt>
      <trkpt lat="48.00414" lon="7.07426">
        <ele>520</ele>
        <time>2019-04-13T13:28:54Z</time>
      </trkpt>
      <trkpt lat="48.00407" lon="7.07429">
        <ele>520</ele>
        <time>2019-04-13T13:29:54Z</time>
      </trkpt>
      <trkpt lat="48.00401" lon="7.07431">
        <ele>520</ele>
        <time>2019-04-13T13:30:54Z</time>
      </trkpt>
      <trkpt lat="48.00389" lon="7.07436">
        <ele>521</ele>
        <time>2019-04-13T13:31:54Z</time>
      </trkpt>
      <trkpt lat="48.00342" lon="7.07456">
        <ele>523</ele>
        <time>2019-04-13T13:32:54Z</time>
      </trkpt>
      <trkpt lat="48.00326" lon="7.07462">
        <ele>524</ele>
        <time>2019-04-13T13:33:54Z</time>
      </trkpt>
      <trkpt lat="48.0031" lon="7.07468">
        <ele>524</ele>
        <time>2019-04-13T13:34:54Z</time>
      </trkpt>
      <trkpt lat="48.00293" lon="7.07472">
        <ele>524</ele>
        <time>2019-04-13T13:35:54Z</time>
      </trkpt>
      <trkpt lat="48.00282" lon="7.07475">
        <ele>524</ele>
        <time>2019-04-13T13:36:54Z</time>
      </trkpt>
      <trkpt lat="48.00264" lon="7.0748">
        <ele>524</ele>
        <time>2019-04-13T13:37:54Z</time>
      </trkpt>
      <trkpt lat="48.00251" lon="7.07483">
        <ele>524</ele>
        <time>2019-04-13T13:38:54Z</time>
      </trkpt>
      <trkpt lat="48.00233" lon="7.07486">
        <ele>525</ele>
        <time>2019-04-13T13:39:54Z</time>
      </trkpt>
      <trkpt lat="48.00209" lon="7.0749">
        <ele>527</ele>
        <time>2019-04-13T13:40:54Z</time>
      </trkpt>
      <trkpt lat="48.00193" lon="7.07491">
        <ele>527</ele>
        <time>2019-04-13T13:41:54Z</time>
      </trkpt>
      <trkpt lat="48.00165" lon="7.07492">
        <ele>529</ele>
        <time>2019-04-13T13:42:54Z</time>
      </trkpt>
      <trkpt lat="48.00136" lon="7.07493">
        <ele>530</ele>
        <time>2019-04-13T13:43:54Z</time>
      </trkpt>
      <trkpt lat="48.00111" lon="7.07491">
        <ele>531</ele>
        <time>2019-04-13T13:44:54Z</time>
      </trkpt>
      <trkpt lat="48.00088" lon="7.07489">
        <ele>532</ele>
        <time>2019-04-13T13:45:54Z</time>
      </trkpt>
      <trkpt lat="48.0007" lon="7.07486">
        <ele>533</ele>
        <time>2019-04-13T13:46:54Z</time>
      </trkpt>
      <trkpt lat="48.00052" lon="7.07482">
        <ele>534</ele>
        <time>2019-04-13T13:47:54Z</time>
      </trkpt>
      <trkpt lat="48.00013" lon="7.07471">
        <ele>536</ele>
        <time>2019-04-13T13:48:54Z</time>
      </trkpt>
      <trkpt lat="47.99995" lon="7.07466">
        <ele>537</ele>
        <time>2019-04-13T13:49:54Z</time>
      </trkpt>
      <trkpt lat="47.99978" lon="7.07462">
        <ele>538</ele>
        <time>2019-04-13T13:50:54Z</time>
      </trkpt>
      <trkpt lat="47.99968" lon="7.0746">
        <ele>538</ele>
        <time>2019-04-13T13:51:54Z</time>
      </trkpt>
      <trkpt lat="47.99951" lon="7.07458">
        <ele>539</ele>
        <time>2019-04-13T13:52:54Z</time>
      </trkpt>
      <trkpt lat="47.99932" lon="7.0746">
        <ele>541</ele>
        <time>2019-04-13T13:53:54Z</time>
      </trkpt>
      <trkpt lat="47.99907" lon="7.07462">
        <ele>542</ele>
        <time>2019-04-13T13:54:54Z</time>
      </trkpt>
      <trkpt lat="47.99882" lon="7.07464">
        <ele>542</ele>
        <time>2019-04-13T13:55:54Z</time>
      </trkpt>
      <trkpt lat="47.99861" lon="7.07464">
        <ele>542</ele>
        <time>2019-04-13T13:56:54Z</time>
      </trkpt>
      <trkpt lat="47.99842" lon="7.07462">
        <ele>542</ele>
        <time>2019-04-13T13:57:54Z</time>
      </trkpt>
      <trkpt lat="47.99832" lon="7.0746">
        <ele>542</ele>
        <time>2019-04-13T13:58:54Z</time>
      </trkpt>
      <trkpt lat="47.99829" lon="7.07459">
        <ele>542</ele>
        <time>2019-04-13T13:59:54Z</time>
      </trkpt>
      <trkpt lat="47.99822" lon="7.07456">
        <ele>542</ele>
        <time>2019-04-13T14:00:54Z</time>
      </trkpt>
      <trkpt lat="47.9982" lon="7.07454">
        <ele>542</ele>
        <time>2019-04-13T14:01:54Z</time>
      </trkpt>
      <trkpt lat="47.99799" lon="7.07437">
        <ele>541</ele>
        <time>2019-04-13T14:02:54Z</time>
      </trkpt>
      <trkpt lat="47.99792" lon="7.07432">
        <ele>541</ele>
        <time>2019-04-13T14:03:54Z</time>
      </trkpt>
      <trkpt lat="47.99766" lon="7.07415">
        <ele>542</ele>
        <time>2019-04-13T14:04:54Z</time>
      </trkpt>
      <trkpt lat="47.9975" lon="7.07403">
        <ele>542</ele>
        <time>2019-04-13T14:05:54Z</time>
      </trkpt>
      <trkpt lat="47.99738" lon="7.07395">
        <ele>543</ele>
        <time>2019-04-13T14:06:54Z</time>
      </trkpt>
      <trkpt lat="47.99726" lon="7.07386">
        <ele>544</ele>
        <time>2019-04-13T14:07:54Z</time>
      </trkpt>
      <trkpt lat="47.99717" lon="7.07377">
        <ele>545</ele>
        <time>2019-04-13T14:08:54Z</time>
      </trkpt>
      <trkpt lat="47.99693" lon="7.07346">
        <ele>545</ele>
        <time>2019-04-13T14:09:54Z</time>
      </trkpt>
      <trkpt lat="47.99652" lon="7.07297">
        <ele>548</ele>
        <time>2019-04-13T14:10:54Z</time>
      </trkpt>
      <trkpt lat="47.99642" lon="7.07285">
        <ele>549</ele>
        <time>2019-04-13T14:11:54Z</time>
      </trkpt>
      <trkpt lat="47.99636" lon="7.0728">
        <ele>549</ele>
        <time>2019-04-13T14:12:54Z</time>
      </trkpt>
      <trkpt lat="47.99627" lon="7.07275">
        <ele>550</ele>
        <time>2019-04-13T14:13:54Z</time>
      </trkpt>
      <trkpt lat="47.99613" lon="7.07272">
        <ele>551</ele>
        <time>2019-04-13T14:14:54Z</time>
      </trkpt>
      <trkpt lat="47.99599" lon="7.0727">
        <ele>551</ele>
        <time>2019-04-13T14:15:54Z</time>
      </trkpt>
      <trkpt lat="47.99593" lon="7.07268">
        <ele>551</ele>
        <time>2019-04-13T14:16:54Z</time>
      </trkpt>
      <trkpt lat="47.99585" lon="7.07267">
        <ele>552</ele>
        <time>2019-04-13T14:17:54Z</time>
      </trkpt>
      <trkpt lat="47.99566" lon="7.07263">
        <ele>554</ele>
        <time>2019-04-13T14:18:54Z</time>
      </trkpt>
      <trkpt lat="47.99538" lon="7.07253">
        <ele>556</ele>
        <time>2019-04-13T14:19:54Z</time>
      </trkpt>
      <trkpt lat="47.99515" lon="7.07244">
        <ele>558</ele>
        <time>2019-04-13T14:20:54Z</time>
      </trkpt>
      <trkpt lat="47.99498" lon="7.07232">
        <ele>559</ele>
        <time>2019-04-13T14:21:54Z</time>
      </trkpt>
      <trkpt lat="47.99489" lon="7.07225">
        <ele>560</ele>
        <time>2019-04-13T14:22:54Z</time>
      </trkpt>
      <trkpt lat="47.99481" lon="7.07218">
        <ele>560</ele>
        <time>2019-04-13T14:23:54Z</time>
      </trkpt>
      <trkpt lat="47.99473" lon="7.07207">
        <ele>560</ele>
        <time>2019-04-13T14:24:54Z</time>
      </trkpt>
      <trkpt lat="47.99468" lon="7.07198">
        <ele>560</ele>
        <time>2019-04-13T14:25:54Z</time>
      </trkpt>
      <trkpt lat="47.99463" lon="7.07188">
        <ele>559</ele>
        <time>2019-04-13T14:26:54Z</time>
      </trkpt>
      <trkpt lat="47.99461" lon="7.07182">
        <ele>559</ele>
        <time>2019-04-13T14:27:54Z</time>
      </trkpt>
      <trkpt lat="47.99452" lon="7.07154">
        <ele>558</ele>
        <time>2019-04-13T14:28:54Z</time>
      </trkpt>
      <trkpt lat="47.99451" lon="7.07149">
        <ele>559</ele>
        <time>2019-04-13T14:29:54Z</time>
      </trkpt>
      <trkpt lat="47.99449" lon="7.07144">
        <ele>559</ele>
        <time>2019-04-13T14:30:54Z</time>
      </trkpt>
      <trkpt lat="47.99447" lon="7.07137">
        <ele>559</ele>
        <time>2019-04-13T14:31:54Z</time>
      </trkpt>
      <trkpt lat="47.99444" lon="7.07129">
        <ele>560</ele>
        <time>2019-04-13T14:32:54Z</time>
      </trkpt>
      <trkpt lat="47.99442" lon="7.07125">
        <ele>560</ele>
        <time>2019-04-13T14:33:54Z</time>
      </trkpt>
      <trkpt lat="47.99437" lon="7.0712">
        <ele>560</ele>
        <time>2019-04-13T14:34:54Z</time>
      </trkpt>
      <trkpt lat="47.99431" lon="7.07113">
        <ele>560</ele>
        <time>2019-04-13T14:35:54Z</time>
      </trkpt>
      <trkpt lat="47.99428" lon="7.07111">
        <ele>560</ele>
        <time>2019-04-13T14:36:54Z</time>
      </trkpt>
      <trkpt lat="47.9942" lon="7.07107">
        <ele>560</ele>
        <time>2019-04-13T14:37:54Z</time>
      </trkpt>
      <trkpt lat="47.99401" lon="7.07099">
        <ele>561</ele>
        <time>2019-04-13T14:38:54Z</time>
      </trkpt>
      <trkpt lat="47.99357" lon="7.07084">
        <ele>562</ele>
        <time>2019-04-13T14:39:54Z</time>
      </trkpt>
      <trkpt lat="47.99325" lon="7.07072">
        <ele>563</ele>
        <time>2019-04-13T14:40:54Z</time>
      </trkpt>
      <trkpt lat="47.9931" lon="7.07066">
        <ele>564</ele>
        <time>2019-04-13T14:41:54Z</time>
      </trkpt>
      <trkpt lat="47.99294" lon="7.07057">
        <ele>565</ele>
        <time>2019-04-13T14:42:54Z</time>
      </trkpt>
      <trkpt lat="47.99276" lon="7.07043">
        <ele>566</ele>
        <time>2019-04-13T14:43:54Z</time>
      </trkpt>
      <trkpt lat="47.99238" lon="7.07012">
        <ele>570</ele>
        <time>2019-04-13T14:44:54Z</time>
      </trkpt>
      <trkpt lat="47.9921" lon="7.06991">
        <ele>573</ele>
        <time>2019-04-13T14:45:54Z</time>
      </trkpt>
      <trkpt lat="47.992" lon="7.06982">
        <ele>574</ele>
        <time>2019-04-13T14:46:54Z</time>
      </trkpt>
      <trkpt lat="47.992" lon="7.06982">
        <ele>574</ele>
        <time>2019-04-13T14:47:54Z</time>
      </trkpt>
      <trkpt lat="47.99189" lon="7.06978">
        <ele>575</ele>
        <time>2019-04-13T14:48:54Z</time>
      </trkpt>
      <trkpt lat="47.99167" lon="7.06973">
        <ele>576</ele>
        <time>2019-04-13T14:49:54Z</time>
      </trkpt>
      <trkpt lat="47.99155" lon="7.06973">
        <ele>577</ele>
        <time>2019-04-13T14:50:54Z</time>
      </trkpt>
      <trkpt lat="47.99151" lon="7.06973">
        <ele>577</ele>
        <time>2019-04-13T14:51:54Z</time>
      </trkpt>
      <trkpt lat="47.99127" lon="7.06977">
        <ele>578</ele>
        <time>2019-04-13T14:52:54Z</time>
      </trkpt>
      <trkpt lat="47.99101" lon="7.06984">
        <ele>579</ele>
        <time>2019-04-13T14:53:54Z</time>
      </trkpt>
      <trkpt lat="47.99078" lon="7.0699">
        <ele>579</ele>
        <time>2019-04-13T14:54:54Z</time>
      </trkpt>
      <trkpt lat="47.99062" lon="7.06993">
        <ele>580</ele>
        <time>2019-04-13T14:55:54Z</time>
      </trkpt>
      <trkpt lat="47.99044" lon="7.06992">
        <ele>580</ele>
        <time>2019-04-13T14:56:54Z</time>
      </trkpt>
      <trkpt lat="47.99028" lon="7.06989">
        <ele>581</ele>
        <time>2019-04-13T14:57:54Z</time>
      </trkpt>
      <trkpt lat="47.99012" lon="7.06983">
        <ele>582</ele>
        <time>2019-04-13T14:58:54Z</time>
      </trkpt>
      <trkpt lat="47.98995" lon="7.06973">
        <ele>584</ele>
        <time>2019-04-13T14:59:54Z</time>
      </trkpt>
      <trkpt lat="47.98981" lon="7.06962">
        <ele>585</ele>
        <time>2019-04-13T15:00:54Z</time>
      </trkpt>
      <trkpt lat="47.98962" lon="7.06948">
        <ele>587</ele>
        <time>2019-04-13T15:01:54Z</time>
      </trkpt>
      <trkpt lat="47.98945" lon="7.06935">
        <ele>589</ele>
        <time>2019-04-13T15:02:54Z</time>
      </trkpt>
      <trkpt lat="47.98934" lon="7.06929">
        <ele>590</ele>
        <time>2019-04-13T15:03:54Z</time>
      </trkpt>
      <trkpt lat="47.98924" lon="7.06922">
        <ele>590</ele>
        <time>2019-04-13T15:04:54Z</time>
      </trkpt>
      <trkpt lat="47.9891" lon="7.06916">
        <ele>591</ele>
        <time>2019-04-13T15:05:54Z</time>
      </trkpt>
      <trkpt lat="47.98902" lon="7.06914">
        <ele>592</ele>
        <time>2019-04-13T15:06:54Z</time>
      </trkpt>
      <trkpt lat="47.98881" lon="7.0691">
        <ele>593</ele>
        <time>2019-04-13T15:07:54Z</time>
      </trkpt>
      <trkpt lat="47.98872" lon="7.06906">
        <ele>594</ele>
        <time>2019-04-13T15:08:54Z</time>
      </trkpt>
      <trkpt lat="47.98865" lon="7.069">
        <ele>595</ele>
        <time>2019-04-13T15:09:54Z</time>
      </trkpt>
      <trkpt lat="47.98861" lon="7.06895">
        <ele>596</ele>
        <time>2019-04-13T15:10:54Z</time>
      </trkpt>
      <trkpt lat="47.98856" lon="7.06887">
        <ele>597</ele>
        <time>2019-04-13T15:11:54Z</time>
      </trkpt>
      <trkpt lat="47.9885" lon="7.06873">
        <ele>598</ele>
        <time>2019-04-13T15:12:54Z</time>
      </trkpt>
      <trkpt lat="47.98846" lon="7.0686">
        <ele>600</ele>
        <time>2019-04-13T15:13:54Z</time>
      </trkpt>
      <trkpt lat="47.98844" lon="7.06847">
        <ele>601</ele>
        <time>2019-04-13T15:14:54Z</time>
      </trkpt>
      <trkpt lat="47.98844" lon="7.06833">
        <ele>602</ele>
        <time>2019-04-13T15:15:54Z</time>
      </trkpt>
      <trkpt lat="47.98845" lon="7.06823">
        <ele>604</ele>
        <time>2019-04-13T15:16:54Z</time>
      </trkpt>
      <trkpt lat="47.98846" lon="7.06813">
        <ele>606</ele>
        <time>2019-04-13T15:17:54Z</time>
      </trkpt>
      <trkpt lat="47.98852" lon="7.06791">
        <ele>610</ele>
        <time>2019-04-13T15:18:54Z</time>
      </trkpt>
      <trkpt lat="47.98864" lon="7.06771">
        <ele>613</ele>
        <time>2019-04-13T15:19:54Z</time>
      </trkpt>
      <trkpt lat="47.98881" lon="7.06753">
        <ele>614</ele>
        <time>2019-04-13T15:20:54Z</time>
      </trkpt>
      <trkpt lat="47.98915" lon="7.06727">
        <ele>617</ele>
        <time>2019-04-13T15:21:54Z</time>
      </trkpt>
      <trkpt lat="47.98942" lon="7.06707">
        <ele>620</ele>
        <time>2019-04-13T15:22:54Z</time>
      </trkpt>
      <trkpt lat="47.9896" lon="7.0669">
        <ele>623</ele>
        <time>2019-04-13T15:23:54Z</time>
      </trkpt>
      <trkpt lat="47.98975" lon="7.06678">
        <ele>623</ele>
        <time>2019-04-13T15:24:54Z</time>
      </trkpt>
      <trkpt lat="47.9898" lon="7.06674">
        <ele>623</ele>
        <time>2019-04-13T15:25:54Z</time>
      </trkpt>
      <trkpt lat="47.98988" lon="7.06668">
        <ele>623</ele>
        <time>2019-04-13T15:26:54Z</time>
      </trkpt>
      <trkpt lat="47.98998" lon="7.06663">
        <ele>622</ele>
        <time>2019-04-13T15:27:54Z</time>
      </trkpt>
      <trkpt lat="47.99006" lon="7.0666">
        <ele>623</ele>
        <time>2019-04-13T15:28:54Z</time>
      </trkpt>
      <trkpt lat="47.99018" lon="7.06659">
        <ele>624</ele>
        <time>2019-04-13T15:29:54Z</time>
      </trkpt>
      <trkpt lat="47.9903" lon="7.0666">
        <ele>625</ele>
        <time>2019-04-13T15:30:54Z</time>
      </trkpt>
      <trkpt lat="47.99078" lon="7.06673">
        <ele>626</ele>
        <time>2019-04-13T15:31:54Z</time>
      </trkpt>
      <trkpt lat="47.99107" lon="7.06681">
        <ele>628</ele>
        <time>2019-04-13T15:32:54Z</time>
      </trkpt>
      <trkpt lat="47.99122" lon="7.06684">
        <ele>629</ele>
        <time>2019-04-13T15:33:54Z</time>
      </trkpt>
      <trkpt lat="47.99126" lon="7.06685">
        <ele>630</ele>
        <time>2019-04-13T15:34:54Z</time>
      </trkpt>
      <trkpt lat="47.9913" lon="7.06684">
        <ele>630</ele>
        <time>2019-04-13T15:35:54Z</time>
      </trkpt>
      <trkpt lat="47.99135" lon="7.06684">
        <ele>631</ele>
        <time>2019-04-13T15:36:54Z</time>
      </trkpt>
      <trkpt lat="47.99139" lon="7.06683">
        <ele>632</ele>
        <time>2019-04-13T15:37:54Z</time>
      </trkpt>
      <trkpt lat="47.99144" lon="7.06681">
        <ele>633</ele>
        <time>2019-04-13T15:38:54Z</time>
      </trkpt>
      <trkpt lat="47.99157" lon="7.06676">
        <ele>636</ele>
        <time>2019-04-13T15:39:54Z</time>
      </trkpt>
      <trkpt lat="47.99159" lon="7.06674">
        <ele>637</ele>
        <time>2019-04-13T15:40:54Z</time>
      </trkpt>
      <trkpt lat="47.9917" lon="7.06668">
        <ele>640</ele>
        <time>2019-04-13T15:41:54Z</time>
      </trkpt>
      <trkpt lat="47.99175" lon="7.06667">
        <ele>642</ele>
        <time>2019-04-13T15:42:54Z</time>
      </trkpt>
      <trkpt lat="47.9918" lon="7.06666">
        <ele>643</ele>
        <time>2019-04-13T15:43:54Z</time>
      </trkpt>
      <trkpt lat="47.99186" lon="7.06665">
        <ele>645</ele>
        <time>2019-04-13T15:44:54Z</time>
      </trkpt>
      <trkpt lat="47.99197" lon="7.06666">
        <ele>646</ele>
        <time>2019-04-13T15:45:54Z</time>
      </trkpt>
      <trkpt lat="47.9921" lon="7.06668">
        <ele>648</ele>
        <time>2019-04-13T15:46:54Z</time>
      </trkpt>
      <trkpt lat="47.99231" lon="7.06671">
        <ele>652</ele>
        <time>2019-04-13T15:47:54Z</time>
      </trkpt>
      <trkpt lat="47.99284" lon="7.06683">
        <ele>658</ele>
        <time>2019-04-13T15:48:54Z</time>
      </trkpt>
      <trkpt lat="47.99289" lon="7.06684">
        <ele>659</ele>
        <time>2019-04-13T15:49:54Z</time>
      </trkpt>
      <trkpt lat="47.99301" lon="7.06687">
        <ele>660</ele>
        <time>2019-04-13T15:50:54Z</time>
      </trkpt>
      <trkpt lat="47.99328" lon="7.06693">
        <ele>662</ele>
        <time>2019-04-13T15:51:54Z</time>
      </trkpt>
      <trkpt lat="47.99359" lon="7.06692">
        <ele>661</ele>
        <time>2019-04-13T15:52:54Z</time>
      </trkpt>
      <trkpt lat="47.99372" lon="7.06687">
        <ele>662</ele>
        <time>2019-04-13T15:53:54Z</time>
      </trkpt>
      <trkpt lat="47.99387" lon="7.0668">
        <ele>663</ele>
        <time>2019-04-13T15:54:54Z</time>
      </trkpt>
      <trkpt lat="47.99398" lon="7.06673">
        <ele>665</ele>
        <time>2019-04-13T15:55:54Z</time>
      </trkpt>
      <trkpt lat="47.99414" lon="7.0666">
        <ele>667</ele>
        <time>2019-04-13T15:56:54Z</time>
      </trkpt>
      <trkpt lat="47.99422" lon="7.06652">
        <ele>668</ele>
        <time>2019-04-13T15:57:54Z</time>
      </trkpt>
      <trkpt lat="47.99436" lon="7.06631">
        <ele>670</ele>
        <time>2019-04-13T15:58:54Z</time>
      </trkpt>
      <trkpt lat="47.99443" lon="7.06614">
        <ele>673</ele>
        <time>2019-04-13T15:59:54Z</time>
      </trkpt>
      <trkpt lat="47.9945" lon="7.06599">
        <ele>675</ele>
        <time>2019-04-13T16:00:54Z</time>
      </trkpt>
      <trkpt lat="47.99456" lon="7.06581">
        <ele>677</ele>
        <time>2019-04-13T16:01:54Z</time>
      </trkpt>
      <trkpt lat="47.99464" lon="7.06555">
        <ele>679</ele>
        <time>2019-04-13T16:02:54Z</time>
      </trkpt>
      <trkpt lat="47.9947" lon="7.06521">
        <ele>683</ele>
        <time>2019-04-13T16:03:54Z</time>
      </trkpt>
      <trkpt lat="47.99476" lon="7.06489">
        <ele>686</ele>
        <time>2019-04-13T16:04:54Z</time>
      </trkpt>
      <trkpt lat="47.99479" lon="7.06467">
        <ele>689</ele>
        <time>2019-04-13T16:05:54Z</time>
      </trkpt>
      <trkpt lat="47.99482" lon="7.06451">
        <ele>691</ele>
        <time>2019-04-13T16:06:54Z</time>
      </trkpt>
      <trkpt lat="47.99486" lon="7.06437">
        <ele>692</ele>
        <time>2019-04-13T16:07:54Z</time>
      </trkpt>
      <trkpt lat="47.99488" lon="7.06434">
        <ele>692</ele>
        <time>2019-04-13T16:08:54Z</time>
      </trkpt>
      <trkpt lat="47.99491" lon="7.0643">
        <ele>691</ele>
        <time>2019-04-13T16:09:54Z</time>
      </trkpt>
      <trkpt lat="47.99494" lon="7.06427">
        <ele>691</ele>
        <time>2019-04-13T16:10:54Z</time>
      </trkpt>
      <trkpt lat="47.99496" lon="7.06425">
        <ele>690</ele>
        <time>2019-04-13T16:11:54Z</time>
      </trkpt>
      <trkpt lat="47.99499" lon="7.06424">
        <ele>689</ele>
        <time>2019-04-13T16:12:54Z</time>
      </trkpt>
      <trkpt lat="47.99501" lon="7.06423">
        <ele>689</ele>
        <time>2019-04-13T16:13:54Z</time>
      </trkpt>
      <trkpt lat="47.99504" lon="7.06423">
        <ele>689</ele>
        <time>2019-04-13T16:14:54Z</time>
      </trkpt>
      <trkpt lat="47.99509" lon="7.06424">
        <ele>690</ele>
        <time>2019-04-13T16:15:54Z</time>
      </trkpt>
      <trkpt lat="47.99512" lon="7.06425">
        <ele>690</ele>
        <time>2019-04-13T16:16:54Z</time>
      </trkpt>
      <trkpt lat="47.99515" lon="7.06428">
        <ele>689</ele>
        <time>2019-04-13T16:17:54Z</time>
      </trkpt>
      <trkpt lat="47.99517" lon="7.06432">
        <ele>689</ele>
        <time>2019-04-13T16:18:54Z</time>
      </trkpt>
      <trkpt lat="47.99521" lon="7.06437">
        <ele>688</ele>
        <time>2019-04-13T16:19:54Z</time>
      </trkpt>
      <trkpt lat="47.99527" lon="7.06449">
        <ele>686</ele>
        <time>2019-04-13T16:20:54Z</time>
      </trkpt>
      <trkpt lat="47.99533" lon="7.06462">
        <ele>684</ele>
        <time>2019-04-13T16:21:54Z</time>
      </trkpt>
      <trkpt lat="47.99539" lon="7.06478">
        <ele>681</ele>
        <time>2019-04-13T16:22:54Z</time>
      </trkpt>
      <trkpt lat="47.9955" lon="7.06504">
        <ele>676</ele>
        <time>2019-04-13T16:23:54Z</time>
      </trkpt>
      <trkpt lat="47.99559" lon="7.0652">
        <ele>674</ele>
        <time>2019-04-13T16:24:54Z</time>
      </trkpt>
      <trkpt lat="47.99561" lon="7.06523">
        <ele>673</ele>
        <time>2019-04-13T16:25:54Z</time>
      </trkpt>
      <trkpt lat="47.99562" lon="7.06524">
        <ele>673</ele>
        <time>2019-04-13T16:26:54Z</time>
      </trkpt>
      <trkpt lat="47.99564" lon="7.06526">
        <ele>673</ele>
        <time>2019-04-13T16:27:54Z</time>
      </trkpt>
      <trkpt lat="47.99566" lon="7.06527">
        <ele>673</ele>
        <time>2019-04-13T16:28:54Z</time>
      </trkpt>
      <trkpt lat="47.99567" lon="7.06528">
        <ele>673</ele>
        <time>2019-04-13T16:29:54Z</time>
      </trkpt>
      <trkpt lat="47.99569" lon="7.06528">
        <ele>673</ele>
        <time>2019-04-13T16:30:54Z</time>
      </trkpt>
      <trkpt lat="47.9957" lon="7.06527">
        <ele>673</ele>
        <time>2019-04-13T16:31:54Z</time>
      </trkpt>
      <trkpt lat="47.99572" lon="7.06527">
        <ele>673</ele>
        <time>2019-04-13T16:32:54Z</time>
      </trkpt>
      <trkpt lat="47.99576" lon="7.06524">
        <ele>674</ele>
        <time>2019-04-13T16:33:54Z</time>
      </trkpt>
      <trkpt lat="47.99578" lon="7.0652">
        <ele>674</ele>
        <time>2019-04-13T16:34:54Z</time>
      </trkpt>
      <trkpt lat="47.99579" lon="7.06518">
        <ele>675</ele>
        <time>2019-04-13T16:35:54Z</time>
      </trkpt>
      <trkpt lat="47.9958" lon="7.06516">
        <ele>675</ele>
        <time>2019-04-13T16:36:54Z</time>
      </trkpt>
      <trkpt lat="47.9958" lon="7.06514">
        <ele>675</ele>
        <time>2019-04-13T16:37:54Z</time>
      </trkpt>
      <trkpt lat="47.9958" lon="7.06511">
        <ele>676</ele>
        <time>2019-04-13T16:38:54Z</time>
      </trkpt>
      <trkpt lat="47.9958" lon="7.06508">
        <ele>676</ele>
        <time>2019-04-13T16:39:54Z</time>
      </trkpt>
      <trkpt lat="47.9958" lon="7.06505">
        <ele>677</ele>
        <time>2019-04-13T16:40:54Z</time>
      </trkpt>
      <trkpt lat="47.99578" lon="7.06498">
        <ele>678</ele>
        <time>2019-04-13T16:41:54Z</time>
      </trkpt>
      <trkpt lat="47.99571" lon="7.06482">
        <ele>682</ele>
        <time>2019-04-13T16:42:54Z</time>
      </trkpt>
      <trkpt lat="47.99559" lon="7.06456">
        <ele>687</ele>
        <time>2019-04-13T16:43:54Z</time>
      </trkpt>
      <trkpt lat="47.99542" lon="7.06422">
        <ele>693</ele>
        <time>2019-04-13T16:44:54Z</time>
      </trkpt>
      <trkpt lat="47.99525" lon="7.06389">
        <ele>699</ele>
        <time>2019-04-13T16:45:54Z</time>
      </trkpt>
      <trkpt lat="47.9952" lon="7.06378">
        <ele>700</ele>
        <time>2019-04-13T16:46:54Z</time>
      </trkpt>
      <trkpt lat="47.99513" lon="7.06364">
        <ele>703</ele>
        <time>2019-04-13T16:47:54Z</time>
      </trkpt>
      <trkpt lat="47.99507" lon="7.06351">
        <ele>704</ele>
        <time>2019-04-13T16:48:54Z</time>
      </trkpt>
      <trkpt lat="47.99502" lon="7.0634">
        <ele>706</ele>
        <time>2019-04-13T16:49:54Z</time>
      </trkpt>
      <trkpt lat="47.99498" lon="7.06335">
        <ele>707</ele>
        <time>2019-04-13T16:50:54Z</time>
      </trkpt>
      <trkpt lat="47.99495" lon="7.06331">
        <ele>710</ele>
        <time>2019-04-13T16:51:54Z</time>
      </trkpt>
      <trkpt lat="47.99492" lon="7.06329">
        <ele>711</ele>
        <time>2019-04-13T16:52:54Z</time>
      </trkpt>
      <trkpt lat="47.99489" lon="7.06328">
        <ele>713</ele>
        <time>2019-04-13T16:53:54Z</time>
      </trkpt>
      <trkpt lat="47.99484" lon="7.06328">
        <ele>715</ele>
        <time>2019-04-13T16:54:54Z</time>
      </trkpt>
      <trkpt lat="47.9948" lon="7.0633">
        <ele>716</ele>
        <time>2019-04-13T16:55:54Z</time>
      </trkpt>
      <trkpt lat="47.99476" lon="7.06332">
        <ele>717</ele>
        <time>2019-04-13T16:56:54Z</time>
      </trkpt>
      <trkpt lat="47.99472" lon="7.06337">
        <ele>718</ele>
        <time>2019-04-13T16:57:54Z</time>
      </trkpt>
      <trkpt lat="47.99469" lon="7.06344">
        <ele>718</ele>
        <time>2019-04-13T16:58:54Z</time>
      </trkpt>
      <trkpt lat="47.99465" lon="7.06351">
        <ele>718</ele>
        <time>2019-04-13T16:59:54Z</time>
      </trkpt>
      <trkpt lat="47.99461" lon="7.06361">
        <ele>717</ele>
        <time>2019-04-13T17:00:54Z</time>
      </trkpt>
      <trkpt lat="47.99456" lon="7.06372">
        <ele>717</ele>
        <time>2019-04-13T17:01:54Z</time>
      </trkpt>
      <trkpt lat="47.99452" lon="7.06382">
        <ele>717</ele>
        <time>2019-04-13T17:02:54Z</time>
      </trkpt>
      <trkpt lat="47.99444" lon="7.06404">
        <ele>716</ele>
        <time>2019-04-13T17:03:54Z</time>
      </trkpt>
      <trkpt lat="47.99436" lon="7.06422">
        <ele>716</ele>
        <time>2019-04-13T17:04:54Z</time>
      </trkpt>
      <trkpt lat="47.99426" lon="7.06444">
        <ele>716</ele>
        <time>2019-04-13T17:05:54Z</time>
      </trkpt>
      <trkpt lat="47.9942" lon="7.06461">
        <ele>716</ele>
        <time>2019-04-13T17:06:54Z</time>
      </trkpt>
      <trkpt lat="47.99413" lon="7.06479">
        <ele>715</ele>
        <time>2019-04-13T17:07:54Z</time>
      </trkpt>
      <trkpt lat="47.99406" lon="7.06495">
        <ele>713</ele>
        <time>2019-04-13T17:08:54Z</time>
      </trkpt>
      <trkpt lat="47.99402" lon="7.06503">
        <ele>712</ele>
        <time>2019-04-13T17:09:54Z</time>
      </trkpt>
      <trkpt lat="47.99395" lon="7.06514">
        <ele>710</ele>
        <time>2019-04-13T17:10:54Z</time>
      </trkpt>
      <trkpt lat="47.99388" lon="7.0652">
        <ele>710</ele>
        <time>2019-04-13T17:11:54Z</time>
      </trkpt>
      <trkpt lat="47.99381" lon="7.06524">
        <ele>711</ele>
        <time>2019-04-13T17:12:54Z</time>
      </trkpt>
      <trkpt lat="47.99373" lon="7.06526">
        <ele>711</ele>
        <time>2019-04-13T17:13:54Z</time>
      </trkpt>
      <trkpt lat="47.99362" lon="7.06525">
        <ele>713</ele>
        <time>2019-04-13T17:14:54Z</time>
      </trkpt>
      <trkpt lat="47.9935" lon="7.06519">
        <ele>717</ele>
        <time>2019-04-13T17:15:54Z</time>
      </trkpt>
      <trkpt lat="47.99334" lon="7.06511">
        <ele>721</ele>
        <time>2019-04-13T17:16:54Z</time>
      </trkpt>
      <trkpt lat="47.99315" lon="7.06499">
        <ele>723</ele>
        <time>2019-04-13T17:17:54Z</time>
      </trkpt>
      <trkpt lat="47.99297" lon="7.06489">
        <ele>725</ele>
        <time>2019-04-13T17:18:54Z</time>
      </trkpt>
      <trkpt lat="47.99282" lon="7.06479">
        <ele>727</ele>
        <time>2019-04-13T17:19:54Z</time>
      </trkpt>
      <trkpt lat="47.99269" lon="7.06469">
        <ele>729</ele>
        <time>2019-04-13T17:20:54Z</time>
      </trkpt>
      <trkpt lat="47.99251" lon="7.06455">
        <ele>731</ele>
        <time>2019-04-13T17:21:54Z</time>
      </trkpt>
      <trkpt lat="47.99237" lon="7.06438">
        <ele>732</ele>
        <time>2019-04-13T17:22:54Z</time>
      </trkpt>
      <trkpt lat="47.9922" lon="7.06418">
        <ele>734</ele>
        <time>2019-04-13T17:23:54Z</time>
      </trkpt>
      <trkpt lat="47.99209" lon="7.06404">
        <ele>735</ele>
        <time>2019-04-13T17:24:54Z</time>
      </trkpt>
      <trkpt lat="47.992" lon="7.06388">
        <ele>737</ele>
        <time>2019-04-13T17:25:54Z</time>
      </trkpt>
      <trkpt lat="47.99191" lon="7.06372">
        <ele>739</ele>
        <time>2019-04-13T17:26:54Z</time>
      </trkpt>
      <trkpt lat="47.99182" lon="7.06353">
        <ele>741</ele>
        <time>2019-04-13T17:27:54Z</time>
      </trkpt>
      <trkpt lat="47.99174" lon="7.06331">
        <ele>743</ele>
        <time>2019-04-13T17:28:54Z</time>
      </trkpt>
      <trkpt lat="47.99167" lon="7.06312">
        <ele>744</ele>
        <time>2019-04-13T17:29:54Z</time>
      </trkpt>
      <trkpt lat="47.9916" lon="7.06285">
        <ele>746</ele>
        <time>2019-04-13T17:30:54Z</time>
      </trkpt>
      <trkpt lat="47.99127" lon="7.06165">
        <ele>756</ele>
        <time>2019-04-13T17:31:54Z</time>
      </trkpt>
      <trkpt lat="47.99104" lon="7.06072">
        <ele>760</ele>
        <time>2019-04-13T17:32:54Z</time>
      </trkpt>
      <trkpt lat="47.99092" lon="7.06023">
        <ele>764</ele>
        <time>2019-04-13T17:33:54Z</time>
      </trkpt>
      <trkpt lat="47.99085" lon="7.05999">
        <ele>766</ele>
        <time>2019-04-13T17:34:54Z</time>
      </trkpt>
      <trkpt lat="47.99068" lon="7.05929">
        <ele>776</ele>
        <time>2019-04-13T17:35:54Z</time>
      </trkpt>
      <trkpt lat="47.99066" lon="7.05918">
        <ele>778</ele>
        <time>2019-04-13T17:36:54Z</time>
      </trkpt>
      <trkpt lat="47.99058" lon="7.05891">
        <ele>783</ele>
        <time>2019-04-13T17:37:54Z</time>
      </trkpt>
      <trkpt lat="47.99048" lon="7.05865">
        <ele>788</ele>
        <time>2019-04-13T17:38:54Z</time>
      </trkpt>
      <trkpt lat="47.9904" lon="7.05847">
        <ele>791</ele>
        <time>2019-04-13T17:39:54Z</time>
      </trkpt>
      <trkpt lat="47.99032" lon="7.05825">
        <ele>796</ele>
        <time>2019-04-13T17:40:54Z</time>
      </trkpt>
      <trkpt lat="47.99026" lon="7.05812">
        <ele>797</ele>
        <time>2019-04-13T17:41:54Z</time>
      </trkpt>
      <trkpt lat="47.99022" lon="7.05805">
        <ele>798</ele>
        <time>2019-04-13T17:42:54Z</time>
      </trkpt>
      <trkpt lat="47.99016" lon="7.05791">
        <ele>799</ele>
        <time>2019-04-13T17:43:54Z</time>
      </trkpt>
      <trkpt lat="47.99012" lon="7.05785">
        <ele>799</ele>
        <time>2019-04-13T17:44:54Z</time>
      </trkpt>
      <trkpt lat="47.99009" lon="7.0578">
        <ele>800</ele>
        <time>2019-04-13T17:45:54Z</time>
      </trkpt>
      <trkpt lat="47.99005" lon="7.05776">
        <ele>800</ele>
        <time>2019-04-13T17:46:54Z</time>
      </trkpt>
      <trkpt lat="47.98999" lon="7.05771">
        <ele>800</ele>
        <time>2019-04-13T17:47:54Z</time>
      </trkpt>
      <trkpt lat="47.98995" lon="7.05768">
        <ele>801</ele>
        <time>2019-04-13T17:48:54Z</time>
      </trkpt>
      <trkpt lat="47.98992" lon="7.05767">
        <ele>801</ele>
        <time>2019-04-13T17:49:54Z</time>
      </trkpt>
      <trkpt lat="47.98988" lon="7.05766">
        <ele>802</ele>
        <time>2019-04-13T17:50:54Z</time>
      </trkpt>
      <trkpt lat="47.98984" lon="7.05766">
        <ele>802</ele>
        <time>2019-04-13T17:51:54Z</time>
      </trkpt>
      <trkpt lat="47.98979" lon="7.05767">
        <ele>802</ele>
        <time>2019-04-13T17:52:54Z</time>
      </trkpt>
      <trkpt lat="47.98976" lon="7.05768">
        <ele>802</ele>
        <time>2019-04-13T17:53:54Z</time>
      </trkpt>
      <trkpt lat="47.98971" lon="7.05771">
        <ele>802</ele>
        <time>2019-04-13T17:54:54Z</time>
      </trkpt>
      <trkpt lat="47.98956" lon="7.05783">
        <ele>801</ele>
        <time>2019-04-13T17:55:54Z</time>
      </trkpt>
      <trkpt lat="47.98935" lon="7.05804">
        <ele>800</ele>
        <time>2019-04-13T17:56:54Z</time>
      </trkpt>
      <trkpt lat="47.98922" lon="7.05818">
        <ele>800</ele>
        <time>2019-04-13T17:57:54Z</time>
      </trkpt>
      <trkpt lat="47.98914" lon="7.05824">
        <ele>800</ele>
        <time>2019-04-13T17:58:54Z</time>
      </trkpt>
      <trkpt lat="47.98906" lon="7.05829">
        <ele>801</ele>
        <time>2019-04-13T17:59:54Z</time>
      </trkpt>
      <trkpt lat="47.98896" lon="7.05835">
        <ele>803</ele>
        <time>2019-04-13T18:00:54Z</time>
      </trkpt>
      <trkpt lat="47.98882" lon="7.05841">
        <ele>805</ele>
        <time>2019-04-13T18:01:54Z</time>
      </trkpt>
      <trkpt lat="47.98872" lon="7.05847">
        <ele>806</ele>
        <time>2019-04-13T18:02:54Z</time>
      </trkpt>
      <trkpt lat="47.98857" lon="7.05856">
        <ele>809</ele>
        <time>2019-04-13T18:03:54Z</time>
      </trkpt>
      <trkpt lat="47.98836" lon="7.05873">
        <ele>812</ele>
        <time>2019-04-13T18:04:54Z</time>
      </trkpt>
      <trkpt lat="47.9882" lon="7.05887">
        <ele>814</ele>
        <time>2019-04-13T18:05:54Z</time>
      </trkpt>
      <trkpt lat="47.98805" lon="7.05899">
        <ele>816</ele>
        <time>2019-04-13T18:06:54Z</time>
      </trkpt>
      <trkpt lat="47.98783" lon="7.05919">
        <ele>818</ele>
        <time>2019-04-13T18:07:54Z</time>
      </trkpt>
      <trkpt lat="47.9876" lon="7.05943">
        <ele>820</ele>
        <time>2019-04-13T18:08:54Z</time>
      </trkpt>
      <trkpt lat="47.98748" lon="7.05961">
        <ele>819</ele>
        <time>2019-04-13T18:09:54Z</time>
      </trkpt>
      <trkpt lat="47.98736" lon="7.05974">
        <ele>818</ele>
        <time>2019-04-13T18:10:54Z</time>
      </trkpt>
      <trkpt lat="47.98723" lon="7.05989">
        <ele>816</ele>
        <time>2019-04-13T18:11:54Z</time>
      </trkpt>
      <trkpt lat="47.98717" lon="7.05995">
        <ele>816</ele>
        <time>2019-04-13T18:12:54Z</time>
      </trkpt>
      <trkpt lat="47.98712" lon="7.05997">
        <ele>816</ele>
        <time>2019-04-13T18:13:54Z</time>
      </trkpt>
      <trkpt lat="47.98707" lon="7.05999">
        <ele>816</ele>
        <time>2019-04-13T18:14:54Z</time>
      </trkpt>
      <trkpt lat="47.98701" lon="7.06">
        <ele>816</ele>
        <time>2019-04-13T18:15:54Z</time>
      </trkpt>
      <trkpt lat="47.98697" lon="7.06">
        <ele>817</ele>
        <time>2019-04-13T18:16:54Z</time>
      </trkpt>
      <trkpt lat="47.98694" lon="7.06">
        <ele>817</ele>
        <time>2019-04-13T18:17:54Z</time>
      </trkpt>
      <trkpt lat="47.9869" lon="7.05999">
        <ele>818</ele>
        <time>2019-04-13T18:18:54Z</time>
      </trkpt>
      <trkpt lat="47.98687" lon="7.05998">
        <ele>818</ele>
        <time>2019-04-13T18:19:54Z</time>
      </trkpt>
      <trkpt lat="47.98684" lon="7.05997">
        <ele>819</ele>
        <time>2019-04-13T18:20:54Z</time>
      </trkpt>
      <trkpt lat="47.98681" lon="7.05995">
        <ele>820</ele>
        <time>2019-04-13T18:21:54Z</time>
      </trkpt>
      <trkpt lat="47.98677" lon="7.05993">
        <ele>821</ele>
        <time>2019-04-13T18:22:54Z</time>
      </trkpt>
      <trkpt lat="47.98672" lon="7.05991">
        <ele>822</ele>
        <time>2019-04-13T18:23:54Z</time>
      </trkpt>
      <trkpt lat="47.9866" lon="7.05984">
        <ele>823</ele>
        <time>2019-04-13T18:24:54Z</time>
      </trkpt>
      <trkpt lat="47.98647" lon="7.05972">
        <ele>823</ele>
        <time>2019-04-13T18:25:54Z</time>
      </trkpt>
      <trkpt lat="47.98635" lon="7.05961">
        <ele>824</ele>
        <time>2019-04-13T18:26:54Z</time>
      </trkpt>
      <trkpt lat="47.98618" lon="7.05938">
        <ele>826</ele>
        <time>2019-04-13T18:27:54Z</time>
      </trkpt>
      <trkpt lat="47.98603" lon="7.05914">
        <ele>830</ele>
        <time>2019-04-13T18:28:54Z</time>
      </trkpt>
      <trkpt lat="47.98589" lon="7.05894">
        <ele>832</ele>
        <time>2019-04-13T18:29:54Z</time>
      </trkpt>
      <trkpt lat="47.98578" lon="7.05879">
        <ele>835</ele>
        <time>2019-04-13T18:30:54Z</time>
      </trkpt>
      <trkpt lat="47.9856" lon="7.05856">
        <ele>838</ele>
        <time>2019-04-13T18:31:54Z</time>
      </trkpt>
      <trkpt lat="47.98541" lon="7.05836">
        <ele>841</ele>
        <time>2019-04-13T18:32:54Z</time>
      </trkpt>
      <trkpt lat="47.98529" lon="7.05824">
        <ele>842</ele>
        <time>2019-04-13T18:33:54Z</time>
      </trkpt>
      <trkpt lat="47.98517" lon="7.05811">
        <ele>844</ele>
        <time>2019-04-13T18:34:54Z</time>
      </trkpt>
      <trkpt lat="47.98504" lon="7.05799">
        <ele>846</ele>
        <time>2019-04-13T18:35:54Z</time>
      </trkpt>
      <trkpt lat="47.98492" lon="7.05786">
        <ele>848</ele>
        <time>2019-04-13T18:36:54Z</time>
      </trkpt>
      <trkpt lat="47.9848" lon="7.05774">
        <ele>850</ele>
        <time>2019-04-13T18:37:54Z</time>
      </trkpt>
      <trkpt lat="47.98469" lon="7.05763">
        <ele>851</ele>
        <time>2019-04-13T18:38:54Z</time>
      </trkpt>
      <trkpt lat="47.98459" lon="7.05755">
        <ele>852</ele>
        <time>2019-04-13T18:39:54Z</time>
      </trkpt>
      <trkpt lat="47.98454" lon="7.05751">
        <ele>852</ele>
        <time>2019-04-13T18:40:54Z</time>
      </trkpt>
      <trkpt lat="47.98448" lon="7.05747">
        <ele>852</ele>
        <time>2019-04-13T18:41:54Z</time>
      </trkpt>
      <trkpt lat="47.98439" lon="7.05741">
        <ele>852</ele>
        <time>2019-04-13T18:42:54Z</time>
      </trkpt>
      <trkpt lat="47.98433" lon="7.05735">
        <ele>853</ele>
        <time>2019-04-13T18:43:54Z</time>
      </trkpt>
      <trkpt lat="47.9843" lon="7.05732">
        <ele>853</ele>
        <time>2019-04-13T18:44:54Z</time>
      </trkpt>
      <trkpt lat="47.98429" lon="7.05731">
        <ele>853</ele>
        <time>2019-04-13T18:45:54Z</time>
      </trkpt>
      <trkpt lat="47.98428" lon="7.05729">
        <ele>854</ele>
        <time>2019-04-13T18:46:54Z</time>
      </trkpt>
      <trkpt lat="47.98427" lon="7.05728">
        <ele>854</ele>
        <time>2019-04-13T18:47:54Z</time>
      </trkpt>
      <trkpt lat="47.98426" lon="7.05726">
        <ele>854</ele>
        <time>2019-04-13T18:48:54Z</time>
      </trkpt>
      <trkpt lat="47.98425" lon="7.05723">
        <ele>855</ele>
        <time>2019-04-13T18:49:54Z</time>
      </trkpt>
      <trkpt lat="47.98425" lon="7.05721">
        <ele>855</ele>
        <time>2019-04-13T18:50:54Z</time>
      </trkpt>
      <trkpt lat="47.98425" lon="7.05718">
        <ele>856</ele>
        <time>2019-04-13T18:51:54Z</time>
      </trkpt>
      <trkpt lat="47.98425" lon="7.05716">
        <ele>857</ele>
        <time>2019-04-13T18:52:54Z</time>
      </trkpt>
      <trkpt lat="47.98425" lon="7.05713">
        <ele>858</ele>
        <time>2019-04-13T18:53:54Z</time>
      </trkpt>
      <trkpt lat="47.98426" lon="7.05711">
        <ele>858</ele>
        <time>2019-04-13T18:54:54Z</time>
      </trkpt>
      <trkpt lat="47.98428" lon="7.05707">
        <ele>860</ele>
        <time>2019-04-13T18:55:54Z</time>
      </trkpt>
      <trkpt lat="47.98432" lon="7.05704">
        <ele>861</ele>
        <time>2019-04-13T18:56:54Z</time>
      </trkpt>
      <trkpt lat="47.98436" lon="7.05703">
        <ele>862</ele>
        <time>2019-04-13T18:57:54Z</time>
      </trkpt>
      <trkpt lat="47.98438" lon="7.05703">
        <ele>863</ele>
        <time>2019-04-13T18:58:54Z</time>
      </trkpt>
      <trkpt lat="47.98441" lon="7.05704">
        <ele>863</ele>
        <time>2019-04-13T18:59:54Z</time>
      </trkpt>
      <trkpt lat="47.98447" lon="7.05708">
        <ele>863</ele>
        <time>2019-04-13T19:00:54Z</time>
      </trkpt>
      <trkpt lat="47.98457" lon="7.05715">
        <ele>862</ele>
        <time>2019-04-13T19:01:54Z</time>
      </trkpt>
      <trkpt lat="47.9847" lon="7.05725">
        <ele>862</ele>
        <time>2019-04-13T19:02:54Z</time>
      </trkpt>
      <trkpt lat="47.98485" lon="7.05735">
        <ele>862</ele>
        <time>2019-04-13T19:03:54Z</time>
      </trkpt>
      <trkpt lat="47.98512" lon="7.05749">
        <ele>862</ele>
        <time>2019-04-13T19:04:54Z</time>
      </trkpt>
      <trkpt lat="47.98534" lon="7.05761">
        <ele>862</ele>
        <time>2019-04-13T19:05:54Z</time>
      </trkpt>
      <trkpt lat="47.98563" lon="7.05776">
        <ele>862</ele>
        <time>2019-04-13T19:06:54Z</time>
      </trkpt>
      <trkpt lat="47.98585" lon="7.05785">
        <ele>863</ele>
        <time>2019-04-13T19:07:54Z</time>
      </trkpt>
      <trkpt lat="47.986" lon="7.05789">
        <ele>862</ele>
        <time>2019-04-13T19:08:54Z</time>
      </trkpt>
      <trkpt lat="47.98615" lon="7.05792">
        <ele>862</ele>
        <time>2019-04-13T19:09:54Z</time>
      </trkpt>
      <trkpt lat="47.98632" lon="7.05795">
        <ele>863</ele>
        <time>2019-04-13T19:10:54Z</time>
      </trkpt>
      <trkpt lat="47.98642" lon="7.05795">
        <ele>864</ele>
        <time>2019-04-13T19:11:54Z</time>
      </trkpt>
      <trkpt lat="47.98653" lon="7.05793">
        <ele>865</ele>
        <time>2019-04-13T19:12:54Z</time>
      </trkpt>
      <trkpt lat="47.98663" lon="7.05788">
        <ele>867</ele>
        <time>2019-04-13T19:13:54Z</time>
      </trkpt>
      <trkpt lat="47.98672" lon="7.05781">
        <ele>868</ele>
        <time>2019-04-13T19:14:54Z</time>
      </trkpt>
      <trkpt lat="47.98678" lon="7.05772">
        <ele>869</ele>
        <time>2019-04-13T19:15:54Z</time>
      </trkpt>
      <trkpt lat="47.98686" lon="7.05759">
        <ele>870</ele>
        <time>2019-04-13T19:16:54Z</time>
      </trkpt>
      <trkpt lat="47.98697" lon="7.05732">
        <ele>874</ele>
        <time>2019-04-13T19:17:54Z</time>
      </trkpt>
      <trkpt lat="47.98709" lon="7.05704">
        <ele>876</ele>
        <time>2019-04-13T19:18:54Z</time>
      </trkpt>
      <trkpt lat="47.98722" lon="7.05673">
        <ele>879</ele>
        <time>2019-04-13T19:19:54Z</time>
      </trkpt>
      <trkpt lat="47.98734" lon="7.05647">
        <ele>880</ele>
        <time>2019-04-13T19:20:54Z</time>
      </trkpt>
      <trkpt lat="47.98745" lon="7.05624">
        <ele>881</ele>
        <time>2019-04-13T19:21:54Z</time>
      </trkpt>
      <trkpt lat="47.98758" lon="7.056">
        <ele>880</ele>
        <time>2019-04-13T19:22:54Z</time>
      </trkpt>
      <trkpt lat="47.98768" lon="7.05583">
        <ele>880</ele>
        <time>2019-04-13T19:23:54Z</time>
      </trkpt>
      <trkpt lat="47.98777" lon="7.05568">
        <ele>879</ele>
        <time>2019-04-13T19:24:54Z</time>
      </trkpt>
      <trkpt lat="47.98781" lon="7.05558">
        <ele>879</ele>
        <time>2019-04-13T19:25:54Z</time>
      </trkpt>
      <trkpt lat="47.98783" lon="7.05552">
        <ele>879</ele>
        <time>2019-04-13T19:26:54Z</time>
      </trkpt>
      <trkpt lat="47.98784" lon="7.05547">
        <ele>880</ele>
        <time>2019-04-13T19:27:54Z</time>
      </trkpt>
      <trkpt lat="47.98783" lon="7.05541">
        <ele>881</ele>
        <time>2019-04-13T19:28:54Z</time>
      </trkpt>
      <trkpt lat="47.98781" lon="7.05536">
        <ele>882</ele>
        <time>2019-04-13T19:29:54Z</time>
      </trkpt>
      <trkpt lat="47.98779" lon="7.05532">
        <ele>883</ele>
        <time>2019-04-13T19:30:54Z</time>
      </trkpt>
      <trkpt lat="47.98776" lon="7.0553">
        <ele>884</ele>
        <time>2019-04-13T19:31:54Z</time>
      </trkpt>
      <trkpt lat="47.98774" lon="7.0553">
        <ele>885</ele>
        <time>2019-04-13T19:32:54Z</time>
      </trkpt>
      <trkpt lat="47.98771" lon="7.0553">
        <ele>886</ele>
        <time>2019-04-13T19:33:54Z</time>
      </trkpt>
      <trkpt lat="47.98768" lon="7.05532">
        <ele>886</ele>
        <time>2019-04-13T19:34:54Z</time>
      </trkpt>
      <trkpt lat="47.98765" lon="7.05535">
        <ele>887</ele>
        <time>2019-04-13T19:35:54Z</time>
      </trkpt>
      <trkpt lat="47.98762" lon="7.05538">
        <ele>887</ele>
        <time>2019-04-13T19:36:54Z</time>
      </trkpt>
      <trkpt lat="47.98759" lon="7.05542">
        <ele>888</ele>
        <time>2019-04-13T19:37:54Z</time>
      </trkpt>
      <trkpt lat="47.98753" lon="7.05552">
        <ele>888</ele>
        <time>2019-04-13T19:38:54Z</time>
      </trkpt>
      <trkpt lat="47.98746" lon="7.05565">
        <ele>888</ele>
        <time>2019-04-13T19:39:54Z</time>
      </trkpt>
      <trkpt lat="47.98735" lon="7.05581">
        <ele>889</ele>
        <time>2019-04-13T19:40:54Z</time>
      </trkpt>
      <trkpt lat="47.98721" lon="7.05596">
        <ele>890</ele>
        <time>2019-04-13T19:41:54Z</time>
      </trkpt>
      <trkpt lat="47.98708" lon="7.05607">
        <ele>891</ele>
        <time>2019-04-13T19:42:54Z</time>
      </trkpt>
      <trkpt lat="47.98695" lon="7.05618">
        <ele>893</ele>
        <time>2019-04-13T19:43:54Z</time>
      </trkpt>
      <trkpt lat="47.9868" lon="7.0563">
        <ele>894</ele>
        <time>2019-04-13T19:44:54Z</time>
      </trkpt>
      <trkpt lat="47.98671" lon="7.05637">
        <ele>896</ele>
        <time>2019-04-13T19:45:54Z</time>
      </trkpt>
      <trkpt lat="47.98661" lon="7.05641">
        <ele>896</ele>
        <time>2019-04-13T19:46:54Z</time>
      </trkpt>
      <trkpt lat="47.98648" lon="7.05645">
        <ele>897</ele>
        <time>2019-04-13T19:47:54Z</time>
      </trkpt>
      <trkpt lat="47.98635" lon="7.05646">
        <ele>897</ele>
        <time>2019-04-13T19:48:54Z</time>
      </trkpt>
      <trkpt lat="47.9862" lon="7.05642">
        <ele>899</ele>
        <time>2019-04-13T19:49:54Z</time>
      </trkpt>
      <trkpt lat="47.9859" lon="7.05624">
        <ele>904</ele>
        <time>2019-04-13T19:50:54Z</time>
      </trkpt>
      <trkpt lat="47.98568" lon="7.05611">
        <ele>906</ele>
        <time>2019-04-13T19:51:54Z</time>
      </trkpt>
      <trkpt lat="47.98556" lon="7.05601">
        <ele>907</ele>
        <time>2019-04-13T19:52:54Z</time>
      </trkpt>
      <trkpt lat="47.98522" lon="7.05564">
        <ele>912</ele>
        <time>2019-04-13T19:53:54Z</time>
      </trkpt>
      <trkpt lat="47.98488" lon="7.05523">
        <ele>919</ele>
        <time>2019-04-13T19:54:54Z</time>
      </trkpt>
      <trkpt lat="47.98473" lon="7.05505">
        <ele>922</ele>
        <time>2019-04-13T19:55:54Z</time>
      </trkpt>
      <trkpt lat="47.98459" lon="7.05491">
        <ele>924</ele>
        <time>2019-04-13T19:56:54Z</time>
      </trkpt>
      <trkpt lat="47.9845" lon="7.05483">
        <ele>926</ele>
        <time>2019-04-13T19:57:54Z</time>
      </trkpt>
      <trkpt lat="47.98441" lon="7.05476">
        <ele>927</ele>
        <time>2019-04-13T19:58:54Z</time>
      </trkpt>
      <trkpt lat="47.98433" lon="7.05472">
        <ele>927</ele>
        <time>2019-04-13T19:59:54Z</time>
      </trkpt>
      <trkpt lat="47.98423" lon="7.05467">
        <ele>928</ele>
        <time>2019-04-13T20:00:54Z</time>
      </trkpt>
      <trkpt lat="47.98412" lon="7.05464">
        <ele>928</ele>
        <time>2019-04-13T20:01:54Z</time>
      </trkpt>
      <trkpt lat="47.98398" lon="7.05463">
        <ele>930</ele>
        <time>2019-04-13T20:02:54Z</time>
      </trkpt>
      <trkpt lat="47.9839" lon="7.05464">
        <ele>930</ele>
        <time>2019-04-13T20:03:54Z</time>
      </trkpt>
      <trkpt lat="47.98377" lon="7.05464">
        <ele>931</ele>
        <time>2019-04-13T20:04:54Z</time>
      </trkpt>
      <trkpt lat="47.98361" lon="7.05465">
        <ele>932</ele>
        <time>2019-04-13T20:05:54Z</time>
      </trkpt>
      <trkpt lat="47.98347" lon="7.05465">
        <ele>933</ele>
        <time>2019-04-13T20:06:54Z</time>
      </trkpt>
      <trkpt lat="47.98332" lon="7.05465">
        <ele>934</ele>
        <time>2019-04-13T20:07:54Z</time>
      </trkpt>
      <trkpt lat="47.98325" lon="7.05465">
        <ele>935</ele>
        <time>2019-04-13T20:08:54Z</time>
      </trkpt>
      <trkpt lat="47.98316" lon="7.05462">
        <ele>936</ele>
        <time>2019-04-13T20:09:54Z</time>
      </trkpt>
      <trkpt lat="47.98302" lon="7.05459">
        <ele>937</ele>
        <time>2019-04-13T20:10:54Z</time>
      </trkpt>
      <trkpt lat="47.98293" lon="7.05453">
        <ele>939</ele>
        <time>2019-04-13T20:11:54Z</time>
      </trkpt>
      <trkpt lat="47.98284" lon="7.05446">
        <ele>942</ele>
        <time>2019-04-13T20:12:54Z</time>
      </trkpt>
      <trkpt lat="47.98272" lon="7.05439">
        <ele>944</ele>
        <time>2019-04-13T20:13:54Z</time>
      </trkpt>
      <trkpt lat="47.98255" lon="7.05427">
        <ele>949</ele>
        <time>2019-04-13T20:14:54Z</time>
      </trkpt>
      <trkpt lat="47.98232" lon="7.05416">
        <ele>950</ele>
        <time>2019-04-13T20:15:54Z</time>
      </trkpt>
      <trkpt lat="47.9821" lon="7.05404">
        <ele>950</ele>
        <time>2019-04-13T20:16:54Z</time>
      </trkpt>
      <trkpt lat="47.98196" lon="7.05396">
        <ele>950</ele>
        <time>2019-04-13T20:17:54Z</time>
      </trkpt>
      <trkpt lat="47.98184" lon="7.05385">
        <ele>951</ele>
        <time>2019-04-13T20:18:54Z</time>
      </trkpt>
      <trkpt lat="47.98165" lon="7.05364">
        <ele>953</ele>
        <time>2019-04-13T20:19:54Z</time>
      </trkpt>
      <trkpt lat="47.98157" lon="7.05356">
        <ele>955</ele>
        <time>2019-04-13T20:20:54Z</time>
      </trkpt>
      <trkpt lat="47.98149" lon="7.05346">
        <ele>957</ele>
        <time>2019-04-13T20:21:54Z</time>
      </trkpt>
      <trkpt lat="47.98143" lon="7.05338">
        <ele>958</ele>
        <time>2019-04-13T20:22:54Z</time>
      </trkpt>
      <trkpt lat="47.98134" lon="7.05329">
        <ele>961</ele>
        <time>2019-04-13T20:23:54Z</time>
      </trkpt>
      <trkpt lat="47.98127" lon="7.05322">
        <ele>963</ele>
        <time>2019-04-13T20:24:54Z</time>
      </trkpt>
      <trkpt lat="47.98118" lon="7.05317">
        <ele>964</ele>
        <time>2019-04-13T20:25:54Z</time>
      </trkpt>
      <trkpt lat="47.98111" lon="7.05314">
        <ele>965</ele>
        <time>2019-04-13T20:26:54Z</time>
      </trkpt>
      <trkpt lat="47.98105" lon="7.05313">
        <ele>966</ele>
        <time>2019-04-13T20:27:54Z</time>
      </trkpt>
      <trkpt lat="47.98095" lon="7.05313">
        <ele>966</ele>
        <time>2019-04-13T20:28:54Z</time>
      </trkpt>
      <trkpt lat="47.98089" lon="7.05314">
        <ele>966</ele>
        <time>2019-04-13T20:29:54Z</time>
      </trkpt>
      <trkpt lat="47.98086" lon="7.05314">
        <ele>966</ele>
        <time>2019-04-13T20:30:54Z</time>
      </trkpt>
      <trkpt lat="47.98084" lon="7.05315">
        <ele>965</ele>
        <time>2019-04-13T20:31:54Z</time>
      </trkpt>
      <trkpt lat="47.9808" lon="7.05316">
        <ele>966</ele>
        <time>2019-04-13T20:32:54Z</time>
      </trkpt>
      <trkpt lat="47.98066" lon="7.05319">
        <ele>969</ele>
        <time>2019-04-13T20:33:54Z</time>
      </trkpt>
      <trkpt lat="47.98053" lon="7.05323">
        <ele>972</ele>
        <time>2019-04-13T20:34:54Z</time>
      </trkpt>
      <trkpt lat="47.98022" lon="7.05333">
        <ele>978</ele>
        <time>2019-04-13T20:35:54Z</time>
      </trkpt>
      <trkpt lat="47.98013" lon="7.05337">
        <ele>979</ele>
        <time>2019-04-13T20:36:54Z</time>
      </trkpt>
      <trkpt lat="47.98007" lon="7.05341">
        <ele>980</ele>
        <time>2019-04-13T20:37:54Z</time>
      </trkpt>
      <trkpt lat="47.98001" lon="7.05345">
        <ele>981</ele>
        <time>2019-04-13T20:38:54Z</time>
      </trkpt>
      <trkpt lat="47.9799" lon="7.05355">
        <ele>983</ele>
        <time>2019-04-13T20:39:54Z</time>
      </trkpt>
      <trkpt lat="47.97986" lon="7.05358">
        <ele>985</ele>
        <time>2019-04-13T20:40:54Z</time>
      </trkpt>
      <trkpt lat="47.97984" lon="7.05361">
        <ele>985</ele>
        <time>2019-04-13T20:41:54Z</time>
      </trkpt>
      <trkpt lat="47.97979" lon="7.05367">
        <ele>986</ele>
        <time>2019-04-13T20:42:54Z</time>
      </trkpt>
      <trkpt lat="47.97974" lon="7.05376">
        <ele>986</ele>
        <time>2019-04-13T20:43:54Z</time>
      </trkpt>
      <trkpt lat="47.97959" lon="7.05406">
        <ele>987</ele>
        <time>2019-04-13T20:44:54Z</time>
      </trkpt>
      <trkpt lat="47.97943" lon="7.05442">
        <ele>989</ele>
        <time>2019-04-13T20:45:54Z</time>
      </trkpt>
      <trkpt lat="47.97932" lon="7.05463">
        <ele>990</ele>
        <time>2019-04-13T20:46:54Z</time>
      </trkpt>
      <trkpt lat="47.97917" lon="7.05493">
        <ele>990</ele>
        <time>2019-04-13T20:47:54Z</time>
      </trkpt>
      <trkpt lat="47.97897" lon="7.05525">
        <ele>988</ele>
        <time>2019-04-13T20:48:54Z</time>
      </trkpt>
      <trkpt lat="47.97883" lon="7.05543">
        <ele>987</ele>
        <time>2019-04-13T20:49:54Z</time>
      </trkpt>
      <trkpt lat="47.97873" lon="7.05553">
        <ele>987</ele>
        <time>2019-04-13T20:50:54Z</time>
      </trkpt>
      <trkpt lat="47.97864" lon="7.0556">
        <ele>987</ele>
        <time>2019-04-13T20:51:54Z</time>
      </trkpt>
      <trkpt lat="47.97862" lon="7.0556">
        <ele>987</ele>
        <time>2019-04-13T20:52:54Z</time>
      </trkpt>
      <trkpt lat="47.97859" lon="7.0556">
        <ele>988</ele>
        <time>2019-04-13T20:53:54Z</time>
      </trkpt>
      <trkpt lat="47.97856" lon="7.05559">
        <ele>989</ele>
        <time>2019-04-13T20:54:54Z</time>
      </trkpt>
      <trkpt lat="47.97854" lon="7.05558">
        <ele>989</ele>
        <time>2019-04-13T20:55:54Z</time>
      </trkpt>
      <trkpt lat="47.97852" lon="7.05556">
        <ele>990</ele>
        <time>2019-04-13T20:56:54Z</time>
      </trkpt>
      <trkpt lat="47.9785" lon="7.0555">
        <ele>992</ele>
        <time>2019-04-13T20:57:54Z</time>
      </trkpt>
      <trkpt lat="47.9785" lon="7.05547">
        <ele>993</ele>
        <time>2019-04-13T20:58:54Z</time>
      </trkpt>
      <trkpt lat="47.9785" lon="7.05541">
        <ele>995</ele>
        <time>2019-04-13T20:59:54Z</time>
      </trkpt>
      <trkpt lat="47.97851" lon="7.05537">
        <ele>996</ele>
        <time>2019-04-13T21:00:54Z</time>
      </trkpt>
      <trkpt lat="47.97852" lon="7.05534">
        <ele>996</ele>
        <time>2019-04-13T21:01:54Z</time>
      </trkpt>
      <trkpt lat="47.97854" lon="7.05532">
        <ele>996</ele>
        <time>2019-04-13T21:02:54Z</time>
      </trkpt>
      <trkpt lat="47.97856" lon="7.0553">
        <ele>996</ele>
        <time>2019-04-13T21:03:54Z</time>
      </trkpt>
      <trkpt lat="47.97861" lon="7.05526">
        <ele>996</ele>
        <time>2019-04-13T21:04:54Z</time>
      </trkpt>
      <trkpt lat="47.97872" lon="7.05517">
        <ele>996</ele>
        <time>2019-04-13T21:05:54Z</time>
      </trkpt>
      <trkpt lat="47.97886" lon="7.05499">
        <ele>997</ele>
        <time>2019-04-13T21:06:54Z</time>
      </trkpt>
      <trkpt lat="47.97897" lon="7.05475">
        <ele>1000</ele>
        <time>2019-04-13T21:07:54Z</time>
      </trkpt>
      <trkpt lat="47.97906" lon="7.05448">
        <ele>1004</ele>
        <time>2019-04-13T21:08:54Z</time>
      </trkpt>
      <trkpt lat="47.97915" lon="7.05423">
        <ele>1007</ele>
        <time>2019-04-13T21:09:54Z</time>
      </trkpt>
      <trkpt lat="47.97922" lon="7.05396">
        <ele>1009</ele>
        <time>2019-04-13T21:10:54Z</time>
      </trkpt>
      <trkpt lat="47.9793" lon="7.05357">
        <ele>1012</ele>
        <time>2019-04-13T21:11:54Z</time>
      </trkpt>
      <trkpt lat="47.97937" lon="7.05331">
        <ele>1013</ele>
        <time>2019-04-13T21:12:54Z</time>
      </trkpt>
      <trkpt lat="47.97942" lon="7.05306">
        <ele>1016</ele>
        <time>2019-04-13T21:13:54Z</time>
      </trkpt>
      <trkpt lat="47.9795" lon="7.05283">
        <ele>1017</ele>
        <time>2019-04-13T21:14:54Z</time>
      </trkpt>
      <trkpt lat="47.97959" lon="7.05261">
        <ele>1018</ele>
        <time>2019-04-13T21:15:54Z</time>
      </trkpt>
      <trkpt lat="47.9797" lon="7.05231">
        <ele>1020</ele>
        <time>2019-04-13T21:16:54Z</time>
      </trkpt>
      <trkpt lat="47.97982" lon="7.05206">
        <ele>1020</ele>
        <time>2019-04-13T21:17:54Z</time>
      </trkpt>
      <trkpt lat="47.97991" lon="7.05187">
        <ele>1020</ele>
        <time>2019-04-13T21:18:54Z</time>
      </trkpt>
      <trkpt lat="47.98" lon="7.05168">
        <ele>1021</ele>
        <time>2019-04-13T21:19:54Z</time>
      </trkpt>
      <trkpt lat="47.98008" lon="7.05153">
        <ele>1021</ele>
        <time>2019-04-13T21:20:54Z</time>
      </trkpt>
      <trkpt lat="47.98019" lon="7.05136">
        <ele>1022</ele>
        <time>2019-04-13T21:21:54Z</time>
      </trkpt>
      <trkpt lat="47.98027" lon="7.05127">
        <ele>1022</ele>
        <time>2019-04-13T21:22:54Z</time>
      </trkpt>
      <trkpt lat="47.98036" lon="7.05117">
        <ele>1022</ele>
        <time>2019-04-13T21:23:54Z</time>
      </trkpt>
      <trkpt lat="47.98046" lon="7.05106">
        <ele>1023</ele>
        <time>2019-04-13T21:24:54Z</time>
      </trkpt>
      <trkpt lat="47.98055" lon="7.05099">
        <ele>1023</ele>
        <time>2019-04-13T21:25:54Z</time>
      </trkpt>
      <trkpt lat="47.98066" lon="7.05094">
        <ele>1023</ele>
        <time>2019-04-13T21:26:54Z</time>
      </trkpt>
      <trkpt lat="47.98077" lon="7.0509">
        <ele>1022</ele>
        <time>2019-04-13T21:27:54Z</time>
      </trkpt>
      <trkpt lat="47.98087" lon="7.05089">
        <ele>1022</ele>
        <time>2019-04-13T21:28:54Z</time>
      </trkpt>
      <trkpt lat="47.981" lon="7.05086">
        <ele>1023</ele>
        <time>2019-04-13T21:29:54Z</time>
      </trkpt>
      <trkpt lat="47.98119" lon="7.05086">
        <ele>1023</ele>
        <time>2019-04-13T21:30:54Z</time>
      </trkpt>
      <trkpt lat="47.98129" lon="7.05086">
        <ele>1024</ele>
        <time>2019-04-13T21:31:54Z</time>
      </trkpt>
      <trkpt lat="47.98137" lon="7.05085">
        <ele>1024</ele>
        <time>2019-04-13T21:32:54Z</time>
      </trkpt>
      <trkpt lat="47.98141" lon="7.05084">
        <ele>1024</ele>
        <time>2019-04-13T21:33:54Z</time>
      </trkpt>
      <trkpt lat="47.98144" lon="7.05083">
        <ele>1025</ele>
        <time>2019-04-13T21:34:54Z</time>
      </trkpt>
      <trkpt lat="47.98145" lon="7.05081">
        <ele>1025</ele>
        <time>2019-04-13T21:35:54Z</time>
      </trkpt>
      <trkpt lat="47.98147" lon="7.05079">
        <ele>1025</ele>
        <time>2019-04-13T21:36:54Z</time>
      </trkpt>
      <trkpt lat="47.98149" lon="7.05075">
        <ele>1026</ele>
        <time>2019-04-13T21:37:54Z</time>
      </trkpt>
      <trkpt lat="47.98149" lon="7.05072">
        <ele>1027</ele>
        <time>2019-04-13T21:38:54Z</time>
      </trkpt>
      <trkpt lat="47.98149" lon="7.05068">
        <ele>1028</ele>
        <time>2019-04-13T21:39:54Z</time>
      </trkpt>
      <trkpt lat="47.98149" lon="7.05065">
        <ele>1028</ele>
        <time>2019-04-13T21:40:54Z</time>
      </trkpt>
      <trkpt lat="47.98147" lon="7.05061">
        <ele>1029</ele>
        <time>2019-04-13T21:41:54Z</time>
      </trkpt>
      <trkpt lat="47.98145" lon="7.05058">
        <ele>1030</ele>
        <time>2019-04-13T21:42:54Z</time>
      </trkpt>
      <trkpt lat="47.98143" lon="7.05055">
        <ele>1030</ele>
        <time>2019-04-13T21:43:54Z</time>
      </trkpt>
      <trkpt lat="47.98141" lon="7.05054">
        <ele>1030</ele>
        <time>2019-04-13T21:44:54Z</time>
      </trkpt>
      <trkpt lat="47.98137" lon="7.05053">
        <ele>1031</ele>
        <time>2019-04-13T21:45:54Z</time>
      </trkpt>
      <trkpt lat="47.98131" lon="7.05053">
        <ele>1030</ele>
        <time>2019-04-13T21:46:54Z</time>
      </trkpt>
      <trkpt lat="47.98115" lon="7.05062">
        <ele>1028</ele>
        <time>2019-04-13T21:47:54Z</time>
      </trkpt>
      <trkpt lat="47.98103" lon="7.05066">
        <ele>1027</ele>
        <time>2019-04-13T21:48:54Z</time>
      </trkpt>
      <trkpt lat="47.98087" lon="7.05065">
        <ele>1027</ele>
        <time>2019-04-13T21:49:54Z</time>
      </trkpt>
      <trkpt lat="47.98072" lon="7.05064">
        <ele>1028</ele>
        <time>2019-04-13T21:50:54Z</time>
      </trkpt>
      <trkpt lat="47.98063" lon="7.05065">
        <ele>1028</ele>
        <time>2019-04-13T21:51:54Z</time>
      </trkpt>
      <trkpt lat="47.98051" lon="7.05068">
        <ele>1029</ele>
        <time>2019-04-13T21:52:54Z</time>
      </trkpt>
      <trkpt lat="47.98043" lon="7.05072">
        <ele>1029</ele>
        <time>2019-04-13T21:53:54Z</time>
      </trkpt>
      <trkpt lat="47.98033" lon="7.05076">
        <ele>1029</ele>
        <time>2019-04-13T21:54:54Z</time>
      </trkpt>
      <trkpt lat="47.97993" lon="7.05095">
        <ele>1031</ele>
        <time>2019-04-13T21:55:54Z</time>
      </trkpt>
      <trkpt lat="47.97987" lon="7.05099">
        <ele>1033</ele>
        <time>2019-04-13T21:56:54Z</time>
      </trkpt>
      <trkpt lat="47.97977" lon="7.05109">
        <ele>1035</ele>
        <time>2019-04-13T21:57:54Z</time>
      </trkpt>
      <trkpt lat="47.97969" lon="7.05117">
        <ele>1037</ele>
        <time>2019-04-13T21:58:54Z</time>
      </trkpt>
      <trkpt lat="47.97962" lon="7.05127">
        <ele>1038</ele>
        <time>2019-04-13T21:59:54Z</time>
      </trkpt>
      <trkpt lat="47.97956" lon="7.05137">
        <ele>1038</ele>
        <time>2019-04-13T22:00:54Z</time>
      </trkpt>
      <trkpt lat="47.97951" lon="7.05154">
        <ele>1037</ele>
        <time>2019-04-13T22:01:54Z</time>
      </trkpt>
      <trkpt lat="47.97938" lon="7.05186">
        <ele>1037</ele>
        <time>2019-04-13T22:02:54Z</time>
      </trkpt>
      <trkpt lat="47.97922" lon="7.05225">
        <ele>1037</ele>
        <time>2019-04-13T22:03:54Z</time>
      </trkpt>
      <trkpt lat="47.97898" lon="7.05269">
        <ele>1038</ele>
        <time>2019-04-13T22:04:54Z</time>
      </trkpt>
      <trkpt lat="47.97876" lon="7.05301">
        <ele>1039</ele>
        <time>2019-04-13T22:05:54Z</time>
      </trkpt>
      <trkpt lat="47.97863" lon="7.05314">
        <ele>1041</ele>
        <time>2019-04-13T22:06:54Z</time>
      </trkpt>
      <trkpt lat="47.97851" lon="7.05323">
        <ele>1043</ele>
        <time>2019-04-13T22:07:54Z</time>
      </trkpt>
      <trkpt lat="47.97843" lon="7.05326">
        <ele>1045</ele>
        <time>2019-04-13T22:08:54Z</time>
      </trkpt>
      <trkpt lat="47.97836" lon="7.05327">
        <ele>1047</ele>
        <time>2019-04-13T22:09:54Z</time>
      </trkpt>
      <trkpt lat="47.97828" lon="7.05326">
        <ele>1048</ele>
        <time>2019-04-13T22:10:54Z</time>
      </trkpt>
      <trkpt lat="47.97818" lon="7.05325">
        <ele>1049</ele>
        <time>2019-04-13T22:11:54Z</time>
      </trkpt>
      <trkpt lat="47.97806" lon="7.05321">
        <ele>1051</ele>
        <time>2019-04-13T22:12:54Z</time>
      </trkpt>
      <trkpt lat="47.97789" lon="7.05312">
        <ele>1053</ele>
        <time>2019-04-13T22:13:54Z</time>
      </trkpt>
      <trkpt lat="47.97775" lon="7.05299">
        <ele>1056</ele>
        <time>2019-04-13T22:14:54Z</time>
      </trkpt>
      <trkpt lat="47.97727" lon="7.05241">
        <ele>1063</ele>
        <time>2019-04-13T22:15:54Z</time>
      </trkpt>
      <trkpt lat="47.97706" lon="7.05212">
        <ele>1065</ele>
        <time>2019-04-13T22:16:54Z</time>
      </trkpt>
      <trkpt lat="47.97689" lon="7.05187">
        <ele>1068</ele>
        <time>2019-04-13T22:17:54Z</time>
      </trkpt>
      <trkpt lat="47.97678" lon="7.05169">
        <ele>1070</ele>
        <time>2019-04-13T22:18:54Z</time>
      </trkpt>
      <trkpt lat="47.97673" lon="7.05163">
        <ele>1070</ele>
        <time>2019-04-13T22:19:54Z</time>
      </trkpt>
      <trkpt lat="47.97664" lon="7.05146">
        <ele>1071</ele>
        <time>2019-04-13T22:20:54Z</time>
      </trkpt>
      <trkpt lat="47.97653" lon="7.05122">
        <ele>1072</ele>
        <time>2019-04-13T22:21:54Z</time>
      </trkpt>
      <trkpt lat="47.97646" lon="7.05101">
        <ele>1073</ele>
        <time>2019-04-13T22:22:54Z</time>
      </trkpt>
      <trkpt lat="47.97638" lon="7.05061">
        <ele>1077</ele>
        <time>2019-04-13T22:23:54Z</time>
      </trkpt>
      <trkpt lat="47.97631" lon="7.05003">
        <ele>1083</ele>
        <time>2019-04-13T22:24:54Z</time>
      </trkpt>
      <trkpt lat="47.97629" lon="7.04988">
        <ele>1085</ele>
        <time>2019-04-13T22:25:54Z</time>
      </trkpt>
      <trkpt lat="47.97625" lon="7.04955">
        <ele>1089</ele>
        <time>2019-04-13T22:26:54Z</time>
      </trkpt>
      <trkpt lat="47.97622" lon="7.04936">
        <ele>1091</ele>
        <time>2019-04-13T22:27:54Z</time>
      </trkpt>
      <trkpt lat="47.97619" lon="7.04921">
        <ele>1093</ele>
        <time>2019-04-13T22:28:54Z</time>
      </trkpt>
      <trkpt lat="47.97615" lon="7.04906">
        <ele>1095</ele>
        <time>2019-04-13T22:29:54Z</time>
      </trkpt>
      <trkpt lat="47.97612" lon="7.04896">
        <ele>1096</ele>
        <time>2019-04-13T22:30:54Z</time>
      </trkpt>
      <trkpt lat="47.97607" lon="7.04886">
        <ele>1097</ele>
        <time>2019-04-13T22:31:54Z</time>
      </trkpt>
      <trkpt lat="47.97591" lon="7.04845">
        <ele>1101</ele>
        <time>2019-04-13T22:32:54Z</time>
      </trkpt>
      <trkpt lat="47.9758" lon="7.04824">
        <ele>1103</ele>
        <time>2019-04-13T22:33:54Z</time>
      </trkpt>
      <trkpt lat="47.97569" lon="7.04804">
        <ele>1106</ele>
        <time>2019-04-13T22:34:54Z</time>
      </trkpt>
      <trkpt lat="47.97559" lon="7.04787">
        <ele>1107</ele>
        <time>2019-04-13T22:35:54Z</time>
      </trkpt>
      <trkpt lat="47.97551" lon="7.04775">
        <ele>1108</ele>
        <time>2019-04-13T22:36:54Z</time>
      </trkpt>
      <trkpt lat="47.97543" lon="7.04764">
        <ele>1109</ele>
        <time>2019-04-13T22:37:54Z</time>
      </trkpt>
      <trkpt lat="47.97531" lon="7.04748">
        <ele>1110</ele>
        <time>2019-04-13T22:38:54Z</time>
      </trkpt>
      <trkpt lat="47.97519" lon="7.04734">
        <ele>1111</ele>
        <time>2019-04-13T22:39:54Z</time>
      </trkpt>
      <trkpt lat="47.97503" lon="7.04718">
        <ele>1113</ele>
        <time>2019-04-13T22:40:54Z</time>
      </trkpt>
      <trkpt lat="47.97491" lon="7.04706">
        <ele>1115</ele>
        <time>2019-04-13T22:41:54Z</time>
      </trkpt>
      <trkpt lat="47.97477" lon="7.04693">
        <ele>1118</ele>
        <time>2019-04-13T22:42:54Z</time>
      </trkpt>
      <trkpt lat="47.97465" lon="7.04683">
        <ele>1120</ele>
        <time>2019-04-13T22:43:54Z</time>
      </trkpt>
      <trkpt lat="47.97452" lon="7.04673">
        <ele>1121</ele>
        <time>2019-04-13T22:44:54Z</time>
      </trkpt>
      <trkpt lat="47.97438" lon="7.04664">
        <ele>1123</ele>
        <time>2019-04-13T22:45:54Z</time>
      </trkpt>
      <trkpt lat="47.9742" lon="7.04653">
        <ele>1126</ele>
        <time>2019-04-13T22:46:54Z</time>
      </trkpt>
      <trkpt lat="47.97405" lon="7.04645">
        <ele>1129</ele>
        <time>2019-04-13T22:47:54Z</time>
      </trkpt>
      <trkpt lat="47.97391" lon="7.04638">
        <ele>1132</ele>
        <time>2019-04-13T22:48:54Z</time>
      </trkpt>
      <trkpt lat="47.97373" lon="7.04631">
        <ele>1135</ele>
        <time>2019-04-13T22:49:54Z</time>
      </trkpt>
      <trkpt lat="47.97359" lon="7.04626">
        <ele>1137</ele>
        <time>2019-04-13T22:50:54Z</time>
      </trkpt>
      <trkpt lat="47.97338" lon="7.0462">
        <ele>1140</ele>
        <time>2019-04-13T22:51:54Z</time>
      </trkpt>
      <trkpt lat="47.97324" lon="7.04616">
        <ele>1141</ele>
        <time>2019-04-13T22:52:54Z</time>
      </trkpt>
      <trkpt lat="47.97314" lon="7.04613">
        <ele>1141</ele>
        <time>2019-04-13T22:53:54Z</time>
      </trkpt>
      <trkpt lat="47.973" lon="7.04607">
        <ele>1143</ele>
        <time>2019-04-13T22:54:54Z</time>
      </trkpt>
      <trkpt lat="47.9725" lon="7.04578">
        <ele>1148</ele>
        <time>2019-04-13T22:55:54Z</time>
      </trkpt>
      <trkpt lat="47.97206" lon="7.04555">
        <ele>1154</ele>
        <time>2019-04-13T22:56:54Z</time>
      </trkpt>
      <trkpt lat="47.97175" lon="7.04536">
        <ele>1156</ele>
        <time>2019-04-13T22:57:54Z</time>
      </trkpt>
      <trkpt lat="47.97129" lon="7.04506">
        <ele>1161</ele>
        <time>2019-04-13T22:58:54Z</time>
      </trkpt>
      <trkpt lat="47.97082" lon="7.04478">
        <ele>1167</ele>
        <time>2019-04-13T22:59:54Z</time>
      </trkpt>
      <trkpt lat="47.9706" lon="7.04466">
        <ele>1170</ele>
        <time>2019-04-13T23:00:54Z</time>
      </trkpt>
      <trkpt lat="47.9705" lon="7.04462">
        <ele>1171</ele>
        <time>2019-04-13T23:01:54Z</time>
      </trkpt>
      <trkpt lat="47.97038" lon="7.04458">
        <ele>1172</ele>
        <time>2019-04-13T23:02:54Z</time>
      </trkpt>
      <trkpt lat="47.97028" lon="7.04455">
        <ele>1172</ele>
        <time>2019-04-13T23:03:54Z</time>
      </trkpt>
      <trkpt lat="47.97019" lon="7.04453">
        <ele>1173</ele>
        <time>2019-04-13T23:04:54Z</time>
      </trkpt>
      <trkpt lat="47.97007" lon="7.04449">
        <ele>1173</ele>
        <time>2019-04-13T23:05:54Z</time>
      </trkpt>
      <trkpt lat="47.97" lon="7.04444">
        <ele>1174</ele>
        <time>2019-04-13T23:06:54Z</time>
      </trkpt>
      <trkpt lat="47.96988" lon="7.04436">
        <ele>1175</ele>
        <time>2019-04-13T23:07:54Z</time>
      </trkpt>
      <trkpt lat="47.96974" lon="7.04423">
        <ele>1178</ele>
        <time>2019-04-13T23:08:54Z</time>
      </trkpt>
      <trkpt lat="47.96959" lon="7.04407">
        <ele>1180</ele>
        <time>2019-04-13T23:09:54Z</time>
      </trkpt>
      <trkpt lat="47.96958" lon="7.04405">
        <ele>1180</ele>
        <time>2019-04-13T23:10:54Z</time>
      </trkpt>
      <trkpt lat="47.96948" lon="7.04391">
        <ele>1182</ele>
        <time>2019-04-13T23:11:54Z</time>
      </trkpt>
      <trkpt lat="47.96942" lon="7.04382">
        <ele>1183</ele>
        <time>2019-04-13T23:12:54Z</time>
      </trkpt>
      <trkpt lat="47.96939" lon="7.04376">
        <ele>1184</ele>
        <time>2019-04-13T23:13:54Z</time>
      </trkpt>
      <trkpt lat="47.96937" lon="7.04368">
        <ele>1185</ele>
        <time>2019-04-13T23:14:54Z</time>
      </trkpt>
      <trkpt lat="47.96936" lon="7.04361">
        <ele>1186</ele>
        <time>2019-04-13T23:15:54Z</time>
      </trkpt>
      <trkpt lat="47.96935" lon="7.04346">
        <ele>1188</ele>
        <time>2019-04-13T23:16:54Z</time>
      </trkpt>
      <trkpt lat="47.96938" lon="7.04328">
        <ele>1191</ele>
        <time>2019-04-13T23:17:54Z</time>
      </trkpt>
      <trkpt lat="47.96944" lon="7.04304">
        <ele>1192</ele>
        <time>2019-04-13T23:18:54Z</time>
      </trkpt>
      <trkpt lat="47.96951" lon="7.04282">
        <ele>1193</ele>
        <time>2019-04-13T23:19:54Z</time>
      </trkpt>
      <trkpt lat="47.96956" lon="7.04259">
        <ele>1194</ele>
        <time>2019-04-13T23:20:54Z</time>
      </trkpt>
      <trkpt lat="47.96959" lon="7.04247">
        <ele>1194</ele>
        <time>2019-04-13T23:21:54Z</time>
      </trkpt>
      <trkpt lat="47.96959" lon="7.04246">
        <ele>1194</ele>
        <time>2019-04-13T23:22:54Z</time>
      </trkpt>
      <trkpt lat="47.9696" lon="7.04236">
        <ele>1193</ele>
        <time>2019-04-13T23:23:54Z</time>
      </trkpt>
      <trkpt lat="47.96961" lon="7.04225">
        <ele>1192</ele>
        <time>2019-04-13T23:24:54Z</time>
      </trkpt>
      <trkpt lat="47.96961" lon="7.04214">
        <ele>1191</ele>
        <time>2019-04-13T23:25:54Z</time>
      </trkpt>
      <trkpt lat="47.9696" lon="7.04204">
        <ele>1190</ele>
        <time>2019-04-13T23:26:54Z</time>
      </trkpt>
      <trkpt lat="47.96957" lon="7.04194">
        <ele>1189</ele>
        <time>2019-04-13T23:27:54Z</time>
      </trkpt>
      <trkpt lat="47.96952" lon="7.04183">
        <ele>1188</ele>
        <time>2019-04-13T23:28:54Z</time>
      </trkpt>
      <trkpt lat="47.96945" lon="7.04167">
        <ele>1186</ele>
        <time>2019-04-13T23:29:54Z</time>
      </trkpt>
      <trkpt lat="47.96933" lon="7.04147">
        <ele>1185</ele>
        <time>2019-04-13T23:30:54Z</time>
      </trkpt>
      <trkpt lat="47.96904" lon="7.04104">
        <ele>1183</ele>
        <time>2019-04-13T23:31:54Z</time>
      </trkpt>
      <trkpt lat="47.96869" lon="7.04051">
        <ele>1179</ele>
        <time>2019-04-13T23:32:54Z</time>
      </trkpt>
      <trkpt lat="47.96848" lon="7.04021">
        <ele>1177</ele>
        <time>2019-04-13T23:33:54Z</time>
      </trkpt>
      <trkpt lat="47.96843" lon="7.04012">
        <ele>1176</ele>
        <time>2019-04-13T23:34:54Z</time>
      </trkpt>
      <trkpt lat="47.9684" lon="7.04007">
        <ele>1176</ele>
        <time>2019-04-13T23:35:54Z</time>
      </trkpt>
      <trkpt lat="47.96831" lon="7.03984">
        <ele>1176</ele>
        <time>2019-04-13T23:36:54Z</time>
      </trkpt>
      <trkpt lat="47.96823" lon="7.03958">
        <ele>1177</ele>
        <time>2019-04-13T23:37:54Z</time>
      </trkpt>
      <trkpt lat="47.96816" lon="7.03926">
        <ele>1177</ele>
        <time>2019-04-13T23:38:54Z</time>
      </trkpt>
      <trkpt lat="47.96813" lon="7.03914">
        <ele>1178</ele>
        <time>2019-04-13T23:39:54Z</time>
      </trkpt>
      <trkpt lat="47.96812" lon="7.03911">
        <ele>1178</ele>
        <time>2019-04-13T23:40:54Z</time>
      </trkpt>
      <trkpt lat="47.96806" lon="7.03889">
        <ele>1179</ele>
        <time>2019-04-13T23:41:54Z</time>
      </trkpt>
      <trkpt lat="47.96806" lon="7.03883">
        <ele>1179</ele>
        <time>2019-04-13T23:42:54Z</time>
      </trkpt>
      <trkpt lat="47.96804" lon="7.03862">
        <ele>1179</ele>
        <time>2019-04-13T23:43:54Z</time>
      </trkpt>
      <trkpt lat="47.96804" lon="7.03858">
        <ele>1179</ele>
        <time>2019-04-13T23:44:54Z</time>
      </trkpt>
      <trkpt lat="47.96802" lon="7.03844">
        <ele>1179</ele>
        <time>2019-04-13T23:45:54Z</time>
      </trkpt>
      <trkpt lat="47.96804" lon="7.03832">
        <ele>1178</ele>
        <time>2019-04-13T23:46:54Z</time>
      </trkpt>
      <trkpt lat="47.96806" lon="7.03817">
        <ele>1177</ele>
        <time>2019-04-13T23:47:54Z</time>
      </trkpt>
      <trkpt lat="47.96808" lon="7.03787">
        <ele>1175</ele>
        <time>2019-04-13T23:48:54Z</time>
      </trkpt>
      <trkpt lat="47.96811" lon="7.03752">
        <ele>1173</ele>
        <time>2019-04-13T23:49:54Z</time>
      </trkpt>
      <trkpt lat="47.96813" lon="7.03709">
        <ele>1171</ele>
        <time>2019-04-13T23:50:54Z</time>
      </trkpt>
      <trkpt lat="47.96815" lon="7.03669">
        <ele>1168</ele>
        <time>2019-04-13T23:51:54Z</time>
      </trkpt>
      <trkpt lat="47.96813" lon="7.0365">
        <ele>1169</ele>
        <time>2019-04-13T23:52:54Z</time>
      </trkpt>
      <trkpt lat="47.96811" lon="7.0363">
        <ele>1169</ele>
        <time>2019-04-13T23:53:54Z</time>
      </trkpt>
      <trkpt lat="47.96808" lon="7.03611">
        <ele>1170</ele>
        <time>2019-04-13T23:54:54Z</time>
      </trkpt>
      <trkpt lat="47.968" lon="7.03578">
        <ele>1172</ele>
        <time>2019-04-13T23:55:54Z</time>
      </trkpt>
      <trkpt lat="47.96788" lon="7.0353">
        <ele>1174</ele>
        <time>2019-04-13T23:56:54Z</time>
      </trkpt>
      <trkpt lat="47.96779" lon="7.03493">
        <ele>1176</ele>
        <time>2019-04-13T23:57:54Z</time>
      </trkpt>
      <trkpt lat="47.96771" lon="7.03468">
        <ele>1178</ele>
        <time>2019-04-13T23:58:54Z</time>
      </trkpt>
      <trkpt lat="47.96765" lon="7.03453">
        <ele>1179</ele>
        <time>2019-04-13T23:59:54Z</time>
      </trkpt>
      <trkpt lat="47.96761" lon="7.03442">
        <ele>1180</ele>
        <time>2019-04-14T00:00:54Z</time>
      </trkpt>
      <trkpt lat="47.96754" lon="7.0343">
        <ele>1181</ele>
        <time>2019-04-14T00:01:54Z</time>
      </trkpt>
      <trkpt lat="47.96746" lon="7.03417">
        <ele>1182</ele>
        <time>2019-04-14T00:02:54Z</time>
      </trkpt>
      <trkpt lat="47.9674" lon="7.03409">
        <ele>1182</ele>
        <time>2019-04-14T00:03:54Z</time>
      </trkpt>
      <trkpt lat="47.96732" lon="7.03402">
        <ele>1183</ele>
        <time>2019-04-14T00:04:54Z</time>
      </trkpt>
      <trkpt lat="47.96724" lon="7.03395">
        <ele>1184</ele>
        <time>2019-04-14T00:05:54Z</time>
      </trkpt>
      <trkpt lat="47.96714" lon="7.03388">
        <ele>1185</ele>
        <time>2019-04-14T00:06:54Z</time>
      </trkpt>
      <trkpt lat="47.96702" lon="7.03383">
        <ele>1186</ele>
        <time>2019-04-14T00:07:54Z</time>
      </trkpt>
      <trkpt lat="47.96691" lon="7.0338">
        <ele>1188</ele>
        <time>2019-04-14T00:08:54Z</time>
      </trkpt>
      <trkpt lat="47.96675" lon="7.03377">
        <ele>1189</ele>
        <time>2019-04-14T00:09:54Z</time>
      </trkpt>
      <trkpt lat="47.96664" lon="7.03376">
        <ele>1190</ele>
        <time>2019-04-14T00:10:54Z</time>
      </trkpt>
      <trkpt lat="47.96653" lon="7.03376">
        <ele>1191</ele>
        <time>2019-04-14T00:11:54Z</time>
      </trkpt>
      <trkpt lat="47.9664" lon="7.03378">
        <ele>1193</ele>
        <time>2019-04-14T00:12:54Z</time>
      </trkpt>
      <trkpt lat="47.96612" lon="7.03387">
        <ele>1196</ele>
        <time>2019-04-14T00:13:54Z</time>
      </trkpt>
      <trkpt lat="47.96576" lon="7.03401">
        <ele>1201</ele>
        <time>2019-04-14T00:14:54Z</time>
      </trkpt>
      <trkpt lat="47.96541" lon="7.03417">
        <ele>1204</ele>
        <time>2019-04-14T00:15:54Z</time>
      </trkpt>
      <trkpt lat="47.96521" lon="7.03427">
        <ele>1206</ele>
        <time>2019-04-14T00:16:54Z</time>
      </trkpt>
      <trkpt lat="47.96497" lon="7.0344">
        <ele>1209</ele>
        <time>2019-04-14T00:17:54Z</time>
      </trkpt>
      <trkpt lat="47.9648" lon="7.03452">
        <ele>1212</ele>
        <time>2019-04-14T00:18:54Z</time>
      </trkpt>
      <trkpt lat="47.96462" lon="7.03467">
        <ele>1215</ele>
        <time>2019-04-14T00:19:54Z</time>
      </trkpt>
      <trkpt lat="47.96446" lon="7.03483">
        <ele>1218</ele>
        <time>2019-04-14T00:20:54Z</time>
      </trkpt>
      <trkpt lat="47.9643" lon="7.03502">
        <ele>1221</ele>
        <time>2019-04-14T00:21:54Z</time>
      </trkpt>
      <trkpt lat="47.96416" lon="7.03522">
        <ele>1224</ele>
        <time>2019-04-14T00:22:54Z</time>
      </trkpt>
      <trkpt lat="47.96394" lon="7.03552">
        <ele>1226</ele>
        <time>2019-04-14T00:23:54Z</time>
      </trkpt>
      <trkpt lat="47.96381" lon="7.03569">
        <ele>1226</ele>
        <time>2019-04-14T00:24:54Z</time>
      </trkpt>
      <trkpt lat="47.96366" lon="7.03588">
        <ele>1227</ele>
        <time>2019-04-14T00:25:54Z</time>
      </trkpt>
      <trkpt lat="47.96357" lon="7.03602">
        <ele>1227</ele>
        <time>2019-04-14T00:26:54Z</time>
      </trkpt>
      <trkpt lat="47.9635" lon="7.03615">
        <ele>1228</ele>
        <time>2019-04-14T00:27:54Z</time>
      </trkpt>
      <trkpt lat="47.96345" lon="7.03626">
        <ele>1228</ele>
        <time>2019-04-14T00:28:54Z</time>
      </trkpt>
      <trkpt lat="47.96339" lon="7.03645">
        <ele>1229</ele>
        <time>2019-04-14T00:29:54Z</time>
      </trkpt>
      <trkpt lat="47.96333" lon="7.03662">
        <ele>1231</ele>
        <time>2019-04-14T00:30:54Z</time>
      </trkpt>
      <trkpt lat="47.96328" lon="7.03685">
        <ele>1233</ele>
        <time>2019-04-14T00:31:54Z</time>
      </trkpt>
      <trkpt lat="47.96324" lon="7.03697">
        <ele>1235</ele>
        <time>2019-04-14T00:32:54Z</time>
      </trkpt>
      <trkpt lat="47.9632" lon="7.03705">
        <ele>1236</ele>
        <time>2019-04-14T00:33:54Z</time>
      </trkpt>
      <trkpt lat="47.96314" lon="7.03713">
        <ele>1237</ele>
        <time>2019-04-14T00:34:54Z</time>
      </trkpt>
      <trkpt lat="47.96305" lon="7.03719">
        <ele>1237</ele>
        <time>2019-04-14T00:35:54Z</time>
      </trkpt>
      <trkpt lat="47.96299" lon="7.03722">
        <ele>1238</ele>
        <time>2019-04-14T00:36:54Z</time>
      </trkpt>
      <trkpt lat="47.96292" lon="7.03723">
        <ele>1238</ele>
        <time>2019-04-14T00:37:54Z</time>
      </trkpt>
      <trkpt lat="47.96283" lon="7.03722">
        <ele>1238</ele>
        <time>2019-04-14T00:38:54Z</time>
      </trkpt>
      <trkpt lat="47.9627" lon="7.03721">
        <ele>1238</ele>
        <time>2019-04-14T00:39:54Z</time>
      </trkpt>
      <trkpt lat="47.96251" lon="7.0372">
        <ele>1238</ele>
        <time>2019-04-14T00:40:54Z</time>
      </trkpt>
      <trkpt lat="47.96237" lon="7.03719">
        <ele>1238</ele>
        <time>2019-04-14T00:41:54Z</time>
      </trkpt>
      <trkpt lat="47.96222" lon="7.0372">
        <ele>1239</ele>
        <time>2019-04-14T00:42:54Z</time>
      </trkpt>
      <trkpt lat="47.96208" lon="7.0372">
        <ele>1240</ele>
        <time>2019-04-14T00:43:54Z</time>
      </trkpt>
      <trkpt lat="47.96194" lon="7.03723">
        <ele>1241</ele>
        <time>2019-04-14T00:44:54Z</time>
      </trkpt>
      <trkpt lat="47.96173" lon="7.03728">
        <ele>1242</ele>
        <time>2019-04-14T00:45:54Z</time>
      </trkpt>
      <trkpt lat="47.96156" lon="7.03731">
        <ele>1243</ele>
        <time>2019-04-14T00:46:54Z</time>
      </trkpt>
      <trkpt lat="47.96135" lon="7.03737">
        <ele>1244</ele>
        <time>2019-04-14T00:47:54Z</time>
      </trkpt>
      <trkpt lat="47.96112" lon="7.03742">
        <ele>1244</ele>
        <time>2019-04-14T00:48:54Z</time>
      </trkpt>
      <trkpt lat="47.96093" lon="7.03744">
        <ele>1244</ele>
        <time>2019-04-14T00:49:54Z</time>
      </trkpt>
      <trkpt lat="47.96079" lon="7.03744">
        <ele>1245</ele>
        <time>2019-04-14T00:50:54Z</time>
      </trkpt>
      <trkpt lat="47.96067" lon="7.03744">
        <ele>1245</ele>
        <time>2019-04-14T00:51:54Z</time>
      </trkpt>
      <trkpt lat="47.96055" lon="7.03742">
        <ele>1245</ele>
        <time>2019-04-14T00:52:54Z</time>
      </trkpt>
      <trkpt lat="47.96039" lon="7.03739">
        <ele>1246</ele>
        <time>2019-04-14T00:53:54Z</time>
      </trkpt>
      <trkpt lat="47.96018" lon="7.03734">
        <ele>1246</ele>
        <time>2019-04-14T00:54:54Z</time>
      </trkpt>
      <trkpt lat="47.95996" lon="7.03729">
        <ele>1246</ele>
        <time>2019-04-14T00:55:54Z</time>
      </trkpt>
      <trkpt lat="47.95987" lon="7.03727">
        <ele>1245</ele>
        <time>2019-04-14T00:56:54Z</time>
      </trkpt>
      <trkpt lat="47.9597" lon="7.03724">
        <ele>1245</ele>
        <time>2019-04-14T00:57:54Z</time>
      </trkpt>
      <trkpt lat="47.95946" lon="7.03718">
        <ele>1244</ele>
        <time>2019-04-14T00:58:54Z</time>
      </trkpt>
      <trkpt lat="47.95909" lon="7.03709">
        <ele>1244</ele>
        <time>2019-04-14T00:59:54Z</time>
      </trkpt>
      <trkpt lat="47.95891" lon="7.03703">
        <ele>1245</ele>
        <time>2019-04-14T01:00:54Z</time>
      </trkpt>
      <trkpt lat="47.95878" lon="7.03698">
        <ele>1246</ele>
        <time>2019-04-14T01:01:54Z</time>
      </trkpt>
      <trkpt lat="47.95839" lon="7.03675">
        <ele>1246</ele>
        <time>2019-04-14T01:02:54Z</time>
      </trkpt>
      <trkpt lat="47.95791" lon="7.03642">
        <ele>1246</ele>
        <time>2019-04-14T01:03:54Z</time>
      </trkpt>
      <trkpt lat="47.9572" lon="7.03587">
        <ele>1245</ele>
        <time>2019-04-14T01:04:54Z</time>
      </trkpt>
      <trkpt lat="47.95675" lon="7.03547">
        <ele>1247</ele>
        <time>2019-04-14T01:05:54Z</time>
      </trkpt>
      <trkpt lat="47.95646" lon="7.03515">
        <ele>1247</ele>
        <time>2019-04-14T01:06:54Z</time>
      </trkpt>
      <trkpt lat="47.95629" lon="7.03488">
        <ele>1246</ele>
        <time>2019-04-14T01:07:54Z</time>
      </trkpt>
      <trkpt lat="47.9561" lon="7.03451">
        <ele>1245</ele>
        <time>2019-04-14T01:08:54Z</time>
      </trkpt>
      <trkpt lat="47.95602" lon="7.03432">
        <ele>1244</ele>
        <time>2019-04-14T01:09:54Z</time>
      </trkpt>
      <trkpt lat="47.95592" lon="7.03408">
        <ele>1244</ele>
        <time>2019-04-14T01:10:54Z</time>
      </trkpt>
      <trkpt lat="47.95585" lon="7.03393">
        <ele>1243</ele>
        <time>2019-04-14T01:11:54Z</time>
      </trkpt>
      <trkpt lat="47.95579" lon="7.03381">
        <ele>1243</ele>
        <time>2019-04-14T01:12:54Z</time>
      </trkpt>
      <trkpt lat="47.95573" lon="7.0337">
        <ele>1242</ele>
        <time>2019-04-14T01:13:54Z</time>
      </trkpt>
      <trkpt lat="47.95564" lon="7.03358">
        <ele>1242</ele>
        <time>2019-04-14T01:14:54Z</time>
      </trkpt>
      <trkpt lat="47.95555" lon="7.03348">
        <ele>1241</ele>
        <time>2019-04-14T01:15:54Z</time>
      </trkpt>
      <trkpt lat="47.95546" lon="7.03337">
        <ele>1241</ele>
        <time>2019-04-14T01:16:54Z</time>
      </trkpt>
      <trkpt lat="47.95538" lon="7.0333">
        <ele>1241</ele>
        <time>2019-04-14T01:17:54Z</time>
      </trkpt>
      <trkpt lat="47.95528" lon="7.03324">
        <ele>1241</ele>
        <time>2019-04-14T01:18:54Z</time>
      </trkpt>
      <trkpt lat="47.95518" lon="7.03319">
        <ele>1241</ele>
        <time>2019-04-14T01:19:54Z</time>
      </trkpt>
      <trkpt lat="47.95509" lon="7.03315">
        <ele>1241</ele>
        <time>2019-04-14T01:20:54Z</time>
      </trkpt>
      <trkpt lat="47.95501" lon="7.03314">
        <ele>1241</ele>
        <time>2019-04-14T01:21:54Z</time>
      </trkpt>
      <trkpt lat="47.95493" lon="7.03313">
        <ele>1241</ele>
        <time>2019-04-14T01:22:54Z</time>
      </trkpt>
      <trkpt lat="47.95484" lon="7.03313">
        <ele>1241</ele>
        <time>2019-04-14T01:23:54Z</time>
      </trkpt>
      <trkpt lat="47.9547" lon="7.03315">
        <ele>1241</ele>
        <time>2019-04-14T01:24:54Z</time>
      </trkpt>
      <trkpt lat="47.95448" lon="7.0332">
        <ele>1242</ele>
        <time>2019-04-14T01:25:54Z</time>
      </trkpt>
      <trkpt lat="47.95422" lon="7.03328">
        <ele>1243</ele>
        <time>2019-04-14T01:26:54Z</time>
      </trkpt>
      <trkpt lat="47.95352" lon="7.03348">
        <ele>1243</ele>
        <time>2019-04-14T01:27:54Z</time>
      </trkpt>
      <trkpt lat="47.95323" lon="7.03358">
        <ele>1243</ele>
        <time>2019-04-14T01:28:54Z</time>
      </trkpt>
      <trkpt lat="47.95271" lon="7.03371">
        <ele>1244</ele>
        <time>2019-04-14T01:29:54Z</time>
      </trkpt>
      <trkpt lat="47.9526" lon="7.03374">
        <ele>1245</ele>
        <time>2019-04-14T01:30:54Z</time>
      </trkpt>
      <trkpt lat="47.95251" lon="7.03373">
        <ele>1244</ele>
        <time>2019-04-14T01:31:54Z</time>
      </trkpt>
      <trkpt lat="47.95248" lon="7.03373">
        <ele>1245</ele>
        <time>2019-04-14T01:32:54Z</time>
      </trkpt>
      <trkpt lat="47.95239" lon="7.03371">
        <ele>1245</ele>
        <time>2019-04-14T01:33:54Z</time>
      </trkpt>
      <trkpt lat="47.9523" lon="7.03369">
        <ele>1245</ele>
        <time>2019-04-14T01:34:54Z</time>
      </trkpt>
      <trkpt lat="47.95221" lon="7.03364">
        <ele>1246</ele>
        <time>2019-04-14T01:35:54Z</time>
      </trkpt>
      <trkpt lat="47.95197" lon="7.03345">
        <ele>1248</ele>
        <time>2019-04-14T01:36:54Z</time>
      </trkpt>
      <trkpt lat="47.95176" lon="7.03325">
        <ele>1250</ele>
        <time>2019-04-14T01:37:54Z</time>
      </trkpt>
      <trkpt lat="47.95171" lon="7.03321">
        <ele>1251</ele>
        <time>2019-04-14T01:38:54Z</time>
      </trkpt>
      <trkpt lat="47.95076" lon="7.03236">
        <ele>1260</ele>
        <time>2019-04-14T01:39:54Z</time>
      </trkpt>
      <trkpt lat="47.95061" lon="7.03221">
        <ele>1261</ele>
        <time>2019-04-14T01:40:54Z</time>
      </trkpt>
      <trkpt lat="47.95046" lon="7.03202">
        <ele>1263</ele>
        <time>2019-04-14T01:41:54Z</time>
      </trkpt>
      <trkpt lat="47.95017" lon="7.03163">
        <ele>1266</ele>
        <time>2019-04-14T01:42:54Z</time>
      </trkpt>
      <trkpt lat="47.94993" lon="7.0313">
        <ele>1268</ele>
        <time>2019-04-14T01:43:54Z</time>
      </trkpt>
      <trkpt lat="47.94971" lon="7.03101">
        <ele>1270</ele>
        <time>2019-04-14T01:44:54Z</time>
      </trkpt>
      <trkpt lat="47.94958" lon="7.0308">
        <ele>1272</ele>
        <time>2019-04-14T01:45:54Z</time>
      </trkpt>
      <trkpt lat="47.94937" lon="7.03046">
        <ele>1273</ele>
        <time>2019-04-14T01:46:54Z</time>
      </trkpt>
      <trkpt lat="47.94919" lon="7.03014">
        <ele>1275</ele>
        <time>2019-04-14T01:47:54Z</time>
      </trkpt>
      <trkpt lat="47.94918" lon="7.03012">
        <ele>1275</ele>
        <time>2019-04-14T01:48:54Z</time>
      </trkpt>
      <trkpt lat="47.94894" lon="7.02969">
        <ele>1275</ele>
        <time>2019-04-14T01:49:54Z</time>
      </trkpt>
      <trkpt lat="47.94878" lon="7.02941">
        <ele>1276</ele>
        <time>2019-04-14T01:50:54Z</time>
      </trkpt>
      <trkpt lat="47.94864" lon="7.02919">
        <ele>1277</ele>
        <time>2019-04-14T01:51:54Z</time>
      </trkpt>
      <trkpt lat="47.94851" lon="7.02901">
        <ele>1277</ele>
        <time>2019-04-14T01:52:54Z</time>
      </trkpt>
      <trkpt lat="47.94837" lon="7.02884">
        <ele>1277</ele>
        <time>2019-04-14T01:53:54Z</time>
      </trkpt>
      <trkpt lat="47.9483" lon="7.02875">
        <ele>1277</ele>
        <time>2019-04-14T01:54:54Z</time>
      </trkpt>
      <trkpt lat="47.9482" lon="7.02862">
        <ele>1277</ele>
        <time>2019-04-14T01:55:54Z</time>
      </trkpt>
      <trkpt lat="47.94804" lon="7.02845">
        <ele>1276</ele>
        <time>2019-04-14T01:56:54Z</time>
      </trkpt>
      <trkpt lat="47.94802" lon="7.02843">
        <ele>1276</ele>
        <time>2019-04-14T01:57:54Z</time>
      </trkpt>
      <trkpt lat="47.94789" lon="7.0283">
        <ele>1276</ele>
        <time>2019-04-14T01:58:54Z</time>
      </trkpt>
      <trkpt lat="47.94785" lon="7.02825">
        <ele>1276</ele>
        <time>2019-04-14T01:59:54Z</time>
      </trkpt>
      <trkpt lat="47.94755" lon="7.02795">
        <ele>1276</ele>
        <time>2019-04-14T02:00:54Z</time>
      </trkpt>
      <trkpt lat="47.94725" lon="7.02763">
        <ele>1276</ele>
        <time>2019-04-14T02:01:54Z</time>
      </trkpt>
      <trkpt lat="47.94709" lon="7.02741">
        <ele>1276</ele>
        <time>2019-04-14T02:02:54Z</time>
      </trkpt>
      <trkpt lat="47.94667" lon="7.02678">
        <ele>1276</ele>
        <time>2019-04-14T02:03:54Z</time>
      </trkpt>
      <trkpt lat="47.94644" lon="7.02642">
        <ele>1273</ele>
        <time>2019-04-14T02:04:54Z</time>
      </trkpt>
      <trkpt lat="47.94638" lon="7.02633">
        <ele>1272</ele>
        <time>2019-04-14T02:05:54Z</time>
      </trkpt>
      <trkpt lat="47.94632" lon="7.02621">
        <ele>1271</ele>
        <time>2019-04-14T02:06:54Z</time>
      </trkpt>
      <trkpt lat="47.94627" lon="7.0261">
        <ele>1271</ele>
        <time>2019-04-14T02:07:54Z</time>
      </trkpt>
      <trkpt lat="47.94622" lon="7.02599">
        <ele>1270</ele>
        <time>2019-04-14T02:08:54Z</time>
      </trkpt>
      <trkpt lat="47.94619" lon="7.02588">
        <ele>1270</ele>
        <time>2019-04-14T02:09:54Z</time>
      </trkpt>
      <trkpt lat="47.94615" lon="7.02571">
        <ele>1270</ele>
        <time>2019-04-14T02:10:54Z</time>
      </trkpt>
      <trkpt lat="47.94605" lon="7.02519">
        <ele>1269</ele>
        <time>2019-04-14T02:11:54Z</time>
      </trkpt>
      <trkpt lat="47.94588" lon="7.02431">
        <ele>1265</ele>
        <time>2019-04-14T02:12:54Z</time>
      </trkpt>
      <trkpt lat="47.94577" lon="7.02377">
        <ele>1263</ele>
        <time>2019-04-14T02:13:54Z</time>
      </trkpt>
      <trkpt lat="47.94577" lon="7.02374">
        <ele>1263</ele>
        <time>2019-04-14T02:14:54Z</time>
      </trkpt>
      <trkpt lat="47.94569" lon="7.02332">
        <ele>1261</ele>
        <time>2019-04-14T02:15:54Z</time>
      </trkpt>
      <trkpt lat="47.94568" lon="7.02327">
        <ele>1261</ele>
        <time>2019-04-14T02:16:54Z</time>
      </trkpt>
      <trkpt lat="47.94567" lon="7.02319">
        <ele>1261</ele>
        <time>2019-04-14T02:17:54Z</time>
      </trkpt>
      <trkpt lat="47.94565" lon="7.02312">
        <ele>1260</ele>
        <time>2019-04-14T02:18:54Z</time>
      </trkpt>
      <trkpt lat="47.94557" lon="7.02274">
        <ele>1258</ele>
        <time>2019-04-14T02:19:54Z</time>
      </trkpt>
      <trkpt lat="47.94552" lon="7.02251">
        <ele>1257</ele>
        <time>2019-04-14T02:20:54Z</time>
      </trkpt>
      <trkpt lat="47.94548" lon="7.02239">
        <ele>1256</ele>
        <time>2019-04-14T02:21:54Z</time>
      </trkpt>
      <trkpt lat="47.94543" lon="7.02225">
        <ele>1255</ele>
        <time>2019-04-14T02:22:54Z</time>
      </trkpt>
      <trkpt lat="47.94537" lon="7.02209">
        <ele>1253</ele>
        <time>2019-04-14T02:23:54Z</time>
      </trkpt>
      <trkpt lat="47.94529" lon="7.02195">
        <ele>1252</ele>
        <time>2019-04-14T02:24:54Z</time>
      </trkpt>
      <trkpt lat="47.9452" lon="7.02177">
        <ele>1251</ele>
        <time>2019-04-14T02:25:54Z</time>
      </trkpt>
      <trkpt lat="47.9451" lon="7.02162">
        <ele>1250</ele>
        <time>2019-04-14T02:26:54Z</time>
      </trkpt>
      <trkpt lat="47.94496" lon="7.02138">
        <ele>1248</ele>
        <time>2019-04-14T02:27:54Z</time>
      </trkpt>
      <trkpt lat="47.94484" lon="7.02116">
        <ele>1245</ele>
        <time>2019-04-14T02:28:54Z</time>
      </trkpt>
      <trkpt lat="47.94475" lon="7.021">
        <ele>1244</ele>
        <time>2019-04-14T02:29:54Z</time>
      </trkpt>
      <trkpt lat="47.94466" lon="7.02079">
        <ele>1242</ele>
        <time>2019-04-14T02:30:54Z</time>
      </trkpt>
      <trkpt lat="47.94458" lon="7.0206">
        <ele>1241</ele>
        <time>2019-04-14T02:31:54Z</time>
      </trkpt>
      <trkpt lat="47.94451" lon="7.02044">
        <ele>1239</ele>
        <time>2019-04-14T02:32:54Z</time>
      </trkpt>
      <trkpt lat="47.94445" lon="7.02031">
        <ele>1238</ele>
        <time>2019-04-14T02:33:54Z</time>
      </trkpt>
      <trkpt lat="47.94439" lon="7.02022">
        <ele>1238</ele>
        <time>2019-04-14T02:34:54Z</time>
      </trkpt>
      <trkpt lat="47.94432" lon="7.02013">
        <ele>1237</ele>
        <time>2019-04-14T02:35:54Z</time>
      </trkpt>
      <trkpt lat="47.94424" lon="7.02006">
        <ele>1237</ele>
        <time>2019-04-14T02:36:54Z</time>
      </trkpt>
      <trkpt lat="47.94417" lon="7.02001">
        <ele>1237</ele>
        <time>2019-04-14T02:37:54Z</time>
      </trkpt>
      <trkpt lat="47.9441" lon="7.01998">
        <ele>1236</ele>
        <time>2019-04-14T02:38:54Z</time>
      </trkpt>
      <trkpt lat="47.94402" lon="7.01996">
        <ele>1235</ele>
        <time>2019-04-14T02:39:54Z</time>
      </trkpt>
      <trkpt lat="47.94395" lon="7.01996">
        <ele>1235</ele>
        <time>2019-04-14T02:40:54Z</time>
      </trkpt>
      <trkpt lat="47.94385" lon="7.01997">
        <ele>1234</ele>
        <time>2019-04-14T02:41:54Z</time>
      </trkpt>
      <trkpt lat="47.94365" lon="7.02001">
        <ele>1233</ele>
        <time>2019-04-14T02:42:54Z</time>
      </trkpt>
      <trkpt lat="47.94343" lon="7.02009">
        <ele>1232</ele>
        <time>2019-04-14T02:43:54Z</time>
      </trkpt>
      <trkpt lat="47.94333" lon="7.02013">
        <ele>1231</ele>
        <time>2019-04-14T02:44:54Z</time>
      </trkpt>
      <trkpt lat="47.94328" lon="7.02016">
        <ele>1230</ele>
        <time>2019-04-14T02:45:54Z</time>
      </trkpt>
      <trkpt lat="47.94325" lon="7.02019">
        <ele>1230</ele>
        <time>2019-04-14T02:46:54Z</time>
      </trkpt>
      <trkpt lat="47.94316" lon="7.02028">
        <ele>1228</ele>
        <time>2019-04-14T02:47:54Z</time>
      </trkpt>
      <trkpt lat="47.94309" lon="7.02039">
        <ele>1228</ele>
        <time>2019-04-14T02:48:54Z</time>
      </trkpt>
      <trkpt lat="47.94301" lon="7.02051">
        <ele>1227</ele>
        <time>2019-04-14T02:49:54Z</time>
      </trkpt>
      <trkpt lat="47.94293" lon="7.0207">
        <ele>1227</ele>
        <time>2019-04-14T02:50:54Z</time>
      </trkpt>
      <trkpt lat="47.94288" lon="7.02083">
        <ele>1227</ele>
        <time>2019-04-14T02:51:54Z</time>
      </trkpt>
      <trkpt lat="47.94283" lon="7.02091">
        <ele>1227</ele>
        <time>2019-04-14T02:52:54Z</time>
      </trkpt>
      <trkpt lat="47.9428" lon="7.02094">
        <ele>1226</ele>
        <time>2019-04-14T02:53:54Z</time>
      </trkpt>
      <trkpt lat="47.94276" lon="7.02096">
        <ele>1226</ele>
        <time>2019-04-14T02:54:54Z</time>
      </trkpt>
      <trkpt lat="47.94271" lon="7.02096">
        <ele>1225</ele>
        <time>2019-04-14T02:55:54Z</time>
      </trkpt>
      <trkpt lat="47.94257" lon="7.02094">
        <ele>1221</ele>
        <time>2019-04-14T02:56:54Z</time>
      </trkpt>
      <trkpt lat="47.94257" lon="7.02094">
        <ele>1221</ele>
        <time>2019-04-14T02:57:54Z</time>
      </trkpt>
      <trkpt lat="47.9426" lon="7.02085">
        <ele>1221</ele>
        <time>2019-04-14T02:58:54Z</time>
      </trkpt>
      <trkpt lat="47.94266" lon="7.02073">
        <ele>1221</ele>
        <time>2019-04-14T02:59:54Z</time>
      </trkpt>
      <trkpt lat="47.94271" lon="7.02064">
        <ele>1222</ele>
        <time>2019-04-14T03:00:54Z</time>
      </trkpt>
      <trkpt lat="47.94281" lon="7.0205">
        <ele>1222</ele>
        <time>2019-04-14T03:01:54Z</time>
      </trkpt>
      <trkpt lat="47.94299" lon="7.02025">
        <ele>1224</ele>
        <time>2019-04-14T03:02:54Z</time>
      </trkpt>
      <trkpt lat="47.94317" lon="7.02002">
        <ele>1226</ele>
        <time>2019-04-14T03:03:54Z</time>
      </trkpt>
      <trkpt lat="47.94331" lon="7.01987">
        <ele>1228</ele>
        <time>2019-04-14T03:04:54Z</time>
      </trkpt>
      <trkpt lat="47.94344" lon="7.01975">
        <ele>1228</ele>
        <time>2019-04-14T03:05:54Z</time>
      </trkpt>
      <trkpt lat="47.94363" lon="7.01961">
        <ele>1228</ele>
        <time>2019-04-14T03:06:54Z</time>
      </trkpt>
      <trkpt lat="47.94385" lon="7.01946">
        <ele>1228</ele>
        <time>2019-04-14T03:07:54Z</time>
      </trkpt>
      <trkpt lat="47.94396" lon="7.01937">
        <ele>1228</ele>
        <time>2019-04-14T03:08:54Z</time>
      </trkpt>
      <trkpt lat="47.94408" lon="7.0193">
        <ele>1228</ele>
        <time>2019-04-14T03:09:54Z</time>
      </trkpt>
      <trkpt lat="47.94418" lon="7.01926">
        <ele>1228</ele>
        <time>2019-04-14T03:10:54Z</time>
      </trkpt>
      <trkpt lat="47.94428" lon="7.01923">
        <ele>1227</ele>
        <time>2019-04-14T03:11:54Z</time>
      </trkpt>
      <trkpt lat="47.94436" lon="7.01923">
        <ele>1226</ele>
        <time>2019-04-14T03:12:54Z</time>
      </trkpt>
      <trkpt lat="47.94447" lon="7.01922">
        <ele>1225</ele>
        <time>2019-04-14T03:13:54Z</time>
      </trkpt>
      <trkpt lat="47.94458" lon="7.01923">
        <ele>1225</ele>
        <time>2019-04-14T03:14:54Z</time>
      </trkpt>
      <trkpt lat="47.94461" lon="7.01924">
        <ele>1225</ele>
        <time>2019-04-14T03:15:54Z</time>
      </trkpt>
      <trkpt lat="47.94466" lon="7.01927">
        <ele>1225</ele>
        <time>2019-04-14T03:16:54Z</time>
      </trkpt>
      <trkpt lat="47.94472" lon="7.0193">
        <ele>1225</ele>
        <time>2019-04-14T03:17:54Z</time>
      </trkpt>
      <trkpt lat="47.94477" lon="7.01934">
        <ele>1225</ele>
        <time>2019-04-14T03:18:54Z</time>
      </trkpt>
      <trkpt lat="47.9449" lon="7.01946">
        <ele>1225</ele>
        <time>2019-04-14T03:19:54Z</time>
      </trkpt>
      <trkpt lat="47.94505" lon="7.01961">
        <ele>1225</ele>
        <time>2019-04-14T03:20:54Z</time>
      </trkpt>
      <trkpt lat="47.94522" lon="7.0198">
        <ele>1223</ele>
        <time>2019-04-14T03:21:54Z</time>
      </trkpt>
      <trkpt lat="47.94545" lon="7.02003">
        <ele>1221</ele>
        <time>2019-04-14T03:22:54Z</time>
      </trkpt>
      <trkpt lat="47.94547" lon="7.02004">
        <ele>1221</ele>
        <time>2019-04-14T03:23:54Z</time>
      </trkpt>
      <trkpt lat="47.94568" lon="7.02029">
        <ele>1221</ele>
        <time>2019-04-14T03:24:54Z</time>
      </trkpt>
      <trkpt lat="47.94593" lon="7.02061">
        <ele>1221</ele>
        <time>2019-04-14T03:25:54Z</time>
      </trkpt>
      <trkpt lat="47.94617" lon="7.0209">
        <ele>1222</ele>
        <time>2019-04-14T03:26:54Z</time>
      </trkpt>
      <trkpt lat="47.94622" lon="7.02097">
        <ele>1223</ele>
        <time>2019-04-14T03:27:54Z</time>
      </trkpt>
      <trkpt lat="47.94626" lon="7.02101">
        <ele>1223</ele>
        <time>2019-04-14T03:28:54Z</time>
      </trkpt>
      <trkpt lat="47.9463" lon="7.02104">
        <ele>1223</ele>
        <time>2019-04-14T03:29:54Z</time>
      </trkpt>
      <trkpt lat="47.94633" lon="7.02107">
        <ele>1224</ele>
        <time>2019-04-14T03:30:54Z</time>
      </trkpt>
      <trkpt lat="47.94636" lon="7.02109">
        <ele>1224</ele>
        <time>2019-04-14T03:31:54Z</time>
      </trkpt>
      <trkpt lat="47.9464" lon="7.0211">
        <ele>1223</ele>
        <time>2019-04-14T03:32:54Z</time>
      </trkpt>
      <trkpt lat="47.94644" lon="7.02112">
        <ele>1223</ele>
        <time>2019-04-14T03:33:54Z</time>
      </trkpt>
      <trkpt lat="47.94649" lon="7.02112">
        <ele>1222</ele>
        <time>2019-04-14T03:34:54Z</time>
      </trkpt>
      <trkpt lat="47.94655" lon="7.02112">
        <ele>1222</ele>
        <time>2019-04-14T03:35:54Z</time>
      </trkpt>
      <trkpt lat="47.94665" lon="7.0211">
        <ele>1219</ele>
        <time>2019-04-14T03:36:54Z</time>
      </trkpt>
      <trkpt lat="47.94672" lon="7.02109">
        <ele>1219</ele>
        <time>2019-04-14T03:37:54Z</time>
      </trkpt>
      <trkpt lat="47.94677" lon="7.02108">
        <ele>1219</ele>
        <time>2019-04-14T03:38:54Z</time>
      </trkpt>
      <trkpt lat="47.94686" lon="7.02105">
        <ele>1219</ele>
        <time>2019-04-14T03:39:54Z</time>
      </trkpt>
      <trkpt lat="47.94697" lon="7.02101">
        <ele>1218</ele>
        <time>2019-04-14T03:40:54Z</time>
      </trkpt>
      <trkpt lat="47.94706" lon="7.02098">
        <ele>1217</ele>
        <time>2019-04-14T03:41:54Z</time>
      </trkpt>
      <trkpt lat="47.94715" lon="7.02094">
        <ele>1217</ele>
        <time>2019-04-14T03:42:54Z</time>
      </trkpt>
      <trkpt lat="47.94731" lon="7.02088">
        <ele>1216</ele>
        <time>2019-04-14T03:43:54Z</time>
      </trkpt>
      <trkpt lat="47.94743" lon="7.02082">
        <ele>1214</ele>
        <time>2019-04-14T03:44:54Z</time>
      </trkpt>
      <trkpt lat="47.94753" lon="7.02077">
        <ele>1213</ele>
        <time>2019-04-14T03:45:54Z</time>
      </trkpt>
      <trkpt lat="47.94763" lon="7.02071">
        <ele>1212</ele>
        <time>2019-04-14T03:46:54Z</time>
      </trkpt>
      <trkpt lat="47.94771" lon="7.02066">
        <ele>1211</ele>
        <time>2019-04-14T03:47:54Z</time>
      </trkpt>
      <trkpt lat="47.94778" lon="7.0206">
        <ele>1209</ele>
        <time>2019-04-14T03:48:54Z</time>
      </trkpt>
      <trkpt lat="47.94792" lon="7.0205">
        <ele>1208</ele>
        <time>2019-04-14T03:49:54Z</time>
      </trkpt>
      <trkpt lat="47.94806" lon="7.0204">
        <ele>1206</ele>
        <time>2019-04-14T03:50:54Z</time>
      </trkpt>
      <trkpt lat="47.94813" lon="7.02035">
        <ele>1205</ele>
        <time>2019-04-14T03:51:54Z</time>
      </trkpt>
      <trkpt lat="47.94823" lon="7.02028">
        <ele>1204</ele>
        <time>2019-04-14T03:52:54Z</time>
      </trkpt>
      <trkpt lat="47.94837" lon="7.02019">
        <ele>1202</ele>
        <time>2019-04-14T03:53:54Z</time>
      </trkpt>
      <trkpt lat="47.94848" lon="7.02013">
        <ele>1201</ele>
        <time>2019-04-14T03:54:54Z</time>
      </trkpt>
      <trkpt lat="47.94863" lon="7.02006">
        <ele>1200</ele>
        <time>2019-04-14T03:55:54Z</time>
      </trkpt>
      <trkpt lat="47.94868" lon="7.02004">
        <ele>1200</ele>
        <time>2019-04-14T03:56:54Z</time>
      </trkpt>
      <trkpt lat="47.94874" lon="7.02002">
        <ele>1199</ele>
        <time>2019-04-14T03:57:54Z</time>
      </trkpt>
      <trkpt lat="47.94881" lon="7.02">
        <ele>1199</ele>
        <time>2019-04-14T03:58:54Z</time>
      </trkpt>
      <trkpt lat="47.94891" lon="7.01997">
        <ele>1199</ele>
        <time>2019-04-14T03:59:54Z</time>
      </trkpt>
      <trkpt lat="47.94897" lon="7.01996">
        <ele>1199</ele>
        <time>2019-04-14T04:00:54Z</time>
      </trkpt>
      <trkpt lat="47.94906" lon="7.01994">
        <ele>1200</ele>
        <time>2019-04-14T04:01:54Z</time>
      </trkpt>
      <trkpt lat="47.94918" lon="7.01991">
        <ele>1200</ele>
        <time>2019-04-14T04:02:54Z</time>
      </trkpt>
      <trkpt lat="47.94928" lon="7.01987">
        <ele>1199</ele>
        <time>2019-04-14T04:03:54Z</time>
      </trkpt>
      <trkpt lat="47.9494" lon="7.01983">
        <ele>1198</ele>
        <time>2019-04-14T04:04:54Z</time>
      </trkpt>
      <trkpt lat="47.94948" lon="7.0198">
        <ele>1198</ele>
        <time>2019-04-14T04:05:54Z</time>
      </trkpt>
      <trkpt lat="47.94959" lon="7.01975">
        <ele>1197</ele>
        <time>2019-04-14T04:06:54Z</time>
      </trkpt>
      <trkpt lat="47.9497" lon="7.0197">
        <ele>1195</ele>
        <time>2019-04-14T04:07:54Z</time>
      </trkpt>
      <trkpt lat="47.94979" lon="7.01965">
        <ele>1194</ele>
        <time>2019-04-14T04:08:54Z</time>
      </trkpt>
      <trkpt lat="47.94986" lon="7.01963">
        <ele>1194</ele>
        <time>2019-04-14T04:09:54Z</time>
      </trkpt>
      <trkpt lat="47.94994" lon="7.0196">
        <ele>1193</ele>
        <time>2019-04-14T04:10:54Z</time>
      </trkpt>
      <trkpt lat="47.95001" lon="7.01958">
        <ele>1192</ele>
        <time>2019-04-14T04:11:54Z</time>
      </trkpt>
      <trkpt lat="47.95011" lon="7.01956">
        <ele>1191</ele>
        <time>2019-04-14T04:12:54Z</time>
      </trkpt>
      <trkpt lat="47.95017" lon="7.01956">
        <ele>1191</ele>
        <time>2019-04-14T04:13:54Z</time>
      </trkpt>
      <trkpt lat="47.95021" lon="7.01955">
        <ele>1190</ele>
        <time>2019-04-14T04:14:54Z</time>
      </trkpt>
      <trkpt lat="47.95027" lon="7.01955">
        <ele>1190</ele>
        <time>2019-04-14T04:15:54Z</time>
      </trkpt>
      <trkpt lat="47.95035" lon="7.01956">
        <ele>1190</ele>
        <time>2019-04-14T04:16:54Z</time>
      </trkpt>
      <trkpt lat="47.95048" lon="7.01957">
        <ele>1189</ele>
        <time>2019-04-14T04:17:54Z</time>
      </trkpt>
      <trkpt lat="47.95071" lon="7.01961">
        <ele>1188</ele>
        <time>2019-04-14T04:18:54Z</time>
      </trkpt>
      <trkpt lat="47.95112" lon="7.01968">
        <ele>1187</ele>
        <time>2019-04-14T04:19:54Z</time>
      </trkpt>
      <trkpt lat="47.95118" lon="7.01968">
        <ele>1187</ele>
        <time>2019-04-14T04:20:54Z</time>
      </trkpt>
      <trkpt lat="47.95123" lon="7.01968">
        <ele>1187</ele>
        <time>2019-04-14T04:21:54Z</time>
      </trkpt>
      <trkpt lat="47.95127" lon="7.01968">
        <ele>1186</ele>
        <time>2019-04-14T04:22:54Z</time>
      </trkpt>
      <trkpt lat="47.95132" lon="7.01967">
        <ele>1186</ele>
        <time>2019-04-14T04:23:54Z</time>
      </trkpt>
      <trkpt lat="47.95137" lon="7.01966">
        <ele>1186</ele>
        <time>2019-04-14T04:24:54Z</time>
      </trkpt>
      <trkpt lat="47.95142" lon="7.01964">
        <ele>1186</ele>
        <time>2019-04-14T04:25:54Z</time>
      </trkpt>
      <trkpt lat="47.95147" lon="7.01962">
        <ele>1185</ele>
        <time>2019-04-14T04:26:54Z</time>
      </trkpt>
      <trkpt lat="47.95152" lon="7.01959">
        <ele>1185</ele>
        <time>2019-04-14T04:27:54Z</time>
      </trkpt>
      <trkpt lat="47.95156" lon="7.01957">
        <ele>1185</ele>
        <time>2019-04-14T04:28:54Z</time>
      </trkpt>
      <trkpt lat="47.95161" lon="7.01953">
        <ele>1184</ele>
        <time>2019-04-14T04:29:54Z</time>
      </trkpt>
      <trkpt lat="47.95165" lon="7.0195">
        <ele>1184</ele>
        <time>2019-04-14T04:30:54Z</time>
      </trkpt>
      <trkpt lat="47.95177" lon="7.01941">
        <ele>1182</ele>
        <time>2019-04-14T04:31:54Z</time>
      </trkpt>
      <trkpt lat="47.95198" lon="7.01924">
        <ele>1179</ele>
        <time>2019-04-14T04:32:54Z</time>
      </trkpt>
      <trkpt lat="47.95216" lon="7.01911">
        <ele>1177</ele>
        <time>2019-04-14T04:33:54Z</time>
      </trkpt>
      <trkpt lat="47.95224" lon="7.01904">
        <ele>1176</ele>
        <time>2019-04-14T04:34:54Z</time>
      </trkpt>
      <trkpt lat="47.95229" lon="7.019">
        <ele>1176</ele>
        <time>2019-04-14T04:35:54Z</time>
      </trkpt>
      <trkpt lat="47.95235" lon="7.01895">
        <ele>1176</ele>
        <time>2019-04-14T04:36:54Z</time>
      </trkpt>
      <trkpt lat="47.95241" lon="7.01889">
        <ele>1175</ele>
        <time>2019-04-14T04:37:54Z</time>
      </trkpt>
      <trkpt lat="47.95246" lon="7.01883">
        <ele>1175</ele>
        <time>2019-04-14T04:38:54Z</time>
      </trkpt>
      <trkpt lat="47.95251" lon="7.01877">
        <ele>1175</ele>
        <time>2019-04-14T04:39:54Z</time>
      </trkpt>
      <trkpt lat="47.95255" lon="7.0187">
        <ele>1174</ele>
        <time>2019-04-14T04:40:54Z</time>
      </trkpt>
      <trkpt lat="47.9526" lon="7.01861">
        <ele>1172</ele>
        <time>2019-04-14T04:41:54Z</time>
      </trkpt>
      <trkpt lat="47.95267" lon="7.01849">
        <ele>1170</ele>
        <time>2019-04-14T04:42:54Z</time>
      </trkpt>
      <trkpt lat="47.95272" lon="7.01837">
        <ele>1169</ele>
        <time>2019-04-14T04:43:54Z</time>
      </trkpt>
      <trkpt lat="47.95277" lon="7.01824">
        <ele>1169</ele>
        <time>2019-04-14T04:44:54Z</time>
      </trkpt>
      <trkpt lat="47.95297" lon="7.01777">
        <ele>1168</ele>
        <time>2019-04-14T04:45:54Z</time>
      </trkpt>
      <trkpt lat="47.95316" lon="7.01732">
        <ele>1171</ele>
        <time>2019-04-14T04:46:54Z</time>
      </trkpt>
      <trkpt lat="47.95332" lon="7.01694">
        <ele>1175</ele>
        <time>2019-04-14T04:47:54Z</time>
      </trkpt>
      <trkpt lat="47.95336" lon="7.01684">
        <ele>1175</ele>
        <time>2019-04-14T04:48:54Z</time>
      </trkpt>
      <trkpt lat="47.95338" lon="7.01676">
        <ele>1176</ele>
        <time>2019-04-14T04:49:54Z</time>
      </trkpt>
      <trkpt lat="47.9534" lon="7.01669">
        <ele>1177</ele>
        <time>2019-04-14T04:50:54Z</time>
      </trkpt>
      <trkpt lat="47.95341" lon="7.01664">
        <ele>1177</ele>
        <time>2019-04-14T04:51:54Z</time>
      </trkpt>
      <trkpt lat="47.95341" lon="7.01659">
        <ele>1177</ele>
        <time>2019-04-14T04:52:54Z</time>
      </trkpt>
      <trkpt lat="47.95342" lon="7.0165">
        <ele>1176</ele>
        <time>2019-04-14T04:53:54Z</time>
      </trkpt>
      <trkpt lat="47.95344" lon="7.01637">
        <ele>1176</ele>
        <time>2019-04-14T04:54:54Z</time>
      </trkpt>
      <trkpt lat="47.95344" lon="7.01626">
        <ele>1176</ele>
        <time>2019-04-14T04:55:54Z</time>
      </trkpt>
      <trkpt lat="47.95345" lon="7.01615">
        <ele>1175</ele>
        <time>2019-04-14T04:56:54Z</time>
      </trkpt>
      <trkpt lat="47.95345" lon="7.016">
        <ele>1175</ele>
        <time>2019-04-14T04:57:54Z</time>
      </trkpt>
      <trkpt lat="47.95349" lon="7.0155">
        <ele>1175</ele>
        <time>2019-04-14T04:58:54Z</time>
      </trkpt>
      <trkpt lat="47.9535" lon="7.01517">
        <ele>1174</ele>
        <time>2019-04-14T04:59:54Z</time>
      </trkpt>
      <trkpt lat="47.95351" lon="7.01487">
        <ele>1174</ele>
        <time>2019-04-14T05:00:54Z</time>
      </trkpt>
      <trkpt lat="47.95353" lon="7.0147">
        <ele>1173</ele>
        <time>2019-04-14T05:01:54Z</time>
      </trkpt>
      <trkpt lat="47.95354" lon="7.01454">
        <ele>1172</ele>
        <time>2019-04-14T05:02:54Z</time>
      </trkpt>
      <trkpt lat="47.95355" lon="7.01438">
        <ele>1171</ele>
        <time>2019-04-14T05:03:54Z</time>
      </trkpt>
      <trkpt lat="47.95357" lon="7.01427">
        <ele>1171</ele>
        <time>2019-04-14T05:04:54Z</time>
      </trkpt>
      <trkpt lat="47.95359" lon="7.01416">
        <ele>1171</ele>
        <time>2019-04-14T05:05:54Z</time>
      </trkpt>
      <trkpt lat="47.95361" lon="7.01404">
        <ele>1170</ele>
        <time>2019-04-14T05:06:54Z</time>
      </trkpt>
      <trkpt lat="47.95363" lon="7.01395">
        <ele>1170</ele>
        <time>2019-04-14T05:07:54Z</time>
      </trkpt>
      <trkpt lat="47.95364" lon="7.01384">
        <ele>1169</ele>
        <time>2019-04-14T05:08:54Z</time>
      </trkpt>
      <trkpt lat="47.95367" lon="7.01372">
        <ele>1169</ele>
        <time>2019-04-14T05:09:54Z</time>
      </trkpt>
      <trkpt lat="47.95369" lon="7.01363">
        <ele>1168</ele>
        <time>2019-04-14T05:10:54Z</time>
      </trkpt>
      <trkpt lat="47.95371" lon="7.01355">
        <ele>1168</ele>
        <time>2019-04-14T05:11:54Z</time>
      </trkpt>
      <trkpt lat="47.95372" lon="7.01349">
        <ele>1168</ele>
        <time>2019-04-14T05:12:54Z</time>
      </trkpt>
      <trkpt lat="47.95376" lon="7.01335">
        <ele>1168</ele>
        <time>2019-04-14T05:13:54Z</time>
      </trkpt>
      <trkpt lat="47.95384" lon="7.01306">
        <ele>1168</ele>
        <time>2019-04-14T05:14:54Z</time>
      </trkpt>
      <trkpt lat="47.95406" lon="7.01226">
        <ele>1171</ele>
        <time>2019-04-14T05:15:54Z</time>
      </trkpt>
      <trkpt lat="47.95415" lon="7.01193">
        <ele>1173</ele>
        <time>2019-04-14T05:16:54Z</time>
      </trkpt>
      <trkpt lat="47.9542" lon="7.01172">
        <ele>1174</ele>
        <time>2019-04-14T05:17:54Z</time>
      </trkpt>
      <trkpt lat="47.95424" lon="7.01154">
        <ele>1175</ele>
        <time>2019-04-14T05:18:54Z</time>
      </trkpt>
      <trkpt lat="47.95427" lon="7.01136">
        <ele>1174</ele>
        <time>2019-04-14T05:19:54Z</time>
      </trkpt>
      <trkpt lat="47.9543" lon="7.01121">
        <ele>1174</ele>
        <time>2019-04-14T05:20:54Z</time>
      </trkpt>
      <trkpt lat="47.95433" lon="7.01096">
        <ele>1173</ele>
        <time>2019-04-14T05:21:54Z</time>
      </trkpt>
      <trkpt lat="47.95439" lon="7.01055">
        <ele>1174</ele>
        <time>2019-04-14T05:22:54Z</time>
      </trkpt>
      <trkpt lat="47.95441" lon="7.01036">
        <ele>1174</ele>
        <time>2019-04-14T05:23:54Z</time>
      </trkpt>
      <trkpt lat="47.95443" lon="7.01012">
        <ele>1174</ele>
        <time>2019-04-14T05:24:54Z</time>
      </trkpt>
      <trkpt lat="47.95444" lon="7.00993">
        <ele>1174</ele>
        <time>2019-04-14T05:25:54Z</time>
      </trkpt>
      <trkpt lat="47.95446" lon="7.00957">
        <ele>1173</ele>
        <time>2019-04-14T05:26:54Z</time>
      </trkpt>
      <trkpt lat="47.95448" lon="7.00933">
        <ele>1174</ele>
        <time>2019-04-14T05:27:54Z</time>
      </trkpt>
      <trkpt lat="47.95451" lon="7.00894">
        <ele>1173</ele>
        <time>2019-04-14T05:28:54Z</time>
      </trkpt>
      <trkpt lat="47.95454" lon="7.0086">
        <ele>1173</ele>
        <time>2019-04-14T05:29:54Z</time>
      </trkpt>
      <trkpt lat="47.95456" lon="7.00845">
        <ele>1173</ele>
        <time>2019-04-14T05:30:54Z</time>
      </trkpt>
      <trkpt lat="47.95458" lon="7.00828">
        <ele>1173</ele>
        <time>2019-04-14T05:31:54Z</time>
      </trkpt>
      <trkpt lat="47.95461" lon="7.00812">
        <ele>1174</ele>
        <time>2019-04-14T05:32:54Z</time>
      </trkpt>
      <trkpt lat="47.95471" lon="7.00745">
        <ele>1174</ele>
        <time>2019-04-14T05:33:54Z</time>
      </trkpt>
      <trkpt lat="47.95475" lon="7.00718">
        <ele>1174</ele>
        <time>2019-04-14T05:34:54Z</time>
      </trkpt>
      <trkpt lat="47.95479" lon="7.00689">
        <ele>1173</ele>
        <time>2019-04-14T05:35:54Z</time>
      </trkpt>
      <trkpt lat="47.95482" lon="7.00662">
        <ele>1173</ele>
        <time>2019-04-14T05:36:54Z</time>
      </trkpt>
      <trkpt lat="47.95484" lon="7.00648">
        <ele>1172</ele>
        <time>2019-04-14T05:37:54Z</time>
      </trkpt>
      <trkpt lat="47.95485" lon="7.00639">
        <ele>1172</ele>
        <time>2019-04-14T05:38:54Z</time>
      </trkpt>
      <trkpt lat="47.95486" lon="7.00632">
        <ele>1172</ele>
        <time>2019-04-14T05:39:54Z</time>
      </trkpt>
      <trkpt lat="47.95488" lon="7.00625">
        <ele>1172</ele>
        <time>2019-04-14T05:40:54Z</time>
      </trkpt>
      <trkpt lat="47.95489" lon="7.00619">
        <ele>1172</ele>
        <time>2019-04-14T05:41:54Z</time>
      </trkpt>
      <trkpt lat="47.95491" lon="7.00613">
        <ele>1172</ele>
        <time>2019-04-14T05:42:54Z</time>
      </trkpt>
      <trkpt lat="47.95494" lon="7.00604">
        <ele>1172</ele>
        <time>2019-04-14T05:43:54Z</time>
      </trkpt>
      <trkpt lat="47.95496" lon="7.00599">
        <ele>1173</ele>
        <time>2019-04-14T05:44:54Z</time>
      </trkpt>
      <trkpt lat="47.95498" lon="7.00594">
        <ele>1173</ele>
        <time>2019-04-14T05:45:54Z</time>
      </trkpt>
      <trkpt lat="47.95501" lon="7.00587">
        <ele>1174</ele>
        <time>2019-04-14T05:46:54Z</time>
      </trkpt>
      <trkpt lat="47.95505" lon="7.0058">
        <ele>1174</ele>
        <time>2019-04-14T05:47:54Z</time>
      </trkpt>
      <trkpt lat="47.9551" lon="7.00572">
        <ele>1173</ele>
        <time>2019-04-14T05:48:54Z</time>
      </trkpt>
      <trkpt lat="47.95515" lon="7.00567">
        <ele>1173</ele>
        <time>2019-04-14T05:49:54Z</time>
      </trkpt>
      <trkpt lat="47.95519" lon="7.00562">
        <ele>1173</ele>
        <time>2019-04-14T05:50:54Z</time>
      </trkpt>
      <trkpt lat="47.95524" lon="7.00557">
        <ele>1173</ele>
        <time>2019-04-14T05:51:54Z</time>
      </trkpt>
      <trkpt lat="47.95529" lon="7.00553">
        <ele>1173</ele>
        <time>2019-04-14T05:52:54Z</time>
      </trkpt>
      <trkpt lat="47.95532" lon="7.00551">
        <ele>1173</ele>
        <time>2019-04-14T05:53:54Z</time>
      </trkpt>
      <trkpt lat="47.95537" lon="7.00548">
        <ele>1173</ele>
        <time>2019-04-14T05:54:54Z</time>
      </trkpt>
      <trkpt lat="47.95542" lon="7.00545">
        <ele>1174</ele>
        <time>2019-04-14T05:55:54Z</time>
      </trkpt>
      <trkpt lat="47.95548" lon="7.00543">
        <ele>1174</ele>
        <time>2019-04-14T05:56:54Z</time>
      </trkpt>
      <trkpt lat="47.95554" lon="7.00541">
        <ele>1175</ele>
        <time>2019-04-14T05:57:54Z</time>
      </trkpt>
      <trkpt lat="47.9557" lon="7.00538">
        <ele>1176</ele>
        <time>2019-04-14T05:58:54Z</time>
      </trkpt>
      <trkpt lat="47.95583" lon="7.00536">
        <ele>1178</ele>
        <time>2019-04-14T05:59:54Z</time>
      </trkpt>
      <trkpt lat="47.9559" lon="7.00534">
        <ele>1178</ele>
        <time>2019-04-14T06:00:54Z</time>
      </trkpt>
      <trkpt lat="47.95602" lon="7.00532">
        <ele>1179</ele>
        <time>2019-04-14T06:01:54Z</time>
      </trkpt>
      <trkpt lat="47.95615" lon="7.00528">
        <ele>1179</ele>
        <time>2019-04-14T06:02:54Z</time>
      </trkpt>
      <trkpt lat="47.95624" lon="7.00525">
        <ele>1179</ele>
        <time>2019-04-14T06:03:54Z</time>
      </trkpt>
      <trkpt lat="47.9563" lon="7.00523">
        <ele>1180</ele>
        <time>2019-04-14T06:04:54Z</time>
      </trkpt>
      <trkpt lat="47.95638" lon="7.0052">
        <ele>1180</ele>
        <time>2019-04-14T06:05:54Z</time>
      </trkpt>
      <trkpt lat="47.95645" lon="7.00517">
        <ele>1180</ele>
        <time>2019-04-14T06:06:54Z</time>
      </trkpt>
      <trkpt lat="47.95652" lon="7.00513">
        <ele>1180</ele>
        <time>2019-04-14T06:07:54Z</time>
      </trkpt>
      <trkpt lat="47.95661" lon="7.00508">
        <ele>1180</ele>
        <time>2019-04-14T06:08:54Z</time>
      </trkpt>
      <trkpt lat="47.95668" lon="7.00503">
        <ele>1180</ele>
        <time>2019-04-14T06:09:54Z</time>
      </trkpt>
      <trkpt lat="47.95677" lon="7.00496">
        <ele>1180</ele>
        <time>2019-04-14T06:10:54Z</time>
      </trkpt>
      <trkpt lat="47.95687" lon="7.00489">
        <ele>1180</ele>
        <time>2019-04-14T06:11:54Z</time>
      </trkpt>
      <trkpt lat="47.95697" lon="7.00479">
        <ele>1180</ele>
        <time>2019-04-14T06:12:54Z</time>
      </trkpt>
      <trkpt lat="47.95706" lon="7.00471">
        <ele>1180</ele>
        <time>2019-04-14T06:13:54Z</time>
      </trkpt>
      <trkpt lat="47.95716" lon="7.00459">
        <ele>1179</ele>
        <time>2019-04-14T06:14:54Z</time>
      </trkpt>
      <trkpt lat="47.95727" lon="7.00449">
        <ele>1180</ele>
        <time>2019-04-14T06:15:54Z</time>
      </trkpt>
      <trkpt lat="47.95734" lon="7.00441">
        <ele>1180</ele>
        <time>2019-04-14T06:16:54Z</time>
      </trkpt>
      <trkpt lat="47.9574" lon="7.00433">
        <ele>1180</ele>
        <time>2019-04-14T06:17:54Z</time>
      </trkpt>
      <trkpt lat="47.95762" lon="7.00408">
        <ele>1180</ele>
        <time>2019-04-14T06:18:54Z</time>
      </trkpt>
      <trkpt lat="47.95767" lon="7.00402">
        <ele>1179</ele>
        <time>2019-04-14T06:19:54Z</time>
      </trkpt>
      <trkpt lat="47.95774" lon="7.00396">
        <ele>1178</ele>
        <time>2019-04-14T06:20:54Z</time>
      </trkpt>
      <trkpt lat="47.95782" lon="7.00389">
        <ele>1178</ele>
        <time>2019-04-14T06:21:54Z</time>
      </trkpt>
      <trkpt lat="47.95789" lon="7.00382">
        <ele>1177</ele>
        <time>2019-04-14T06:22:54Z</time>
      </trkpt>
      <trkpt lat="47.95796" lon="7.00377">
        <ele>1177</ele>
        <time>2019-04-14T06:23:54Z</time>
      </trkpt>
      <trkpt lat="47.95804" lon="7.00372">
        <ele>1177</ele>
        <time>2019-04-14T06:24:54Z</time>
      </trkpt>
      <trkpt lat="47.95817" lon="7.00364">
        <ele>1178</ele>
        <time>2019-04-14T06:25:54Z</time>
      </trkpt>
      <trkpt lat="47.95835" lon="7.00352">
        <ele>1178</ele>
        <time>2019-04-14T06:26:54Z</time>
      </trkpt>
      <trkpt lat="47.95852" lon="7.00342">
        <ele>1179</ele>
        <time>2019-04-14T06:27:54Z</time>
      </trkpt>
      <trkpt lat="47.95863" lon="7.00336">
        <ele>1179</ele>
        <time>2019-04-14T06:28:54Z</time>
      </trkpt>
      <trkpt lat="47.95875" lon="7.0033">
        <ele>1179</ele>
        <time>2019-04-14T06:29:54Z</time>
      </trkpt>
      <trkpt lat="47.95886" lon="7.00325">
        <ele>1180</ele>
        <time>2019-04-14T06:30:54Z</time>
      </trkpt>
      <trkpt lat="47.95896" lon="7.00321">
        <ele>1180</ele>
        <time>2019-04-14T06:31:54Z</time>
      </trkpt>
      <trkpt lat="47.95901" lon="7.00318">
        <ele>1181</ele>
        <time>2019-04-14T06:32:54Z</time>
      </trkpt>
      <trkpt lat="47.95908" lon="7.00314">
        <ele>1181</ele>
        <time>2019-04-14T06:33:54Z</time>
      </trkpt>
      <trkpt lat="47.95912" lon="7.00311">
        <ele>1181</ele>
        <time>2019-04-14T06:34:54Z</time>
      </trkpt>
      <trkpt lat="47.95916" lon="7.00307">
        <ele>1181</ele>
        <time>2019-04-14T06:35:54Z</time>
      </trkpt>
      <trkpt lat="47.95921" lon="7.00303">
        <ele>1181</ele>
        <time>2019-04-14T06:36:54Z</time>
      </trkpt>
      <trkpt lat="47.95928" lon="7.00296">
        <ele>1182</ele>
        <time>2019-04-14T06:37:54Z</time>
      </trkpt>
      <trkpt lat="47.95939" lon="7.00283">
        <ele>1182</ele>
        <time>2019-04-14T06:38:54Z</time>
      </trkpt>
      <trkpt lat="47.95953" lon="7.00267">
        <ele>1183</ele>
        <time>2019-04-14T06:39:54Z</time>
      </trkpt>
      <trkpt lat="47.95973" lon="7.00244">
        <ele>1183</ele>
        <time>2019-04-14T06:40:54Z</time>
      </trkpt>
      <trkpt lat="47.95983" lon="7.00231">
        <ele>1183</ele>
        <time>2019-04-14T06:41:54Z</time>
      </trkpt>
      <trkpt lat="47.95995" lon="7.00216">
        <ele>1183</ele>
        <time>2019-04-14T06:42:54Z</time>
      </trkpt>
      <trkpt lat="47.96004" lon="7.00204">
        <ele>1183</ele>
        <time>2019-04-14T06:43:54Z</time>
      </trkpt>
      <trkpt lat="47.96016" lon="7.00186">
        <ele>1182</ele>
        <time>2019-04-14T06:44:54Z</time>
      </trkpt>
      <trkpt lat="47.96033" lon="7.00161">
        <ele>1182</ele>
        <time>2019-04-14T06:45:54Z</time>
      </trkpt>
      <trkpt lat="47.96048" lon="7.00139">
        <ele>1183</ele>
        <time>2019-04-14T06:46:54Z</time>
      </trkpt>
      <trkpt lat="47.96058" lon="7.00123">
        <ele>1183</ele>
        <time>2019-04-14T06:47:54Z</time>
      </trkpt>
      <trkpt lat="47.96063" lon="7.00114">
        <ele>1183</ele>
        <time>2019-04-14T06:48:54Z</time>
      </trkpt>
      <trkpt lat="47.96067" lon="7.00105">
        <ele>1183</ele>
        <time>2019-04-14T06:49:54Z</time>
      </trkpt>
      <trkpt lat="47.96072" lon="7.00095">
        <ele>1183</ele>
        <time>2019-04-14T06:50:54Z</time>
      </trkpt>
      <trkpt lat="47.96076" lon="7.00086">
        <ele>1183</ele>
        <time>2019-04-14T06:51:54Z</time>
      </trkpt>
      <trkpt lat="47.9608" lon="7.00076">
        <ele>1183</ele>
        <time>2019-04-14T06:52:54Z</time>
      </trkpt>
      <trkpt lat="47.96083" lon="7.00066">
        <ele>1183</ele>
        <time>2019-04-14T06:53:54Z</time>
      </trkpt>
      <trkpt lat="47.96088" lon="7.00049">
        <ele>1182</ele>
        <time>2019-04-14T06:54:54Z</time>
      </trkpt>
      <trkpt lat="47.96093" lon="7.00028">
        <ele>1181</ele>
        <time>2019-04-14T06:55:54Z</time>
      </trkpt>
      <trkpt lat="47.96097" lon="7.00013">
        <ele>1181</ele>
        <time>2019-04-14T06:56:54Z</time>
      </trkpt>
      <trkpt lat="47.961" lon="6.99998">
        <ele>1181</ele>
        <time>2019-04-14T06:57:54Z</time>
      </trkpt>
      <trkpt lat="47.96105" lon="6.99969">
        <ele>1179</ele>
        <time>2019-04-14T06:58:54Z</time>
      </trkpt>
      <trkpt lat="47.96113" lon="6.99918">
        <ele>1176</ele>
        <time>2019-04-14T06:59:54Z</time>
      </trkpt>
      <trkpt lat="47.9612" lon="6.99885">
        <ele>1178</ele>
        <time>2019-04-14T07:00:54Z</time>
      </trkpt>
      <trkpt lat="47.96127" lon="6.99855">
        <ele>1179</ele>
        <time>2019-04-14T07:01:54Z</time>
      </trkpt>
      <trkpt lat="47.96136" lon="6.99819">
        <ele>1181</ele>
        <time>2019-04-14T07:02:54Z</time>
      </trkpt>
      <trkpt lat="47.96146" lon="6.99775">
        <ele>1179</ele>
        <time>2019-04-14T07:03:54Z</time>
      </trkpt>
      <trkpt lat="47.96153" lon="6.99749">
        <ele>1178</ele>
        <time>2019-04-14T07:04:54Z</time>
      </trkpt>
      <trkpt lat="47.96156" lon="6.9974">
        <ele>1178</ele>
        <time>2019-04-14T07:05:54Z</time>
      </trkpt>
      <trkpt lat="47.96159" lon="6.99728">
        <ele>1177</ele>
        <time>2019-04-14T07:06:54Z</time>
      </trkpt>
      <trkpt lat="47.96163" lon="6.99717">
        <ele>1177</ele>
        <time>2019-04-14T07:07:54Z</time>
      </trkpt>
      <trkpt lat="47.96166" lon="6.99708">
        <ele>1177</ele>
        <time>2019-04-14T07:08:54Z</time>
      </trkpt>
      <trkpt lat="47.9617" lon="6.997">
        <ele>1177</ele>
        <time>2019-04-14T07:09:54Z</time>
      </trkpt>
      <trkpt lat="47.96173" lon="6.99692">
        <ele>1176</ele>
        <time>2019-04-14T07:10:54Z</time>
      </trkpt>
      <trkpt lat="47.96177" lon="6.99685">
        <ele>1176</ele>
        <time>2019-04-14T07:11:54Z</time>
      </trkpt>
      <trkpt lat="47.96181" lon="6.99678">
        <ele>1176</ele>
        <time>2019-04-14T07:12:54Z</time>
      </trkpt>
      <trkpt lat="47.96184" lon="6.99674">
        <ele>1175</ele>
        <time>2019-04-14T07:13:54Z</time>
      </trkpt>
      <trkpt lat="47.96187" lon="6.9967">
        <ele>1175</ele>
        <time>2019-04-14T07:14:54Z</time>
      </trkpt>
      <trkpt lat="47.96191" lon="6.99666">
        <ele>1175</ele>
        <time>2019-04-14T07:15:54Z</time>
      </trkpt>
      <trkpt lat="47.96197" lon="6.99661">
        <ele>1175</ele>
        <time>2019-04-14T07:16:54Z</time>
      </trkpt>
      <trkpt lat="47.96205" lon="6.99655">
        <ele>1175</ele>
        <time>2019-04-14T07:17:54Z</time>
      </trkpt>
      <trkpt lat="47.9621" lon="6.99652">
        <ele>1175</ele>
        <time>2019-04-14T07:18:54Z</time>
      </trkpt>
      <trkpt lat="47.96218" lon="6.99649">
        <ele>1176</ele>
        <time>2019-04-14T07:19:54Z</time>
      </trkpt>
      <trkpt lat="47.96229" lon="6.99644">
        <ele>1176</ele>
        <time>2019-04-14T07:20:54Z</time>
      </trkpt>
      <trkpt lat="47.96238" lon="6.9964">
        <ele>1176</ele>
        <time>2019-04-14T07:21:54Z</time>
      </trkpt>
      <trkpt lat="47.9625" lon="6.99634">
        <ele>1177</ele>
        <time>2019-04-14T07:22:54Z</time>
      </trkpt>
      <trkpt lat="47.9626" lon="6.99628">
        <ele>1176</ele>
        <time>2019-04-14T07:23:54Z</time>
      </trkpt>
      <trkpt lat="47.9627" lon="6.99621">
        <ele>1175</ele>
        <time>2019-04-14T07:24:54Z</time>
      </trkpt>
      <trkpt lat="47.9628" lon="6.99616">
        <ele>1175</ele>
        <time>2019-04-14T07:25:54Z</time>
      </trkpt>
      <trkpt lat="47.96291" lon="6.9961">
        <ele>1175</ele>
        <time>2019-04-14T07:26:54Z</time>
      </trkpt>
      <trkpt lat="47.963" lon="6.99606">
        <ele>1175</ele>
        <time>2019-04-14T07:27:54Z</time>
      </trkpt>
      <trkpt lat="47.96307" lon="6.99604">
        <ele>1175</ele>
        <time>2019-04-14T07:28:54Z</time>
      </trkpt>
      <trkpt lat="47.96315" lon="6.99601">
        <ele>1175</ele>
        <time>2019-04-14T07:29:54Z</time>
      </trkpt>
      <trkpt lat="47.96326" lon="6.99595">
        <ele>1174</ele>
        <time>2019-04-14T07:30:54Z</time>
      </trkpt>
      <trkpt lat="47.96336" lon="6.99589">
        <ele>1174</ele>
        <time>2019-04-14T07:31:54Z</time>
      </trkpt>
      <trkpt lat="47.96347" lon="6.99582">
        <ele>1173</ele>
        <time>2019-04-14T07:32:54Z</time>
      </trkpt>
      <trkpt lat="47.96354" lon="6.99578">
        <ele>1173</ele>
        <time>2019-04-14T07:33:54Z</time>
      </trkpt>
      <trkpt lat="47.96359" lon="6.99575">
        <ele>1173</ele>
        <time>2019-04-14T07:34:54Z</time>
      </trkpt>
      <trkpt lat="47.96368" lon="6.9957">
        <ele>1173</ele>
        <time>2019-04-14T07:35:54Z</time>
      </trkpt>
      <trkpt lat="47.96375" lon="6.99567">
        <ele>1173</ele>
        <time>2019-04-14T07:36:54Z</time>
      </trkpt>
      <trkpt lat="47.96382" lon="6.99563">
        <ele>1173</ele>
        <time>2019-04-14T07:37:54Z</time>
      </trkpt>
      <trkpt lat="47.96401" lon="6.99555">
        <ele>1173</ele>
        <time>2019-04-14T07:38:54Z</time>
      </trkpt>
      <trkpt lat="47.96433" lon="6.99541">
        <ele>1172</ele>
        <time>2019-04-14T07:39:54Z</time>
      </trkpt>
      <trkpt lat="47.9645" lon="6.99533">
        <ele>1171</ele>
        <time>2019-04-14T07:40:54Z</time>
      </trkpt>
      <trkpt lat="47.96459" lon="6.99529">
        <ele>1171</ele>
        <time>2019-04-14T07:41:54Z</time>
      </trkpt>
      <trkpt lat="47.96476" lon="6.99521">
        <ele>1170</ele>
        <time>2019-04-14T07:42:54Z</time>
      </trkpt>
      <trkpt lat="47.96489" lon="6.99514">
        <ele>1169</ele>
        <time>2019-04-14T07:43:54Z</time>
      </trkpt>
      <trkpt lat="47.965" lon="6.99509">
        <ele>1168</ele>
        <time>2019-04-14T07:44:54Z</time>
      </trkpt>
      <trkpt lat="47.96511" lon="6.99503">
        <ele>1168</ele>
        <time>2019-04-14T07:45:54Z</time>
      </trkpt>
      <trkpt lat="47.96521" lon="6.99499">
        <ele>1169</ele>
        <time>2019-04-14T07:46:54Z</time>
      </trkpt>
      <trkpt lat="47.96532" lon="6.99495">
        <ele>1169</ele>
        <time>2019-04-14T07:47:54Z</time>
      </trkpt>
      <trkpt lat="47.96549" lon="6.9949">
        <ele>1170</ele>
        <time>2019-04-14T07:48:54Z</time>
      </trkpt>
      <trkpt lat="47.96558" lon="6.99485">
        <ele>1170</ele>
        <time>2019-04-14T07:49:54Z</time>
      </trkpt>
      <trkpt lat="47.96568" lon="6.99481">
        <ele>1170</ele>
        <time>2019-04-14T07:50:54Z</time>
      </trkpt>
      <trkpt lat="47.96578" lon="6.99475">
        <ele>1170</ele>
        <time>2019-04-14T07:51:54Z</time>
      </trkpt>
      <trkpt lat="47.96588" lon="6.99468">
        <ele>1170</ele>
        <time>2019-04-14T07:52:54Z</time>
      </trkpt>
      <trkpt lat="47.96603" lon="6.99458">
        <ele>1169</ele>
        <time>2019-04-14T07:53:54Z</time>
      </trkpt>
      <trkpt lat="47.96616" lon="6.99449">
        <ele>1169</ele>
        <time>2019-04-14T07:54:54Z</time>
      </trkpt>
      <trkpt lat="47.96628" lon="6.9944">
        <ele>1169</ele>
        <time>2019-04-14T07:55:54Z</time>
      </trkpt>
      <trkpt lat="47.96639" lon="6.99431">
        <ele>1169</ele>
        <time>2019-04-14T07:56:54Z</time>
      </trkpt>
      <trkpt lat="47.9665" lon="6.99422">
        <ele>1170</ele>
        <time>2019-04-14T07:57:54Z</time>
      </trkpt>
      <trkpt lat="47.96658" lon="6.99414">
        <ele>1170</ele>
        <time>2019-04-14T07:58:54Z</time>
      </trkpt>
      <trkpt lat="47.96664" lon="6.99408">
        <ele>1170</ele>
        <time>2019-04-14T07:59:54Z</time>
      </trkpt>
      <trkpt lat="47.96669" lon="6.99403">
        <ele>1171</ele>
        <time>2019-04-14T08:00:54Z</time>
      </trkpt>
      <trkpt lat="47.96675" lon="6.99397">
        <ele>1171</ele>
        <time>2019-04-14T08:01:54Z</time>
      </trkpt>
      <trkpt lat="47.96678" lon="6.99392">
        <ele>1171</ele>
        <time>2019-04-14T08:02:54Z</time>
      </trkpt>
      <trkpt lat="47.96683" lon="6.99386">
        <ele>1172</ele>
        <time>2019-04-14T08:03:54Z</time>
      </trkpt>
      <trkpt lat="47.96686" lon="6.99381">
        <ele>1172</ele>
        <time>2019-04-14T08:04:54Z</time>
      </trkpt>
      <trkpt lat="47.96689" lon="6.99375">
        <ele>1172</ele>
        <time>2019-04-14T08:05:54Z</time>
      </trkpt>
      <trkpt lat="47.96691" lon="6.9937">
        <ele>1172</ele>
        <time>2019-04-14T08:06:54Z</time>
      </trkpt>
      <trkpt lat="47.96693" lon="6.99364">
        <ele>1173</ele>
        <time>2019-04-14T08:07:54Z</time>
      </trkpt>
      <trkpt lat="47.96695" lon="6.99357">
        <ele>1172</ele>
        <time>2019-04-14T08:08:54Z</time>
      </trkpt>
      <trkpt lat="47.96696" lon="6.9935">
        <ele>1172</ele>
        <time>2019-04-14T08:09:54Z</time>
      </trkpt>
      <trkpt lat="47.96697" lon="6.99342">
        <ele>1172</ele>
        <time>2019-04-14T08:10:54Z</time>
      </trkpt>
      <trkpt lat="47.96697" lon="6.99334">
        <ele>1171</ele>
        <time>2019-04-14T08:11:54Z</time>
      </trkpt>
      <trkpt lat="47.96697" lon="6.99326">
        <ele>1171</ele>
        <time>2019-04-14T08:12:54Z</time>
      </trkpt>
      <trkpt lat="47.96696" lon="6.99314">
        <ele>1172</ele>
        <time>2019-04-14T08:13:54Z</time>
      </trkpt>
      <trkpt lat="47.96695" lon="6.993">
        <ele>1172</ele>
        <time>2019-04-14T08:14:54Z</time>
      </trkpt>
      <trkpt lat="47.96693" lon="6.9928">
        <ele>1172</ele>
        <time>2019-04-14T08:15:54Z</time>
      </trkpt>
      <trkpt lat="47.96692" lon="6.99271">
        <ele>1172</ele>
        <time>2019-04-14T08:16:54Z</time>
      </trkpt>
      <trkpt lat="47.9669" lon="6.99261">
        <ele>1172</ele>
        <time>2019-04-14T08:17:54Z</time>
      </trkpt>
      <trkpt lat="47.96688" lon="6.99248">
        <ele>1172</ele>
        <time>2019-04-14T08:18:54Z</time>
      </trkpt>
      <trkpt lat="47.96684" lon="6.99234">
        <ele>1171</ele>
        <time>2019-04-14T08:19:54Z</time>
      </trkpt>
      <trkpt lat="47.96679" lon="6.99213">
        <ele>1170</ele>
        <time>2019-04-14T08:20:54Z</time>
      </trkpt>
      <trkpt lat="47.96671" lon="6.99187">
        <ele>1169</ele>
        <time>2019-04-14T08:21:54Z</time>
      </trkpt>
      <trkpt lat="47.9666" lon="6.99152">
        <ele>1168</ele>
        <time>2019-04-14T08:22:54Z</time>
      </trkpt>
      <trkpt lat="47.96655" lon="6.99138">
        <ele>1168</ele>
        <time>2019-04-14T08:23:54Z</time>
      </trkpt>
      <trkpt lat="47.96652" lon="6.9913">
        <ele>1168</ele>
        <time>2019-04-14T08:24:54Z</time>
      </trkpt>
      <trkpt lat="47.96649" lon="6.99122">
        <ele>1167</ele>
        <time>2019-04-14T08:25:54Z</time>
      </trkpt>
      <trkpt lat="47.96643" lon="6.99108">
        <ele>1167</ele>
        <time>2019-04-14T08:26:54Z</time>
      </trkpt>
      <trkpt lat="47.96631" lon="6.99082">
        <ele>1166</ele>
        <time>2019-04-14T08:27:54Z</time>
      </trkpt>
      <trkpt lat="47.96611" lon="6.99041">
        <ele>1163</ele>
        <time>2019-04-14T08:28:54Z</time>
      </trkpt>
      <trkpt lat="47.96599" lon="6.99017">
        <ele>1162</ele>
        <time>2019-04-14T08:29:54Z</time>
      </trkpt>
      <trkpt lat="47.96595" lon="6.99009">
        <ele>1163</ele>
        <time>2019-04-14T08:30:54Z</time>
      </trkpt>
      <trkpt lat="47.96592" lon="6.99002">
        <ele>1163</ele>
        <time>2019-04-14T08:31:54Z</time>
      </trkpt>
      <trkpt lat="47.9659" lon="6.98997">
        <ele>1163</ele>
        <time>2019-04-14T08:32:54Z</time>
      </trkpt>
      <trkpt lat="47.96588" lon="6.98992">
        <ele>1162</ele>
        <time>2019-04-14T08:33:54Z</time>
      </trkpt>
      <trkpt lat="47.96586" lon="6.98985">
        <ele>1161</ele>
        <time>2019-04-14T08:34:54Z</time>
      </trkpt>
      <trkpt lat="47.96585" lon="6.98978">
        <ele>1161</ele>
        <time>2019-04-14T08:35:54Z</time>
      </trkpt>
      <trkpt lat="47.96584" lon="6.98972">
        <ele>1161</ele>
        <time>2019-04-14T08:36:54Z</time>
      </trkpt>
      <trkpt lat="47.96584" lon="6.98967">
        <ele>1161</ele>
        <time>2019-04-14T08:37:54Z</time>
      </trkpt>
      <trkpt lat="47.96584" lon="6.9896">
        <ele>1161</ele>
        <time>2019-04-14T08:38:54Z</time>
      </trkpt>
      <trkpt lat="47.96584" lon="6.98955">
        <ele>1161</ele>
        <time>2019-04-14T08:39:54Z</time>
      </trkpt>
      <trkpt lat="47.96585" lon="6.98949">
        <ele>1161</ele>
        <time>2019-04-14T08:40:54Z</time>
      </trkpt>
      <trkpt lat="47.96585" lon="6.98945">
        <ele>1161</ele>
        <time>2019-04-14T08:41:54Z</time>
      </trkpt>
      <trkpt lat="47.96587" lon="6.9894">
        <ele>1161</ele>
        <time>2019-04-14T08:42:54Z</time>
      </trkpt>
      <trkpt lat="47.96588" lon="6.98936">
        <ele>1161</ele>
        <time>2019-04-14T08:43:54Z</time>
      </trkpt>
      <trkpt lat="47.9659" lon="6.98933">
        <ele>1161</ele>
        <time>2019-04-14T08:44:54Z</time>
      </trkpt>
      <trkpt lat="47.96591" lon="6.98931">
        <ele>1161</ele>
        <time>2019-04-14T08:45:54Z</time>
      </trkpt>
      <trkpt lat="47.96593" lon="6.98927">
        <ele>1162</ele>
        <time>2019-04-14T08:46:54Z</time>
      </trkpt>
      <trkpt lat="47.96596" lon="6.98925">
        <ele>1162</ele>
        <time>2019-04-14T08:47:54Z</time>
      </trkpt>
      <trkpt lat="47.966" lon="6.98921">
        <ele>1163</ele>
        <time>2019-04-14T08:48:54Z</time>
      </trkpt>
      <trkpt lat="47.96604" lon="6.98918">
        <ele>1163</ele>
        <time>2019-04-14T08:49:54Z</time>
      </trkpt>
      <trkpt lat="47.96609" lon="6.98915">
        <ele>1163</ele>
        <time>2019-04-14T08:50:54Z</time>
      </trkpt>
      <trkpt lat="47.96613" lon="6.98912">
        <ele>1163</ele>
        <time>2019-04-14T08:51:54Z</time>
      </trkpt>
      <trkpt lat="47.96618" lon="6.9891">
        <ele>1164</ele>
        <time>2019-04-14T08:52:54Z</time>
      </trkpt>
      <trkpt lat="47.96622" lon="6.98909">
        <ele>1164</ele>
        <time>2019-04-14T08:53:54Z</time>
      </trkpt>
      <trkpt lat="47.96627" lon="6.98907">
        <ele>1164</ele>
        <time>2019-04-14T08:54:54Z</time>
      </trkpt>
      <trkpt lat="47.96635" lon="6.98905">
        <ele>1165</ele>
        <time>2019-04-14T08:55:54Z</time>
      </trkpt>
      <trkpt lat="47.96643" lon="6.98903">
        <ele>1166</ele>
        <time>2019-04-14T08:56:54Z</time>
      </trkpt>
      <trkpt lat="47.9665" lon="6.98902">
        <ele>1167</ele>
        <time>2019-04-14T08:57:54Z</time>
      </trkpt>
      <trkpt lat="47.96687" lon="6.98898">
        <ele>1168</ele>
        <time>2019-04-14T08:58:54Z</time>
      </trkpt>
      <trkpt lat="47.96697" lon="6.98898">
        <ele>1168</ele>
        <time>2019-04-14T08:59:54Z</time>
      </trkpt>
      <trkpt lat="47.96708" lon="6.98897">
        <ele>1168</ele>
        <time>2019-04-14T09:00:54Z</time>
      </trkpt>
      <trkpt lat="47.9672" lon="6.98898">
        <ele>1168</ele>
        <time>2019-04-14T09:01:54Z</time>
      </trkpt>
      <trkpt lat="47.96741" lon="6.98899">
        <ele>1169</ele>
        <time>2019-04-14T09:02:54Z</time>
      </trkpt>
      <trkpt lat="47.96778" lon="6.98901">
        <ele>1169</ele>
        <time>2019-04-14T09:03:54Z</time>
      </trkpt>
      <trkpt lat="47.96801" lon="6.98901">
        <ele>1168</ele>
        <time>2019-04-14T09:04:54Z</time>
      </trkpt>
      <trkpt lat="47.96815" lon="6.98901">
        <ele>1168</ele>
        <time>2019-04-14T09:05:54Z</time>
      </trkpt>
      <trkpt lat="47.96821" lon="6.98901">
        <ele>1168</ele>
        <time>2019-04-14T09:06:54Z</time>
      </trkpt>
      <trkpt lat="47.96827" lon="6.98901">
        <ele>1168</ele>
        <time>2019-04-14T09:07:54Z</time>
      </trkpt>
      <trkpt lat="47.9683" lon="6.98901">
        <ele>1168</ele>
        <time>2019-04-14T09:08:54Z</time>
      </trkpt>
      <trkpt lat="47.96835" lon="6.98902">
        <ele>1168</ele>
        <time>2019-04-14T09:09:54Z</time>
      </trkpt>
      <trkpt lat="47.96839" lon="6.98903">
        <ele>1168</ele>
        <time>2019-04-14T09:10:54Z</time>
      </trkpt>
      <trkpt lat="47.96846" lon="6.98905">
        <ele>1169</ele>
        <time>2019-04-14T09:11:54Z</time>
      </trkpt>
      <trkpt lat="47.9685" lon="6.98907">
        <ele>1169</ele>
        <time>2019-04-14T09:12:54Z</time>
      </trkpt>
      <trkpt lat="47.96856" lon="6.98909">
        <ele>1170</ele>
        <time>2019-04-14T09:13:54Z</time>
      </trkpt>
      <trkpt lat="47.96865" lon="6.98913">
        <ele>1171</ele>
        <time>2019-04-14T09:14:54Z</time>
      </trkpt>
      <trkpt lat="47.96879" lon="6.9892">
        <ele>1172</ele>
        <time>2019-04-14T09:15:54Z</time>
      </trkpt>
      <trkpt lat="47.96891" lon="6.98924">
        <ele>1174</ele>
        <time>2019-04-14T09:16:54Z</time>
      </trkpt>
      <trkpt lat="47.96896" lon="6.98925">
        <ele>1174</ele>
        <time>2019-04-14T09:17:54Z</time>
      </trkpt>
      <trkpt lat="47.96903" lon="6.98927">
        <ele>1174</ele>
        <time>2019-04-14T09:18:54Z</time>
      </trkpt>
      <trkpt lat="47.9691" lon="6.98928">
        <ele>1175</ele>
        <time>2019-04-14T09:19:54Z</time>
      </trkpt>
      <trkpt lat="47.96917" lon="6.98928">
        <ele>1175</ele>
        <time>2019-04-14T09:20:54Z</time>
      </trkpt>
      <trkpt lat="47.96927" lon="6.98928">
        <ele>1176</ele>
        <time>2019-04-14T09:21:54Z</time>
      </trkpt>
      <trkpt lat="47.96938" lon="6.98927">
        <ele>1176</ele>
        <time>2019-04-14T09:22:54Z</time>
      </trkpt>
      <trkpt lat="47.96951" lon="6.98925">
        <ele>1177</ele>
        <time>2019-04-14T09:23:54Z</time>
      </trkpt>
      <trkpt lat="47.96972" lon="6.98921">
        <ele>1178</ele>
        <time>2019-04-14T09:24:54Z</time>
      </trkpt>
      <trkpt lat="47.96983" lon="6.98919">
        <ele>1178</ele>
        <time>2019-04-14T09:25:54Z</time>
      </trkpt>
      <trkpt lat="47.9699" lon="6.98917">
        <ele>1178</ele>
        <time>2019-04-14T09:26:54Z</time>
      </trkpt>
      <trkpt lat="47.96996" lon="6.98915">
        <ele>1178</ele>
        <time>2019-04-14T09:27:54Z</time>
      </trkpt>
      <trkpt lat="47.97001" lon="6.98912">
        <ele>1178</ele>
        <time>2019-04-14T09:28:54Z</time>
      </trkpt>
      <trkpt lat="47.97005" lon="6.9891">
        <ele>1178</ele>
        <time>2019-04-14T09:29:54Z</time>
      </trkpt>
      <trkpt lat="47.97012" lon="6.98905">
        <ele>1177</ele>
        <time>2019-04-14T09:30:54Z</time>
      </trkpt>
      <trkpt lat="47.97018" lon="6.98901">
        <ele>1176</ele>
        <time>2019-04-14T09:31:54Z</time>
      </trkpt>
      <trkpt lat="47.97028" lon="6.98894">
        <ele>1175</ele>
        <time>2019-04-14T09:32:54Z</time>
      </trkpt>
      <trkpt lat="47.97033" lon="6.98891">
        <ele>1175</ele>
        <time>2019-04-14T09:33:54Z</time>
      </trkpt>
      <trkpt lat="47.97041" lon="6.98887">
        <ele>1175</ele>
        <time>2019-04-14T09:34:54Z</time>
      </trkpt>
      <trkpt lat="47.9705" lon="6.98882">
        <ele>1175</ele>
        <time>2019-04-14T09:35:54Z</time>
      </trkpt>
      <trkpt lat="47.97058" lon="6.98879">
        <ele>1175</ele>
        <time>2019-04-14T09:36:54Z</time>
      </trkpt>
      <trkpt lat="47.97068" lon="6.98876">
        <ele>1175</ele>
        <time>2019-04-14T09:37:54Z</time>
      </trkpt>
      <trkpt lat="47.97075" lon="6.98874">
        <ele>1176</ele>
        <time>2019-04-14T09:38:54Z</time>
      </trkpt>
      <trkpt lat="47.97087" lon="6.98871">
        <ele>1176</ele>
        <time>2019-04-14T09:39:54Z</time>
      </trkpt>
      <trkpt lat="47.97096" lon="6.98869">
        <ele>1176</ele>
        <time>2019-04-14T09:40:54Z</time>
      </trkpt>
      <trkpt lat="47.97106" lon="6.98869">
        <ele>1177</ele>
        <time>2019-04-14T09:41:54Z</time>
      </trkpt>
      <trkpt lat="47.97114" lon="6.98868">
        <ele>1177</ele>
        <time>2019-04-14T09:42:54Z</time>
      </trkpt>
      <trkpt lat="47.97124" lon="6.98867">
        <ele>1178</ele>
        <time>2019-04-14T09:43:54Z</time>
      </trkpt>
      <trkpt lat="47.97134" lon="6.98867">
        <ele>1178</ele>
        <time>2019-04-14T09:44:54Z</time>
      </trkpt>
      <trkpt lat="47.97139" lon="6.98866">
        <ele>1178</ele>
        <time>2019-04-14T09:45:54Z</time>
      </trkpt>
      <trkpt lat="47.97144" lon="6.98865">
        <ele>1178</ele>
        <time>2019-04-14T09:46:54Z</time>
      </trkpt>
      <trkpt lat="47.97152" lon="6.98863">
        <ele>1178</ele>
        <time>2019-04-14T09:47:54Z</time>
      </trkpt>
      <trkpt lat="47.97161" lon="6.98861">
        <ele>1178</ele>
        <time>2019-04-14T09:48:54Z</time>
      </trkpt>
      <trkpt lat="47.97166" lon="6.98858">
        <ele>1178</ele>
        <time>2019-04-14T09:49:54Z</time>
      </trkpt>
      <trkpt lat="47.97172" lon="6.98856">
        <ele>1178</ele>
        <time>2019-04-14T09:50:54Z</time>
      </trkpt>
      <trkpt lat="47.9718" lon="6.98852">
        <ele>1178</ele>
        <time>2019-04-14T09:51:54Z</time>
      </trkpt>
      <trkpt lat="47.97194" lon="6.98845">
        <ele>1178</ele>
        <time>2019-04-14T09:52:54Z</time>
      </trkpt>
      <trkpt lat="47.97227" lon="6.98829">
        <ele>1178</ele>
        <time>2019-04-14T09:53:54Z</time>
      </trkpt>
      <trkpt lat="47.97244" lon="6.98822">
        <ele>1179</ele>
        <time>2019-04-14T09:54:54Z</time>
      </trkpt>
      <trkpt lat="47.97256" lon="6.98817">
        <ele>1179</ele>
        <time>2019-04-14T09:55:54Z</time>
      </trkpt>
      <trkpt lat="47.97262" lon="6.98814">
        <ele>1180</ele>
        <time>2019-04-14T09:56:54Z</time>
      </trkpt>
      <trkpt lat="47.97274" lon="6.9881">
        <ele>1181</ele>
        <time>2019-04-14T09:57:54Z</time>
      </trkpt>
      <trkpt lat="47.97293" lon="6.98802">
        <ele>1182</ele>
        <time>2019-04-14T09:58:54Z</time>
      </trkpt>
      <trkpt lat="47.9732" lon="6.9879">
        <ele>1183</ele>
        <time>2019-04-14T09:59:54Z</time>
      </trkpt>
      <trkpt lat="47.97328" lon="6.98786">
        <ele>1183</ele>
        <time>2019-04-14T10:00:54Z</time>
      </trkpt>
      <trkpt lat="47.97339" lon="6.9878">
        <ele>1184</ele>
        <time>2019-04-14T10:01:54Z</time>
      </trkpt>
      <trkpt lat="47.97347" lon="6.98775">
        <ele>1185</ele>
        <time>2019-04-14T10:02:54Z</time>
      </trkpt>
      <trkpt lat="47.97353" lon="6.9877">
        <ele>1185</ele>
        <time>2019-04-14T10:03:54Z</time>
      </trkpt>
      <trkpt lat="47.97359" lon="6.98764">
        <ele>1185</ele>
        <time>2019-04-14T10:04:54Z</time>
      </trkpt>
      <trkpt lat="47.97363" lon="6.9876">
        <ele>1185</ele>
        <time>2019-04-14T10:05:54Z</time>
      </trkpt>
      <trkpt lat="47.97369" lon="6.98753">
        <ele>1184</ele>
        <time>2019-04-14T10:06:54Z</time>
      </trkpt>
      <trkpt lat="47.97374" lon="6.98747">
        <ele>1184</ele>
        <time>2019-04-14T10:07:54Z</time>
      </trkpt>
      <trkpt lat="47.97379" lon="6.98741">
        <ele>1184</ele>
        <time>2019-04-14T10:08:54Z</time>
      </trkpt>
      <trkpt lat="47.97395" lon="6.98721">
        <ele>1183</ele>
        <time>2019-04-14T10:09:54Z</time>
      </trkpt>
      <trkpt lat="47.97404" lon="6.98709">
        <ele>1183</ele>
        <time>2019-04-14T10:10:54Z</time>
      </trkpt>
      <trkpt lat="47.97415" lon="6.98697">
        <ele>1183</ele>
        <time>2019-04-14T10:11:54Z</time>
      </trkpt>
      <trkpt lat="47.97443" lon="6.98667">
        <ele>1183</ele>
        <time>2019-04-14T10:12:54Z</time>
      </trkpt>
      <trkpt lat="47.97451" lon="6.98658">
        <ele>1183</ele>
        <time>2019-04-14T10:13:54Z</time>
      </trkpt>
      <trkpt lat="47.97464" lon="6.98644">
        <ele>1183</ele>
        <time>2019-04-14T10:14:54Z</time>
      </trkpt>
      <trkpt lat="47.97476" lon="6.98629">
        <ele>1183</ele>
        <time>2019-04-14T10:15:54Z</time>
      </trkpt>
      <trkpt lat="47.97495" lon="6.98604">
        <ele>1183</ele>
        <time>2019-04-14T10:16:54Z</time>
      </trkpt>
      <trkpt lat="47.97506" lon="6.98591">
        <ele>1183</ele>
        <time>2019-04-14T10:17:54Z</time>
      </trkpt>
      <trkpt lat="47.97515" lon="6.98579">
        <ele>1182</ele>
        <time>2019-04-14T10:18:54Z</time>
      </trkpt>
      <trkpt lat="47.97522" lon="6.98568">
        <ele>1182</ele>
        <time>2019-04-14T10:19:54Z</time>
      </trkpt>
      <trkpt lat="47.97536" lon="6.98546">
        <ele>1181</ele>
        <time>2019-04-14T10:20:54Z</time>
      </trkpt>
      <trkpt lat="47.97546" lon="6.98532">
        <ele>1180</ele>
        <time>2019-04-14T10:21:54Z</time>
      </trkpt>
      <trkpt lat="47.97554" lon="6.9852">
        <ele>1180</ele>
        <time>2019-04-14T10:22:54Z</time>
      </trkpt>
      <trkpt lat="47.97561" lon="6.98511">
        <ele>1180</ele>
        <time>2019-04-14T10:23:54Z</time>
      </trkpt>
      <trkpt lat="47.97566" lon="6.98504">
        <ele>1179</ele>
        <time>2019-04-14T10:24:54Z</time>
      </trkpt>
      <trkpt lat="47.97573" lon="6.98496">
        <ele>1179</ele>
        <time>2019-04-14T10:25:54Z</time>
      </trkpt>
      <trkpt lat="47.9758" lon="6.98488">
        <ele>1180</ele>
        <time>2019-04-14T10:26:54Z</time>
      </trkpt>
      <trkpt lat="47.97586" lon="6.98482">
        <ele>1180</ele>
        <time>2019-04-14T10:27:54Z</time>
      </trkpt>
      <trkpt lat="47.97592" lon="6.98476">
        <ele>1179</ele>
        <time>2019-04-14T10:28:54Z</time>
      </trkpt>
      <trkpt lat="47.976" lon="6.98468">
        <ele>1179</ele>
        <time>2019-04-14T10:29:54Z</time>
      </trkpt>
      <trkpt lat="47.97607" lon="6.98461">
        <ele>1179</ele>
        <time>2019-04-14T10:30:54Z</time>
      </trkpt>
      <trkpt lat="47.97612" lon="6.98458">
        <ele>1179</ele>
        <time>2019-04-14T10:31:54Z</time>
      </trkpt>
      <trkpt lat="47.97617" lon="6.98454">
        <ele>1179</ele>
        <time>2019-04-14T10:32:54Z</time>
      </trkpt>
      <trkpt lat="47.97621" lon="6.9845">
        <ele>1179</ele>
        <time>2019-04-14T10:33:54Z</time>
      </trkpt>
      <trkpt lat="47.97625" lon="6.98448">
        <ele>1179</ele>
        <time>2019-04-14T10:34:54Z</time>
      </trkpt>
      <trkpt lat="47.97632" lon="6.98444">
        <ele>1180</ele>
        <time>2019-04-14T10:35:54Z</time>
      </trkpt>
      <trkpt lat="47.97638" lon="6.98441">
        <ele>1180</ele>
        <time>2019-04-14T10:36:54Z</time>
      </trkpt>
      <trkpt lat="47.97649" lon="6.98436">
        <ele>1181</ele>
        <time>2019-04-14T10:37:54Z</time>
      </trkpt>
      <trkpt lat="47.97659" lon="6.98433">
        <ele>1182</ele>
        <time>2019-04-14T10:38:54Z</time>
      </trkpt>
      <trkpt lat="47.97667" lon="6.9843">
        <ele>1183</ele>
        <time>2019-04-14T10:39:54Z</time>
      </trkpt>
      <trkpt lat="47.97681" lon="6.98425">
        <ele>1183</ele>
        <time>2019-04-14T10:40:54Z</time>
      </trkpt>
      <trkpt lat="47.97691" lon="6.98422">
        <ele>1183</ele>
        <time>2019-04-14T10:41:54Z</time>
      </trkpt>
      <trkpt lat="47.97706" lon="6.98418">
        <ele>1183</ele>
        <time>2019-04-14T10:42:54Z</time>
      </trkpt>
      <trkpt lat="47.97724" lon="6.98414">
        <ele>1182</ele>
        <time>2019-04-14T10:43:54Z</time>
      </trkpt>
      <trkpt lat="47.97746" lon="6.98409">
        <ele>1182</ele>
        <time>2019-04-14T10:44:54Z</time>
      </trkpt>
      <trkpt lat="47.97756" lon="6.98406">
        <ele>1182</ele>
        <time>2019-04-14T10:45:54Z</time>
      </trkpt>
      <trkpt lat="47.97764" lon="6.98405">
        <ele>1181</ele>
        <time>2019-04-14T10:46:54Z</time>
      </trkpt>
      <trkpt lat="47.97772" lon="6.98404">
        <ele>1181</ele>
        <time>2019-04-14T10:47:54Z</time>
      </trkpt>
      <trkpt lat="47.9778" lon="6.98403">
        <ele>1181</ele>
        <time>2019-04-14T10:48:54Z</time>
      </trkpt>
      <trkpt lat="47.9779" lon="6.98402">
        <ele>1181</ele>
        <time>2019-04-14T10:49:54Z</time>
      </trkpt>
      <trkpt lat="47.97797" lon="6.98402">
        <ele>1181</ele>
        <time>2019-04-14T10:50:54Z</time>
      </trkpt>
      <trkpt lat="47.97808" lon="6.98402">
        <ele>1182</ele>
        <time>2019-04-14T10:51:54Z</time>
      </trkpt>
      <trkpt lat="47.97829" lon="6.98403">
        <ele>1182</ele>
        <time>2019-04-14T10:52:54Z</time>
      </trkpt>
      <trkpt lat="47.97853" lon="6.98405">
        <ele>1182</ele>
        <time>2019-04-14T10:53:54Z</time>
      </trkpt>
      <trkpt lat="47.97863" lon="6.98405">
        <ele>1181</ele>
        <time>2019-04-14T10:54:54Z</time>
      </trkpt>
      <trkpt lat="47.97871" lon="6.98404">
        <ele>1181</ele>
        <time>2019-04-14T10:55:54Z</time>
      </trkpt>
      <trkpt lat="47.97878" lon="6.98404">
        <ele>1181</ele>
        <time>2019-04-14T10:56:54Z</time>
      </trkpt>
      <trkpt lat="47.97889" lon="6.98403">
        <ele>1180</ele>
        <time>2019-04-14T10:57:54Z</time>
      </trkpt>
      <trkpt lat="47.97898" lon="6.98402">
        <ele>1180</ele>
        <time>2019-04-14T10:58:54Z</time>
      </trkpt>
      <trkpt lat="47.97904" lon="6.98401">
        <ele>1179</ele>
        <time>2019-04-14T10:59:54Z</time>
      </trkpt>
      <trkpt lat="47.97912" lon="6.98399">
        <ele>1179</ele>
        <time>2019-04-14T11:00:54Z</time>
      </trkpt>
      <trkpt lat="47.97924" lon="6.98395">
        <ele>1179</ele>
        <time>2019-04-14T11:01:54Z</time>
      </trkpt>
      <trkpt lat="47.97938" lon="6.98389">
        <ele>1180</ele>
        <time>2019-04-14T11:02:54Z</time>
      </trkpt>
      <trkpt lat="47.97946" lon="6.98385">
        <ele>1181</ele>
        <time>2019-04-14T11:03:54Z</time>
      </trkpt>
      <trkpt lat="47.97965" lon="6.98375">
        <ele>1182</ele>
        <time>2019-04-14T11:04:54Z</time>
      </trkpt>
      <trkpt lat="47.9797" lon="6.98372">
        <ele>1182</ele>
        <time>2019-04-14T11:05:54Z</time>
      </trkpt>
      <trkpt lat="47.97978" lon="6.98368">
        <ele>1183</ele>
        <time>2019-04-14T11:06:54Z</time>
      </trkpt>
      <trkpt lat="47.9799" lon="6.98361">
        <ele>1184</ele>
        <time>2019-04-14T11:07:54Z</time>
      </trkpt>
      <trkpt lat="47.98001" lon="6.98354">
        <ele>1185</ele>
        <time>2019-04-14T11:08:54Z</time>
      </trkpt>
      <trkpt lat="47.98008" lon="6.98349">
        <ele>1186</ele>
        <time>2019-04-14T11:09:54Z</time>
      </trkpt>
      <trkpt lat="47.98017" lon="6.98343">
        <ele>1187</ele>
        <time>2019-04-14T11:10:54Z</time>
      </trkpt>
      <trkpt lat="47.98023" lon="6.98338">
        <ele>1188</ele>
        <time>2019-04-14T11:11:54Z</time>
      </trkpt>
      <trkpt lat="47.98033" lon="6.9833">
        <ele>1188</ele>
        <time>2019-04-14T11:12:54Z</time>
      </trkpt>
      <trkpt lat="47.98042" lon="6.98321">
        <ele>1188</ele>
        <time>2019-04-14T11:13:54Z</time>
      </trkpt>
      <trkpt lat="47.98055" lon="6.98309">
        <ele>1189</ele>
        <time>2019-04-14T11:14:54Z</time>
      </trkpt>
      <trkpt lat="47.98064" lon="6.98301">
        <ele>1189</ele>
        <time>2019-04-14T11:15:54Z</time>
      </trkpt>
      <trkpt lat="47.98074" lon="6.98292">
        <ele>1189</ele>
        <time>2019-04-14T11:16:54Z</time>
      </trkpt>
      <trkpt lat="47.98081" lon="6.98288">
        <ele>1190</ele>
        <time>2019-04-14T11:17:54Z</time>
      </trkpt>
      <trkpt lat="47.98088" lon="6.98283">
        <ele>1190</ele>
        <time>2019-04-14T11:18:54Z</time>
      </trkpt>
      <trkpt lat="47.98092" lon="6.98281">
        <ele>1191</ele>
        <time>2019-04-14T11:19:54Z</time>
      </trkpt>
      <trkpt lat="47.98096" lon="6.98279">
        <ele>1191</ele>
        <time>2019-04-14T11:20:54Z</time>
      </trkpt>
      <trkpt lat="47.98103" lon="6.98276">
        <ele>1191</ele>
        <time>2019-04-14T11:21:54Z</time>
      </trkpt>
      <trkpt lat="47.9811" lon="6.98274">
        <ele>1192</ele>
        <time>2019-04-14T11:22:54Z</time>
      </trkpt>
      <trkpt lat="47.98119" lon="6.98271">
        <ele>1193</ele>
        <time>2019-04-14T11:23:54Z</time>
      </trkpt>
      <trkpt lat="47.98127" lon="6.98268">
        <ele>1193</ele>
        <time>2019-04-14T11:24:54Z</time>
      </trkpt>
      <trkpt lat="47.98139" lon="6.98265">
        <ele>1194</ele>
        <time>2019-04-14T11:25:54Z</time>
      </trkpt>
      <trkpt lat="47.98149" lon="6.98263">
        <ele>1195</ele>
        <time>2019-04-14T11:26:54Z</time>
      </trkpt>
      <trkpt lat="47.98171" lon="6.98259">
        <ele>1197</ele>
        <time>2019-04-14T11:27:54Z</time>
      </trkpt>
      <trkpt lat="47.98183" lon="6.98257">
        <ele>1199</ele>
        <time>2019-04-14T11:28:54Z</time>
      </trkpt>
      <trkpt lat="47.98192" lon="6.98256">
        <ele>1200</ele>
        <time>2019-04-14T11:29:54Z</time>
      </trkpt>
      <trkpt lat="47.98197" lon="6.98254">
        <ele>1201</ele>
        <time>2019-04-14T11:30:54Z</time>
      </trkpt>
      <trkpt lat="47.98206" lon="6.98253">
        <ele>1202</ele>
        <time>2019-04-14T11:31:54Z</time>
      </trkpt>
      <trkpt lat="47.98211" lon="6.98251">
        <ele>1202</ele>
        <time>2019-04-14T11:32:54Z</time>
      </trkpt>
      <trkpt lat="47.98215" lon="6.9825">
        <ele>1203</ele>
        <time>2019-04-14T11:33:54Z</time>
      </trkpt>
      <trkpt lat="47.98218" lon="6.98249">
        <ele>1203</ele>
        <time>2019-04-14T11:34:54Z</time>
      </trkpt>
      <trkpt lat="47.98224" lon="6.98246">
        <ele>1204</ele>
        <time>2019-04-14T11:35:54Z</time>
      </trkpt>
      <trkpt lat="47.98229" lon="6.98244">
        <ele>1204</ele>
        <time>2019-04-14T11:36:54Z</time>
      </trkpt>
      <trkpt lat="47.98239" lon="6.98237">
        <ele>1205</ele>
        <time>2019-04-14T11:37:54Z</time>
      </trkpt>
      <trkpt lat="47.98246" lon="6.98231">
        <ele>1205</ele>
        <time>2019-04-14T11:38:54Z</time>
      </trkpt>
      <trkpt lat="47.98253" lon="6.98224">
        <ele>1205</ele>
        <time>2019-04-14T11:39:54Z</time>
      </trkpt>
      <trkpt lat="47.9826" lon="6.98218">
        <ele>1206</ele>
        <time>2019-04-14T11:40:54Z</time>
      </trkpt>
      <trkpt lat="47.9827" lon="6.98208">
        <ele>1206</ele>
        <time>2019-04-14T11:41:54Z</time>
      </trkpt>
      <trkpt lat="47.98302" lon="6.98175">
        <ele>1208</ele>
        <time>2019-04-14T11:42:54Z</time>
      </trkpt>
      <trkpt lat="47.98316" lon="6.98163">
        <ele>1209</ele>
        <time>2019-04-14T11:43:54Z</time>
      </trkpt>
      <trkpt lat="47.98323" lon="6.98157">
        <ele>1210</ele>
        <time>2019-04-14T11:44:54Z</time>
      </trkpt>
      <trkpt lat="47.98331" lon="6.9815">
        <ele>1210</ele>
        <time>2019-04-14T11:45:54Z</time>
      </trkpt>
      <trkpt lat="47.98342" lon="6.98142">
        <ele>1210</ele>
        <time>2019-04-14T11:46:54Z</time>
      </trkpt>
      <trkpt lat="47.98353" lon="6.98134">
        <ele>1209</ele>
        <time>2019-04-14T11:47:54Z</time>
      </trkpt>
      <trkpt lat="47.98358" lon="6.98129">
        <ele>1209</ele>
        <time>2019-04-14T11:48:54Z</time>
      </trkpt>
      <trkpt lat="47.98363" lon="6.98124">
        <ele>1209</ele>
        <time>2019-04-14T11:49:54Z</time>
      </trkpt>
      <trkpt lat="47.98373" lon="6.98115">
        <ele>1208</ele>
        <time>2019-04-14T11:50:54Z</time>
      </trkpt>
      <trkpt lat="47.98387" lon="6.981">
        <ele>1208</ele>
        <time>2019-04-14T11:51:54Z</time>
      </trkpt>
      <trkpt lat="47.98403" lon="6.98084">
        <ele>1209</ele>
        <time>2019-04-14T11:52:54Z</time>
      </trkpt>
      <trkpt lat="47.98417" lon="6.98069">
        <ele>1210</ele>
        <time>2019-04-14T11:53:54Z</time>
      </trkpt>
      <trkpt lat="47.98427" lon="6.98058">
        <ele>1210</ele>
        <time>2019-04-14T11:54:54Z</time>
      </trkpt>
      <trkpt lat="47.98438" lon="6.98043">
        <ele>1211</ele>
        <time>2019-04-14T11:55:54Z</time>
      </trkpt>
      <trkpt lat="47.98448" lon="6.9803">
        <ele>1211</ele>
        <time>2019-04-14T11:56:54Z</time>
      </trkpt>
      <trkpt lat="47.9846" lon="6.98015">
        <ele>1212</ele>
        <time>2019-04-14T11:57:54Z</time>
      </trkpt>
      <trkpt lat="47.98471" lon="6.98001">
        <ele>1214</ele>
        <time>2019-04-14T11:58:54Z</time>
      </trkpt>
      <trkpt lat="47.98477" lon="6.97994">
        <ele>1214</ele>
        <time>2019-04-14T11:59:54Z</time>
      </trkpt>
      <trkpt lat="47.98482" lon="6.97989">
        <ele>1214</ele>
        <time>2019-04-14T12:00:54Z</time>
      </trkpt>
      <trkpt lat="47.98487" lon="6.97983">
        <ele>1215</ele>
        <time>2019-04-14T12:01:54Z</time>
      </trkpt>
      <trkpt lat="47.98492" lon="6.97979">
        <ele>1215</ele>
        <time>2019-04-14T12:02:54Z</time>
      </trkpt>
      <trkpt lat="47.98498" lon="6.97973">
        <ele>1216</ele>
        <time>2019-04-14T12:03:54Z</time>
      </trkpt>
      <trkpt lat="47.98505" lon="6.97968">
        <ele>1216</ele>
        <time>2019-04-14T12:04:54Z</time>
      </trkpt>
      <trkpt lat="47.98513" lon="6.97963">
        <ele>1216</ele>
        <time>2019-04-14T12:05:54Z</time>
      </trkpt>
      <trkpt lat="47.98517" lon="6.9796">
        <ele>1216</ele>
        <time>2019-04-14T12:06:54Z</time>
      </trkpt>
      <trkpt lat="47.98522" lon="6.97957">
        <ele>1216</ele>
        <time>2019-04-14T12:07:54Z</time>
      </trkpt>
      <trkpt lat="47.98527" lon="6.97955">
        <ele>1217</ele>
        <time>2019-04-14T12:08:54Z</time>
      </trkpt>
      <trkpt lat="47.98534" lon="6.97952">
        <ele>1217</ele>
        <time>2019-04-14T12:09:54Z</time>
      </trkpt>
      <trkpt lat="47.9854" lon="6.97951">
        <ele>1217</ele>
        <time>2019-04-14T12:10:54Z</time>
      </trkpt>
      <trkpt lat="47.98546" lon="6.97949">
        <ele>1218</ele>
        <time>2019-04-14T12:11:54Z</time>
      </trkpt>
      <trkpt lat="47.98552" lon="6.97948">
        <ele>1218</ele>
        <time>2019-04-14T12:12:54Z</time>
      </trkpt>
      <trkpt lat="47.9856" lon="6.97947">
        <ele>1218</ele>
        <time>2019-04-14T12:13:54Z</time>
      </trkpt>
      <trkpt lat="47.98566" lon="6.97946">
        <ele>1219</ele>
        <time>2019-04-14T12:14:54Z</time>
      </trkpt>
      <trkpt lat="47.98574" lon="6.97946">
        <ele>1219</ele>
        <time>2019-04-14T12:15:54Z</time>
      </trkpt>
      <trkpt lat="47.98586" lon="6.97945">
        <ele>1220</ele>
        <time>2019-04-14T12:16:54Z</time>
      </trkpt>
      <trkpt lat="47.98596" lon="6.97943">
        <ele>1220</ele>
        <time>2019-04-14T12:17:54Z</time>
      </trkpt>
      <trkpt lat="47.98606" lon="6.97941">
        <ele>1221</ele>
        <time>2019-04-14T12:18:54Z</time>
      </trkpt>
      <trkpt lat="47.98614" lon="6.97939">
        <ele>1221</ele>
        <time>2019-04-14T12:19:54Z</time>
      </trkpt>
      <trkpt lat="47.98619" lon="6.97938">
        <ele>1221</ele>
        <time>2019-04-14T12:20:54Z</time>
      </trkpt>
      <trkpt lat="47.98627" lon="6.97935">
        <ele>1222</ele>
        <time>2019-04-14T12:21:54Z</time>
      </trkpt>
      <trkpt lat="47.98642" lon="6.97929">
        <ele>1222</ele>
        <time>2019-04-14T12:22:54Z</time>
      </trkpt>
      <trkpt lat="47.98653" lon="6.97925">
        <ele>1222</ele>
        <time>2019-04-14T12:23:54Z</time>
      </trkpt>
      <trkpt lat="47.98687" lon="6.97913">
        <ele>1222</ele>
        <time>2019-04-14T12:24:54Z</time>
      </trkpt>
      <trkpt lat="47.98731" lon="6.97899">
        <ele>1222</ele>
        <time>2019-04-14T12:25:54Z</time>
      </trkpt>
      <trkpt lat="47.98742" lon="6.97896">
        <ele>1222</ele>
        <time>2019-04-14T12:26:54Z</time>
      </trkpt>
      <trkpt lat="47.98753" lon="6.97893">
        <ele>1221</ele>
        <time>2019-04-14T12:27:54Z</time>
      </trkpt>
      <trkpt lat="47.98764" lon="6.9789">
        <ele>1221</ele>
        <time>2019-04-14T12:28:54Z</time>
      </trkpt>
      <trkpt lat="47.98778" lon="6.97888">
        <ele>1220</ele>
        <time>2019-04-14T12:29:54Z</time>
      </trkpt>
      <trkpt lat="47.98799" lon="6.97885">
        <ele>1219</ele>
        <time>2019-04-14T12:30:54Z</time>
      </trkpt>
      <trkpt lat="47.98818" lon="6.97882">
        <ele>1218</ele>
        <time>2019-04-14T12:31:54Z</time>
      </trkpt>
      <trkpt lat="47.98828" lon="6.97881">
        <ele>1218</ele>
        <time>2019-04-14T12:32:54Z</time>
      </trkpt>
      <trkpt lat="47.98834" lon="6.9788">
        <ele>1217</ele>
        <time>2019-04-14T12:33:54Z</time>
      </trkpt>
      <trkpt lat="47.9884" lon="6.97879">
        <ele>1216</ele>
        <time>2019-04-14T12:34:54Z</time>
      </trkpt>
      <trkpt lat="47.98843" lon="6.97879">
        <ele>1216</ele>
        <time>2019-04-14T12:35:54Z</time>
      </trkpt>
      <trkpt lat="47.98847" lon="6.9788">
        <ele>1216</ele>
        <time>2019-04-14T12:36:54Z</time>
      </trkpt>
      <trkpt lat="47.9885" lon="6.97881">
        <ele>1216</ele>
        <time>2019-04-14T12:37:54Z</time>
      </trkpt>
      <trkpt lat="47.98853" lon="6.97882">
        <ele>1216</ele>
        <time>2019-04-14T12:38:54Z</time>
      </trkpt>
      <trkpt lat="47.98857" lon="6.97884">
        <ele>1216</ele>
        <time>2019-04-14T12:39:54Z</time>
      </trkpt>
      <trkpt lat="47.98861" lon="6.97886">
        <ele>1217</ele>
        <time>2019-04-14T12:40:54Z</time>
      </trkpt>
      <trkpt lat="47.98875" lon="6.97895">
        <ele>1218</ele>
        <time>2019-04-14T12:41:54Z</time>
      </trkpt>
      <trkpt lat="47.98884" lon="6.97901">
        <ele>1219</ele>
        <time>2019-04-14T12:42:54Z</time>
      </trkpt>
      <trkpt lat="47.98888" lon="6.97904">
        <ele>1219</ele>
        <time>2019-04-14T12:43:54Z</time>
      </trkpt>
      <trkpt lat="47.98892" lon="6.97906">
        <ele>1220</ele>
        <time>2019-04-14T12:44:54Z</time>
      </trkpt>
      <trkpt lat="47.98897" lon="6.97908">
        <ele>1220</ele>
        <time>2019-04-14T12:45:54Z</time>
      </trkpt>
      <trkpt lat="47.98902" lon="6.9791">
        <ele>1220</ele>
        <time>2019-04-14T12:46:54Z</time>
      </trkpt>
      <trkpt lat="47.98907" lon="6.97911">
        <ele>1220</ele>
        <time>2019-04-14T12:47:54Z</time>
      </trkpt>
      <trkpt lat="47.98916" lon="6.97912">
        <ele>1220</ele>
        <time>2019-04-14T12:48:54Z</time>
      </trkpt>
      <trkpt lat="47.9893" lon="6.97914">
        <ele>1219</ele>
        <time>2019-04-14T12:49:54Z</time>
      </trkpt>
      <trkpt lat="47.98942" lon="6.97916">
        <ele>1219</ele>
        <time>2019-04-14T12:50:54Z</time>
      </trkpt>
      <trkpt lat="47.98953" lon="6.97918">
        <ele>1219</ele>
        <time>2019-04-14T12:51:54Z</time>
      </trkpt>
      <trkpt lat="47.98965" lon="6.9792">
        <ele>1218</ele>
        <time>2019-04-14T12:52:54Z</time>
      </trkpt>
      <trkpt lat="47.98999" lon="6.97929">
        <ele>1218</ele>
        <time>2019-04-14T12:53:54Z</time>
      </trkpt>
      <trkpt lat="47.99012" lon="6.97932">
        <ele>1220</ele>
        <time>2019-04-14T12:54:54Z</time>
      </trkpt>
      <trkpt lat="47.99023" lon="6.97934">
        <ele>1221</ele>
        <time>2019-04-14T12:55:54Z</time>
      </trkpt>
      <trkpt lat="47.9903" lon="6.97935">
        <ele>1221</ele>
        <time>2019-04-14T12:56:54Z</time>
      </trkpt>
      <trkpt lat="47.99036" lon="6.97935">
        <ele>1222</ele>
        <time>2019-04-14T12:57:54Z</time>
      </trkpt>
      <trkpt lat="47.99042" lon="6.97935">
        <ele>1222</ele>
        <time>2019-04-14T12:58:54Z</time>
      </trkpt>
      <trkpt lat="47.99048" lon="6.97934">
        <ele>1222</ele>
        <time>2019-04-14T12:59:54Z</time>
      </trkpt>
      <trkpt lat="47.9906" lon="6.97932">
        <ele>1222</ele>
        <time>2019-04-14T13:00:54Z</time>
      </trkpt>
      <trkpt lat="47.9907" lon="6.97929">
        <ele>1222</ele>
        <time>2019-04-14T13:01:54Z</time>
      </trkpt>
      <trkpt lat="47.99082" lon="6.97926">
        <ele>1222</ele>
        <time>2019-04-14T13:02:54Z</time>
      </trkpt>
      <trkpt lat="47.99093" lon="6.97922">
        <ele>1223</ele>
        <time>2019-04-14T13:03:54Z</time>
      </trkpt>
      <trkpt lat="47.991" lon="6.97919">
        <ele>1223</ele>
        <time>2019-04-14T13:04:54Z</time>
      </trkpt>
      <trkpt lat="47.99107" lon="6.97916">
        <ele>1224</ele>
        <time>2019-04-14T13:05:54Z</time>
      </trkpt>
      <trkpt lat="47.99115" lon="6.97912">
        <ele>1224</ele>
        <time>2019-04-14T13:06:54Z</time>
      </trkpt>
      <trkpt lat="47.99125" lon="6.97907">
        <ele>1224</ele>
        <time>2019-04-14T13:07:54Z</time>
      </trkpt>
      <trkpt lat="47.99138" lon="6.979">
        <ele>1225</ele>
        <time>2019-04-14T13:08:54Z</time>
      </trkpt>
      <trkpt lat="47.99158" lon="6.97888">
        <ele>1225</ele>
        <time>2019-04-14T13:09:54Z</time>
      </trkpt>
      <trkpt lat="47.99202" lon="6.97862">
        <ele>1225</ele>
        <time>2019-04-14T13:10:54Z</time>
      </trkpt>
      <trkpt lat="47.99213" lon="6.97856">
        <ele>1225</ele>
        <time>2019-04-14T13:11:54Z</time>
      </trkpt>
      <trkpt lat="47.99223" lon="6.9785">
        <ele>1225</ele>
        <time>2019-04-14T13:12:54Z</time>
      </trkpt>
      <trkpt lat="47.99234" lon="6.97845">
        <ele>1225</ele>
        <time>2019-04-14T13:13:54Z</time>
      </trkpt>
      <trkpt lat="47.99245" lon="6.9784">
        <ele>1225</ele>
        <time>2019-04-14T13:14:54Z</time>
      </trkpt>
      <trkpt lat="47.99256" lon="6.97836">
        <ele>1226</ele>
        <time>2019-04-14T13:15:54Z</time>
      </trkpt>
      <trkpt lat="47.99268" lon="6.97832">
        <ele>1226</ele>
        <time>2019-04-14T13:16:54Z</time>
      </trkpt>
      <trkpt lat="47.9928" lon="6.97829">
        <ele>1227</ele>
        <time>2019-04-14T13:17:54Z</time>
      </trkpt>
      <trkpt lat="47.99334" lon="6.97813">
        <ele>1228</ele>
        <time>2019-04-14T13:18:54Z</time>
      </trkpt>
      <trkpt lat="47.99348" lon="6.97808">
        <ele>1227</ele>
        <time>2019-04-14T13:19:54Z</time>
      </trkpt>
      <trkpt lat="47.99369" lon="6.97801">
        <ele>1226</ele>
        <time>2019-04-14T13:20:54Z</time>
      </trkpt>
      <trkpt lat="47.9938" lon="6.97798">
        <ele>1226</ele>
        <time>2019-04-14T13:21:54Z</time>
      </trkpt>
      <trkpt lat="47.99391" lon="6.97796">
        <ele>1226</ele>
        <time>2019-04-14T13:22:54Z</time>
      </trkpt>
      <trkpt lat="47.99403" lon="6.97795">
        <ele>1226</ele>
        <time>2019-04-14T13:23:54Z</time>
      </trkpt>
      <trkpt lat="47.99414" lon="6.97794">
        <ele>1227</ele>
        <time>2019-04-14T13:24:54Z</time>
      </trkpt>
      <trkpt lat="47.99427" lon="6.97793">
        <ele>1227</ele>
        <time>2019-04-14T13:25:54Z</time>
      </trkpt>
      <trkpt lat="47.99458" lon="6.97789">
        <ele>1227</ele>
        <time>2019-04-14T13:26:54Z</time>
      </trkpt>
      <trkpt lat="47.99475" lon="6.97787">
        <ele>1226</ele>
        <time>2019-04-14T13:27:54Z</time>
      </trkpt>
      <trkpt lat="47.99488" lon="6.97787">
        <ele>1227</ele>
        <time>2019-04-14T13:28:54Z</time>
      </trkpt>
      <trkpt lat="47.99498" lon="6.97787">
        <ele>1227</ele>
        <time>2019-04-14T13:29:54Z</time>
      </trkpt>
      <trkpt lat="47.99513" lon="6.97788">
        <ele>1228</ele>
        <time>2019-04-14T13:30:54Z</time>
      </trkpt>
      <trkpt lat="47.99522" lon="6.97789">
        <ele>1229</ele>
        <time>2019-04-14T13:31:54Z</time>
      </trkpt>
      <trkpt lat="47.99543" lon="6.97791">
        <ele>1230</ele>
        <time>2019-04-14T13:32:54Z</time>
      </trkpt>
      <trkpt lat="47.99565" lon="6.97794">
        <ele>1231</ele>
        <time>2019-04-14T13:33:54Z</time>
      </trkpt>
      <trkpt lat="47.99577" lon="6.97795">
        <ele>1232</ele>
        <time>2019-04-14T13:34:54Z</time>
      </trkpt>
      <trkpt lat="47.99591" lon="6.97797">
        <ele>1233</ele>
        <time>2019-04-14T13:35:54Z</time>
      </trkpt>
      <trkpt lat="47.99602" lon="6.97797">
        <ele>1232</ele>
        <time>2019-04-14T13:36:54Z</time>
      </trkpt>
      <trkpt lat="47.99608" lon="6.97797">
        <ele>1232</ele>
        <time>2019-04-14T13:37:54Z</time>
      </trkpt>
      <trkpt lat="47.99614" lon="6.97797">
        <ele>1232</ele>
        <time>2019-04-14T13:38:54Z</time>
      </trkpt>
      <trkpt lat="47.99625" lon="6.97796">
        <ele>1231</ele>
        <time>2019-04-14T13:39:54Z</time>
      </trkpt>
      <trkpt lat="47.99637" lon="6.97794">
        <ele>1230</ele>
        <time>2019-04-14T13:40:54Z</time>
      </trkpt>
      <trkpt lat="47.99646" lon="6.97792">
        <ele>1229</ele>
        <time>2019-04-14T13:41:54Z</time>
      </trkpt>
      <trkpt lat="47.99653" lon="6.97791">
        <ele>1229</ele>
        <time>2019-04-14T13:42:54Z</time>
      </trkpt>
      <trkpt lat="47.9966" lon="6.97791">
        <ele>1228</ele>
        <time>2019-04-14T13:43:54Z</time>
      </trkpt>
      <trkpt lat="47.99682" lon="6.97793">
        <ele>1231</ele>
        <time>2019-04-14T13:44:54Z</time>
      </trkpt>
      <trkpt lat="47.99698" lon="6.97795">
        <ele>1233</ele>
        <time>2019-04-14T13:45:54Z</time>
      </trkpt>
      <trkpt lat="47.99705" lon="6.97795">
        <ele>1234</ele>
        <time>2019-04-14T13:46:54Z</time>
      </trkpt>
      <trkpt lat="47.99713" lon="6.97795">
        <ele>1235</ele>
        <time>2019-04-14T13:47:54Z</time>
      </trkpt>
      <trkpt lat="47.99721" lon="6.97794">
        <ele>1236</ele>
        <time>2019-04-14T13:48:54Z</time>
      </trkpt>
      <trkpt lat="47.9973" lon="6.97791">
        <ele>1235</ele>
        <time>2019-04-14T13:49:54Z</time>
      </trkpt>
      <trkpt lat="47.9974" lon="6.97788">
        <ele>1236</ele>
        <time>2019-04-14T13:50:54Z</time>
      </trkpt>
      <trkpt lat="47.99749" lon="6.97785">
        <ele>1236</ele>
        <time>2019-04-14T13:51:54Z</time>
      </trkpt>
      <trkpt lat="47.99755" lon="6.97782">
        <ele>1236</ele>
        <time>2019-04-14T13:52:54Z</time>
      </trkpt>
      <trkpt lat="47.99761" lon="6.97779">
        <ele>1237</ele>
        <time>2019-04-14T13:53:54Z</time>
      </trkpt>
      <trkpt lat="47.99765" lon="6.97777">
        <ele>1237</ele>
        <time>2019-04-14T13:54:54Z</time>
      </trkpt>
      <trkpt lat="47.99769" lon="6.97775">
        <ele>1238</ele>
        <time>2019-04-14T13:55:54Z</time>
      </trkpt>
      <trkpt lat="47.99774" lon="6.9777">
        <ele>1238</ele>
        <time>2019-04-14T13:56:54Z</time>
      </trkpt>
      <trkpt lat="47.99778" lon="6.97766">
        <ele>1238</ele>
        <time>2019-04-14T13:57:54Z</time>
      </trkpt>
      <trkpt lat="47.99781" lon="6.97762">
        <ele>1238</ele>
        <time>2019-04-14T13:58:54Z</time>
      </trkpt>
      <trkpt lat="47.99786" lon="6.97754">
        <ele>1237</ele>
        <time>2019-04-14T13:59:54Z</time>
      </trkpt>
      <trkpt lat="47.9979" lon="6.97746">
        <ele>1236</ele>
        <time>2019-04-14T14:00:54Z</time>
      </trkpt>
      <trkpt lat="47.99799" lon="6.9773">
        <ele>1235</ele>
        <time>2019-04-14T14:01:54Z</time>
      </trkpt>
      <trkpt lat="47.99808" lon="6.97712">
        <ele>1233</ele>
        <time>2019-04-14T14:02:54Z</time>
      </trkpt>
      <trkpt lat="47.99823" lon="6.97685">
        <ele>1232</ele>
        <time>2019-04-14T14:03:54Z</time>
      </trkpt>
      <trkpt lat="47.99829" lon="6.97674">
        <ele>1231</ele>
        <time>2019-04-14T14:04:54Z</time>
      </trkpt>
      <trkpt lat="47.99835" lon="6.97661">
        <ele>1230</ele>
        <time>2019-04-14T14:05:54Z</time>
      </trkpt>
      <trkpt lat="47.99844" lon="6.97638">
        <ele>1228</ele>
        <time>2019-04-14T14:06:54Z</time>
      </trkpt>
      <trkpt lat="47.99849" lon="6.97626">
        <ele>1227</ele>
        <time>2019-04-14T14:07:54Z</time>
      </trkpt>
      <trkpt lat="47.99853" lon="6.97617">
        <ele>1226</ele>
        <time>2019-04-14T14:08:54Z</time>
      </trkpt>
      <trkpt lat="47.99856" lon="6.97611">
        <ele>1225</ele>
        <time>2019-04-14T14:09:54Z</time>
      </trkpt>
      <trkpt lat="47.9986" lon="6.97606">
        <ele>1225</ele>
        <time>2019-04-14T14:10:54Z</time>
      </trkpt>
      <trkpt lat="47.99863" lon="6.97602">
        <ele>1225</ele>
        <time>2019-04-14T14:11:54Z</time>
      </trkpt>
      <trkpt lat="47.99867" lon="6.97597">
        <ele>1225</ele>
        <time>2019-04-14T14:12:54Z</time>
      </trkpt>
      <trkpt lat="47.99872" lon="6.97592">
        <ele>1224</ele>
        <time>2019-04-14T14:13:54Z</time>
      </trkpt>
      <trkpt lat="47.99877" lon="6.97588">
        <ele>1224</ele>
        <time>2019-04-14T14:14:54Z</time>
      </trkpt>
      <trkpt lat="47.99881" lon="6.97585">
        <ele>1224</ele>
        <time>2019-04-14T14:15:54Z</time>
      </trkpt>
      <trkpt lat="47.99886" lon="6.97583">
        <ele>1225</ele>
        <time>2019-04-14T14:16:54Z</time>
      </trkpt>
      <trkpt lat="47.99891" lon="6.97581">
        <ele>1225</ele>
        <time>2019-04-14T14:17:54Z</time>
      </trkpt>
      <trkpt lat="47.99897" lon="6.97579">
        <ele>1225</ele>
        <time>2019-04-14T14:18:54Z</time>
      </trkpt>
      <trkpt lat="47.99903" lon="6.97578">
        <ele>1226</ele>
        <time>2019-04-14T14:19:54Z</time>
      </trkpt>
      <trkpt lat="47.99919" lon="6.97575">
        <ele>1227</ele>
        <time>2019-04-14T14:20:54Z</time>
      </trkpt>
      <trkpt lat="47.99934" lon="6.97572">
        <ele>1225</ele>
        <time>2019-04-14T14:21:54Z</time>
      </trkpt>
      <trkpt lat="47.99951" lon="6.97569">
        <ele>1224</ele>
        <time>2019-04-14T14:22:54Z</time>
      </trkpt>
      <trkpt lat="47.9996" lon="6.97568">
        <ele>1223</ele>
        <time>2019-04-14T14:23:54Z</time>
      </trkpt>
      <trkpt lat="47.99966" lon="6.97568">
        <ele>1223</ele>
        <time>2019-04-14T14:24:54Z</time>
      </trkpt>
      <trkpt lat="47.99972" lon="6.97569">
        <ele>1223</ele>
        <time>2019-04-14T14:25:54Z</time>
      </trkpt>
      <trkpt lat="47.99978" lon="6.97571">
        <ele>1223</ele>
        <time>2019-04-14T14:26:54Z</time>
      </trkpt>
      <trkpt lat="47.99985" lon="6.97573">
        <ele>1224</ele>
        <time>2019-04-14T14:27:54Z</time>
      </trkpt>
      <trkpt lat="47.99991" lon="6.97577">
        <ele>1225</ele>
        <time>2019-04-14T14:28:54Z</time>
      </trkpt>
      <trkpt lat="48.00002" lon="6.97584">
        <ele>1226</ele>
        <time>2019-04-14T14:29:54Z</time>
      </trkpt>
      <trkpt lat="48.00016" lon="6.97594">
        <ele>1226</ele>
        <time>2019-04-14T14:30:54Z</time>
      </trkpt>
      <trkpt lat="48.00037" lon="6.9761">
        <ele>1228</ele>
        <time>2019-04-14T14:31:54Z</time>
      </trkpt>
      <trkpt lat="48.00044" lon="6.97614">
        <ele>1228</ele>
        <time>2019-04-14T14:32:54Z</time>
      </trkpt>
      <trkpt lat="48.00049" lon="6.97617">
        <ele>1228</ele>
        <time>2019-04-14T14:33:54Z</time>
      </trkpt>
      <trkpt lat="48.00058" lon="6.97621">
        <ele>1227</ele>
        <time>2019-04-14T14:34:54Z</time>
      </trkpt>
      <trkpt lat="48.00068" lon="6.97625">
        <ele>1227</ele>
        <time>2019-04-14T14:35:54Z</time>
      </trkpt>
      <trkpt lat="48.0008" lon="6.97628">
        <ele>1226</ele>
        <time>2019-04-14T14:36:54Z</time>
      </trkpt>
      <trkpt lat="48.00092" lon="6.97629">
        <ele>1225</ele>
        <time>2019-04-14T14:37:54Z</time>
      </trkpt>
      <trkpt lat="48.00105" lon="6.9763">
        <ele>1224</ele>
        <time>2019-04-14T14:38:54Z</time>
      </trkpt>
      <trkpt lat="48.00117" lon="6.9763">
        <ele>1222</ele>
        <time>2019-04-14T14:39:54Z</time>
      </trkpt>
      <trkpt lat="48.00128" lon="6.9763">
        <ele>1221</ele>
        <time>2019-04-14T14:40:54Z</time>
      </trkpt>
      <trkpt lat="48.0014" lon="6.97631">
        <ele>1220</ele>
        <time>2019-04-14T14:41:54Z</time>
      </trkpt>
      <trkpt lat="48.00149" lon="6.97633">
        <ele>1219</ele>
        <time>2019-04-14T14:42:54Z</time>
      </trkpt>
      <trkpt lat="48.00159" lon="6.97635">
        <ele>1218</ele>
        <time>2019-04-14T14:43:54Z</time>
      </trkpt>
      <trkpt lat="48.00166" lon="6.97637">
        <ele>1218</ele>
        <time>2019-04-14T14:44:54Z</time>
      </trkpt>
      <trkpt lat="48.00174" lon="6.97639">
        <ele>1217</ele>
        <time>2019-04-14T14:45:54Z</time>
      </trkpt>
      <trkpt lat="48.00196" lon="6.97645">
        <ele>1216</ele>
        <time>2019-04-14T14:46:54Z</time>
      </trkpt>
      <trkpt lat="48.00207" lon="6.97648">
        <ele>1215</ele>
        <time>2019-04-14T14:47:54Z</time>
      </trkpt>
      <trkpt lat="48.00215" lon="6.9765">
        <ele>1215</ele>
        <time>2019-04-14T14:48:54Z</time>
      </trkpt>
      <trkpt lat="48.0023" lon="6.97652">
        <ele>1213</ele>
        <time>2019-04-14T14:49:54Z</time>
      </trkpt>
      <trkpt lat="48.00255" lon="6.97656">
        <ele>1210</ele>
        <time>2019-04-14T14:50:54Z</time>
      </trkpt>
      <trkpt lat="48.00264" lon="6.97657">
        <ele>1208</ele>
        <time>2019-04-14T14:51:54Z</time>
      </trkpt>
      <trkpt lat="48.0027" lon="6.97659">
        <ele>1207</ele>
        <time>2019-04-14T14:52:54Z</time>
      </trkpt>
      <trkpt lat="48.00275" lon="6.9766">
        <ele>1206</ele>
        <time>2019-04-14T14:53:54Z</time>
      </trkpt>
      <trkpt lat="48.00281" lon="6.97662">
        <ele>1205</ele>
        <time>2019-04-14T14:54:54Z</time>
      </trkpt>
      <trkpt lat="48.00287" lon="6.97665">
        <ele>1204</ele>
        <time>2019-04-14T14:55:54Z</time>
      </trkpt>
      <trkpt lat="48.00291" lon="6.97667">
        <ele>1204</ele>
        <time>2019-04-14T14:56:54Z</time>
      </trkpt>
      <trkpt lat="48.00295" lon="6.9767">
        <ele>1203</ele>
        <time>2019-04-14T14:57:54Z</time>
      </trkpt>
      <trkpt lat="48.00302" lon="6.97676">
        <ele>1203</ele>
        <time>2019-04-14T14:58:54Z</time>
      </trkpt>
      <trkpt lat="48.00309" lon="6.97681">
        <ele>1202</ele>
        <time>2019-04-14T14:59:54Z</time>
      </trkpt>
      <trkpt lat="48.00319" lon="6.9769">
        <ele>1202</ele>
        <time>2019-04-14T15:00:54Z</time>
      </trkpt>
      <trkpt lat="48.00328" lon="6.97699">
        <ele>1202</ele>
        <time>2019-04-14T15:01:54Z</time>
      </trkpt>
      <trkpt lat="48.00339" lon="6.97709">
        <ele>1201</ele>
        <time>2019-04-14T15:02:54Z</time>
      </trkpt>
      <trkpt lat="48.00347" lon="6.97718">
        <ele>1201</ele>
        <time>2019-04-14T15:03:54Z</time>
      </trkpt>
      <trkpt lat="48.00358" lon="6.97731">
        <ele>1201</ele>
        <time>2019-04-14T15:04:54Z</time>
      </trkpt>
      <trkpt lat="48.00369" lon="6.97746">
        <ele>1201</ele>
        <time>2019-04-14T15:05:54Z</time>
      </trkpt>
      <trkpt lat="48.00376" lon="6.97753">
        <ele>1200</ele>
        <time>2019-04-14T15:06:54Z</time>
      </trkpt>
      <trkpt lat="48.00384" lon="6.97762">
        <ele>1199</ele>
        <time>2019-04-14T15:07:54Z</time>
      </trkpt>
      <trkpt lat="48.00392" lon="6.9777">
        <ele>1198</ele>
        <time>2019-04-14T15:08:54Z</time>
      </trkpt>
      <trkpt lat="48.00404" lon="6.97781">
        <ele>1196</ele>
        <time>2019-04-14T15:09:54Z</time>
      </trkpt>
      <trkpt lat="48.00416" lon="6.9779">
        <ele>1194</ele>
        <time>2019-04-14T15:10:54Z</time>
      </trkpt>
      <trkpt lat="48.00453" lon="6.97821">
        <ele>1193</ele>
        <time>2019-04-14T15:11:54Z</time>
      </trkpt>
      <trkpt lat="48.00485" lon="6.97845">
        <ele>1192</ele>
        <time>2019-04-14T15:12:54Z</time>
      </trkpt>
      <trkpt lat="48.00493" lon="6.97852">
        <ele>1192</ele>
        <time>2019-04-14T15:13:54Z</time>
      </trkpt>
      <trkpt lat="48.00504" lon="6.9786">
        <ele>1192</ele>
        <time>2019-04-14T15:14:54Z</time>
      </trkpt>
      <trkpt lat="48.0051" lon="6.97863">
        <ele>1192</ele>
        <time>2019-04-14T15:15:54Z</time>
      </trkpt>
      <trkpt lat="48.00515" lon="6.97866">
        <ele>1192</ele>
        <time>2019-04-14T15:16:54Z</time>
      </trkpt>
      <trkpt lat="48.0052" lon="6.97868">
        <ele>1192</ele>
        <time>2019-04-14T15:17:54Z</time>
      </trkpt>
      <trkpt lat="48.00526" lon="6.9787">
        <ele>1191</ele>
        <time>2019-04-14T15:18:54Z</time>
      </trkpt>
      <trkpt lat="48.00533" lon="6.97872">
        <ele>1191</ele>
        <time>2019-04-14T15:19:54Z</time>
      </trkpt>
      <trkpt lat="48.00544" lon="6.97875">
        <ele>1191</ele>
        <time>2019-04-14T15:20:54Z</time>
      </trkpt>
      <trkpt lat="48.00552" lon="6.97877">
        <ele>1190</ele>
        <time>2019-04-14T15:21:54Z</time>
      </trkpt>
      <trkpt lat="48.00559" lon="6.97879">
        <ele>1190</ele>
        <time>2019-04-14T15:22:54Z</time>
      </trkpt>
      <trkpt lat="48.00566" lon="6.97879">
        <ele>1189</ele>
        <time>2019-04-14T15:23:54Z</time>
      </trkpt>
      <trkpt lat="48.00571" lon="6.9788">
        <ele>1189</ele>
        <time>2019-04-14T15:24:54Z</time>
      </trkpt>
      <trkpt lat="48.00574" lon="6.9788">
        <ele>1189</ele>
        <time>2019-04-14T15:25:54Z</time>
      </trkpt>
      <trkpt lat="48.00579" lon="6.97879">
        <ele>1188</ele>
        <time>2019-04-14T15:26:54Z</time>
      </trkpt>
      <trkpt lat="48.00584" lon="6.97878">
        <ele>1188</ele>
        <time>2019-04-14T15:27:54Z</time>
      </trkpt>
      <trkpt lat="48.0059" lon="6.97877">
        <ele>1189</ele>
        <time>2019-04-14T15:28:54Z</time>
      </trkpt>
      <trkpt lat="48.00597" lon="6.97874">
        <ele>1190</ele>
        <time>2019-04-14T15:29:54Z</time>
      </trkpt>
      <trkpt lat="48.00603" lon="6.97871">
        <ele>1191</ele>
        <time>2019-04-14T15:30:54Z</time>
      </trkpt>
      <trkpt lat="48.00609" lon="6.97868">
        <ele>1192</ele>
        <time>2019-04-14T15:31:54Z</time>
      </trkpt>
      <trkpt lat="48.00612" lon="6.97865">
        <ele>1192</ele>
        <time>2019-04-14T15:32:54Z</time>
      </trkpt>
      <trkpt lat="48.00616" lon="6.97862">
        <ele>1192</ele>
        <time>2019-04-14T15:33:54Z</time>
      </trkpt>
      <trkpt lat="48.0062" lon="6.97859">
        <ele>1193</ele>
        <time>2019-04-14T15:34:54Z</time>
      </trkpt>
      <trkpt lat="48.00624" lon="6.97855">
        <ele>1193</ele>
        <time>2019-04-14T15:35:54Z</time>
      </trkpt>
      <trkpt lat="48.00629" lon="6.97849">
        <ele>1193</ele>
        <time>2019-04-14T15:36:54Z</time>
      </trkpt>
      <trkpt lat="48.00635" lon="6.97841">
        <ele>1194</ele>
        <time>2019-04-14T15:37:54Z</time>
      </trkpt>
      <trkpt lat="48.00643" lon="6.9783">
        <ele>1194</ele>
        <time>2019-04-14T15:38:54Z</time>
      </trkpt>
      <trkpt lat="48.0065" lon="6.97819">
        <ele>1194</ele>
        <time>2019-04-14T15:39:54Z</time>
      </trkpt>
      <trkpt lat="48.00657" lon="6.97808">
        <ele>1195</ele>
        <time>2019-04-14T15:40:54Z</time>
      </trkpt>
      <trkpt lat="48.00664" lon="6.97797">
        <ele>1195</ele>
        <time>2019-04-14T15:41:54Z</time>
      </trkpt>
      <trkpt lat="48.0067" lon="6.97786">
        <ele>1195</ele>
        <time>2019-04-14T15:42:54Z</time>
      </trkpt>
      <trkpt lat="48.00673" lon="6.97777">
        <ele>1195</ele>
        <time>2019-04-14T15:43:54Z</time>
      </trkpt>
      <trkpt lat="48.00677" lon="6.97768">
        <ele>1195</ele>
        <time>2019-04-14T15:44:54Z</time>
      </trkpt>
      <trkpt lat="48.00681" lon="6.97754">
        <ele>1195</ele>
        <time>2019-04-14T15:45:54Z</time>
      </trkpt>
      <trkpt lat="48.00686" lon="6.97741">
        <ele>1195</ele>
        <time>2019-04-14T15:46:54Z</time>
      </trkpt>
      <trkpt lat="48.00691" lon="6.97724">
        <ele>1194</ele>
        <time>2019-04-14T15:47:54Z</time>
      </trkpt>
      <trkpt lat="48.00697" lon="6.97704">
        <ele>1194</ele>
        <time>2019-04-14T15:48:54Z</time>
      </trkpt>
      <trkpt lat="48.00705" lon="6.97683">
        <ele>1194</ele>
        <time>2019-04-14T15:49:54Z</time>
      </trkpt>
      <trkpt lat="48.0071" lon="6.97668">
        <ele>1194</ele>
        <time>2019-04-14T15:50:54Z</time>
      </trkpt>
      <trkpt lat="48.00715" lon="6.97655">
        <ele>1194</ele>
        <time>2019-04-14T15:51:54Z</time>
      </trkpt>
      <trkpt lat="48.00721" lon="6.9764">
        <ele>1194</ele>
        <time>2019-04-14T15:52:54Z</time>
      </trkpt>
      <trkpt lat="48.00729" lon="6.97625">
        <ele>1195</ele>
        <time>2019-04-14T15:53:54Z</time>
      </trkpt>
      <trkpt lat="48.00735" lon="6.97612">
        <ele>1195</ele>
        <time>2019-04-14T15:54:54Z</time>
      </trkpt>
      <trkpt lat="48.00741" lon="6.97602">
        <ele>1196</ele>
        <time>2019-04-14T15:55:54Z</time>
      </trkpt>
      <trkpt lat="48.0075" lon="6.97587">
        <ele>1197</ele>
        <time>2019-04-14T15:56:54Z</time>
      </trkpt>
      <trkpt lat="48.00758" lon="6.97574">
        <ele>1196</ele>
        <time>2019-04-14T15:57:54Z</time>
      </trkpt>
      <trkpt lat="48.00764" lon="6.97566">
        <ele>1197</ele>
        <time>2019-04-14T15:58:54Z</time>
      </trkpt>
      <trkpt lat="48.00792" lon="6.97526">
        <ele>1198</ele>
        <time>2019-04-14T15:59:54Z</time>
      </trkpt>
      <trkpt lat="48.00802" lon="6.97512">
        <ele>1198</ele>
        <time>2019-04-14T16:00:54Z</time>
      </trkpt>
      <trkpt lat="48.00809" lon="6.97501">
        <ele>1199</ele>
        <time>2019-04-14T16:01:54Z</time>
      </trkpt>
      <trkpt lat="48.00817" lon="6.97489">
        <ele>1200</ele>
        <time>2019-04-14T16:02:54Z</time>
      </trkpt>
      <trkpt lat="48.00827" lon="6.97471">
        <ele>1201</ele>
        <time>2019-04-14T16:03:54Z</time>
      </trkpt>
      <trkpt lat="48.00834" lon="6.97459">
        <ele>1202</ele>
        <time>2019-04-14T16:04:54Z</time>
      </trkpt>
      <trkpt lat="48.00844" lon="6.97445">
        <ele>1202</ele>
        <time>2019-04-14T16:05:54Z</time>
      </trkpt>
      <trkpt lat="48.00847" lon="6.97441">
        <ele>1202</ele>
        <time>2019-04-14T16:06:54Z</time>
      </trkpt>
      <trkpt lat="48.00851" lon="6.97436">
        <ele>1202</ele>
        <time>2019-04-14T16:07:54Z</time>
      </trkpt>
      <trkpt lat="48.00856" lon="6.97431">
        <ele>1202</ele>
        <time>2019-04-14T16:08:54Z</time>
      </trkpt>
      <trkpt lat="48.0086" lon="6.97427">
        <ele>1203</ele>
        <time>2019-04-14T16:09:54Z</time>
      </trkpt>
      <trkpt lat="48.00864" lon="6.97423">
        <ele>1203</ele>
        <time>2019-04-14T16:10:54Z</time>
      </trkpt>
      <trkpt lat="48.0087" lon="6.97419">
        <ele>1203</ele>
        <time>2019-04-14T16:11:54Z</time>
      </trkpt>
      <trkpt lat="48.00875" lon="6.97415">
        <ele>1203</ele>
        <time>2019-04-14T16:12:54Z</time>
      </trkpt>
      <trkpt lat="48.0088" lon="6.97412">
        <ele>1204</ele>
        <time>2019-04-14T16:13:54Z</time>
      </trkpt>
      <trkpt lat="48.00888" lon="6.97408">
        <ele>1204</ele>
        <time>2019-04-14T16:14:54Z</time>
      </trkpt>
      <trkpt lat="48.00898" lon="6.97402">
        <ele>1205</ele>
        <time>2019-04-14T16:15:54Z</time>
      </trkpt>
      <trkpt lat="48.00904" lon="6.974">
        <ele>1205</ele>
        <time>2019-04-14T16:16:54Z</time>
      </trkpt>
      <trkpt lat="48.00908" lon="6.97398">
        <ele>1206</ele>
        <time>2019-04-14T16:17:54Z</time>
      </trkpt>
      <trkpt lat="48.00912" lon="6.97397">
        <ele>1206</ele>
        <time>2019-04-14T16:18:54Z</time>
      </trkpt>
      <trkpt lat="48.00916" lon="6.97395">
        <ele>1206</ele>
        <time>2019-04-14T16:19:54Z</time>
      </trkpt>
      <trkpt lat="48.00921" lon="6.97394">
        <ele>1206</ele>
        <time>2019-04-14T16:20:54Z</time>
      </trkpt>
      <trkpt lat="48.00926" lon="6.97392">
        <ele>1206</ele>
        <time>2019-04-14T16:21:54Z</time>
      </trkpt>
      <trkpt lat="48.00933" lon="6.9739">
        <ele>1206</ele>
        <time>2019-04-14T16:22:54Z</time>
      </trkpt>
      <trkpt lat="48.00938" lon="6.97389">
        <ele>1206</ele>
        <time>2019-04-14T16:23:54Z</time>
      </trkpt>
      <trkpt lat="48.00942" lon="6.97388">
        <ele>1205</ele>
        <time>2019-04-14T16:24:54Z</time>
      </trkpt>
      <trkpt lat="48.00946" lon="6.97388">
        <ele>1206</ele>
        <time>2019-04-14T16:25:54Z</time>
      </trkpt>
      <trkpt lat="48.00951" lon="6.97387">
        <ele>1205</ele>
        <time>2019-04-14T16:26:54Z</time>
      </trkpt>
      <trkpt lat="48.00954" lon="6.97387">
        <ele>1205</ele>
        <time>2019-04-14T16:27:54Z</time>
      </trkpt>
      <trkpt lat="48.00959" lon="6.97387">
        <ele>1206</ele>
        <time>2019-04-14T16:28:54Z</time>
      </trkpt>
      <trkpt lat="48.00962" lon="6.97387">
        <ele>1206</ele>
        <time>2019-04-14T16:29:54Z</time>
      </trkpt>
      <trkpt lat="48.00971" lon="6.97387">
        <ele>1206</ele>
        <time>2019-04-14T16:30:54Z</time>
      </trkpt>
      <trkpt lat="48.0098" lon="6.97387">
        <ele>1206</ele>
        <time>2019-04-14T16:31:54Z</time>
      </trkpt>
      <trkpt lat="48.00985" lon="6.97388">
        <ele>1206</ele>
        <time>2019-04-14T16:32:54Z</time>
      </trkpt>
      <trkpt lat="48.00989" lon="6.97388">
        <ele>1206</ele>
        <time>2019-04-14T16:33:54Z</time>
      </trkpt>
      <trkpt lat="48.00991" lon="6.97389">
        <ele>1206</ele>
        <time>2019-04-14T16:34:54Z</time>
      </trkpt>
      <trkpt lat="48.00993" lon="6.97389">
        <ele>1206</ele>
        <time>2019-04-14T16:35:54Z</time>
      </trkpt>
      <trkpt lat="48.00995" lon="6.9739">
        <ele>1206</ele>
        <time>2019-04-14T16:36:54Z</time>
      </trkpt>
      <trkpt lat="48.00997" lon="6.97391">
        <ele>1207</ele>
        <time>2019-04-14T16:37:54Z</time>
      </trkpt>
      <trkpt lat="48.00999" lon="6.97392">
        <ele>1207</ele>
        <time>2019-04-14T16:38:54Z</time>
      </trkpt>
      <trkpt lat="48.01001" lon="6.97393">
        <ele>1207</ele>
        <time>2019-04-14T16:39:54Z</time>
      </trkpt>
      <trkpt lat="48.01004" lon="6.97395">
        <ele>1207</ele>
        <time>2019-04-14T16:40:54Z</time>
      </trkpt>
      <trkpt lat="48.01007" lon="6.97398">
        <ele>1207</ele>
        <time>2019-04-14T16:41:54Z</time>
      </trkpt>
      <trkpt lat="48.01009" lon="6.97401">
        <ele>1207</ele>
        <time>2019-04-14T16:42:54Z</time>
      </trkpt>
      <trkpt lat="48.01012" lon="6.97405">
        <ele>1207</ele>
        <time>2019-04-14T16:43:54Z</time>
      </trkpt>
      <trkpt lat="48.01014" lon="6.97408">
        <ele>1207</ele>
        <time>2019-04-14T16:44:54Z</time>
      </trkpt>
      <trkpt lat="48.01015" lon="6.97411">
        <ele>1207</ele>
        <time>2019-04-14T16:45:54Z</time>
      </trkpt>
      <trkpt lat="48.01016" lon="6.97415">
        <ele>1207</ele>
        <time>2019-04-14T16:46:54Z</time>
      </trkpt>
      <trkpt lat="48.01017" lon="6.97419">
        <ele>1207</ele>
        <time>2019-04-14T16:47:54Z</time>
      </trkpt>
      <trkpt lat="48.01017" lon="6.97422">
        <ele>1207</ele>
        <time>2019-04-14T16:48:54Z</time>
      </trkpt>
      <trkpt lat="48.01017" lon="6.97425">
        <ele>1207</ele>
        <time>2019-04-14T16:49:54Z</time>
      </trkpt>
      <trkpt lat="48.01017" lon="6.97428">
        <ele>1206</ele>
        <time>2019-04-14T16:50:54Z</time>
      </trkpt>
      <trkpt lat="48.01017" lon="6.97432">
        <ele>1206</ele>
        <time>2019-04-14T16:51:54Z</time>
      </trkpt>
      <trkpt lat="48.01016" lon="6.97438">
        <ele>1205</ele>
        <time>2019-04-14T16:52:54Z</time>
      </trkpt>
      <trkpt lat="48.01015" lon="6.97442">
        <ele>1205</ele>
        <time>2019-04-14T16:53:54Z</time>
      </trkpt>
      <trkpt lat="48.01014" lon="6.97447">
        <ele>1205</ele>
        <time>2019-04-14T16:54:54Z</time>
      </trkpt>
      <trkpt lat="48.01012" lon="6.9745">
        <ele>1205</ele>
        <time>2019-04-14T16:55:54Z</time>
      </trkpt>
      <trkpt lat="48.01011" lon="6.97454">
        <ele>1205</ele>
        <time>2019-04-14T16:56:54Z</time>
      </trkpt>
      <trkpt lat="48.0101" lon="6.97457">
        <ele>1205</ele>
        <time>2019-04-14T16:57:54Z</time>
      </trkpt>
      <trkpt lat="48.01006" lon="6.97465">
        <ele>1206</ele>
        <time>2019-04-14T16:58:54Z</time>
      </trkpt>
      <trkpt lat="48.00998" lon="6.97481">
        <ele>1206</ele>
        <time>2019-04-14T16:59:54Z</time>
      </trkpt>
      <trkpt lat="48.00995" lon="6.97487">
        <ele>1207</ele>
        <time>2019-04-14T17:00:54Z</time>
      </trkpt>
      <trkpt lat="48.00991" lon="6.97495">
        <ele>1207</ele>
        <time>2019-04-14T17:01:54Z</time>
      </trkpt>
      <trkpt lat="48.00988" lon="6.97502">
        <ele>1208</ele>
        <time>2019-04-14T17:02:54Z</time>
      </trkpt>
      <trkpt lat="48.00985" lon="6.9751">
        <ele>1208</ele>
        <time>2019-04-14T17:03:54Z</time>
      </trkpt>
      <trkpt lat="48.00982" lon="6.97521">
        <ele>1208</ele>
        <time>2019-04-14T17:04:54Z</time>
      </trkpt>
      <trkpt lat="48.00978" lon="6.97534">
        <ele>1209</ele>
        <time>2019-04-14T17:05:54Z</time>
      </trkpt>
      <trkpt lat="48.00973" lon="6.97549">
        <ele>1210</ele>
        <time>2019-04-14T17:06:54Z</time>
      </trkpt>
      <trkpt lat="48.00971" lon="6.97559">
        <ele>1210</ele>
        <time>2019-04-14T17:07:54Z</time>
      </trkpt>
      <trkpt lat="48.00969" lon="6.97566">
        <ele>1210</ele>
        <time>2019-04-14T17:08:54Z</time>
      </trkpt>
      <trkpt lat="48.00968" lon="6.97573">
        <ele>1211</ele>
        <time>2019-04-14T17:09:54Z</time>
      </trkpt>
      <trkpt lat="48.00968" lon="6.97578">
        <ele>1210</ele>
        <time>2019-04-14T17:10:54Z</time>
      </trkpt>
      <trkpt lat="48.00969" lon="6.97584">
        <ele>1210</ele>
        <time>2019-04-14T17:11:54Z</time>
      </trkpt>
      <trkpt lat="48.00969" lon="6.9759">
        <ele>1211</ele>
        <time>2019-04-14T17:12:54Z</time>
      </trkpt>
      <trkpt lat="48.0097" lon="6.97597">
        <ele>1211</ele>
        <time>2019-04-14T17:13:54Z</time>
      </trkpt>
      <trkpt lat="48.00973" lon="6.97606">
        <ele>1211</ele>
        <time>2019-04-14T17:14:54Z</time>
      </trkpt>
      <trkpt lat="48.00977" lon="6.97622">
        <ele>1212</ele>
        <time>2019-04-14T17:15:54Z</time>
      </trkpt>
      <trkpt lat="48.00981" lon="6.97638">
        <ele>1212</ele>
        <time>2019-04-14T17:16:54Z</time>
      </trkpt>
      <trkpt lat="48.00986" lon="6.97654">
        <ele>1212</ele>
        <time>2019-04-14T17:17:54Z</time>
      </trkpt>
      <trkpt lat="48.00995" lon="6.97681">
        <ele>1213</ele>
        <time>2019-04-14T17:18:54Z</time>
      </trkpt>
      <trkpt lat="48.01012" lon="6.97727">
        <ele>1212</ele>
        <time>2019-04-14T17:19:54Z</time>
      </trkpt>
      <trkpt lat="48.01018" lon="6.97742">
        <ele>1211</ele>
        <time>2019-04-14T17:20:54Z</time>
      </trkpt>
      <trkpt lat="48.01024" lon="6.97754">
        <ele>1210</ele>
        <time>2019-04-14T17:21:54Z</time>
      </trkpt>
      <trkpt lat="48.01027" lon="6.97761">
        <ele>1209</ele>
        <time>2019-04-14T17:22:54Z</time>
      </trkpt>
      <trkpt lat="48.01031" lon="6.97766">
        <ele>1208</ele>
        <time>2019-04-14T17:23:54Z</time>
      </trkpt>
      <trkpt lat="48.01034" lon="6.97772">
        <ele>1207</ele>
        <time>2019-04-14T17:24:54Z</time>
      </trkpt>
      <trkpt lat="48.0104" lon="6.97782">
        <ele>1206</ele>
        <time>2019-04-14T17:25:54Z</time>
      </trkpt>
      <trkpt lat="48.01045" lon="6.97792">
        <ele>1205</ele>
        <time>2019-04-14T17:26:54Z</time>
      </trkpt>
      <trkpt lat="48.01051" lon="6.97806">
        <ele>1205</ele>
        <time>2019-04-14T17:27:54Z</time>
      </trkpt>
      <trkpt lat="48.01068" lon="6.97845">
        <ele>1205</ele>
        <time>2019-04-14T17:28:54Z</time>
      </trkpt>
      <trkpt lat="48.01072" lon="6.97856">
        <ele>1206</ele>
        <time>2019-04-14T17:29:54Z</time>
      </trkpt>
      <trkpt lat="48.01076" lon="6.97867">
        <ele>1207</ele>
        <time>2019-04-14T17:30:54Z</time>
      </trkpt>
      <trkpt lat="48.01078" lon="6.97876">
        <ele>1209</ele>
        <time>2019-04-14T17:31:54Z</time>
      </trkpt>
      <trkpt lat="48.01079" lon="6.97887">
        <ele>1212</ele>
        <time>2019-04-14T17:32:54Z</time>
      </trkpt>
      <trkpt lat="48.0108" lon="6.97895">
        <ele>1214</ele>
        <time>2019-04-14T17:33:54Z</time>
      </trkpt>
      <trkpt lat="48.01081" lon="6.979">
        <ele>1215</ele>
        <time>2019-04-14T17:34:54Z</time>
      </trkpt>
      <trkpt lat="48.01081" lon="6.97905">
        <ele>1216</ele>
        <time>2019-04-14T17:35:54Z</time>
      </trkpt>
      <trkpt lat="48.01083" lon="6.97909">
        <ele>1217</ele>
        <time>2019-04-14T17:36:54Z</time>
      </trkpt>
      <trkpt lat="48.01084" lon="6.97912">
        <ele>1217</ele>
        <time>2019-04-14T17:37:54Z</time>
      </trkpt>
      <trkpt lat="48.01086" lon="6.97915">
        <ele>1217</ele>
        <time>2019-04-14T17:38:54Z</time>
      </trkpt>
      <trkpt lat="48.01088" lon="6.97917">
        <ele>1216</ele>
        <time>2019-04-14T17:39:54Z</time>
      </trkpt>
      <trkpt lat="48.0109" lon="6.9792">
        <ele>1216</ele>
        <time>2019-04-14T17:40:54Z</time>
      </trkpt>
      <trkpt lat="48.01092" lon="6.97922">
        <ele>1215</ele>
        <time>2019-04-14T17:41:54Z</time>
      </trkpt>
      <trkpt lat="48.01096" lon="6.97924">
        <ele>1213</ele>
        <time>2019-04-14T17:42:54Z</time>
      </trkpt>
      <trkpt lat="48.01105" lon="6.97929">
        <ele>1209</ele>
        <time>2019-04-14T17:43:54Z</time>
      </trkpt>
      <trkpt lat="48.0111" lon="6.97931">
        <ele>1207</ele>
        <time>2019-04-14T17:44:54Z</time>
      </trkpt>
      <trkpt lat="48.01115" lon="6.97934">
        <ele>1205</ele>
        <time>2019-04-14T17:45:54Z</time>
      </trkpt>
      <trkpt lat="48.01119" lon="6.97938">
        <ele>1203</ele>
        <time>2019-04-14T17:46:54Z</time>
      </trkpt>
      <trkpt lat="48.01123" lon="6.97942">
        <ele>1202</ele>
        <time>2019-04-14T17:47:54Z</time>
      </trkpt>
      <trkpt lat="48.01126" lon="6.97946">
        <ele>1201</ele>
        <time>2019-04-14T17:48:54Z</time>
      </trkpt>
      <trkpt lat="48.0113" lon="6.97951">
        <ele>1200</ele>
        <time>2019-04-14T17:49:54Z</time>
      </trkpt>
      <trkpt lat="48.01135" lon="6.97959">
        <ele>1199</ele>
        <time>2019-04-14T17:50:54Z</time>
      </trkpt>
      <trkpt lat="48.0114" lon="6.97968">
        <ele>1198</ele>
        <time>2019-04-14T17:51:54Z</time>
      </trkpt>
      <trkpt lat="48.01147" lon="6.97981">
        <ele>1197</ele>
        <time>2019-04-14T17:52:54Z</time>
      </trkpt>
      <trkpt lat="48.01151" lon="6.97991">
        <ele>1197</ele>
        <time>2019-04-14T17:53:54Z</time>
      </trkpt>
      <trkpt lat="48.01154" lon="6.97999">
        <ele>1197</ele>
        <time>2019-04-14T17:54:54Z</time>
      </trkpt>
      <trkpt lat="48.01157" lon="6.98009">
        <ele>1198</ele>
        <time>2019-04-14T17:55:54Z</time>
      </trkpt>
      <trkpt lat="48.0116" lon="6.98022">
        <ele>1199</ele>
        <time>2019-04-14T17:56:54Z</time>
      </trkpt>
      <trkpt lat="48.01163" lon="6.98034">
        <ele>1201</ele>
        <time>2019-04-14T17:57:54Z</time>
      </trkpt>
      <trkpt lat="48.01166" lon="6.98041">
        <ele>1201</ele>
        <time>2019-04-14T17:58:54Z</time>
      </trkpt>
      <trkpt lat="48.01168" lon="6.98046">
        <ele>1201</ele>
        <time>2019-04-14T17:59:54Z</time>
      </trkpt>
      <trkpt lat="48.0117" lon="6.98049">
        <ele>1200</ele>
        <time>2019-04-14T18:00:54Z</time>
      </trkpt>
      <trkpt lat="48.01174" lon="6.98053">
        <ele>1199</ele>
        <time>2019-04-14T18:01:54Z</time>
      </trkpt>
      <trkpt lat="48.01179" lon="6.98059">
        <ele>1197</ele>
        <time>2019-04-14T18:02:54Z</time>
      </trkpt>
      <trkpt lat="48.01182" lon="6.98065">
        <ele>1197</ele>
        <time>2019-04-14T18:03:54Z</time>
      </trkpt>
      <trkpt lat="48.01187" lon="6.98079">
        <ele>1198</ele>
        <time>2019-04-14T18:04:54Z</time>
      </trkpt>
      <trkpt lat="48.01193" lon="6.981">
        <ele>1199</ele>
        <time>2019-04-14T18:05:54Z</time>
      </trkpt>
      <trkpt lat="48.01196" lon="6.98111">
        <ele>1200</ele>
        <time>2019-04-14T18:06:54Z</time>
      </trkpt>
      <trkpt lat="48.01198" lon="6.98118">
        <ele>1200</ele>
        <time>2019-04-14T18:07:54Z</time>
      </trkpt>
      <trkpt lat="48.012" lon="6.98124">
        <ele>1200</ele>
        <time>2019-04-14T18:08:54Z</time>
      </trkpt>
      <trkpt lat="48.01203" lon="6.98129">
        <ele>1200</ele>
        <time>2019-04-14T18:09:54Z</time>
      </trkpt>
      <trkpt lat="48.01208" lon="6.98136">
        <ele>1199</ele>
        <time>2019-04-14T18:10:54Z</time>
      </trkpt>
      <trkpt lat="48.01214" lon="6.98144">
        <ele>1198</ele>
        <time>2019-04-14T18:11:54Z</time>
      </trkpt>
      <trkpt lat="48.01218" lon="6.98149">
        <ele>1197</ele>
        <time>2019-04-14T18:12:54Z</time>
      </trkpt>
      <trkpt lat="48.01221" lon="6.98154">
        <ele>1196</ele>
        <time>2019-04-14T18:13:54Z</time>
      </trkpt>
      <trkpt lat="48.01224" lon="6.98163">
        <ele>1197</ele>
        <time>2019-04-14T18:14:54Z</time>
      </trkpt>
      <trkpt lat="48.0123" lon="6.98178">
        <ele>1197</ele>
        <time>2019-04-14T18:15:54Z</time>
      </trkpt>
      <trkpt lat="48.01237" lon="6.98196">
        <ele>1198</ele>
        <time>2019-04-14T18:16:54Z</time>
      </trkpt>
      <trkpt lat="48.01244" lon="6.98216">
        <ele>1199</ele>
        <time>2019-04-14T18:17:54Z</time>
      </trkpt>
      <trkpt lat="48.01249" lon="6.98225">
        <ele>1199</ele>
        <time>2019-04-14T18:18:54Z</time>
      </trkpt>
      <trkpt lat="48.01252" lon="6.98231">
        <ele>1199</ele>
        <time>2019-04-14T18:19:54Z</time>
      </trkpt>
      <trkpt lat="48.01256" lon="6.98237">
        <ele>1199</ele>
        <time>2019-04-14T18:20:54Z</time>
      </trkpt>
      <trkpt lat="48.01267" lon="6.98252">
        <ele>1198</ele>
        <time>2019-04-14T18:21:54Z</time>
      </trkpt>
      <trkpt lat="48.01309" lon="6.98308">
        <ele>1194</ele>
        <time>2019-04-14T18:22:54Z</time>
      </trkpt>
      <trkpt lat="48.01353" lon="6.98364">
        <ele>1191</ele>
        <time>2019-04-14T18:23:54Z</time>
      </trkpt>
      <trkpt lat="48.01364" lon="6.98378">
        <ele>1191</ele>
        <time>2019-04-14T18:24:54Z</time>
      </trkpt>
      <trkpt lat="48.01372" lon="6.98387">
        <ele>1191</ele>
        <time>2019-04-14T18:25:54Z</time>
      </trkpt>
      <trkpt lat="48.01382" lon="6.98398">
        <ele>1190</ele>
        <time>2019-04-14T18:26:54Z</time>
      </trkpt>
      <trkpt lat="48.01394" lon="6.98408">
        <ele>1189</ele>
        <time>2019-04-14T18:27:54Z</time>
      </trkpt>
      <trkpt lat="48.01403" lon="6.98416">
        <ele>1188</ele>
        <time>2019-04-14T18:28:54Z</time>
      </trkpt>
      <trkpt lat="48.01411" lon="6.98424">
        <ele>1188</ele>
        <time>2019-04-14T18:29:54Z</time>
      </trkpt>
      <trkpt lat="48.0142" lon="6.98433">
        <ele>1187</ele>
        <time>2019-04-14T18:30:54Z</time>
      </trkpt>
      <trkpt lat="48.01426" lon="6.9844">
        <ele>1186</ele>
        <time>2019-04-14T18:31:54Z</time>
      </trkpt>
      <trkpt lat="48.01434" lon="6.98451">
        <ele>1186</ele>
        <time>2019-04-14T18:32:54Z</time>
      </trkpt>
      <trkpt lat="48.01444" lon="6.98463">
        <ele>1186</ele>
        <time>2019-04-14T18:33:54Z</time>
      </trkpt>
      <trkpt lat="48.01452" lon="6.98473">
        <ele>1185</ele>
        <time>2019-04-14T18:34:54Z</time>
      </trkpt>
      <trkpt lat="48.01462" lon="6.98484">
        <ele>1185</ele>
        <time>2019-04-14T18:35:54Z</time>
      </trkpt>
      <trkpt lat="48.01478" lon="6.98499">
        <ele>1183</ele>
        <time>2019-04-14T18:36:54Z</time>
      </trkpt>
      <trkpt lat="48.01486" lon="6.98506">
        <ele>1182</ele>
        <time>2019-04-14T18:37:54Z</time>
      </trkpt>
      <trkpt lat="48.01492" lon="6.9851">
        <ele>1181</ele>
        <time>2019-04-14T18:38:54Z</time>
      </trkpt>
      <trkpt lat="48.01498" lon="6.98514">
        <ele>1180</ele>
        <time>2019-04-14T18:39:54Z</time>
      </trkpt>
      <trkpt lat="48.01504" lon="6.98518">
        <ele>1180</ele>
        <time>2019-04-14T18:40:54Z</time>
      </trkpt>
      <trkpt lat="48.01514" lon="6.98523">
        <ele>1181</ele>
        <time>2019-04-14T18:41:54Z</time>
      </trkpt>
      <trkpt lat="48.01522" lon="6.98527">
        <ele>1181</ele>
        <time>2019-04-14T18:42:54Z</time>
      </trkpt>
      <trkpt lat="48.01543" lon="6.98535">
        <ele>1182</ele>
        <time>2019-04-14T18:43:54Z</time>
      </trkpt>
      <trkpt lat="48.01564" lon="6.98544">
        <ele>1183</ele>
        <time>2019-04-14T18:44:54Z</time>
      </trkpt>
      <trkpt lat="48.01593" lon="6.98556">
        <ele>1184</ele>
        <time>2019-04-14T18:45:54Z</time>
      </trkpt>
      <trkpt lat="48.01612" lon="6.98564">
        <ele>1184</ele>
        <time>2019-04-14T18:46:54Z</time>
      </trkpt>
      <trkpt lat="48.01622" lon="6.98568">
        <ele>1184</ele>
        <time>2019-04-14T18:47:54Z</time>
      </trkpt>
      <trkpt lat="48.01631" lon="6.9857">
        <ele>1184</ele>
        <time>2019-04-14T18:48:54Z</time>
      </trkpt>
      <trkpt lat="48.01641" lon="6.98572">
        <ele>1184</ele>
        <time>2019-04-14T18:49:54Z</time>
      </trkpt>
      <trkpt lat="48.01651" lon="6.98573">
        <ele>1183</ele>
        <time>2019-04-14T18:50:54Z</time>
      </trkpt>
      <trkpt lat="48.01659" lon="6.98573">
        <ele>1182</ele>
        <time>2019-04-14T18:51:54Z</time>
      </trkpt>
      <trkpt lat="48.01674" lon="6.98572">
        <ele>1181</ele>
        <time>2019-04-14T18:52:54Z</time>
      </trkpt>
      <trkpt lat="48.01685" lon="6.98571">
        <ele>1181</ele>
        <time>2019-04-14T18:53:54Z</time>
      </trkpt>
      <trkpt lat="48.01692" lon="6.98571">
        <ele>1181</ele>
        <time>2019-04-14T18:54:54Z</time>
      </trkpt>
      <trkpt lat="48.01698" lon="6.98571">
        <ele>1182</ele>
        <time>2019-04-14T18:55:54Z</time>
      </trkpt>
      <trkpt lat="48.01706" lon="6.98571">
        <ele>1182</ele>
        <time>2019-04-14T18:56:54Z</time>
      </trkpt>
      <trkpt lat="48.01713" lon="6.98572">
        <ele>1182</ele>
        <time>2019-04-14T18:57:54Z</time>
      </trkpt>
      <trkpt lat="48.01721" lon="6.98574">
        <ele>1183</ele>
        <time>2019-04-14T18:58:54Z</time>
      </trkpt>
      <trkpt lat="48.0173" lon="6.98576">
        <ele>1183</ele>
        <time>2019-04-14T18:59:54Z</time>
      </trkpt>
      <trkpt lat="48.01738" lon="6.9858">
        <ele>1184</ele>
        <time>2019-04-14T19:00:54Z</time>
      </trkpt>
      <trkpt lat="48.01748" lon="6.98584">
        <ele>1185</ele>
        <time>2019-04-14T19:01:54Z</time>
      </trkpt>
      <trkpt lat="48.01776" lon="6.98598">
        <ele>1186</ele>
        <time>2019-04-14T19:02:54Z</time>
      </trkpt>
      <trkpt lat="48.01792" lon="6.98606">
        <ele>1187</ele>
        <time>2019-04-14T19:03:54Z</time>
      </trkpt>
      <trkpt lat="48.0181" lon="6.98617">
        <ele>1188</ele>
        <time>2019-04-14T19:04:54Z</time>
      </trkpt>
      <trkpt lat="48.01822" lon="6.98624">
        <ele>1189</ele>
        <time>2019-04-14T19:05:54Z</time>
      </trkpt>
      <trkpt lat="48.01831" lon="6.9863">
        <ele>1190</ele>
        <time>2019-04-14T19:06:54Z</time>
      </trkpt>
      <trkpt lat="48.01841" lon="6.98638">
        <ele>1191</ele>
        <time>2019-04-14T19:07:54Z</time>
      </trkpt>
      <trkpt lat="48.01854" lon="6.98648">
        <ele>1192</ele>
        <time>2019-04-14T19:08:54Z</time>
      </trkpt>
      <trkpt lat="48.01864" lon="6.98655">
        <ele>1193</ele>
        <time>2019-04-14T19:09:54Z</time>
      </trkpt>
      <trkpt lat="48.01872" lon="6.9866">
        <ele>1193</ele>
        <time>2019-04-14T19:10:54Z</time>
      </trkpt>
      <trkpt lat="48.01881" lon="6.98665">
        <ele>1194</ele>
        <time>2019-04-14T19:11:54Z</time>
      </trkpt>
      <trkpt lat="48.01896" lon="6.98673">
        <ele>1195</ele>
        <time>2019-04-14T19:12:54Z</time>
      </trkpt>
      <trkpt lat="48.01908" lon="6.98678">
        <ele>1196</ele>
        <time>2019-04-14T19:13:54Z</time>
      </trkpt>
      <trkpt lat="48.01916" lon="6.98681">
        <ele>1197</ele>
        <time>2019-04-14T19:14:54Z</time>
      </trkpt>
      <trkpt lat="48.01929" lon="6.98687">
        <ele>1198</ele>
        <time>2019-04-14T19:15:54Z</time>
      </trkpt>
      <trkpt lat="48.01943" lon="6.98693">
        <ele>1200</ele>
        <time>2019-04-14T19:16:54Z</time>
      </trkpt>
      <trkpt lat="48.0195" lon="6.98697">
        <ele>1201</ele>
        <time>2019-04-14T19:17:54Z</time>
      </trkpt>
      <trkpt lat="48.01961" lon="6.98703">
        <ele>1203</ele>
        <time>2019-04-14T19:18:54Z</time>
      </trkpt>
      <trkpt lat="48.01969" lon="6.98709">
        <ele>1205</ele>
        <time>2019-04-14T19:19:54Z</time>
      </trkpt>
      <trkpt lat="48.0198" lon="6.98716">
        <ele>1207</ele>
        <time>2019-04-14T19:20:54Z</time>
      </trkpt>
      <trkpt lat="48.01996" lon="6.98729">
        <ele>1211</ele>
        <time>2019-04-14T19:21:54Z</time>
      </trkpt>
      <trkpt lat="48.02007" lon="6.98737">
        <ele>1213</ele>
        <time>2019-04-14T19:22:54Z</time>
      </trkpt>
      <trkpt lat="48.02015" lon="6.98742">
        <ele>1215</ele>
        <time>2019-04-14T19:23:54Z</time>
      </trkpt>
      <trkpt lat="48.0202" lon="6.98745">
        <ele>1216</ele>
        <time>2019-04-14T19:24:54Z</time>
      </trkpt>
      <trkpt lat="48.02025" lon="6.98747">
        <ele>1216</ele>
        <time>2019-04-14T19:25:54Z</time>
      </trkpt>
      <trkpt lat="48.02032" lon="6.98749">
        <ele>1217</ele>
        <time>2019-04-14T19:26:54Z</time>
      </trkpt>
      <trkpt lat="48.02039" lon="6.9875">
        <ele>1217</ele>
        <time>2019-04-14T19:27:54Z</time>
      </trkpt>
      <trkpt lat="48.02045" lon="6.9875">
        <ele>1217</ele>
        <time>2019-04-14T19:28:54Z</time>
      </trkpt>
      <trkpt lat="48.02054" lon="6.9875">
        <ele>1217</ele>
        <time>2019-04-14T19:29:54Z</time>
      </trkpt>
      <trkpt lat="48.02063" lon="6.9875">
        <ele>1217</ele>
        <time>2019-04-14T19:30:54Z</time>
      </trkpt>
      <trkpt lat="48.02073" lon="6.98749">
        <ele>1217</ele>
        <time>2019-04-14T19:31:54Z</time>
      </trkpt>
      <trkpt lat="48.02095" lon="6.98746">
        <ele>1216</ele>
        <time>2019-04-14T19:32:54Z</time>
      </trkpt>
      <trkpt lat="48.02109" lon="6.98745">
        <ele>1215</ele>
        <time>2019-04-14T19:33:54Z</time>
      </trkpt>
      <trkpt lat="48.02118" lon="6.98746">
        <ele>1216</ele>
        <time>2019-04-14T19:34:54Z</time>
      </trkpt>
      <trkpt lat="48.02127" lon="6.98746">
        <ele>1215</ele>
        <time>2019-04-14T19:35:54Z</time>
      </trkpt>
      <trkpt lat="48.02134" lon="6.98747">
        <ele>1216</ele>
        <time>2019-04-14T19:36:54Z</time>
      </trkpt>
      <trkpt lat="48.02143" lon="6.98749">
        <ele>1216</ele>
        <time>2019-04-14T19:37:54Z</time>
      </trkpt>
      <trkpt lat="48.02151" lon="6.98752">
        <ele>1217</ele>
        <time>2019-04-14T19:38:54Z</time>
      </trkpt>
      <trkpt lat="48.0216" lon="6.98756">
        <ele>1218</ele>
        <time>2019-04-14T19:39:54Z</time>
      </trkpt>
      <trkpt lat="48.02169" lon="6.98761">
        <ele>1218</ele>
        <time>2019-04-14T19:40:54Z</time>
      </trkpt>
      <trkpt lat="48.02181" lon="6.9877">
        <ele>1219</ele>
        <time>2019-04-14T19:41:54Z</time>
      </trkpt>
      <trkpt lat="48.02191" lon="6.98777">
        <ele>1219</ele>
        <time>2019-04-14T19:42:54Z</time>
      </trkpt>
      <trkpt lat="48.02212" lon="6.98792">
        <ele>1220</ele>
        <time>2019-04-14T19:43:54Z</time>
      </trkpt>
      <trkpt lat="48.0226" lon="6.98828">
        <ele>1223</ele>
        <time>2019-04-14T19:44:54Z</time>
      </trkpt>
      <trkpt lat="48.02275" lon="6.9884">
        <ele>1223</ele>
        <time>2019-04-14T19:45:54Z</time>
      </trkpt>
      <trkpt lat="48.02285" lon="6.98849">
        <ele>1222</ele>
        <time>2019-04-14T19:46:54Z</time>
      </trkpt>
      <trkpt lat="48.02296" lon="6.9886">
        <ele>1222</ele>
        <time>2019-04-14T19:47:54Z</time>
      </trkpt>
      <trkpt lat="48.02313" lon="6.98879">
        <ele>1222</ele>
        <time>2019-04-14T19:48:54Z</time>
      </trkpt>
      <trkpt lat="48.02322" lon="6.98891">
        <ele>1222</ele>
        <time>2019-04-14T19:49:54Z</time>
      </trkpt>
      <trkpt lat="48.02329" lon="6.989">
        <ele>1222</ele>
        <time>2019-04-14T19:50:54Z</time>
      </trkpt>
      <trkpt lat="48.02335" lon="6.98909">
        <ele>1222</ele>
        <time>2019-04-14T19:51:54Z</time>
      </trkpt>
      <trkpt lat="48.0234" lon="6.98917">
        <ele>1223</ele>
        <time>2019-04-14T19:52:54Z</time>
      </trkpt>
      <trkpt lat="48.02343" lon="6.98926">
        <ele>1222</ele>
        <time>2019-04-14T19:53:54Z</time>
      </trkpt>
      <trkpt lat="48.02346" lon="6.98934">
        <ele>1222</ele>
        <time>2019-04-14T19:54:54Z</time>
      </trkpt>
      <trkpt lat="48.02348" lon="6.98939">
        <ele>1221</ele>
        <time>2019-04-14T19:55:54Z</time>
      </trkpt>
      <trkpt lat="48.02351" lon="6.98947">
        <ele>1221</ele>
        <time>2019-04-14T19:56:54Z</time>
      </trkpt>
      <trkpt lat="48.02352" lon="6.98954">
        <ele>1221</ele>
        <time>2019-04-14T19:57:54Z</time>
      </trkpt>
      <trkpt lat="48.02354" lon="6.98961">
        <ele>1220</ele>
        <time>2019-04-14T19:58:54Z</time>
      </trkpt>
      <trkpt lat="48.02355" lon="6.98967">
        <ele>1220</ele>
        <time>2019-04-14T19:59:54Z</time>
      </trkpt>
      <trkpt lat="48.02356" lon="6.98976">
        <ele>1220</ele>
        <time>2019-04-14T20:00:54Z</time>
      </trkpt>
      <trkpt lat="48.02357" lon="6.98984">
        <ele>1220</ele>
        <time>2019-04-14T20:01:54Z</time>
      </trkpt>
      <trkpt lat="48.02357" lon="6.98991">
        <ele>1220</ele>
        <time>2019-04-14T20:02:54Z</time>
      </trkpt>
      <trkpt lat="48.02355" lon="6.98998">
        <ele>1221</ele>
        <time>2019-04-14T20:03:54Z</time>
      </trkpt>
      <trkpt lat="48.02354" lon="6.99004">
        <ele>1221</ele>
        <time>2019-04-14T20:04:54Z</time>
      </trkpt>
      <trkpt lat="48.02351" lon="6.99011">
        <ele>1221</ele>
        <time>2019-04-14T20:05:54Z</time>
      </trkpt>
      <trkpt lat="48.02347" lon="6.99019">
        <ele>1221</ele>
        <time>2019-04-14T20:06:54Z</time>
      </trkpt>
      <trkpt lat="48.0234" lon="6.99031">
        <ele>1222</ele>
        <time>2019-04-14T20:07:54Z</time>
      </trkpt>
      <trkpt lat="48.02332" lon="6.99043">
        <ele>1223</ele>
        <time>2019-04-14T20:08:54Z</time>
      </trkpt>
      <trkpt lat="48.02322" lon="6.99056">
        <ele>1225</ele>
        <time>2019-04-14T20:09:54Z</time>
      </trkpt>
      <trkpt lat="48.02301" lon="6.99085">
        <ele>1229</ele>
        <time>2019-04-14T20:10:54Z</time>
      </trkpt>
      <trkpt lat="48.02296" lon="6.99093">
        <ele>1231</ele>
        <time>2019-04-14T20:11:54Z</time>
      </trkpt>
      <trkpt lat="48.02292" lon="6.99098">
        <ele>1232</ele>
        <time>2019-04-14T20:12:54Z</time>
      </trkpt>
      <trkpt lat="48.02289" lon="6.99103">
        <ele>1233</ele>
        <time>2019-04-14T20:13:54Z</time>
      </trkpt>
      <trkpt lat="48.02288" lon="6.99107">
        <ele>1233</ele>
        <time>2019-04-14T20:14:54Z</time>
      </trkpt>
      <trkpt lat="48.02284" lon="6.99116">
        <ele>1234</ele>
        <time>2019-04-14T20:15:54Z</time>
      </trkpt>
      <trkpt lat="48.02283" lon="6.99121">
        <ele>1234</ele>
        <time>2019-04-14T20:16:54Z</time>
      </trkpt>
      <trkpt lat="48.02281" lon="6.99127">
        <ele>1235</ele>
        <time>2019-04-14T20:17:54Z</time>
      </trkpt>
      <trkpt lat="48.02281" lon="6.99132">
        <ele>1235</ele>
        <time>2019-04-14T20:18:54Z</time>
      </trkpt>
      <trkpt lat="48.02281" lon="6.99137">
        <ele>1235</ele>
        <time>2019-04-14T20:19:54Z</time>
      </trkpt>
      <trkpt lat="48.02281" lon="6.99143">
        <ele>1235</ele>
        <time>2019-04-14T20:20:54Z</time>
      </trkpt>
      <trkpt lat="48.02282" lon="6.99148">
        <ele>1234</ele>
        <time>2019-04-14T20:21:54Z</time>
      </trkpt>
      <trkpt lat="48.02283" lon="6.99156">
        <ele>1234</ele>
        <time>2019-04-14T20:22:54Z</time>
      </trkpt>
      <trkpt lat="48.02285" lon="6.99161">
        <ele>1234</ele>
        <time>2019-04-14T20:23:54Z</time>
      </trkpt>
      <trkpt lat="48.02287" lon="6.99164">
        <ele>1233</ele>
        <time>2019-04-14T20:24:54Z</time>
      </trkpt>
      <trkpt lat="48.0229" lon="6.99169">
        <ele>1233</ele>
        <time>2019-04-14T20:25:54Z</time>
      </trkpt>
      <trkpt lat="48.02294" lon="6.99173">
        <ele>1233</ele>
        <time>2019-04-14T20:26:54Z</time>
      </trkpt>
      <trkpt lat="48.02297" lon="6.99176">
        <ele>1233</ele>
        <time>2019-04-14T20:27:54Z</time>
      </trkpt>
      <trkpt lat="48.02302" lon="6.99179">
        <ele>1233</ele>
        <time>2019-04-14T20:28:54Z</time>
      </trkpt>
      <trkpt lat="48.02307" lon="6.9918">
        <ele>1232</ele>
        <time>2019-04-14T20:29:54Z</time>
      </trkpt>
      <trkpt lat="48.02315" lon="6.99181">
        <ele>1231</ele>
        <time>2019-04-14T20:30:54Z</time>
      </trkpt>
      <trkpt lat="48.02324" lon="6.99182">
        <ele>1230</ele>
        <time>2019-04-14T20:31:54Z</time>
      </trkpt>
      <trkpt lat="48.0234" lon="6.99182">
        <ele>1227</ele>
        <time>2019-04-14T20:32:54Z</time>
      </trkpt>
      <trkpt lat="48.0235" lon="6.99181">
        <ele>1225</ele>
        <time>2019-04-14T20:33:54Z</time>
      </trkpt>
      <trkpt lat="48.02358" lon="6.99182">
        <ele>1224</ele>
        <time>2019-04-14T20:34:54Z</time>
      </trkpt>
      <trkpt lat="48.02365" lon="6.99182">
        <ele>1222</ele>
        <time>2019-04-14T20:35:54Z</time>
      </trkpt>
      <trkpt lat="48.02371" lon="6.99185">
        <ele>1222</ele>
        <time>2019-04-14T20:36:54Z</time>
      </trkpt>
      <trkpt lat="48.02376" lon="6.99188">
        <ele>1221</ele>
        <time>2019-04-14T20:37:54Z</time>
      </trkpt>
      <trkpt lat="48.02381" lon="6.99192">
        <ele>1221</ele>
        <time>2019-04-14T20:38:54Z</time>
      </trkpt>
      <trkpt lat="48.02385" lon="6.99197">
        <ele>1221</ele>
        <time>2019-04-14T20:39:54Z</time>
      </trkpt>
      <trkpt lat="48.02389" lon="6.99204">
        <ele>1222</ele>
        <time>2019-04-14T20:40:54Z</time>
      </trkpt>
      <trkpt lat="48.02393" lon="6.99212">
        <ele>1223</ele>
        <time>2019-04-14T20:41:54Z</time>
      </trkpt>
      <trkpt lat="48.024" lon="6.99226">
        <ele>1224</ele>
        <time>2019-04-14T20:42:54Z</time>
      </trkpt>
      <trkpt lat="48.02421" lon="6.99274">
        <ele>1227</ele>
        <time>2019-04-14T20:43:54Z</time>
      </trkpt>
      <trkpt lat="48.02441" lon="6.99319">
        <ele>1227</ele>
        <time>2019-04-14T20:44:54Z</time>
      </trkpt>
      <trkpt lat="48.02448" lon="6.99336">
        <ele>1227</ele>
        <time>2019-04-14T20:45:54Z</time>
      </trkpt>
      <trkpt lat="48.02455" lon="6.99356">
        <ele>1228</ele>
        <time>2019-04-14T20:46:54Z</time>
      </trkpt>
      <trkpt lat="48.02458" lon="6.99366">
        <ele>1229</ele>
        <time>2019-04-14T20:47:54Z</time>
      </trkpt>
      <trkpt lat="48.02459" lon="6.99374">
        <ele>1230</ele>
        <time>2019-04-14T20:48:54Z</time>
      </trkpt>
      <trkpt lat="48.02462" lon="6.99385">
        <ele>1231</ele>
        <time>2019-04-14T20:49:54Z</time>
      </trkpt>
      <trkpt lat="48.02464" lon="6.99398">
        <ele>1232</ele>
        <time>2019-04-14T20:50:54Z</time>
      </trkpt>
      <trkpt lat="48.02466" lon="6.99415">
        <ele>1234</ele>
        <time>2019-04-14T20:51:54Z</time>
      </trkpt>
      <trkpt lat="48.02468" lon="6.99425">
        <ele>1235</ele>
        <time>2019-04-14T20:52:54Z</time>
      </trkpt>
      <trkpt lat="48.0247" lon="6.99434">
        <ele>1236</ele>
        <time>2019-04-14T20:53:54Z</time>
      </trkpt>
      <trkpt lat="48.02471" lon="6.9944">
        <ele>1237</ele>
        <time>2019-04-14T20:54:54Z</time>
      </trkpt>
      <trkpt lat="48.02475" lon="6.99452">
        <ele>1238</ele>
        <time>2019-04-14T20:55:54Z</time>
      </trkpt>
      <trkpt lat="48.0248" lon="6.99465">
        <ele>1240</ele>
        <time>2019-04-14T20:56:54Z</time>
      </trkpt>
      <trkpt lat="48.02486" lon="6.99479">
        <ele>1241</ele>
        <time>2019-04-14T20:57:54Z</time>
      </trkpt>
      <trkpt lat="48.02491" lon="6.9949">
        <ele>1241</ele>
        <time>2019-04-14T20:58:54Z</time>
      </trkpt>
      <trkpt lat="48.02496" lon="6.99499">
        <ele>1242</ele>
        <time>2019-04-14T20:59:54Z</time>
      </trkpt>
      <trkpt lat="48.02504" lon="6.9951">
        <ele>1242</ele>
        <time>2019-04-14T21:00:54Z</time>
      </trkpt>
      <trkpt lat="48.02514" lon="6.99521">
        <ele>1242</ele>
        <time>2019-04-14T21:01:54Z</time>
      </trkpt>
      <trkpt lat="48.02526" lon="6.99533">
        <ele>1242</ele>
        <time>2019-04-14T21:02:54Z</time>
      </trkpt>
      <trkpt lat="48.02533" lon="6.99541">
        <ele>1242</ele>
        <time>2019-04-14T21:03:54Z</time>
      </trkpt>
      <trkpt lat="48.02538" lon="6.99548">
        <ele>1242</ele>
        <time>2019-04-14T21:04:54Z</time>
      </trkpt>
      <trkpt lat="48.02543" lon="6.99553">
        <ele>1242</ele>
        <time>2019-04-14T21:05:54Z</time>
      </trkpt>
      <trkpt lat="48.02547" lon="6.9956">
        <ele>1243</ele>
        <time>2019-04-14T21:06:54Z</time>
      </trkpt>
      <trkpt lat="48.02553" lon="6.9957">
        <ele>1243</ele>
        <time>2019-04-14T21:07:54Z</time>
      </trkpt>
      <trkpt lat="48.02562" lon="6.99585">
        <ele>1244</ele>
        <time>2019-04-14T21:08:54Z</time>
      </trkpt>
      <trkpt lat="48.02572" lon="6.99603">
        <ele>1244</ele>
        <time>2019-04-14T21:09:54Z</time>
      </trkpt>
      <trkpt lat="48.0258" lon="6.99619">
        <ele>1244</ele>
        <time>2019-04-14T21:10:54Z</time>
      </trkpt>
      <trkpt lat="48.02591" lon="6.99644">
        <ele>1245</ele>
        <time>2019-04-14T21:11:54Z</time>
      </trkpt>
      <trkpt lat="48.02595" lon="6.99652">
        <ele>1245</ele>
        <time>2019-04-14T21:12:54Z</time>
      </trkpt>
      <trkpt lat="48.02599" lon="6.99659">
        <ele>1245</ele>
        <time>2019-04-14T21:13:54Z</time>
      </trkpt>
      <trkpt lat="48.02602" lon="6.99665">
        <ele>1245</ele>
        <time>2019-04-14T21:14:54Z</time>
      </trkpt>
      <trkpt lat="48.02606" lon="6.99669">
        <ele>1245</ele>
        <time>2019-04-14T21:15:54Z</time>
      </trkpt>
      <trkpt lat="48.02609" lon="6.99673">
        <ele>1245</ele>
        <time>2019-04-14T21:16:54Z</time>
      </trkpt>
      <trkpt lat="48.02613" lon="6.99676">
        <ele>1245</ele>
        <time>2019-04-14T21:17:54Z</time>
      </trkpt>
      <trkpt lat="48.02617" lon="6.99679">
        <ele>1245</ele>
        <time>2019-04-14T21:18:54Z</time>
      </trkpt>
      <trkpt lat="48.02623" lon="6.99682">
        <ele>1244</ele>
        <time>2019-04-14T21:19:54Z</time>
      </trkpt>
      <trkpt lat="48.02627" lon="6.99685">
        <ele>1244</ele>
        <time>2019-04-14T21:20:54Z</time>
      </trkpt>
      <trkpt lat="48.02633" lon="6.99687">
        <ele>1243</ele>
        <time>2019-04-14T21:21:54Z</time>
      </trkpt>
      <trkpt lat="48.02646" lon="6.9969">
        <ele>1242</ele>
        <time>2019-04-14T21:22:54Z</time>
      </trkpt>
      <trkpt lat="48.0265" lon="6.99692">
        <ele>1241</ele>
        <time>2019-04-14T21:23:54Z</time>
      </trkpt>
      <trkpt lat="48.02661" lon="6.99696">
        <ele>1240</ele>
        <time>2019-04-14T21:24:54Z</time>
      </trkpt>
      <trkpt lat="48.02667" lon="6.99698">
        <ele>1240</ele>
        <time>2019-04-14T21:25:54Z</time>
      </trkpt>
      <trkpt lat="48.02671" lon="6.997">
        <ele>1239</ele>
        <time>2019-04-14T21:26:54Z</time>
      </trkpt>
      <trkpt lat="48.02676" lon="6.99703">
        <ele>1239</ele>
        <time>2019-04-14T21:27:54Z</time>
      </trkpt>
      <trkpt lat="48.02681" lon="6.99707">
        <ele>1239</ele>
        <time>2019-04-14T21:28:54Z</time>
      </trkpt>
      <trkpt lat="48.02687" lon="6.99712">
        <ele>1238</ele>
        <time>2019-04-14T21:29:54Z</time>
      </trkpt>
      <trkpt lat="48.02692" lon="6.99719">
        <ele>1239</ele>
        <time>2019-04-14T21:30:54Z</time>
      </trkpt>
      <trkpt lat="48.02698" lon="6.99725">
        <ele>1239</ele>
        <time>2019-04-14T21:31:54Z</time>
      </trkpt>
      <trkpt lat="48.027" lon="6.99729">
        <ele>1239</ele>
        <time>2019-04-14T21:32:54Z</time>
      </trkpt>
      <trkpt lat="48.02707" lon="6.99742">
        <ele>1240</ele>
        <time>2019-04-14T21:33:54Z</time>
      </trkpt>
      <trkpt lat="48.02719" lon="6.99766">
        <ele>1240</ele>
        <time>2019-04-14T21:34:54Z</time>
      </trkpt>
      <trkpt lat="48.0273" lon="6.99789">
        <ele>1240</ele>
        <time>2019-04-14T21:35:54Z</time>
      </trkpt>
      <trkpt lat="48.02736" lon="6.998">
        <ele>1239</ele>
        <time>2019-04-14T21:36:54Z</time>
      </trkpt>
      <trkpt lat="48.02752" lon="6.99835">
        <ele>1239</ele>
        <time>2019-04-14T21:37:54Z</time>
      </trkpt>
      <trkpt lat="48.02761" lon="6.99854">
        <ele>1239</ele>
        <time>2019-04-14T21:38:54Z</time>
      </trkpt>
      <trkpt lat="48.02768" lon="6.99871">
        <ele>1239</ele>
        <time>2019-04-14T21:39:54Z</time>
      </trkpt>
      <trkpt lat="48.02774" lon="6.99889">
        <ele>1240</ele>
        <time>2019-04-14T21:40:54Z</time>
      </trkpt>
      <trkpt lat="48.0278" lon="6.99906">
        <ele>1240</ele>
        <time>2019-04-14T21:41:54Z</time>
      </trkpt>
      <trkpt lat="48.02788" lon="6.99929">
        <ele>1241</ele>
        <time>2019-04-14T21:42:54Z</time>
      </trkpt>
      <trkpt lat="48.02801" lon="6.99972">
        <ele>1243</ele>
        <time>2019-04-14T21:43:54Z</time>
      </trkpt>
      <trkpt lat="48.02806" lon="6.9999">
        <ele>1245</ele>
        <time>2019-04-14T21:44:54Z</time>
      </trkpt>
      <trkpt lat="48.0281" lon="7.00004">
        <ele>1245</ele>
        <time>2019-04-14T21:45:54Z</time>
      </trkpt>
      <trkpt lat="48.02813" lon="7.00022">
        <ele>1245</ele>
        <time>2019-04-14T21:46:54Z</time>
      </trkpt>
      <trkpt lat="48.02816" lon="7.00039">
        <ele>1245</ele>
        <time>2019-04-14T21:47:54Z</time>
      </trkpt>
      <trkpt lat="48.02819" lon="7.00062">
        <ele>1246</ele>
        <time>2019-04-14T21:48:54Z</time>
      </trkpt>
      <trkpt lat="48.02829" lon="7.00128">
        <ele>1248</ele>
        <time>2019-04-14T21:49:54Z</time>
      </trkpt>
      <trkpt lat="48.02841" lon="7.0022">
        <ele>1251</ele>
        <time>2019-04-14T21:50:54Z</time>
      </trkpt>
      <trkpt lat="48.02847" lon="7.00269">
        <ele>1253</ele>
        <time>2019-04-14T21:51:54Z</time>
      </trkpt>
      <trkpt lat="48.02849" lon="7.0028">
        <ele>1253</ele>
        <time>2019-04-14T21:52:54Z</time>
      </trkpt>
      <trkpt lat="48.02851" lon="7.0029">
        <ele>1253</ele>
        <time>2019-04-14T21:53:54Z</time>
      </trkpt>
      <trkpt lat="48.02853" lon="7.00299">
        <ele>1253</ele>
        <time>2019-04-14T21:54:54Z</time>
      </trkpt>
      <trkpt lat="48.02854" lon="7.00306">
        <ele>1254</ele>
        <time>2019-04-14T21:55:54Z</time>
      </trkpt>
      <trkpt lat="48.02856" lon="7.00312">
        <ele>1254</ele>
        <time>2019-04-14T21:56:54Z</time>
      </trkpt>
      <trkpt lat="48.02859" lon="7.0032">
        <ele>1254</ele>
        <time>2019-04-14T21:57:54Z</time>
      </trkpt>
      <trkpt lat="48.02862" lon="7.00327">
        <ele>1253</ele>
        <time>2019-04-14T21:58:54Z</time>
      </trkpt>
      <trkpt lat="48.02865" lon="7.00334">
        <ele>1253</ele>
        <time>2019-04-14T21:59:54Z</time>
      </trkpt>
      <trkpt lat="48.0287" lon="7.00344">
        <ele>1253</ele>
        <time>2019-04-14T22:00:54Z</time>
      </trkpt>
      <trkpt lat="48.02876" lon="7.00356">
        <ele>1252</ele>
        <time>2019-04-14T22:01:54Z</time>
      </trkpt>
      <trkpt lat="48.02882" lon="7.00365">
        <ele>1252</ele>
        <time>2019-04-14T22:02:54Z</time>
      </trkpt>
      <trkpt lat="48.02889" lon="7.00376">
        <ele>1251</ele>
        <time>2019-04-14T22:03:54Z</time>
      </trkpt>
      <trkpt lat="48.02896" lon="7.00385">
        <ele>1250</ele>
        <time>2019-04-14T22:04:54Z</time>
      </trkpt>
      <trkpt lat="48.02906" lon="7.00397">
        <ele>1249</ele>
        <time>2019-04-14T22:05:54Z</time>
      </trkpt>
      <trkpt lat="48.02929" lon="7.00424">
        <ele>1249</ele>
        <time>2019-04-14T22:06:54Z</time>
      </trkpt>
      <trkpt lat="48.02947" lon="7.00445">
        <ele>1252</ele>
        <time>2019-04-14T22:07:54Z</time>
      </trkpt>
      <trkpt lat="48.02953" lon="7.00452">
        <ele>1252</ele>
        <time>2019-04-14T22:08:54Z</time>
      </trkpt>
      <trkpt lat="48.02963" lon="7.0046">
        <ele>1253</ele>
        <time>2019-04-14T22:09:54Z</time>
      </trkpt>
      <trkpt lat="48.02965" lon="7.00462">
        <ele>1253</ele>
        <time>2019-04-14T22:10:54Z</time>
      </trkpt>
      <trkpt lat="48.02969" lon="7.00463">
        <ele>1253</ele>
        <time>2019-04-14T22:11:54Z</time>
      </trkpt>
      <trkpt lat="48.02972" lon="7.00464">
        <ele>1253</ele>
        <time>2019-04-14T22:12:54Z</time>
      </trkpt>
      <trkpt lat="48.02977" lon="7.00465">
        <ele>1253</ele>
        <time>2019-04-14T22:13:54Z</time>
      </trkpt>
      <trkpt lat="48.02982" lon="7.00465">
        <ele>1253</ele>
        <time>2019-04-14T22:14:54Z</time>
      </trkpt>
      <trkpt lat="48.02987" lon="7.00465">
        <ele>1253</ele>
        <time>2019-04-14T22:15:54Z</time>
      </trkpt>
      <trkpt lat="48.02991" lon="7.00465">
        <ele>1253</ele>
        <time>2019-04-14T22:16:54Z</time>
      </trkpt>
      <trkpt lat="48.02995" lon="7.00463">
        <ele>1253</ele>
        <time>2019-04-14T22:17:54Z</time>
      </trkpt>
      <trkpt lat="48.03002" lon="7.00461">
        <ele>1253</ele>
        <time>2019-04-14T22:18:54Z</time>
      </trkpt>
      <trkpt lat="48.03008" lon="7.00458">
        <ele>1253</ele>
        <time>2019-04-14T22:19:54Z</time>
      </trkpt>
      <trkpt lat="48.03012" lon="7.00455">
        <ele>1254</ele>
        <time>2019-04-14T22:20:54Z</time>
      </trkpt>
      <trkpt lat="48.03015" lon="7.00451">
        <ele>1254</ele>
        <time>2019-04-14T22:21:54Z</time>
      </trkpt>
      <trkpt lat="48.03019" lon="7.00447">
        <ele>1254</ele>
        <time>2019-04-14T22:22:54Z</time>
      </trkpt>
      <trkpt lat="48.03024" lon="7.00439">
        <ele>1254</ele>
        <time>2019-04-14T22:23:54Z</time>
      </trkpt>
      <trkpt lat="48.03029" lon="7.00429">
        <ele>1254</ele>
        <time>2019-04-14T22:24:54Z</time>
      </trkpt>
      <trkpt lat="48.03036" lon="7.00413">
        <ele>1254</ele>
        <time>2019-04-14T22:25:54Z</time>
      </trkpt>
      <trkpt lat="48.0304" lon="7.00405">
        <ele>1254</ele>
        <time>2019-04-14T22:26:54Z</time>
      </trkpt>
      <trkpt lat="48.03043" lon="7.00398">
        <ele>1254</ele>
        <time>2019-04-14T22:27:54Z</time>
      </trkpt>
      <trkpt lat="48.03046" lon="7.00392">
        <ele>1254</ele>
        <time>2019-04-14T22:28:54Z</time>
      </trkpt>
      <trkpt lat="48.0305" lon="7.00387">
        <ele>1254</ele>
        <time>2019-04-14T22:29:54Z</time>
      </trkpt>
      <trkpt lat="48.03055" lon="7.00379">
        <ele>1254</ele>
        <time>2019-04-14T22:30:54Z</time>
      </trkpt>
      <trkpt lat="48.03063" lon="7.0037">
        <ele>1254</ele>
        <time>2019-04-14T22:31:54Z</time>
      </trkpt>
      <trkpt lat="48.03082" lon="7.00349">
        <ele>1255</ele>
        <time>2019-04-14T22:32:54Z</time>
      </trkpt>
      <trkpt lat="48.03103" lon="7.00325">
        <ele>1256</ele>
        <time>2019-04-14T22:33:54Z</time>
      </trkpt>
      <trkpt lat="48.03106" lon="7.00322">
        <ele>1257</ele>
        <time>2019-04-14T22:34:54Z</time>
      </trkpt>
      <trkpt lat="48.03122" lon="7.00303">
        <ele>1258</ele>
        <time>2019-04-14T22:35:54Z</time>
      </trkpt>
      <trkpt lat="48.03134" lon="7.00288">
        <ele>1258</ele>
        <time>2019-04-14T22:36:54Z</time>
      </trkpt>
      <trkpt lat="48.0314" lon="7.0028">
        <ele>1259</ele>
        <time>2019-04-14T22:37:54Z</time>
      </trkpt>
      <trkpt lat="48.03157" lon="7.00247">
        <ele>1258</ele>
        <time>2019-04-14T22:38:54Z</time>
      </trkpt>
      <trkpt lat="48.03171" lon="7.0022">
        <ele>1258</ele>
        <time>2019-04-14T22:39:54Z</time>
      </trkpt>
      <trkpt lat="48.03182" lon="7.00201">
        <ele>1258</ele>
        <time>2019-04-14T22:40:54Z</time>
      </trkpt>
      <trkpt lat="48.03188" lon="7.00193">
        <ele>1258</ele>
        <time>2019-04-14T22:41:54Z</time>
      </trkpt>
      <trkpt lat="48.03195" lon="7.00184">
        <ele>1257</ele>
        <time>2019-04-14T22:42:54Z</time>
      </trkpt>
      <trkpt lat="48.03203" lon="7.00174">
        <ele>1257</ele>
        <time>2019-04-14T22:43:54Z</time>
      </trkpt>
      <trkpt lat="48.03211" lon="7.00165">
        <ele>1257</ele>
        <time>2019-04-14T22:44:54Z</time>
      </trkpt>
      <trkpt lat="48.03221" lon="7.00156">
        <ele>1257</ele>
        <time>2019-04-14T22:45:54Z</time>
      </trkpt>
      <trkpt lat="48.03229" lon="7.00149">
        <ele>1257</ele>
        <time>2019-04-14T22:46:54Z</time>
      </trkpt>
      <trkpt lat="48.03235" lon="7.00144">
        <ele>1257</ele>
        <time>2019-04-14T22:47:54Z</time>
      </trkpt>
      <trkpt lat="48.03241" lon="7.00141">
        <ele>1257</ele>
        <time>2019-04-14T22:48:54Z</time>
      </trkpt>
      <trkpt lat="48.03244" lon="7.00139">
        <ele>1257</ele>
        <time>2019-04-14T22:49:54Z</time>
      </trkpt>
      <trkpt lat="48.03249" lon="7.00137">
        <ele>1258</ele>
        <time>2019-04-14T22:50:54Z</time>
      </trkpt>
      <trkpt lat="48.03253" lon="7.00136">
        <ele>1257</ele>
        <time>2019-04-14T22:51:54Z</time>
      </trkpt>
      <trkpt lat="48.03257" lon="7.00136">
        <ele>1257</ele>
        <time>2019-04-14T22:52:54Z</time>
      </trkpt>
      <trkpt lat="48.03262" lon="7.00137">
        <ele>1257</ele>
        <time>2019-04-14T22:53:54Z</time>
      </trkpt>
      <trkpt lat="48.03269" lon="7.0014">
        <ele>1257</ele>
        <time>2019-04-14T22:54:54Z</time>
      </trkpt>
      <trkpt lat="48.03276" lon="7.00144">
        <ele>1257</ele>
        <time>2019-04-14T22:55:54Z</time>
      </trkpt>
      <trkpt lat="48.03283" lon="7.00149">
        <ele>1257</ele>
        <time>2019-04-14T22:56:54Z</time>
      </trkpt>
      <trkpt lat="48.03287" lon="7.00153">
        <ele>1257</ele>
        <time>2019-04-14T22:57:54Z</time>
      </trkpt>
      <trkpt lat="48.03293" lon="7.0016">
        <ele>1257</ele>
        <time>2019-04-14T22:58:54Z</time>
      </trkpt>
      <trkpt lat="48.03314" lon="7.00193">
        <ele>1257</ele>
        <time>2019-04-14T22:59:54Z</time>
      </trkpt>
      <trkpt lat="48.03329" lon="7.00217">
        <ele>1257</ele>
        <time>2019-04-14T23:00:54Z</time>
      </trkpt>
      <trkpt lat="48.03337" lon="7.0023">
        <ele>1257</ele>
        <time>2019-04-14T23:01:54Z</time>
      </trkpt>
      <trkpt lat="48.03345" lon="7.00245">
        <ele>1256</ele>
        <time>2019-04-14T23:02:54Z</time>
      </trkpt>
      <trkpt lat="48.03356" lon="7.00264">
        <ele>1255</ele>
        <time>2019-04-14T23:03:54Z</time>
      </trkpt>
      <trkpt lat="48.03368" lon="7.00289">
        <ele>1254</ele>
        <time>2019-04-14T23:04:54Z</time>
      </trkpt>
      <trkpt lat="48.0338" lon="7.00315">
        <ele>1253</ele>
        <time>2019-04-14T23:05:54Z</time>
      </trkpt>
      <trkpt lat="48.03395" lon="7.00352">
        <ele>1253</ele>
        <time>2019-04-14T23:06:54Z</time>
      </trkpt>
      <trkpt lat="48.03405" lon="7.00377">
        <ele>1252</ele>
        <time>2019-04-14T23:07:54Z</time>
      </trkpt>
      <trkpt lat="48.03409" lon="7.0039">
        <ele>1252</ele>
        <time>2019-04-14T23:08:54Z</time>
      </trkpt>
      <trkpt lat="48.03412" lon="7.004">
        <ele>1252</ele>
        <time>2019-04-14T23:09:54Z</time>
      </trkpt>
      <trkpt lat="48.03416" lon="7.00412">
        <ele>1252</ele>
        <time>2019-04-14T23:10:54Z</time>
      </trkpt>
      <trkpt lat="48.0342" lon="7.0043">
        <ele>1252</ele>
        <time>2019-04-14T23:11:54Z</time>
      </trkpt>
      <trkpt lat="48.03424" lon="7.00449">
        <ele>1252</ele>
        <time>2019-04-14T23:12:54Z</time>
      </trkpt>
      <trkpt lat="48.0343" lon="7.00481">
        <ele>1251</ele>
        <time>2019-04-14T23:13:54Z</time>
      </trkpt>
      <trkpt lat="48.03433" lon="7.00494">
        <ele>1251</ele>
        <time>2019-04-14T23:14:54Z</time>
      </trkpt>
      <trkpt lat="48.03435" lon="7.00505">
        <ele>1252</ele>
        <time>2019-04-14T23:15:54Z</time>
      </trkpt>
      <trkpt lat="48.03437" lon="7.00515">
        <ele>1252</ele>
        <time>2019-04-14T23:16:54Z</time>
      </trkpt>
      <trkpt lat="48.0344" lon="7.00525">
        <ele>1252</ele>
        <time>2019-04-14T23:17:54Z</time>
      </trkpt>
      <trkpt lat="48.03444" lon="7.00539">
        <ele>1253</ele>
        <time>2019-04-14T23:18:54Z</time>
      </trkpt>
      <trkpt lat="48.03447" lon="7.00546">
        <ele>1252</ele>
        <time>2019-04-14T23:19:54Z</time>
      </trkpt>
      <trkpt lat="48.03449" lon="7.00553">
        <ele>1253</ele>
        <time>2019-04-14T23:20:54Z</time>
      </trkpt>
      <trkpt lat="48.03452" lon="7.0056">
        <ele>1252</ele>
        <time>2019-04-14T23:21:54Z</time>
      </trkpt>
      <trkpt lat="48.03456" lon="7.00569">
        <ele>1252</ele>
        <time>2019-04-14T23:22:54Z</time>
      </trkpt>
      <trkpt lat="48.03461" lon="7.00577">
        <ele>1252</ele>
        <time>2019-04-14T23:23:54Z</time>
      </trkpt>
      <trkpt lat="48.03466" lon="7.00587">
        <ele>1251</ele>
        <time>2019-04-14T23:24:54Z</time>
      </trkpt>
      <trkpt lat="48.03473" lon="7.00599">
        <ele>1251</ele>
        <time>2019-04-14T23:25:54Z</time>
      </trkpt>
      <trkpt lat="48.03479" lon="7.00609">
        <ele>1250</ele>
        <time>2019-04-14T23:26:54Z</time>
      </trkpt>
      <trkpt lat="48.03515" lon="7.00673">
        <ele>1248</ele>
        <time>2019-04-14T23:27:54Z</time>
      </trkpt>
      <trkpt lat="48.03529" lon="7.00696">
        <ele>1247</ele>
        <time>2019-04-14T23:28:54Z</time>
      </trkpt>
      <trkpt lat="48.03546" lon="7.00729">
        <ele>1246</ele>
        <time>2019-04-14T23:29:54Z</time>
      </trkpt>
      <trkpt lat="48.03559" lon="7.00752">
        <ele>1246</ele>
        <time>2019-04-14T23:30:54Z</time>
      </trkpt>
      <trkpt lat="48.03562" lon="7.00756">
        <ele>1246</ele>
        <time>2019-04-14T23:31:54Z</time>
      </trkpt>
      <trkpt lat="48.03565" lon="7.0076">
        <ele>1246</ele>
        <time>2019-04-14T23:32:54Z</time>
      </trkpt>
      <trkpt lat="48.03571" lon="7.00767">
        <ele>1245</ele>
        <time>2019-04-14T23:33:54Z</time>
      </trkpt>
      <trkpt lat="48.03575" lon="7.00771">
        <ele>1245</ele>
        <time>2019-04-14T23:34:54Z</time>
      </trkpt>
      <trkpt lat="48.03579" lon="7.00775">
        <ele>1245</ele>
        <time>2019-04-14T23:35:54Z</time>
      </trkpt>
      <trkpt lat="48.03582" lon="7.00778">
        <ele>1245</ele>
        <time>2019-04-14T23:36:54Z</time>
      </trkpt>
      <trkpt lat="48.03586" lon="7.00781">
        <ele>1244</ele>
        <time>2019-04-14T23:37:54Z</time>
      </trkpt>
      <trkpt lat="48.03593" lon="7.00785">
        <ele>1244</ele>
        <time>2019-04-14T23:38:54Z</time>
      </trkpt>
      <trkpt lat="48.036" lon="7.00789">
        <ele>1244</ele>
        <time>2019-04-14T23:39:54Z</time>
      </trkpt>
      <trkpt lat="48.03613" lon="7.00792">
        <ele>1244</ele>
        <time>2019-04-14T23:40:54Z</time>
      </trkpt>
      <trkpt lat="48.03621" lon="7.00793">
        <ele>1244</ele>
        <time>2019-04-14T23:41:54Z</time>
      </trkpt>
      <trkpt lat="48.03629" lon="7.00794">
        <ele>1244</ele>
        <time>2019-04-14T23:42:54Z</time>
      </trkpt>
      <trkpt lat="48.03634" lon="7.00793">
        <ele>1243</ele>
        <time>2019-04-14T23:43:54Z</time>
      </trkpt>
      <trkpt lat="48.03656" lon="7.00791">
        <ele>1242</ele>
        <time>2019-04-14T23:44:54Z</time>
      </trkpt>
      <trkpt lat="48.03669" lon="7.0079">
        <ele>1241</ele>
        <time>2019-04-14T23:45:54Z</time>
      </trkpt>
      <trkpt lat="48.03682" lon="7.00789">
        <ele>1240</ele>
        <time>2019-04-14T23:46:54Z</time>
      </trkpt>
      <trkpt lat="48.03691" lon="7.0079">
        <ele>1240</ele>
        <time>2019-04-14T23:47:54Z</time>
      </trkpt>
      <trkpt lat="48.037" lon="7.00791">
        <ele>1240</ele>
        <time>2019-04-14T23:48:54Z</time>
      </trkpt>
      <trkpt lat="48.03718" lon="7.00794">
        <ele>1240</ele>
        <time>2019-04-14T23:49:54Z</time>
      </trkpt>
      <trkpt lat="48.03755" lon="7.00804">
        <ele>1240</ele>
        <time>2019-04-14T23:50:54Z</time>
      </trkpt>
      <trkpt lat="48.03767" lon="7.00807">
        <ele>1240</ele>
        <time>2019-04-14T23:51:54Z</time>
      </trkpt>
      <trkpt lat="48.0378" lon="7.00807">
        <ele>1240</ele>
        <time>2019-04-14T23:52:54Z</time>
      </trkpt>
      <trkpt lat="48.03823" lon="7.00805">
        <ele>1238</ele>
        <time>2019-04-14T23:53:54Z</time>
      </trkpt>
      <trkpt lat="48.03866" lon="7.00801">
        <ele>1238</ele>
        <time>2019-04-14T23:54:54Z</time>
      </trkpt>
      <trkpt lat="48.03909" lon="7.00792">
        <ele>1237</ele>
        <time>2019-04-14T23:55:54Z</time>
      </trkpt>
      <trkpt lat="48.0394" lon="7.00782">
        <ele>1239</ele>
        <time>2019-04-14T23:56:54Z</time>
      </trkpt>
      <trkpt lat="48.03951" lon="7.00776">
        <ele>1239</ele>
        <time>2019-04-14T23:57:54Z</time>
      </trkpt>
      <trkpt lat="48.03961" lon="7.00768">
        <ele>1239</ele>
        <time>2019-04-14T23:58:54Z</time>
      </trkpt>
      <trkpt lat="48.0397" lon="7.00755">
        <ele>1239</ele>
        <time>2019-04-14T23:59:54Z</time>
      </trkpt>
      <trkpt lat="48.0398" lon="7.00734">
        <ele>1238</ele>
        <time>2019-04-15T00:00:54Z</time>
      </trkpt>
      <trkpt lat="48.04002" lon="7.00678">
        <ele>1235</ele>
        <time>2019-04-15T00:01:54Z</time>
      </trkpt>
      <trkpt lat="48.04017" lon="7.00651">
        <ele>1236</ele>
        <time>2019-04-15T00:02:54Z</time>
      </trkpt>
      <trkpt lat="48.0404" lon="7.00617">
        <ele>1236</ele>
        <time>2019-04-15T00:03:54Z</time>
      </trkpt>
      <trkpt lat="48.04088" lon="7.00556">
        <ele>1237</ele>
        <time>2019-04-15T00:04:54Z</time>
      </trkpt>
      <trkpt lat="48.04105" lon="7.0054">
        <ele>1238</ele>
        <time>2019-04-15T00:05:54Z</time>
      </trkpt>
      <trkpt lat="48.04129" lon="7.0051">
        <ele>1237</ele>
        <time>2019-04-15T00:06:54Z</time>
      </trkpt>
      <trkpt lat="48.0414" lon="7.00498">
        <ele>1237</ele>
        <time>2019-04-15T00:07:54Z</time>
      </trkpt>
      <trkpt lat="48.04148" lon="7.0049">
        <ele>1237</ele>
        <time>2019-04-15T00:08:54Z</time>
      </trkpt>
      <trkpt lat="48.04157" lon="7.00484">
        <ele>1237</ele>
        <time>2019-04-15T00:09:54Z</time>
      </trkpt>
      <trkpt lat="48.04178" lon="7.00473">
        <ele>1237</ele>
        <time>2019-04-15T00:10:54Z</time>
      </trkpt>
      <trkpt lat="48.04207" lon="7.00459">
        <ele>1236</ele>
        <time>2019-04-15T00:11:54Z</time>
      </trkpt>
      <trkpt lat="48.04226" lon="7.0045">
        <ele>1235</ele>
        <time>2019-04-15T00:12:54Z</time>
      </trkpt>
      <trkpt lat="48.04241" lon="7.00444">
        <ele>1235</ele>
        <time>2019-04-15T00:13:54Z</time>
      </trkpt>
      <trkpt lat="48.04253" lon="7.00441">
        <ele>1235</ele>
        <time>2019-04-15T00:14:54Z</time>
      </trkpt>
      <trkpt lat="48.04264" lon="7.0044">
        <ele>1233</ele>
        <time>2019-04-15T00:15:54Z</time>
      </trkpt>
      <trkpt lat="48.0428" lon="7.00441">
        <ele>1231</ele>
        <time>2019-04-15T00:16:54Z</time>
      </trkpt>
      <trkpt lat="48.0429" lon="7.00443">
        <ele>1231</ele>
        <time>2019-04-15T00:17:54Z</time>
      </trkpt>
      <trkpt lat="48.04295" lon="7.00445">
        <ele>1230</ele>
        <time>2019-04-15T00:18:54Z</time>
      </trkpt>
      <trkpt lat="48.04306" lon="7.00451">
        <ele>1230</ele>
        <time>2019-04-15T00:19:54Z</time>
      </trkpt>
      <trkpt lat="48.04322" lon="7.00467">
        <ele>1232</ele>
        <time>2019-04-15T00:20:54Z</time>
      </trkpt>
      <trkpt lat="48.04339" lon="7.00487">
        <ele>1233</ele>
        <time>2019-04-15T00:21:54Z</time>
      </trkpt>
      <trkpt lat="48.04363" lon="7.00518">
        <ele>1234</ele>
        <time>2019-04-15T00:22:54Z</time>
      </trkpt>
      <trkpt lat="48.0438" lon="7.0054">
        <ele>1234</ele>
        <time>2019-04-15T00:23:54Z</time>
      </trkpt>
      <trkpt lat="48.04399" lon="7.00563">
        <ele>1234</ele>
        <time>2019-04-15T00:24:54Z</time>
      </trkpt>
      <trkpt lat="48.04421" lon="7.00586">
        <ele>1234</ele>
        <time>2019-04-15T00:25:54Z</time>
      </trkpt>
      <trkpt lat="48.04434" lon="7.00602">
        <ele>1234</ele>
        <time>2019-04-15T00:26:54Z</time>
      </trkpt>
      <trkpt lat="48.04446" lon="7.00619">
        <ele>1235</ele>
        <time>2019-04-15T00:27:54Z</time>
      </trkpt>
      <trkpt lat="48.04459" lon="7.00635">
        <ele>1236</ele>
        <time>2019-04-15T00:28:54Z</time>
      </trkpt>
      <trkpt lat="48.04469" lon="7.00647">
        <ele>1237</ele>
        <time>2019-04-15T00:29:54Z</time>
      </trkpt>
      <trkpt lat="48.04483" lon="7.00659">
        <ele>1236</ele>
        <time>2019-04-15T00:30:54Z</time>
      </trkpt>
      <trkpt lat="48.04492" lon="7.00664">
        <ele>1236</ele>
        <time>2019-04-15T00:31:54Z</time>
      </trkpt>
      <trkpt lat="48.0452" lon="7.00682">
        <ele>1233</ele>
        <time>2019-04-15T00:32:54Z</time>
      </trkpt>
      <trkpt lat="48.04527" lon="7.00687">
        <ele>1232</ele>
        <time>2019-04-15T00:33:54Z</time>
      </trkpt>
      <trkpt lat="48.04535" lon="7.00694">
        <ele>1231</ele>
        <time>2019-04-15T00:34:54Z</time>
      </trkpt>
      <trkpt lat="48.04547" lon="7.00706">
        <ele>1230</ele>
        <time>2019-04-15T00:35:54Z</time>
      </trkpt>
      <trkpt lat="48.04563" lon="7.00726">
        <ele>1230</ele>
        <time>2019-04-15T00:36:54Z</time>
      </trkpt>
      <trkpt lat="48.0458" lon="7.00748">
        <ele>1231</ele>
        <time>2019-04-15T00:37:54Z</time>
      </trkpt>
      <trkpt lat="48.04599" lon="7.0077">
        <ele>1233</ele>
        <time>2019-04-15T00:38:54Z</time>
      </trkpt>
      <trkpt lat="48.04613" lon="7.00781">
        <ele>1234</ele>
        <time>2019-04-15T00:39:54Z</time>
      </trkpt>
      <trkpt lat="48.0462" lon="7.00786">
        <ele>1234</ele>
        <time>2019-04-15T00:40:54Z</time>
      </trkpt>
      <trkpt lat="48.04633" lon="7.00791">
        <ele>1234</ele>
        <time>2019-04-15T00:41:54Z</time>
      </trkpt>
      <trkpt lat="48.04652" lon="7.00797">
        <ele>1233</ele>
        <time>2019-04-15T00:42:54Z</time>
      </trkpt>
      <trkpt lat="48.04669" lon="7.00802">
        <ele>1232</ele>
        <time>2019-04-15T00:43:54Z</time>
      </trkpt>
      <trkpt lat="48.04687" lon="7.0081">
        <ele>1232</ele>
        <time>2019-04-15T00:44:54Z</time>
      </trkpt>
      <trkpt lat="48.04711" lon="7.00824">
        <ele>1232</ele>
        <time>2019-04-15T00:45:54Z</time>
      </trkpt>
      <trkpt lat="48.04738" lon="7.00839">
        <ele>1231</ele>
        <time>2019-04-15T00:46:54Z</time>
      </trkpt>
      <trkpt lat="48.04764" lon="7.00853">
        <ele>1230</ele>
        <time>2019-04-15T00:47:54Z</time>
      </trkpt>
      <trkpt lat="48.0478" lon="7.00862">
        <ele>1230</ele>
        <time>2019-04-15T00:48:54Z</time>
      </trkpt>
      <trkpt lat="48.04799" lon="7.00874">
        <ele>1230</ele>
        <time>2019-04-15T00:49:54Z</time>
      </trkpt>
      <trkpt lat="48.04835" lon="7.00898">
        <ele>1230</ele>
        <time>2019-04-15T00:50:54Z</time>
      </trkpt>
      <trkpt lat="48.04844" lon="7.00905">
        <ele>1230</ele>
        <time>2019-04-15T00:51:54Z</time>
      </trkpt>
      <trkpt lat="48.0486" lon="7.00917">
        <ele>1229</ele>
        <time>2019-04-15T00:52:54Z</time>
      </trkpt>
      <trkpt lat="48.04873" lon="7.00927">
        <ele>1229</ele>
        <time>2019-04-15T00:53:54Z</time>
      </trkpt>
      <trkpt lat="48.04888" lon="7.0094">
        <ele>1229</ele>
        <time>2019-04-15T00:54:54Z</time>
      </trkpt>
      <trkpt lat="48.04909" lon="7.0096">
        <ele>1229</ele>
        <time>2019-04-15T00:55:54Z</time>
      </trkpt>
      <trkpt lat="48.04928" lon="7.00978">
        <ele>1230</ele>
        <time>2019-04-15T00:56:54Z</time>
      </trkpt>
      <trkpt lat="48.04942" lon="7.0099">
        <ele>1231</ele>
        <time>2019-04-15T00:57:54Z</time>
      </trkpt>
      <trkpt lat="48.04949" lon="7.00997">
        <ele>1232</ele>
        <time>2019-04-15T00:58:54Z</time>
      </trkpt>
      <trkpt lat="48.04963" lon="7.01008">
        <ele>1233</ele>
        <time>2019-04-15T00:59:54Z</time>
      </trkpt>
      <trkpt lat="48.04969" lon="7.01013">
        <ele>1233</ele>
        <time>2019-04-15T01:00:54Z</time>
      </trkpt>
      <trkpt lat="48.04978" lon="7.01017">
        <ele>1233</ele>
        <time>2019-04-15T01:01:54Z</time>
      </trkpt>
      <trkpt lat="48.04993" lon="7.01023">
        <ele>1232</ele>
        <time>2019-04-15T01:02:54Z</time>
      </trkpt>
      <trkpt lat="48.05021" lon="7.01032">
        <ele>1230</ele>
        <time>2019-04-15T01:03:54Z</time>
      </trkpt>
      <trkpt lat="48.05036" lon="7.01038">
        <ele>1229</ele>
        <time>2019-04-15T01:04:54Z</time>
      </trkpt>
      <trkpt lat="48.05043" lon="7.01042">
        <ele>1228</ele>
        <time>2019-04-15T01:05:54Z</time>
      </trkpt>
      <trkpt lat="48.05049" lon="7.01047">
        <ele>1228</ele>
        <time>2019-04-15T01:06:54Z</time>
      </trkpt>
      <trkpt lat="48.05056" lon="7.01055">
        <ele>1228</ele>
        <time>2019-04-15T01:07:54Z</time>
      </trkpt>
      <trkpt lat="48.05061" lon="7.01064">
        <ele>1229</ele>
        <time>2019-04-15T01:08:54Z</time>
      </trkpt>
      <trkpt lat="48.05067" lon="7.01076">
        <ele>1229</ele>
        <time>2019-04-15T01:09:54Z</time>
      </trkpt>
      <trkpt lat="48.05071" lon="7.01089">
        <ele>1230</ele>
        <time>2019-04-15T01:10:54Z</time>
      </trkpt>
      <trkpt lat="48.05075" lon="7.01103">
        <ele>1230</ele>
        <time>2019-04-15T01:11:54Z</time>
      </trkpt>
      <trkpt lat="48.05077" lon="7.0112">
        <ele>1230</ele>
        <time>2019-04-15T01:12:54Z</time>
      </trkpt>
      <trkpt lat="48.0508" lon="7.0114">
        <ele>1230</ele>
        <time>2019-04-15T01:13:54Z</time>
      </trkpt>
      <trkpt lat="48.05085" lon="7.01185">
        <ele>1230</ele>
        <time>2019-04-15T01:14:54Z</time>
      </trkpt>
      <trkpt lat="48.05087" lon="7.01215">
        <ele>1231</ele>
        <time>2019-04-15T01:15:54Z</time>
      </trkpt>
      <trkpt lat="48.05091" lon="7.01269">
        <ele>1231</ele>
        <time>2019-04-15T01:16:54Z</time>
      </trkpt>
      <trkpt lat="48.05093" lon="7.01308">
        <ele>1232</ele>
        <time>2019-04-15T01:17:54Z</time>
      </trkpt>
      <trkpt lat="48.05097" lon="7.01353">
        <ele>1233</ele>
        <time>2019-04-15T01:18:54Z</time>
      </trkpt>
      <trkpt lat="48.05101" lon="7.01376">
        <ele>1233</ele>
        <time>2019-04-15T01:19:54Z</time>
      </trkpt>
      <trkpt lat="48.05103" lon="7.01385">
        <ele>1233</ele>
        <time>2019-04-15T01:20:54Z</time>
      </trkpt>
      <trkpt lat="48.05106" lon="7.01395">
        <ele>1233</ele>
        <time>2019-04-15T01:21:54Z</time>
      </trkpt>
      <trkpt lat="48.05113" lon="7.01411">
        <ele>1233</ele>
        <time>2019-04-15T01:22:54Z</time>
      </trkpt>
      <trkpt lat="48.05123" lon="7.01427">
        <ele>1233</ele>
        <time>2019-04-15T01:23:54Z</time>
      </trkpt>
      <trkpt lat="48.05133" lon="7.01436">
        <ele>1232</ele>
        <time>2019-04-15T01:24:54Z</time>
      </trkpt>
      <trkpt lat="48.05141" lon="7.01443">
        <ele>1232</ele>
        <time>2019-04-15T01:25:54Z</time>
      </trkpt>
      <trkpt lat="48.05152" lon="7.01449">
        <ele>1231</ele>
        <time>2019-04-15T01:26:54Z</time>
      </trkpt>
      <trkpt lat="48.05158" lon="7.01452">
        <ele>1231</ele>
        <time>2019-04-15T01:27:54Z</time>
      </trkpt>
      <trkpt lat="48.05168" lon="7.01455">
        <ele>1230</ele>
        <time>2019-04-15T01:28:54Z</time>
      </trkpt>
      <trkpt lat="48.05183" lon="7.01458">
        <ele>1230</ele>
        <time>2019-04-15T01:29:54Z</time>
      </trkpt>
      <trkpt lat="48.05199" lon="7.01459">
        <ele>1230</ele>
        <time>2019-04-15T01:30:54Z</time>
      </trkpt>
      <trkpt lat="48.05217" lon="7.01459">
        <ele>1230</ele>
        <time>2019-04-15T01:31:54Z</time>
      </trkpt>
      <trkpt lat="48.05235" lon="7.01456">
        <ele>1229</ele>
        <time>2019-04-15T01:32:54Z</time>
      </trkpt>
      <trkpt lat="48.05251" lon="7.01452">
        <ele>1229</ele>
        <time>2019-04-15T01:33:54Z</time>
      </trkpt>
      <trkpt lat="48.05273" lon="7.01444">
        <ele>1228</ele>
        <time>2019-04-15T01:34:54Z</time>
      </trkpt>
      <trkpt lat="48.05321" lon="7.01427">
        <ele>1225</ele>
        <time>2019-04-15T01:35:54Z</time>
      </trkpt>
      <trkpt lat="48.05346" lon="7.01417">
        <ele>1224</ele>
        <time>2019-04-15T01:36:54Z</time>
      </trkpt>
      <trkpt lat="48.05359" lon="7.01411">
        <ele>1224</ele>
        <time>2019-04-15T01:37:54Z</time>
      </trkpt>
      <trkpt lat="48.0537" lon="7.01405">
        <ele>1224</ele>
        <time>2019-04-15T01:38:54Z</time>
      </trkpt>
      <trkpt lat="48.05391" lon="7.0139">
        <ele>1223</ele>
        <time>2019-04-15T01:39:54Z</time>
      </trkpt>
      <trkpt lat="48.05419" lon="7.01368">
        <ele>1221</ele>
        <time>2019-04-15T01:40:54Z</time>
      </trkpt>
      <trkpt lat="48.05462" lon="7.01338">
        <ele>1217</ele>
        <time>2019-04-15T01:41:54Z</time>
      </trkpt>
      <trkpt lat="48.05471" lon="7.01333">
        <ele>1216</ele>
        <time>2019-04-15T01:42:54Z</time>
      </trkpt>
      <trkpt lat="48.05477" lon="7.0133">
        <ele>1216</ele>
        <time>2019-04-15T01:43:54Z</time>
      </trkpt>
      <trkpt lat="48.05486" lon="7.01327">
        <ele>1216</ele>
        <time>2019-04-15T01:44:54Z</time>
      </trkpt>
      <trkpt lat="48.05498" lon="7.01324">
        <ele>1215</ele>
        <time>2019-04-15T01:45:54Z</time>
      </trkpt>
      <trkpt lat="48.05507" lon="7.01323">
        <ele>1215</ele>
        <time>2019-04-15T01:46:54Z</time>
      </trkpt>
      <trkpt lat="48.05516" lon="7.01324">
        <ele>1214</ele>
        <time>2019-04-15T01:47:54Z</time>
      </trkpt>
      <trkpt lat="48.05527" lon="7.01326">
        <ele>1213</ele>
        <time>2019-04-15T01:48:54Z</time>
      </trkpt>
      <trkpt lat="48.05539" lon="7.0133">
        <ele>1212</ele>
        <time>2019-04-15T01:49:54Z</time>
      </trkpt>
      <trkpt lat="48.05554" lon="7.01337">
        <ele>1212</ele>
        <time>2019-04-15T01:50:54Z</time>
      </trkpt>
      <trkpt lat="48.05591" lon="7.01359">
        <ele>1210</ele>
        <time>2019-04-15T01:51:54Z</time>
      </trkpt>
      <trkpt lat="48.05638" lon="7.01392">
        <ele>1207</ele>
        <time>2019-04-15T01:52:54Z</time>
      </trkpt>
      <trkpt lat="48.0565" lon="7.01402">
        <ele>1206</ele>
        <time>2019-04-15T01:53:54Z</time>
      </trkpt>
      <trkpt lat="48.05672" lon="7.01421">
        <ele>1206</ele>
        <time>2019-04-15T01:54:54Z</time>
      </trkpt>
      <trkpt lat="48.05684" lon="7.01428">
        <ele>1206</ele>
        <time>2019-04-15T01:55:54Z</time>
      </trkpt>
      <trkpt lat="48.05695" lon="7.01432">
        <ele>1205</ele>
        <time>2019-04-15T01:56:54Z</time>
      </trkpt>
      <trkpt lat="48.05703" lon="7.01434">
        <ele>1205</ele>
        <time>2019-04-15T01:57:54Z</time>
      </trkpt>
      <trkpt lat="48.05718" lon="7.01435">
        <ele>1204</ele>
        <time>2019-04-15T01:58:54Z</time>
      </trkpt>
      <trkpt lat="48.05773" lon="7.01432">
        <ele>1198</ele>
        <time>2019-04-15T01:59:54Z</time>
      </trkpt>
      <trkpt lat="48.05792" lon="7.01432">
        <ele>1197</ele>
        <time>2019-04-15T02:00:54Z</time>
      </trkpt>
      <trkpt lat="48.05806" lon="7.01433">
        <ele>1196</ele>
        <time>2019-04-15T02:01:54Z</time>
      </trkpt>
      <trkpt lat="48.05819" lon="7.01434">
        <ele>1196</ele>
        <time>2019-04-15T02:02:54Z</time>
      </trkpt>
      <trkpt lat="48.05849" lon="7.01441">
        <ele>1194</ele>
        <time>2019-04-15T02:03:54Z</time>
      </trkpt>
      <trkpt lat="48.05877" lon="7.01448">
        <ele>1193</ele>
        <time>2019-04-15T02:04:54Z</time>
      </trkpt>
      <trkpt lat="48.05914" lon="7.0146">
        <ele>1191</ele>
        <time>2019-04-15T02:05:54Z</time>
      </trkpt>
      <trkpt lat="48.0593" lon="7.01467">
        <ele>1190</ele>
        <time>2019-04-15T02:06:54Z</time>
      </trkpt>
      <trkpt lat="48.05955" lon="7.01481">
        <ele>1188</ele>
        <time>2019-04-15T02:07:54Z</time>
      </trkpt>
      <trkpt lat="48.06012" lon="7.01518">
        <ele>1182</ele>
        <time>2019-04-15T02:08:54Z</time>
      </trkpt>
      <trkpt lat="48.06041" lon="7.01539">
        <ele>1179</ele>
        <time>2019-04-15T02:09:54Z</time>
      </trkpt>
      <trkpt lat="48.06064" lon="7.01558">
        <ele>1176</ele>
        <time>2019-04-15T02:10:54Z</time>
      </trkpt>
      <trkpt lat="48.06082" lon="7.01579">
        <ele>1175</ele>
        <time>2019-04-15T02:11:54Z</time>
      </trkpt>
      <trkpt lat="48.06095" lon="7.01597">
        <ele>1173</ele>
        <time>2019-04-15T02:12:54Z</time>
      </trkpt>
      <trkpt lat="48.0611" lon="7.01619">
        <ele>1170</ele>
        <time>2019-04-15T02:13:54Z</time>
      </trkpt>
      <trkpt lat="48.06127" lon="7.01645">
        <ele>1168</ele>
        <time>2019-04-15T02:14:54Z</time>
      </trkpt>
      <trkpt lat="48.06136" lon="7.0166">
        <ele>1166</ele>
        <time>2019-04-15T02:15:54Z</time>
      </trkpt>
      <trkpt lat="48.06143" lon="7.01681">
        <ele>1165</ele>
        <time>2019-04-15T02:16:54Z</time>
      </trkpt>
      <trkpt lat="48.06147" lon="7.01695">
        <ele>1164</ele>
        <time>2019-04-15T02:17:54Z</time>
      </trkpt>
      <trkpt lat="48.06151" lon="7.01714">
        <ele>1164</ele>
        <time>2019-04-15T02:18:54Z</time>
      </trkpt>
      <trkpt lat="48.06155" lon="7.01739">
        <ele>1163</ele>
        <time>2019-04-15T02:19:54Z</time>
      </trkpt>
      <trkpt lat="48.06158" lon="7.01776">
        <ele>1163</ele>
        <time>2019-04-15T02:20:54Z</time>
      </trkpt>
      <trkpt lat="48.06161" lon="7.01848">
        <ele>1162</ele>
        <time>2019-04-15T02:21:54Z</time>
      </trkpt>
      <trkpt lat="48.06162" lon="7.01875">
        <ele>1161</ele>
        <time>2019-04-15T02:22:54Z</time>
      </trkpt>
      <trkpt lat="48.06162" lon="7.01882">
        <ele>1161</ele>
        <time>2019-04-15T02:23:54Z</time>
      </trkpt>
      <trkpt lat="48.06163" lon="7.01894">
        <ele>1161</ele>
        <time>2019-04-15T02:24:54Z</time>
      </trkpt>
      <trkpt lat="48.06165" lon="7.01901">
        <ele>1160</ele>
        <time>2019-04-15T02:25:54Z</time>
      </trkpt>
      <trkpt lat="48.06166" lon="7.01908">
        <ele>1160</ele>
        <time>2019-04-15T02:26:54Z</time>
      </trkpt>
      <trkpt lat="48.06169" lon="7.01915">
        <ele>1159</ele>
        <time>2019-04-15T02:27:54Z</time>
      </trkpt>
      <trkpt lat="48.06173" lon="7.01921">
        <ele>1158</ele>
        <time>2019-04-15T02:28:54Z</time>
      </trkpt>
      <trkpt lat="48.06176" lon="7.01924">
        <ele>1157</ele>
        <time>2019-04-15T02:29:54Z</time>
      </trkpt>
      <trkpt lat="48.0618" lon="7.01926">
        <ele>1156</ele>
        <time>2019-04-15T02:30:54Z</time>
      </trkpt>
      <trkpt lat="48.06184" lon="7.01926">
        <ele>1155</ele>
        <time>2019-04-15T02:31:54Z</time>
      </trkpt>
      <trkpt lat="48.06189" lon="7.01925">
        <ele>1154</ele>
        <time>2019-04-15T02:32:54Z</time>
      </trkpt>
      <trkpt lat="48.06191" lon="7.01923">
        <ele>1154</ele>
        <time>2019-04-15T02:33:54Z</time>
      </trkpt>
      <trkpt lat="48.06193" lon="7.01921">
        <ele>1154</ele>
        <time>2019-04-15T02:34:54Z</time>
      </trkpt>
      <trkpt lat="48.06196" lon="7.01917">
        <ele>1153</ele>
        <time>2019-04-15T02:35:54Z</time>
      </trkpt>
      <trkpt lat="48.06197" lon="7.01914">
        <ele>1153</ele>
        <time>2019-04-15T02:36:54Z</time>
      </trkpt>
      <trkpt lat="48.06198" lon="7.0191">
        <ele>1153</ele>
        <time>2019-04-15T02:37:54Z</time>
      </trkpt>
      <trkpt lat="48.06199" lon="7.01906">
        <ele>1152</ele>
        <time>2019-04-15T02:38:54Z</time>
      </trkpt>
      <trkpt lat="48.062" lon="7.01899">
        <ele>1152</ele>
        <time>2019-04-15T02:39:54Z</time>
      </trkpt>
      <trkpt lat="48.062" lon="7.01885">
        <ele>1153</ele>
        <time>2019-04-15T02:40:54Z</time>
      </trkpt>
      <trkpt lat="48.06201" lon="7.01755">
        <ele>1154</ele>
        <time>2019-04-15T02:41:54Z</time>
      </trkpt>
      <trkpt lat="48.06202" lon="7.01725">
        <ele>1153</ele>
        <time>2019-04-15T02:42:54Z</time>
      </trkpt>
      <trkpt lat="48.06202" lon="7.01718">
        <ele>1152</ele>
        <time>2019-04-15T02:43:54Z</time>
      </trkpt>
      <trkpt lat="48.06203" lon="7.01714">
        <ele>1152</ele>
        <time>2019-04-15T02:44:54Z</time>
      </trkpt>
      <trkpt lat="48.06205" lon="7.01707">
        <ele>1151</ele>
        <time>2019-04-15T02:45:54Z</time>
      </trkpt>
      <trkpt lat="48.06208" lon="7.01702">
        <ele>1150</ele>
        <time>2019-04-15T02:46:54Z</time>
      </trkpt>
      <trkpt lat="48.06211" lon="7.01698">
        <ele>1149</ele>
        <time>2019-04-15T02:47:54Z</time>
      </trkpt>
      <trkpt lat="48.06213" lon="7.01696">
        <ele>1149</ele>
        <time>2019-04-15T02:48:54Z</time>
      </trkpt>
      <trkpt lat="48.06217" lon="7.01695">
        <ele>1148</ele>
        <time>2019-04-15T02:49:54Z</time>
      </trkpt>
      <trkpt lat="48.06221" lon="7.01696">
        <ele>1147</ele>
        <time>2019-04-15T02:50:54Z</time>
      </trkpt>
      <trkpt lat="48.06225" lon="7.01698">
        <ele>1146</ele>
        <time>2019-04-15T02:51:54Z</time>
      </trkpt>
      <trkpt lat="48.06229" lon="7.01701">
        <ele>1145</ele>
        <time>2019-04-15T02:52:54Z</time>
      </trkpt>
      <trkpt lat="48.06232" lon="7.01706">
        <ele>1145</ele>
        <time>2019-04-15T02:53:54Z</time>
      </trkpt>
      <trkpt lat="48.06235" lon="7.01715">
        <ele>1144</ele>
        <time>2019-04-15T02:54:54Z</time>
      </trkpt>
      <trkpt lat="48.06238" lon="7.01727">
        <ele>1144</ele>
        <time>2019-04-15T02:55:54Z</time>
      </trkpt>
      <trkpt lat="48.06241" lon="7.01756">
        <ele>1145</ele>
        <time>2019-04-15T02:56:54Z</time>
      </trkpt>
      <trkpt lat="48.06245" lon="7.01811">
        <ele>1143</ele>
        <time>2019-04-15T02:57:54Z</time>
      </trkpt>
      <trkpt lat="48.0625" lon="7.01864">
        <ele>1141</ele>
        <time>2019-04-15T02:58:54Z</time>
      </trkpt>
      <trkpt lat="48.06253" lon="7.01895">
        <ele>1140</ele>
        <time>2019-04-15T02:59:54Z</time>
      </trkpt>
      <trkpt lat="48.06254" lon="7.0191">
        <ele>1140</ele>
        <time>2019-04-15T03:00:54Z</time>
      </trkpt>
      <trkpt lat="48.06255" lon="7.01922">
        <ele>1140</ele>
        <time>2019-04-15T03:01:54Z</time>
      </trkpt>
      <trkpt lat="48.06258" lon="7.01936">
        <ele>1139</ele>
        <time>2019-04-15T03:02:54Z</time>
      </trkpt>
      <trkpt lat="48.0626" lon="7.01944">
        <ele>1139</ele>
        <time>2019-04-15T03:03:54Z</time>
      </trkpt>
      <trkpt lat="48.06263" lon="7.0195">
        <ele>1139</ele>
        <time>2019-04-15T03:04:54Z</time>
      </trkpt>
      <trkpt lat="48.06267" lon="7.01957">
        <ele>1138</ele>
        <time>2019-04-15T03:05:54Z</time>
      </trkpt>
      <trkpt lat="48.06277" lon="7.01969">
        <ele>1137</ele>
        <time>2019-04-15T03:06:54Z</time>
      </trkpt>
      <trkpt lat="48.06277" lon="7.01969">
        <ele>1137</ele>
        <time>2019-04-15T03:07:54Z</time>
      </trkpt>
      <trkpt lat="48.06276" lon="7.01981">
        <ele>1137</ele>
        <time>2019-04-15T03:08:54Z</time>
      </trkpt>
      <trkpt lat="48.06277" lon="7.01992">
        <ele>1137</ele>
        <time>2019-04-15T03:09:54Z</time>
      </trkpt>
      <trkpt lat="48.06275" lon="7.01996">
        <ele>1137</ele>
        <time>2019-04-15T03:10:54Z</time>
      </trkpt>
      <trkpt lat="48.06272" lon="7.02002">
        <ele>1137</ele>
        <time>2019-04-15T03:11:54Z</time>
      </trkpt>
      <trkpt lat="48.06261" lon="7.02019">
        <ele>1139</ele>
        <time>2019-04-15T03:12:54Z</time>
      </trkpt>
      <trkpt lat="48.06256" lon="7.02024">
        <ele>1139</ele>
        <time>2019-04-15T03:13:54Z</time>
      </trkpt>
      <trkpt lat="48.0625" lon="7.02032">
        <ele>1140</ele>
        <time>2019-04-15T03:14:54Z</time>
      </trkpt>
      <trkpt lat="48.06245" lon="7.0204">
        <ele>1140</ele>
        <time>2019-04-15T03:15:54Z</time>
      </trkpt>
      <trkpt lat="48.06242" lon="7.02048">
        <ele>1141</ele>
        <time>2019-04-15T03:16:54Z</time>
      </trkpt>
      <trkpt lat="48.0624" lon="7.02054">
        <ele>1141</ele>
        <time>2019-04-15T03:17:54Z</time>
      </trkpt>
      <trkpt lat="48.06239" lon="7.02059">
        <ele>1141</ele>
        <time>2019-04-15T03:18:54Z</time>
      </trkpt>
      <trkpt lat="48.06239" lon="7.02066">
        <ele>1141</ele>
        <time>2019-04-15T03:19:54Z</time>
      </trkpt>
      <trkpt lat="48.0624" lon="7.02072">
        <ele>1141</ele>
        <time>2019-04-15T03:20:54Z</time>
      </trkpt>
      <trkpt lat="48.06242" lon="7.02077">
        <ele>1141</ele>
        <time>2019-04-15T03:21:54Z</time>
      </trkpt>
      <trkpt lat="48.06245" lon="7.02082">
        <ele>1140</ele>
        <time>2019-04-15T03:22:54Z</time>
      </trkpt>
      <trkpt lat="48.0625" lon="7.02088">
        <ele>1139</ele>
        <time>2019-04-15T03:23:54Z</time>
      </trkpt>
      <trkpt lat="48.06254" lon="7.02091">
        <ele>1139</ele>
        <time>2019-04-15T03:24:54Z</time>
      </trkpt>
      <trkpt lat="48.0626" lon="7.02092">
        <ele>1139</ele>
        <time>2019-04-15T03:25:54Z</time>
      </trkpt>
      <trkpt lat="48.0627" lon="7.02093">
        <ele>1138</ele>
        <time>2019-04-15T03:26:54Z</time>
      </trkpt>
      <trkpt lat="48.06276" lon="7.02095">
        <ele>1138</ele>
        <time>2019-04-15T03:27:54Z</time>
      </trkpt>
      <trkpt lat="48.0628" lon="7.02096">
        <ele>1137</ele>
        <time>2019-04-15T03:28:54Z</time>
      </trkpt>
      <trkpt lat="48.06287" lon="7.02099">
        <ele>1137</ele>
        <time>2019-04-15T03:29:54Z</time>
      </trkpt>
      <trkpt lat="48.06292" lon="7.02102">
        <ele>1137</ele>
        <time>2019-04-15T03:30:54Z</time>
      </trkpt>
      <trkpt lat="48.06298" lon="7.02107">
        <ele>1136</ele>
        <time>2019-04-15T03:31:54Z</time>
      </trkpt>
      <trkpt lat="48.06307" lon="7.02118">
        <ele>1136</ele>
        <time>2019-04-15T03:32:54Z</time>
      </trkpt>
      <trkpt lat="48.06324" lon="7.02145">
        <ele>1137</ele>
        <time>2019-04-15T03:33:54Z</time>
      </trkpt>
      <trkpt lat="48.06348" lon="7.02179">
        <ele>1137</ele>
        <time>2019-04-15T03:34:54Z</time>
      </trkpt>
      <trkpt lat="48.06361" lon="7.02201">
        <ele>1138</ele>
        <time>2019-04-15T03:35:54Z</time>
      </trkpt>
      <trkpt lat="48.0637" lon="7.02219">
        <ele>1139</ele>
        <time>2019-04-15T03:36:54Z</time>
      </trkpt>
      <trkpt lat="48.06373" lon="7.02226">
        <ele>1140</ele>
        <time>2019-04-15T03:37:54Z</time>
      </trkpt>
      <trkpt lat="48.06375" lon="7.02234">
        <ele>1140</ele>
        <time>2019-04-15T03:38:54Z</time>
      </trkpt>
      <trkpt lat="48.06378" lon="7.0225">
        <ele>1141</ele>
        <time>2019-04-15T03:39:54Z</time>
      </trkpt>
      <trkpt lat="48.06378" lon="7.0225">
        <ele>1141</ele>
        <time>2019-04-15T03:40:54Z</time>
      </trkpt>
      <trkpt lat="48.06391" lon="7.02256">
        <ele>1141</ele>
        <time>2019-04-15T03:41:54Z</time>
      </trkpt>
      <trkpt lat="48.06397" lon="7.02258">
        <ele>1141</ele>
        <time>2019-04-15T03:42:54Z</time>
      </trkpt>
      <trkpt lat="48.06409" lon="7.02261">
        <ele>1140</ele>
        <time>2019-04-15T03:43:54Z</time>
      </trkpt>
      <trkpt lat="48.06416" lon="7.02262">
        <ele>1140</ele>
        <time>2019-04-15T03:44:54Z</time>
      </trkpt>
      <trkpt lat="48.06424" lon="7.02262">
        <ele>1140</ele>
        <time>2019-04-15T03:45:54Z</time>
      </trkpt>
      <trkpt lat="48.0644" lon="7.02259">
        <ele>1140</ele>
        <time>2019-04-15T03:46:54Z</time>
      </trkpt>
      <trkpt lat="48.06462" lon="7.02254">
        <ele>1139</ele>
        <time>2019-04-15T03:47:54Z</time>
      </trkpt>
      <trkpt lat="48.06485" lon="7.02249">
        <ele>1138</ele>
        <time>2019-04-15T03:48:54Z</time>
      </trkpt>
      <trkpt lat="48.0649" lon="7.02248">
        <ele>1138</ele>
        <time>2019-04-15T03:49:54Z</time>
      </trkpt>
      <trkpt lat="48.06521" lon="7.02241">
        <ele>1138</ele>
        <time>2019-04-15T03:50:54Z</time>
      </trkpt>
      <trkpt lat="48.06542" lon="7.02236">
        <ele>1139</ele>
        <time>2019-04-15T03:51:54Z</time>
      </trkpt>
      <trkpt lat="48.06555" lon="7.02234">
        <ele>1140</ele>
        <time>2019-04-15T03:52:54Z</time>
      </trkpt>
      <trkpt lat="48.06576" lon="7.02227">
        <ele>1141</ele>
        <time>2019-04-15T03:53:54Z</time>
      </trkpt>
      <trkpt lat="48.06589" lon="7.02223">
        <ele>1141</ele>
        <time>2019-04-15T03:54:54Z</time>
      </trkpt>
      <trkpt lat="48.06609" lon="7.02213">
        <ele>1142</ele>
        <time>2019-04-15T03:55:54Z</time>
      </trkpt>
      <trkpt lat="48.06638" lon="7.02196">
        <ele>1142</ele>
        <time>2019-04-15T03:56:54Z</time>
      </trkpt>
      <trkpt lat="48.0666" lon="7.02182">
        <ele>1142</ele>
        <time>2019-04-15T03:57:54Z</time>
      </trkpt>
      <trkpt lat="48.06679" lon="7.02173">
        <ele>1142</ele>
        <time>2019-04-15T03:58:54Z</time>
      </trkpt>
      <trkpt lat="48.06699" lon="7.02165">
        <ele>1142</ele>
        <time>2019-04-15T03:59:54Z</time>
      </trkpt>
      <trkpt lat="48.06714" lon="7.02162">
        <ele>1143</ele>
        <time>2019-04-15T04:00:54Z</time>
      </trkpt>
      <trkpt lat="48.06721" lon="7.0216">
        <ele>1143</ele>
        <time>2019-04-15T04:01:54Z</time>
      </trkpt>
      <trkpt lat="48.06732" lon="7.02159">
        <ele>1143</ele>
        <time>2019-04-15T04:02:54Z</time>
      </trkpt>
      <trkpt lat="48.06745" lon="7.02159">
        <ele>1144</ele>
        <time>2019-04-15T04:03:54Z</time>
      </trkpt>
      <trkpt lat="48.06756" lon="7.02159">
        <ele>1145</ele>
        <time>2019-04-15T04:04:54Z</time>
      </trkpt>
      <trkpt lat="48.06771" lon="7.02161">
        <ele>1145</ele>
        <time>2019-04-15T04:05:54Z</time>
      </trkpt>
      <trkpt lat="48.06785" lon="7.02165">
        <ele>1145</ele>
        <time>2019-04-15T04:06:54Z</time>
      </trkpt>
      <trkpt lat="48.06812" lon="7.02175">
        <ele>1147</ele>
        <time>2019-04-15T04:07:54Z</time>
      </trkpt>
      <trkpt lat="48.06831" lon="7.02183">
        <ele>1149</ele>
        <time>2019-04-15T04:08:54Z</time>
      </trkpt>
      <trkpt lat="48.06848" lon="7.0219">
        <ele>1152</ele>
        <time>2019-04-15T04:09:54Z</time>
      </trkpt>
      <trkpt lat="48.06857" lon="7.02192">
        <ele>1153</ele>
        <time>2019-04-15T04:10:54Z</time>
      </trkpt>
      <trkpt lat="48.06866" lon="7.02193">
        <ele>1154</ele>
        <time>2019-04-15T04:11:54Z</time>
      </trkpt>
      <trkpt lat="48.06874" lon="7.02193">
        <ele>1154</ele>
        <time>2019-04-15T04:12:54Z</time>
      </trkpt>
      <trkpt lat="48.06882" lon="7.02191">
        <ele>1154</ele>
        <time>2019-04-15T04:13:54Z</time>
      </trkpt>
      <trkpt lat="48.06895" lon="7.02184">
        <ele>1153</ele>
        <time>2019-04-15T04:14:54Z</time>
      </trkpt>
      <trkpt lat="48.06918" lon="7.02167">
        <ele>1151</ele>
        <time>2019-04-15T04:15:54Z</time>
      </trkpt>
      <trkpt lat="48.06944" lon="7.02147">
        <ele>1152</ele>
        <time>2019-04-15T04:16:54Z</time>
      </trkpt>
      <trkpt lat="48.06963" lon="7.02132">
        <ele>1153</ele>
        <time>2019-04-15T04:17:54Z</time>
      </trkpt>
      <trkpt lat="48.06973" lon="7.02127">
        <ele>1154</ele>
        <time>2019-04-15T04:18:54Z</time>
      </trkpt>
      <trkpt lat="48.06987" lon="7.02119">
        <ele>1155</ele>
        <time>2019-04-15T04:19:54Z</time>
      </trkpt>
      <trkpt lat="48.07006" lon="7.02114">
        <ele>1156</ele>
        <time>2019-04-15T04:20:54Z</time>
      </trkpt>
      <trkpt lat="48.07016" lon="7.02113">
        <ele>1156</ele>
        <time>2019-04-15T04:21:54Z</time>
      </trkpt>
      <trkpt lat="48.07032" lon="7.02112">
        <ele>1156</ele>
        <time>2019-04-15T04:22:54Z</time>
      </trkpt>
      <trkpt lat="48.07047" lon="7.02113">
        <ele>1157</ele>
        <time>2019-04-15T04:23:54Z</time>
      </trkpt>
      <trkpt lat="48.07074" lon="7.02119">
        <ele>1159</ele>
        <time>2019-04-15T04:24:54Z</time>
      </trkpt>
      <trkpt lat="48.07113" lon="7.02127">
        <ele>1162</ele>
        <time>2019-04-15T04:25:54Z</time>
      </trkpt>
      <trkpt lat="48.07184" lon="7.02146">
        <ele>1167</ele>
        <time>2019-04-15T04:26:54Z</time>
      </trkpt>
      <trkpt lat="48.07205" lon="7.02151">
        <ele>1168</ele>
        <time>2019-04-15T04:27:54Z</time>
      </trkpt>
      <trkpt lat="48.0722" lon="7.02155">
        <ele>1168</ele>
        <time>2019-04-15T04:28:54Z</time>
      </trkpt>
      <trkpt lat="48.07234" lon="7.02159">
        <ele>1169</ele>
        <time>2019-04-15T04:29:54Z</time>
      </trkpt>
      <trkpt lat="48.07252" lon="7.02166">
        <ele>1170</ele>
        <time>2019-04-15T04:30:54Z</time>
      </trkpt>
      <trkpt lat="48.07266" lon="7.02171">
        <ele>1169</ele>
        <time>2019-04-15T04:31:54Z</time>
      </trkpt>
      <trkpt lat="48.07278" lon="7.02176">
        <ele>1169</ele>
        <time>2019-04-15T04:32:54Z</time>
      </trkpt>
      <trkpt lat="48.07293" lon="7.02184">
        <ele>1170</ele>
        <time>2019-04-15T04:33:54Z</time>
      </trkpt>
      <trkpt lat="48.07312" lon="7.02194">
        <ele>1170</ele>
        <time>2019-04-15T04:34:54Z</time>
      </trkpt>
      <trkpt lat="48.07332" lon="7.0221">
        <ele>1171</ele>
        <time>2019-04-15T04:35:54Z</time>
      </trkpt>
      <trkpt lat="48.07348" lon="7.02222">
        <ele>1171</ele>
        <time>2019-04-15T04:36:54Z</time>
      </trkpt>
      <trkpt lat="48.07361" lon="7.02233">
        <ele>1171</ele>
        <time>2019-04-15T04:37:54Z</time>
      </trkpt>
      <trkpt lat="48.0737" lon="7.02242">
        <ele>1171</ele>
        <time>2019-04-15T04:38:54Z</time>
      </trkpt>
      <trkpt lat="48.07385" lon="7.02258">
        <ele>1172</ele>
        <time>2019-04-15T04:39:54Z</time>
      </trkpt>
      <trkpt lat="48.07406" lon="7.02279">
        <ele>1172</ele>
        <time>2019-04-15T04:40:54Z</time>
      </trkpt>
      <trkpt lat="48.07428" lon="7.02305">
        <ele>1172</ele>
        <time>2019-04-15T04:41:54Z</time>
      </trkpt>
      <trkpt lat="48.0745" lon="7.02329">
        <ele>1172</ele>
        <time>2019-04-15T04:42:54Z</time>
      </trkpt>
      <trkpt lat="48.07469" lon="7.02351">
        <ele>1172</ele>
        <time>2019-04-15T04:43:54Z</time>
      </trkpt>
      <trkpt lat="48.07477" lon="7.02359">
        <ele>1172</ele>
        <time>2019-04-15T04:44:54Z</time>
      </trkpt>
      <trkpt lat="48.07491" lon="7.02376">
        <ele>1172</ele>
        <time>2019-04-15T04:45:54Z</time>
      </trkpt>
      <trkpt lat="48.07498" lon="7.02385">
        <ele>1172</ele>
        <time>2019-04-15T04:46:54Z</time>
      </trkpt>
      <trkpt lat="48.07523" lon="7.02414">
        <ele>1171</ele>
        <time>2019-04-15T04:47:54Z</time>
      </trkpt>
      <trkpt lat="48.07546" lon="7.02448">
        <ele>1172</ele>
        <time>2019-04-15T04:48:54Z</time>
      </trkpt>
      <trkpt lat="48.07566" lon="7.02476">
        <ele>1171</ele>
        <time>2019-04-15T04:49:54Z</time>
      </trkpt>
      <trkpt lat="48.07592" lon="7.02516">
        <ele>1170</ele>
        <time>2019-04-15T04:50:54Z</time>
      </trkpt>
      <trkpt lat="48.0761" lon="7.02548">
        <ele>1171</ele>
        <time>2019-04-15T04:51:54Z</time>
      </trkpt>
      <trkpt lat="48.07626" lon="7.02578">
        <ele>1172</ele>
        <time>2019-04-15T04:52:54Z</time>
      </trkpt>
      <trkpt lat="48.07639" lon="7.02606">
        <ele>1172</ele>
        <time>2019-04-15T04:53:54Z</time>
      </trkpt>
      <trkpt lat="48.07654" lon="7.02642">
        <ele>1173</ele>
        <time>2019-04-15T04:54:54Z</time>
      </trkpt>
      <trkpt lat="48.07666" lon="7.02673">
        <ele>1173</ele>
        <time>2019-04-15T04:55:54Z</time>
      </trkpt>
      <trkpt lat="48.07674" lon="7.0269">
        <ele>1174</ele>
        <time>2019-04-15T04:56:54Z</time>
      </trkpt>
      <trkpt lat="48.07683" lon="7.02705">
        <ele>1175</ele>
        <time>2019-04-15T04:57:54Z</time>
      </trkpt>
      <trkpt lat="48.07691" lon="7.02715">
        <ele>1176</ele>
        <time>2019-04-15T04:58:54Z</time>
      </trkpt>
      <trkpt lat="48.07707" lon="7.02732">
        <ele>1176</ele>
        <time>2019-04-15T04:59:54Z</time>
      </trkpt>
      <trkpt lat="48.07725" lon="7.02752">
        <ele>1177</ele>
        <time>2019-04-15T05:00:54Z</time>
      </trkpt>
      <trkpt lat="48.07761" lon="7.02793">
        <ele>1179</ele>
        <time>2019-04-15T05:01:54Z</time>
      </trkpt>
      <trkpt lat="48.07798" lon="7.02839">
        <ele>1182</ele>
        <time>2019-04-15T05:02:54Z</time>
      </trkpt>
      <trkpt lat="48.07817" lon="7.02865">
        <ele>1184</ele>
        <time>2019-04-15T05:03:54Z</time>
      </trkpt>
      <trkpt lat="48.07848" lon="7.02907">
        <ele>1187</ele>
        <time>2019-04-15T05:04:54Z</time>
      </trkpt>
      <trkpt lat="48.07889" lon="7.02964">
        <ele>1190</ele>
        <time>2019-04-15T05:05:54Z</time>
      </trkpt>
      <trkpt lat="48.07938" lon="7.03029">
        <ele>1192</ele>
        <time>2019-04-15T05:06:54Z</time>
      </trkpt>
      <trkpt lat="48.07967" lon="7.03075">
        <ele>1195</ele>
        <time>2019-04-15T05:07:54Z</time>
      </trkpt>
      <trkpt lat="48.07984" lon="7.03101">
        <ele>1196</ele>
        <time>2019-04-15T05:08:54Z</time>
      </trkpt>
      <trkpt lat="48.08008" lon="7.03153">
        <ele>1198</ele>
        <time>2019-04-15T05:09:54Z</time>
      </trkpt>
      <trkpt lat="48.0802" lon="7.03187">
        <ele>1199</ele>
        <time>2019-04-15T05:10:54Z</time>
      </trkpt>
      <trkpt lat="48.08033" lon="7.03225">
        <ele>1200</ele>
        <time>2019-04-15T05:11:54Z</time>
      </trkpt>
      <trkpt lat="48.08049" lon="7.03279">
        <ele>1202</ele>
        <time>2019-04-15T05:12:54Z</time>
      </trkpt>
      <trkpt lat="48.08066" lon="7.03319">
        <ele>1201</ele>
        <time>2019-04-15T05:13:54Z</time>
      </trkpt>
      <trkpt lat="48.08082" lon="7.03353">
        <ele>1201</ele>
        <time>2019-04-15T05:14:54Z</time>
      </trkpt>
      <trkpt lat="48.08093" lon="7.03375">
        <ele>1201</ele>
        <time>2019-04-15T05:15:54Z</time>
      </trkpt>
      <trkpt lat="48.08114" lon="7.03412">
        <ele>1201</ele>
        <time>2019-04-15T05:16:54Z</time>
      </trkpt>
      <trkpt lat="48.08131" lon="7.03438">
        <ele>1201</ele>
        <time>2019-04-15T05:17:54Z</time>
      </trkpt>
      <trkpt lat="48.08175" lon="7.03505">
        <ele>1202</ele>
        <time>2019-04-15T05:18:54Z</time>
      </trkpt>
      <trkpt lat="48.08208" lon="7.03563">
        <ele>1201</ele>
        <time>2019-04-15T05:19:54Z</time>
      </trkpt>
      <trkpt lat="48.0823" lon="7.03611">
        <ele>1202</ele>
        <time>2019-04-15T05:20:54Z</time>
      </trkpt>
      <trkpt lat="48.08244" lon="7.03656">
        <ele>1203</ele>
        <time>2019-04-15T05:21:54Z</time>
      </trkpt>
      <trkpt lat="48.08255" lon="7.03708">
        <ele>1203</ele>
        <time>2019-04-15T05:22:54Z</time>
      </trkpt>
      <trkpt lat="48.08258" lon="7.03734">
        <ele>1202</ele>
        <time>2019-04-15T05:23:54Z</time>
      </trkpt>
      <trkpt lat="48.0826" lon="7.03759">
        <ele>1202</ele>
        <time>2019-04-15T05:24:54Z</time>
      </trkpt>
      <trkpt lat="48.08257" lon="7.03786">
        <ele>1202</ele>
        <time>2019-04-15T05:25:54Z</time>
      </trkpt>
      <trkpt lat="48.08251" lon="7.03821">
        <ele>1202</ele>
        <time>2019-04-15T05:26:54Z</time>
      </trkpt>
      <trkpt lat="48.08247" lon="7.03847">
        <ele>1203</ele>
        <time>2019-04-15T05:27:54Z</time>
      </trkpt>
      <trkpt lat="48.08246" lon="7.03869">
        <ele>1203</ele>
        <time>2019-04-15T05:28:54Z</time>
      </trkpt>
      <trkpt lat="48.08248" lon="7.03892">
        <ele>1202</ele>
        <time>2019-04-15T05:29:54Z</time>
      </trkpt>
      <trkpt lat="48.08259" lon="7.03967">
        <ele>1204</ele>
        <time>2019-04-15T05:30:54Z</time>
      </trkpt>
      <trkpt lat="48.0828" lon="7.04083">
        <ele>1206</ele>
        <time>2019-04-15T05:31:54Z</time>
      </trkpt>
      <trkpt lat="48.0831" lon="7.04215">
        <ele>1208</ele>
        <time>2019-04-15T05:32:54Z</time>
      </trkpt>
      <trkpt lat="48.08336" lon="7.04314">
        <ele>1209</ele>
        <time>2019-04-15T05:33:54Z</time>
      </trkpt>
      <trkpt lat="48.0836" lon="7.04406">
        <ele>1210</ele>
        <time>2019-04-15T05:34:54Z</time>
      </trkpt>
      <trkpt lat="48.08371" lon="7.04437">
        <ele>1210</ele>
        <time>2019-04-15T05:35:54Z</time>
      </trkpt>
      <trkpt lat="48.08387" lon="7.04471">
        <ele>1209</ele>
        <time>2019-04-15T05:36:54Z</time>
      </trkpt>
      <trkpt lat="48.08425" lon="7.04527">
        <ele>1205</ele>
        <time>2019-04-15T05:37:54Z</time>
      </trkpt>
      <trkpt lat="48.08427" lon="7.0453">
        <ele>1205</ele>
        <time>2019-04-15T05:38:54Z</time>
      </trkpt>
      <trkpt lat="48.08455" lon="7.0457">
        <ele>1206</ele>
        <time>2019-04-15T05:39:54Z</time>
      </trkpt>
      <trkpt lat="48.08469" lon="7.04589">
        <ele>1207</ele>
        <time>2019-04-15T05:40:54Z</time>
      </trkpt>
      <trkpt lat="48.085" lon="7.04632">
        <ele>1211</ele>
        <time>2019-04-15T05:41:54Z</time>
      </trkpt>
      <trkpt lat="48.08519" lon="7.04654">
        <ele>1213</ele>
        <time>2019-04-15T05:42:54Z</time>
      </trkpt>
      <trkpt lat="48.0854" lon="7.04674">
        <ele>1214</ele>
        <time>2019-04-15T05:43:54Z</time>
      </trkpt>
      <trkpt lat="48.08558" lon="7.04689">
        <ele>1215</ele>
        <time>2019-04-15T05:44:54Z</time>
      </trkpt>
      <trkpt lat="48.08579" lon="7.04704">
        <ele>1215</ele>
        <time>2019-04-15T05:45:54Z</time>
      </trkpt>
      <trkpt lat="48.08614" lon="7.04724">
        <ele>1217</ele>
        <time>2019-04-15T05:46:54Z</time>
      </trkpt>
      <trkpt lat="48.08637" lon="7.04738">
        <ele>1219</ele>
        <time>2019-04-15T05:47:54Z</time>
      </trkpt>
      <trkpt lat="48.08655" lon="7.04746">
        <ele>1220</ele>
        <time>2019-04-15T05:48:54Z</time>
      </trkpt>
      <trkpt lat="48.08665" lon="7.04749">
        <ele>1220</ele>
        <time>2019-04-15T05:49:54Z</time>
      </trkpt>
      <trkpt lat="48.08675" lon="7.04751">
        <ele>1221</ele>
        <time>2019-04-15T05:50:54Z</time>
      </trkpt>
      <trkpt lat="48.08685" lon="7.04751">
        <ele>1222</ele>
        <time>2019-04-15T05:51:54Z</time>
      </trkpt>
      <trkpt lat="48.08726" lon="7.04745">
        <ele>1224</ele>
        <time>2019-04-15T05:52:54Z</time>
      </trkpt>
      <trkpt lat="48.08757" lon="7.04736">
        <ele>1226</ele>
        <time>2019-04-15T05:53:54Z</time>
      </trkpt>
      <trkpt lat="48.08778" lon="7.04724">
        <ele>1227</ele>
        <time>2019-04-15T05:54:54Z</time>
      </trkpt>
      <trkpt lat="48.08795" lon="7.04712">
        <ele>1228</ele>
        <time>2019-04-15T05:55:54Z</time>
      </trkpt>
      <trkpt lat="48.08814" lon="7.04696">
        <ele>1229</ele>
        <time>2019-04-15T05:56:54Z</time>
      </trkpt>
      <trkpt lat="48.08847" lon="7.04668">
        <ele>1229</ele>
        <time>2019-04-15T05:57:54Z</time>
      </trkpt>
      <trkpt lat="48.08861" lon="7.04657">
        <ele>1230</ele>
        <time>2019-04-15T05:58:54Z</time>
      </trkpt>
      <trkpt lat="48.08873" lon="7.0465">
        <ele>1231</ele>
        <time>2019-04-15T05:59:54Z</time>
      </trkpt>
      <trkpt lat="48.0889" lon="7.04646">
        <ele>1233</ele>
        <time>2019-04-15T06:00:54Z</time>
      </trkpt>
      <trkpt lat="48.08903" lon="7.04646">
        <ele>1234</ele>
        <time>2019-04-15T06:01:54Z</time>
      </trkpt>
      <trkpt lat="48.08919" lon="7.04652">
        <ele>1235</ele>
        <time>2019-04-15T06:02:54Z</time>
      </trkpt>
      <trkpt lat="48.08935" lon="7.04662">
        <ele>1235</ele>
        <time>2019-04-15T06:03:54Z</time>
      </trkpt>
      <trkpt lat="48.08954" lon="7.04677">
        <ele>1234</ele>
        <time>2019-04-15T06:04:54Z</time>
      </trkpt>
      <trkpt lat="48.09" lon="7.04719">
        <ele>1231</ele>
        <time>2019-04-15T06:05:54Z</time>
      </trkpt>
      <trkpt lat="48.09029" lon="7.04751">
        <ele>1228</ele>
        <time>2019-04-15T06:06:54Z</time>
      </trkpt>
      <trkpt lat="48.09033" lon="7.04758">
        <ele>1228</ele>
        <time>2019-04-15T06:07:54Z</time>
      </trkpt>
      <trkpt lat="48.09038" lon="7.04766">
        <ele>1227</ele>
        <time>2019-04-15T06:08:54Z</time>
      </trkpt>
      <trkpt lat="48.09039" lon="7.04768">
        <ele>1227</ele>
        <time>2019-04-15T06:09:54Z</time>
      </trkpt>
      <trkpt lat="48.09046" lon="7.04785">
        <ele>1227</ele>
        <time>2019-04-15T06:10:54Z</time>
      </trkpt>
      <trkpt lat="48.09051" lon="7.04801">
        <ele>1226</ele>
        <time>2019-04-15T06:11:54Z</time>
      </trkpt>
      <trkpt lat="48.09054" lon="7.04817">
        <ele>1226</ele>
        <time>2019-04-15T06:12:54Z</time>
      </trkpt>
      <trkpt lat="48.09058" lon="7.0484">
        <ele>1226</ele>
        <time>2019-04-15T06:13:54Z</time>
      </trkpt>
      <trkpt lat="48.09058" lon="7.04862">
        <ele>1226</ele>
        <time>2019-04-15T06:14:54Z</time>
      </trkpt>
      <trkpt lat="48.09055" lon="7.04909">
        <ele>1226</ele>
        <time>2019-04-15T06:15:54Z</time>
      </trkpt>
      <trkpt lat="48.09051" lon="7.04944">
        <ele>1225</ele>
        <time>2019-04-15T06:16:54Z</time>
      </trkpt>
      <trkpt lat="48.09042" lon="7.05017">
        <ele>1224</ele>
        <time>2019-04-15T06:17:54Z</time>
      </trkpt>
      <trkpt lat="48.09036" lon="7.05053">
        <ele>1224</ele>
        <time>2019-04-15T06:18:54Z</time>
      </trkpt>
      <trkpt lat="48.09029" lon="7.05098">
        <ele>1223</ele>
        <time>2019-04-15T06:19:54Z</time>
      </trkpt>
      <trkpt lat="48.09027" lon="7.05118">
        <ele>1223</ele>
        <time>2019-04-15T06:20:54Z</time>
      </trkpt>
      <trkpt lat="48.09027" lon="7.05128">
        <ele>1223</ele>
        <time>2019-04-15T06:21:54Z</time>
      </trkpt>
      <trkpt lat="48.0903" lon="7.05146">
        <ele>1223</ele>
        <time>2019-04-15T06:22:54Z</time>
      </trkpt>
      <trkpt lat="48.09033" lon="7.05156">
        <ele>1223</ele>
        <time>2019-04-15T06:23:54Z</time>
      </trkpt>
      <trkpt lat="48.09038" lon="7.05163">
        <ele>1223</ele>
        <time>2019-04-15T06:24:54Z</time>
      </trkpt>
      <trkpt lat="48.09051" lon="7.05181">
        <ele>1222</ele>
        <time>2019-04-15T06:25:54Z</time>
      </trkpt>
      <trkpt lat="48.09074" lon="7.05212">
        <ele>1222</ele>
        <time>2019-04-15T06:26:54Z</time>
      </trkpt>
      <trkpt lat="48.09079" lon="7.05218">
        <ele>1221</ele>
        <time>2019-04-15T06:27:54Z</time>
      </trkpt>
      <trkpt lat="48.09084" lon="7.05228">
        <ele>1221</ele>
        <time>2019-04-15T06:28:54Z</time>
      </trkpt>
      <trkpt lat="48.09088" lon="7.0524">
        <ele>1221</ele>
        <time>2019-04-15T06:29:54Z</time>
      </trkpt>
      <trkpt lat="48.09093" lon="7.05254">
        <ele>1220</ele>
        <time>2019-04-15T06:30:54Z</time>
      </trkpt>
      <trkpt lat="48.09096" lon="7.05271">
        <ele>1220</ele>
        <time>2019-04-15T06:31:54Z</time>
      </trkpt>
      <trkpt lat="48.09098" lon="7.05293">
        <ele>1220</ele>
        <time>2019-04-15T06:32:54Z</time>
      </trkpt>
      <trkpt lat="48.09099" lon="7.05308">
        <ele>1220</ele>
        <time>2019-04-15T06:33:54Z</time>
      </trkpt>
      <trkpt lat="48.09097" lon="7.05332">
        <ele>1220</ele>
        <time>2019-04-15T06:34:54Z</time>
      </trkpt>
      <trkpt lat="48.09092" lon="7.05387">
        <ele>1220</ele>
        <time>2019-04-15T06:35:54Z</time>
      </trkpt>
      <trkpt lat="48.09084" lon="7.05446">
        <ele>1221</ele>
        <time>2019-04-15T06:36:54Z</time>
      </trkpt>
      <trkpt lat="48.0908" lon="7.0548">
        <ele>1223</ele>
        <time>2019-04-15T06:37:54Z</time>
      </trkpt>
      <trkpt lat="48.09077" lon="7.05524">
        <ele>1225</ele>
        <time>2019-04-15T06:38:54Z</time>
      </trkpt>
      <trkpt lat="48.09078" lon="7.05545">
        <ele>1225</ele>
        <time>2019-04-15T06:39:54Z</time>
      </trkpt>
      <trkpt lat="48.09079" lon="7.05562">
        <ele>1226</ele>
        <time>2019-04-15T06:40:54Z</time>
      </trkpt>
      <trkpt lat="48.09082" lon="7.05577">
        <ele>1226</ele>
        <time>2019-04-15T06:41:54Z</time>
      </trkpt>
      <trkpt lat="48.09087" lon="7.05592">
        <ele>1226</ele>
        <time>2019-04-15T06:42:54Z</time>
      </trkpt>
      <trkpt lat="48.09095" lon="7.05606">
        <ele>1225</ele>
        <time>2019-04-15T06:43:54Z</time>
      </trkpt>
      <trkpt lat="48.09106" lon="7.05622">
        <ele>1225</ele>
        <time>2019-04-15T06:44:54Z</time>
      </trkpt>
      <trkpt lat="48.09118" lon="7.05638">
        <ele>1224</ele>
        <time>2019-04-15T06:45:54Z</time>
      </trkpt>
      <trkpt lat="48.09137" lon="7.05661">
        <ele>1223</ele>
        <time>2019-04-15T06:46:54Z</time>
      </trkpt>
      <trkpt lat="48.0915" lon="7.05681">
        <ele>1223</ele>
        <time>2019-04-15T06:47:54Z</time>
      </trkpt>
      <trkpt lat="48.09159" lon="7.05699">
        <ele>1223</ele>
        <time>2019-04-15T06:48:54Z</time>
      </trkpt>
      <trkpt lat="48.09166" lon="7.05723">
        <ele>1223</ele>
        <time>2019-04-15T06:49:54Z</time>
      </trkpt>
      <trkpt lat="48.09172" lon="7.05755">
        <ele>1223</ele>
        <time>2019-04-15T06:50:54Z</time>
      </trkpt>
      <trkpt lat="48.09175" lon="7.05778">
        <ele>1224</ele>
        <time>2019-04-15T06:51:54Z</time>
      </trkpt>
      <trkpt lat="48.09177" lon="7.05802">
        <ele>1225</ele>
        <time>2019-04-15T06:52:54Z</time>
      </trkpt>
      <trkpt lat="48.09182" lon="7.05824">
        <ele>1225</ele>
        <time>2019-04-15T06:53:54Z</time>
      </trkpt>
      <trkpt lat="48.09201" lon="7.05881">
        <ele>1228</ele>
        <time>2019-04-15T06:54:54Z</time>
      </trkpt>
      <trkpt lat="48.0924" lon="7.05974">
        <ele>1230</ele>
        <time>2019-04-15T06:55:54Z</time>
      </trkpt>
      <trkpt lat="48.09246" lon="7.05989">
        <ele>1231</ele>
        <time>2019-04-15T06:56:54Z</time>
      </trkpt>
      <trkpt lat="48.09261" lon="7.06022">
        <ele>1230</ele>
        <time>2019-04-15T06:57:54Z</time>
      </trkpt>
      <trkpt lat="48.09267" lon="7.06032">
        <ele>1230</ele>
        <time>2019-04-15T06:58:54Z</time>
      </trkpt>
      <trkpt lat="48.09273" lon="7.06043">
        <ele>1229</ele>
        <time>2019-04-15T06:59:54Z</time>
      </trkpt>
      <trkpt lat="48.09276" lon="7.06049">
        <ele>1229</ele>
        <time>2019-04-15T07:00:54Z</time>
      </trkpt>
      <trkpt lat="48.09286" lon="7.06058">
        <ele>1229</ele>
        <time>2019-04-15T07:01:54Z</time>
      </trkpt>
      <trkpt lat="48.09291" lon="7.06063">
        <ele>1229</ele>
        <time>2019-04-15T07:02:54Z</time>
      </trkpt>
      <trkpt lat="48.09297" lon="7.06066">
        <ele>1229</ele>
        <time>2019-04-15T07:03:54Z</time>
      </trkpt>
      <trkpt lat="48.09299" lon="7.06067">
        <ele>1229</ele>
        <time>2019-04-15T07:04:54Z</time>
      </trkpt>
      <trkpt lat="48.09305" lon="7.06068">
        <ele>1229</ele>
        <time>2019-04-15T07:05:54Z</time>
      </trkpt>
      <trkpt lat="48.09314" lon="7.06069">
        <ele>1229</ele>
        <time>2019-04-15T07:06:54Z</time>
      </trkpt>
      <trkpt lat="48.09331" lon="7.06066">
        <ele>1228</ele>
        <time>2019-04-15T07:07:54Z</time>
      </trkpt>
      <trkpt lat="48.09393" lon="7.06047">
        <ele>1227</ele>
        <time>2019-04-15T07:08:54Z</time>
      </trkpt>
      <trkpt lat="48.09413" lon="7.06038">
        <ele>1226</ele>
        <time>2019-04-15T07:09:54Z</time>
      </trkpt>
      <trkpt lat="48.09425" lon="7.06027">
        <ele>1226</ele>
        <time>2019-04-15T07:10:54Z</time>
      </trkpt>
      <trkpt lat="48.09433" lon="7.06014">
        <ele>1225</ele>
        <time>2019-04-15T07:11:54Z</time>
      </trkpt>
      <trkpt lat="48.09443" lon="7.05987">
        <ele>1225</ele>
        <time>2019-04-15T07:12:54Z</time>
      </trkpt>
      <trkpt lat="48.09484" lon="7.05851">
        <ele>1220</ele>
        <time>2019-04-15T07:13:54Z</time>
      </trkpt>
      <trkpt lat="48.09495" lon="7.05803">
        <ele>1219</ele>
        <time>2019-04-15T07:14:54Z</time>
      </trkpt>
      <trkpt lat="48.09514" lon="7.05738">
        <ele>1217</ele>
        <time>2019-04-15T07:15:54Z</time>
      </trkpt>
      <trkpt lat="48.09527" lon="7.05694">
        <ele>1213</ele>
        <time>2019-04-15T07:16:54Z</time>
      </trkpt>
      <trkpt lat="48.09545" lon="7.05648">
        <ele>1209</ele>
        <time>2019-04-15T07:17:54Z</time>
      </trkpt>
      <trkpt lat="48.09562" lon="7.05608">
        <ele>1204</ele>
        <time>2019-04-15T07:18:54Z</time>
      </trkpt>
      <trkpt lat="48.09584" lon="7.05561">
        <ele>1198</ele>
        <time>2019-04-15T07:19:54Z</time>
      </trkpt>
      <trkpt lat="48.09602" lon="7.0553">
        <ele>1195</ele>
        <time>2019-04-15T07:20:54Z</time>
      </trkpt>
      <trkpt lat="48.09613" lon="7.0551">
        <ele>1194</ele>
        <time>2019-04-15T07:21:54Z</time>
      </trkpt>
      <trkpt lat="48.0963" lon="7.05489">
        <ele>1192</ele>
        <time>2019-04-15T07:22:54Z</time>
      </trkpt>
      <trkpt lat="48.09647" lon="7.05471">
        <ele>1190</ele>
        <time>2019-04-15T07:23:54Z</time>
      </trkpt>
      <trkpt lat="48.09659" lon="7.0546">
        <ele>1189</ele>
        <time>2019-04-15T07:24:54Z</time>
      </trkpt>
      <trkpt lat="48.09673" lon="7.05449">
        <ele>1187</ele>
        <time>2019-04-15T07:25:54Z</time>
      </trkpt>
      <trkpt lat="48.09695" lon="7.05435">
        <ele>1187</ele>
        <time>2019-04-15T07:26:54Z</time>
      </trkpt>
      <trkpt lat="48.09709" lon="7.05426">
        <ele>1186</ele>
        <time>2019-04-15T07:27:54Z</time>
      </trkpt>
      <trkpt lat="48.09716" lon="7.05423">
        <ele>1186</ele>
        <time>2019-04-15T07:28:54Z</time>
      </trkpt>
      <trkpt lat="48.09725" lon="7.0542">
        <ele>1187</ele>
        <time>2019-04-15T07:29:54Z</time>
      </trkpt>
      <trkpt lat="48.09734" lon="7.05417">
        <ele>1187</ele>
        <time>2019-04-15T07:30:54Z</time>
      </trkpt>
      <trkpt lat="48.09745" lon="7.05417">
        <ele>1188</ele>
        <time>2019-04-15T07:31:54Z</time>
      </trkpt>
      <trkpt lat="48.09766" lon="7.05418">
        <ele>1190</ele>
        <time>2019-04-15T07:32:54Z</time>
      </trkpt>
      <trkpt lat="48.09782" lon="7.0542">
        <ele>1192</ele>
        <time>2019-04-15T07:33:54Z</time>
      </trkpt>
      <trkpt lat="48.09799" lon="7.05421">
        <ele>1194</ele>
        <time>2019-04-15T07:34:54Z</time>
      </trkpt>
      <trkpt lat="48.09813" lon="7.0542">
        <ele>1195</ele>
        <time>2019-04-15T07:35:54Z</time>
      </trkpt>
      <trkpt lat="48.09834" lon="7.05418">
        <ele>1197</ele>
        <time>2019-04-15T07:36:54Z</time>
      </trkpt>
      <trkpt lat="48.09858" lon="7.05412">
        <ele>1197</ele>
        <time>2019-04-15T07:37:54Z</time>
      </trkpt>
      <trkpt lat="48.09871" lon="7.0541">
        <ele>1196</ele>
        <time>2019-04-15T07:38:54Z</time>
      </trkpt>
      <trkpt lat="48.09885" lon="7.05411">
        <ele>1197</ele>
        <time>2019-04-15T07:39:54Z</time>
      </trkpt>
      <trkpt lat="48.099" lon="7.05414">
        <ele>1197</ele>
        <time>2019-04-15T07:40:54Z</time>
      </trkpt>
      <trkpt lat="48.09918" lon="7.0542">
        <ele>1198</ele>
        <time>2019-04-15T07:41:54Z</time>
      </trkpt>
      <trkpt lat="48.09938" lon="7.05427">
        <ele>1199</ele>
        <time>2019-04-15T07:42:54Z</time>
      </trkpt>
      <trkpt lat="48.09953" lon="7.0543">
        <ele>1200</ele>
        <time>2019-04-15T07:43:54Z</time>
      </trkpt>
      <trkpt lat="48.0997" lon="7.05432">
        <ele>1200</ele>
        <time>2019-04-15T07:44:54Z</time>
      </trkpt>
      <trkpt lat="48.09992" lon="7.05432">
        <ele>1200</ele>
        <time>2019-04-15T07:45:54Z</time>
      </trkpt>
      <trkpt lat="48.1001" lon="7.05432">
        <ele>1200</ele>
        <time>2019-04-15T07:46:54Z</time>
      </trkpt>
      <trkpt lat="48.10023" lon="7.05432">
        <ele>1201</ele>
        <time>2019-04-15T07:47:54Z</time>
      </trkpt>
      <trkpt lat="48.10034" lon="7.05433">
        <ele>1201</ele>
        <time>2019-04-15T07:48:54Z</time>
      </trkpt>
      <trkpt lat="48.10063" lon="7.0544">
        <ele>1203</ele>
        <time>2019-04-15T07:49:54Z</time>
      </trkpt>
      <trkpt lat="48.1008" lon="7.05445">
        <ele>1204</ele>
        <time>2019-04-15T07:50:54Z</time>
      </trkpt>
      <trkpt lat="48.10094" lon="7.0545">
        <ele>1205</ele>
        <time>2019-04-15T07:51:54Z</time>
      </trkpt>
      <trkpt lat="48.10106" lon="7.05459">
        <ele>1205</ele>
        <time>2019-04-15T07:52:54Z</time>
      </trkpt>
      <trkpt lat="48.10118" lon="7.05467">
        <ele>1205</ele>
        <time>2019-04-15T07:53:54Z</time>
      </trkpt>
      <trkpt lat="48.10129" lon="7.05482">
        <ele>1206</ele>
        <time>2019-04-15T07:54:54Z</time>
      </trkpt>
      <trkpt lat="48.10138" lon="7.05494">
        <ele>1206</ele>
        <time>2019-04-15T07:55:54Z</time>
      </trkpt>
      <trkpt lat="48.10146" lon="7.05511">
        <ele>1207</ele>
        <time>2019-04-15T07:56:54Z</time>
      </trkpt>
      <trkpt lat="48.1016" lon="7.05544">
        <ele>1208</ele>
        <time>2019-04-15T07:57:54Z</time>
      </trkpt>
      <trkpt lat="48.10176" lon="7.05586">
        <ele>1208</ele>
        <time>2019-04-15T07:58:54Z</time>
      </trkpt>
      <trkpt lat="48.10188" lon="7.05618">
        <ele>1209</ele>
        <time>2019-04-15T07:59:54Z</time>
      </trkpt>
      <trkpt lat="48.10194" lon="7.05636">
        <ele>1209</ele>
        <time>2019-04-15T08:00:54Z</time>
      </trkpt>
      <trkpt lat="48.10197" lon="7.05648">
        <ele>1209</ele>
        <time>2019-04-15T08:01:54Z</time>
      </trkpt>
      <trkpt lat="48.10202" lon="7.0567">
        <ele>1210</ele>
        <time>2019-04-15T08:02:54Z</time>
      </trkpt>
      <trkpt lat="48.10208" lon="7.05694">
        <ele>1210</ele>
        <time>2019-04-15T08:03:54Z</time>
      </trkpt>
      <trkpt lat="48.10212" lon="7.05716">
        <ele>1211</ele>
        <time>2019-04-15T08:04:54Z</time>
      </trkpt>
      <trkpt lat="48.10218" lon="7.0574">
        <ele>1211</ele>
        <time>2019-04-15T08:05:54Z</time>
      </trkpt>
      <trkpt lat="48.10226" lon="7.05763">
        <ele>1212</ele>
        <time>2019-04-15T08:06:54Z</time>
      </trkpt>
      <trkpt lat="48.10236" lon="7.05788">
        <ele>1212</ele>
        <time>2019-04-15T08:07:54Z</time>
      </trkpt>
      <trkpt lat="48.10245" lon="7.05815">
        <ele>1212</ele>
        <time>2019-04-15T08:08:54Z</time>
      </trkpt>
      <trkpt lat="48.10257" lon="7.05846">
        <ele>1213</ele>
        <time>2019-04-15T08:09:54Z</time>
      </trkpt>
      <trkpt lat="48.1027" lon="7.05873">
        <ele>1214</ele>
        <time>2019-04-15T08:10:54Z</time>
      </trkpt>
      <trkpt lat="48.1028" lon="7.05893">
        <ele>1215</ele>
        <time>2019-04-15T08:11:54Z</time>
      </trkpt>
      <trkpt lat="48.10295" lon="7.05917">
        <ele>1217</ele>
        <time>2019-04-15T08:12:54Z</time>
      </trkpt>
      <trkpt lat="48.10316" lon="7.05942">
        <ele>1218</ele>
        <time>2019-04-15T08:13:54Z</time>
      </trkpt>
      <trkpt lat="48.10332" lon="7.05958">
        <ele>1219</ele>
        <time>2019-04-15T08:14:54Z</time>
      </trkpt>
      <trkpt lat="48.10353" lon="7.05976">
        <ele>1220</ele>
        <time>2019-04-15T08:15:54Z</time>
      </trkpt>
      <trkpt lat="48.10366" lon="7.05985">
        <ele>1221</ele>
        <time>2019-04-15T08:16:54Z</time>
      </trkpt>
      <trkpt lat="48.10379" lon="7.05992">
        <ele>1222</ele>
        <time>2019-04-15T08:17:54Z</time>
      </trkpt>
      <trkpt lat="48.10434" lon="7.06011">
        <ele>1225</ele>
        <time>2019-04-15T08:18:54Z</time>
      </trkpt>
      <trkpt lat="48.10452" lon="7.06014">
        <ele>1226</ele>
        <time>2019-04-15T08:19:54Z</time>
      </trkpt>
      <trkpt lat="48.10465" lon="7.06015">
        <ele>1227</ele>
        <time>2019-04-15T08:20:54Z</time>
      </trkpt>
      <trkpt lat="48.10483" lon="7.06014">
        <ele>1227</ele>
        <time>2019-04-15T08:21:54Z</time>
      </trkpt>
      <trkpt lat="48.10502" lon="7.06011">
        <ele>1228</ele>
        <time>2019-04-15T08:22:54Z</time>
      </trkpt>
      <trkpt lat="48.10527" lon="7.06006">
        <ele>1229</ele>
        <time>2019-04-15T08:23:54Z</time>
      </trkpt>
      <trkpt lat="48.10548" lon="7.06001">
        <ele>1229</ele>
        <time>2019-04-15T08:24:54Z</time>
      </trkpt>
      <trkpt lat="48.10567" lon="7.05998">
        <ele>1230</ele>
        <time>2019-04-15T08:25:54Z</time>
      </trkpt>
      <trkpt lat="48.10588" lon="7.05997">
        <ele>1230</ele>
        <time>2019-04-15T08:26:54Z</time>
      </trkpt>
      <trkpt lat="48.10604" lon="7.05996">
        <ele>1230</ele>
        <time>2019-04-15T08:27:54Z</time>
      </trkpt>
      <trkpt lat="48.10617" lon="7.05997">
        <ele>1229</ele>
        <time>2019-04-15T08:28:54Z</time>
      </trkpt>
      <trkpt lat="48.1063" lon="7.06">
        <ele>1229</ele>
        <time>2019-04-15T08:29:54Z</time>
      </trkpt>
      <trkpt lat="48.10641" lon="7.06003">
        <ele>1229</ele>
        <time>2019-04-15T08:30:54Z</time>
      </trkpt>
      <trkpt lat="48.1066" lon="7.0601">
        <ele>1229</ele>
        <time>2019-04-15T08:31:54Z</time>
      </trkpt>
      <trkpt lat="48.10672" lon="7.06017">
        <ele>1229</ele>
        <time>2019-04-15T08:32:54Z</time>
      </trkpt>
      <trkpt lat="48.10684" lon="7.06026">
        <ele>1228</ele>
        <time>2019-04-15T08:33:54Z</time>
      </trkpt>
      <trkpt lat="48.10699" lon="7.06041">
        <ele>1227</ele>
        <time>2019-04-15T08:34:54Z</time>
      </trkpt>
      <trkpt lat="48.10714" lon="7.06057">
        <ele>1226</ele>
        <time>2019-04-15T08:35:54Z</time>
      </trkpt>
      <trkpt lat="48.1075" lon="7.06106">
        <ele>1226</ele>
        <time>2019-04-15T08:36:54Z</time>
      </trkpt>
      <trkpt lat="48.10791" lon="7.06167">
        <ele>1224</ele>
        <time>2019-04-15T08:37:54Z</time>
      </trkpt>
      <trkpt lat="48.10813" lon="7.06208">
        <ele>1222</ele>
        <time>2019-04-15T08:38:54Z</time>
      </trkpt>
      <trkpt lat="48.10819" lon="7.06225">
        <ele>1221</ele>
        <time>2019-04-15T08:39:54Z</time>
      </trkpt>
      <trkpt lat="48.10823" lon="7.06249">
        <ele>1221</ele>
        <time>2019-04-15T08:40:54Z</time>
      </trkpt>
      <trkpt lat="48.10829" lon="7.06283">
        <ele>1221</ele>
        <time>2019-04-15T08:41:54Z</time>
      </trkpt>
      <trkpt lat="48.10832" lon="7.06307">
        <ele>1221</ele>
        <time>2019-04-15T08:42:54Z</time>
      </trkpt>
      <trkpt lat="48.10834" lon="7.0632">
        <ele>1221</ele>
        <time>2019-04-15T08:43:54Z</time>
      </trkpt>
      <trkpt lat="48.10838" lon="7.06332">
        <ele>1221</ele>
        <time>2019-04-15T08:44:54Z</time>
      </trkpt>
      <trkpt lat="48.10853" lon="7.0636">
        <ele>1221</ele>
        <time>2019-04-15T08:45:54Z</time>
      </trkpt>
      <trkpt lat="48.10868" lon="7.06385">
        <ele>1222</ele>
        <time>2019-04-15T08:46:54Z</time>
      </trkpt>
      <trkpt lat="48.10889" lon="7.06414">
        <ele>1222</ele>
        <time>2019-04-15T08:47:54Z</time>
      </trkpt>
      <trkpt lat="48.10898" lon="7.06427">
        <ele>1222</ele>
        <time>2019-04-15T08:48:54Z</time>
      </trkpt>
      <trkpt lat="48.10913" lon="7.06446">
        <ele>1222</ele>
        <time>2019-04-15T08:49:54Z</time>
      </trkpt>
      <trkpt lat="48.10943" lon="7.06472">
        <ele>1223</ele>
        <time>2019-04-15T08:50:54Z</time>
      </trkpt>
      <trkpt lat="48.1098" lon="7.06501">
        <ele>1223</ele>
        <time>2019-04-15T08:51:54Z</time>
      </trkpt>
      <trkpt lat="48.10997" lon="7.06515">
        <ele>1223</ele>
        <time>2019-04-15T08:52:54Z</time>
      </trkpt>
      <trkpt lat="48.1102" lon="7.06531">
        <ele>1223</ele>
        <time>2019-04-15T08:53:54Z</time>
      </trkpt>
      <trkpt lat="48.11038" lon="7.06541">
        <ele>1223</ele>
        <time>2019-04-15T08:54:54Z</time>
      </trkpt>
      <trkpt lat="48.11055" lon="7.06547">
        <ele>1223</ele>
        <time>2019-04-15T08:55:54Z</time>
      </trkpt>
      <trkpt lat="48.11068" lon="7.0655">
        <ele>1222</ele>
        <time>2019-04-15T08:56:54Z</time>
      </trkpt>
      <trkpt lat="48.11079" lon="7.06551">
        <ele>1222</ele>
        <time>2019-04-15T08:57:54Z</time>
      </trkpt>
      <trkpt lat="48.11091" lon="7.0655">
        <ele>1222</ele>
        <time>2019-04-15T08:58:54Z</time>
      </trkpt>
      <trkpt lat="48.1113" lon="7.06544">
        <ele>1221</ele>
        <time>2019-04-15T08:59:54Z</time>
      </trkpt>
      <trkpt lat="48.11145" lon="7.06541">
        <ele>1220</ele>
        <time>2019-04-15T09:00:54Z</time>
      </trkpt>
      <trkpt lat="48.11155" lon="7.06537">
        <ele>1220</ele>
        <time>2019-04-15T09:01:54Z</time>
      </trkpt>
      <trkpt lat="48.11163" lon="7.06532">
        <ele>1219</ele>
        <time>2019-04-15T09:02:54Z</time>
      </trkpt>
      <trkpt lat="48.1117" lon="7.06525">
        <ele>1219</ele>
        <time>2019-04-15T09:03:54Z</time>
      </trkpt>
      <trkpt lat="48.11178" lon="7.06517">
        <ele>1218</ele>
        <time>2019-04-15T09:04:54Z</time>
      </trkpt>
      <trkpt lat="48.11201" lon="7.06492">
        <ele>1217</ele>
        <time>2019-04-15T09:05:54Z</time>
      </trkpt>
      <trkpt lat="48.11232" lon="7.06457">
        <ele>1215</ele>
        <time>2019-04-15T09:06:54Z</time>
      </trkpt>
      <trkpt lat="48.11248" lon="7.0644">
        <ele>1214</ele>
        <time>2019-04-15T09:07:54Z</time>
      </trkpt>
      <trkpt lat="48.11258" lon="7.06426">
        <ele>1214</ele>
        <time>2019-04-15T09:08:54Z</time>
      </trkpt>
      <trkpt lat="48.11272" lon="7.06406">
        <ele>1214</ele>
        <time>2019-04-15T09:09:54Z</time>
      </trkpt>
      <trkpt lat="48.1128" lon="7.06391">
        <ele>1214</ele>
        <time>2019-04-15T09:10:54Z</time>
      </trkpt>
      <trkpt lat="48.11288" lon="7.06374">
        <ele>1214</ele>
        <time>2019-04-15T09:11:54Z</time>
      </trkpt>
      <trkpt lat="48.11295" lon="7.06352">
        <ele>1213</ele>
        <time>2019-04-15T09:12:54Z</time>
      </trkpt>
      <trkpt lat="48.113" lon="7.06328">
        <ele>1213</ele>
        <time>2019-04-15T09:13:54Z</time>
      </trkpt>
      <trkpt lat="48.11304" lon="7.06307">
        <ele>1212</ele>
        <time>2019-04-15T09:14:54Z</time>
      </trkpt>
      <trkpt lat="48.11305" lon="7.06284">
        <ele>1211</ele>
        <time>2019-04-15T09:15:54Z</time>
      </trkpt>
      <trkpt lat="48.11306" lon="7.06261">
        <ele>1210</ele>
        <time>2019-04-15T09:16:54Z</time>
      </trkpt>
      <trkpt lat="48.11305" lon="7.06218">
        <ele>1209</ele>
        <time>2019-04-15T09:17:54Z</time>
      </trkpt>
      <trkpt lat="48.11303" lon="7.06133">
        <ele>1207</ele>
        <time>2019-04-15T09:18:54Z</time>
      </trkpt>
      <trkpt lat="48.11299" lon="7.06088">
        <ele>1206</ele>
        <time>2019-04-15T09:19:54Z</time>
      </trkpt>
      <trkpt lat="48.11294" lon="7.06038">
        <ele>1206</ele>
        <time>2019-04-15T09:20:54Z</time>
      </trkpt>
      <trkpt lat="48.1129" lon="7.05994">
        <ele>1206</ele>
        <time>2019-04-15T09:21:54Z</time>
      </trkpt>
      <trkpt lat="48.11289" lon="7.05968">
        <ele>1205</ele>
        <time>2019-04-15T09:22:54Z</time>
      </trkpt>
      <trkpt lat="48.11289" lon="7.05963">
        <ele>1205</ele>
        <time>2019-04-15T09:23:54Z</time>
      </trkpt>
      <trkpt lat="48.11291" lon="7.05946">
        <ele>1204</ele>
        <time>2019-04-15T09:24:54Z</time>
      </trkpt>
      <trkpt lat="48.11294" lon="7.05929">
        <ele>1204</ele>
        <time>2019-04-15T09:25:54Z</time>
      </trkpt>
      <trkpt lat="48.11299" lon="7.05916">
        <ele>1204</ele>
        <time>2019-04-15T09:26:54Z</time>
      </trkpt>
      <trkpt lat="48.11305" lon="7.05903">
        <ele>1204</ele>
        <time>2019-04-15T09:27:54Z</time>
      </trkpt>
      <trkpt lat="48.11314" lon="7.05894">
        <ele>1204</ele>
        <time>2019-04-15T09:28:54Z</time>
      </trkpt>
      <trkpt lat="48.11322" lon="7.05887">
        <ele>1204</ele>
        <time>2019-04-15T09:29:54Z</time>
      </trkpt>
      <trkpt lat="48.11329" lon="7.05883">
        <ele>1204</ele>
        <time>2019-04-15T09:30:54Z</time>
      </trkpt>
      <trkpt lat="48.11346" lon="7.05877">
        <ele>1203</ele>
        <time>2019-04-15T09:31:54Z</time>
      </trkpt>
      <trkpt lat="48.11368" lon="7.05877">
        <ele>1202</ele>
        <time>2019-04-15T09:32:54Z</time>
      </trkpt>
      <trkpt lat="48.11403" lon="7.05882">
        <ele>1201</ele>
        <time>2019-04-15T09:33:54Z</time>
      </trkpt>
      <trkpt lat="48.11412" lon="7.05884">
        <ele>1201</ele>
        <time>2019-04-15T09:34:54Z</time>
      </trkpt>
      <trkpt lat="48.11421" lon="7.05887">
        <ele>1201</ele>
        <time>2019-04-15T09:35:54Z</time>
      </trkpt>
      <trkpt lat="48.11428" lon="7.05891">
        <ele>1200</ele>
        <time>2019-04-15T09:36:54Z</time>
      </trkpt>
      <trkpt lat="48.11437" lon="7.05896">
        <ele>1200</ele>
        <time>2019-04-15T09:37:54Z</time>
      </trkpt>
      <trkpt lat="48.11472" lon="7.05924">
        <ele>1200</ele>
        <time>2019-04-15T09:38:54Z</time>
      </trkpt>
      <trkpt lat="48.11497" lon="7.05943">
        <ele>1200</ele>
        <time>2019-04-15T09:39:54Z</time>
      </trkpt>
      <trkpt lat="48.11507" lon="7.0595">
        <ele>1200</ele>
        <time>2019-04-15T09:40:54Z</time>
      </trkpt>
      <trkpt lat="48.11517" lon="7.05956">
        <ele>1200</ele>
        <time>2019-04-15T09:41:54Z</time>
      </trkpt>
      <trkpt lat="48.11527" lon="7.05962">
        <ele>1199</ele>
        <time>2019-04-15T09:42:54Z</time>
      </trkpt>
      <trkpt lat="48.11606" lon="7.06008">
        <ele>1197</ele>
        <time>2019-04-15T09:43:54Z</time>
      </trkpt>
      <trkpt lat="48.11628" lon="7.06024">
        <ele>1196</ele>
        <time>2019-04-15T09:44:54Z</time>
      </trkpt>
      <trkpt lat="48.11648" lon="7.06039">
        <ele>1195</ele>
        <time>2019-04-15T09:45:54Z</time>
      </trkpt>
      <trkpt lat="48.11672" lon="7.0606">
        <ele>1194</ele>
        <time>2019-04-15T09:46:54Z</time>
      </trkpt>
      <trkpt lat="48.11692" lon="7.06076">
        <ele>1192</ele>
        <time>2019-04-15T09:47:54Z</time>
      </trkpt>
      <trkpt lat="48.11705" lon="7.06087">
        <ele>1191</ele>
        <time>2019-04-15T09:48:54Z</time>
      </trkpt>
      <trkpt lat="48.11714" lon="7.06096">
        <ele>1191</ele>
        <time>2019-04-15T09:49:54Z</time>
      </trkpt>
      <trkpt lat="48.11724" lon="7.06106">
        <ele>1190</ele>
        <time>2019-04-15T09:50:54Z</time>
      </trkpt>
      <trkpt lat="48.11733" lon="7.06118">
        <ele>1190</ele>
        <time>2019-04-15T09:51:54Z</time>
      </trkpt>
      <trkpt lat="48.11743" lon="7.06132">
        <ele>1190</ele>
        <time>2019-04-15T09:52:54Z</time>
      </trkpt>
      <trkpt lat="48.11754" lon="7.06147">
        <ele>1190</ele>
        <time>2019-04-15T09:53:54Z</time>
      </trkpt>
      <trkpt lat="48.11764" lon="7.06162">
        <ele>1190</ele>
        <time>2019-04-15T09:54:54Z</time>
      </trkpt>
      <trkpt lat="48.11775" lon="7.06182">
        <ele>1190</ele>
        <time>2019-04-15T09:55:54Z</time>
      </trkpt>
      <trkpt lat="48.11787" lon="7.06204">
        <ele>1190</ele>
        <time>2019-04-15T09:56:54Z</time>
      </trkpt>
      <trkpt lat="48.11797" lon="7.06222">
        <ele>1190</ele>
        <time>2019-04-15T09:57:54Z</time>
      </trkpt>
      <trkpt lat="48.11805" lon="7.06237">
        <ele>1190</ele>
        <time>2019-04-15T09:58:54Z</time>
      </trkpt>
      <trkpt lat="48.11813" lon="7.06253">
        <ele>1190</ele>
        <time>2019-04-15T09:59:54Z</time>
      </trkpt>
      <trkpt lat="48.11821" lon="7.06268">
        <ele>1189</ele>
        <time>2019-04-15T10:00:54Z</time>
      </trkpt>
      <trkpt lat="48.11829" lon="7.06282">
        <ele>1188</ele>
        <time>2019-04-15T10:01:54Z</time>
      </trkpt>
      <trkpt lat="48.11835" lon="7.06292">
        <ele>1188</ele>
        <time>2019-04-15T10:02:54Z</time>
      </trkpt>
      <trkpt lat="48.11841" lon="7.06301">
        <ele>1187</ele>
        <time>2019-04-15T10:03:54Z</time>
      </trkpt>
      <trkpt lat="48.11849" lon="7.06313">
        <ele>1187</ele>
        <time>2019-04-15T10:04:54Z</time>
      </trkpt>
      <trkpt lat="48.11862" lon="7.06329">
        <ele>1186</ele>
        <time>2019-04-15T10:05:54Z</time>
      </trkpt>
      <trkpt lat="48.11875" lon="7.06343">
        <ele>1185</ele>
        <time>2019-04-15T10:06:54Z</time>
      </trkpt>
      <trkpt lat="48.11887" lon="7.06358">
        <ele>1184</ele>
        <time>2019-04-15T10:07:54Z</time>
      </trkpt>
      <trkpt lat="48.11898" lon="7.06371">
        <ele>1184</ele>
        <time>2019-04-15T10:08:54Z</time>
      </trkpt>
      <trkpt lat="48.11917" lon="7.06391">
        <ele>1182</ele>
        <time>2019-04-15T10:09:54Z</time>
      </trkpt>
      <trkpt lat="48.11929" lon="7.06406">
        <ele>1182</ele>
        <time>2019-04-15T10:10:54Z</time>
      </trkpt>
      <trkpt lat="48.11938" lon="7.06415">
        <ele>1181</ele>
        <time>2019-04-15T10:11:54Z</time>
      </trkpt>
      <trkpt lat="48.11945" lon="7.06423">
        <ele>1181</ele>
        <time>2019-04-15T10:12:54Z</time>
      </trkpt>
      <trkpt lat="48.11953" lon="7.06429">
        <ele>1181</ele>
        <time>2019-04-15T10:13:54Z</time>
      </trkpt>
      <trkpt lat="48.11962" lon="7.06436">
        <ele>1180</ele>
        <time>2019-04-15T10:14:54Z</time>
      </trkpt>
      <trkpt lat="48.11973" lon="7.06442">
        <ele>1180</ele>
        <time>2019-04-15T10:15:54Z</time>
      </trkpt>
      <trkpt lat="48.11992" lon="7.0645">
        <ele>1178</ele>
        <time>2019-04-15T10:16:54Z</time>
      </trkpt>
      <trkpt lat="48.12018" lon="7.06463">
        <ele>1178</ele>
        <time>2019-04-15T10:17:54Z</time>
      </trkpt>
      <trkpt lat="48.12038" lon="7.06473">
        <ele>1178</ele>
        <time>2019-04-15T10:18:54Z</time>
      </trkpt>
      <trkpt lat="48.12057" lon="7.06481">
        <ele>1178</ele>
        <time>2019-04-15T10:19:54Z</time>
      </trkpt>
      <trkpt lat="48.12069" lon="7.06487">
        <ele>1177</ele>
        <time>2019-04-15T10:20:54Z</time>
      </trkpt>
      <trkpt lat="48.12085" lon="7.06491">
        <ele>1177</ele>
        <time>2019-04-15T10:21:54Z</time>
      </trkpt>
      <trkpt lat="48.12105" lon="7.06494">
        <ele>1176</ele>
        <time>2019-04-15T10:22:54Z</time>
      </trkpt>
      <trkpt lat="48.12122" lon="7.06496">
        <ele>1175</ele>
        <time>2019-04-15T10:23:54Z</time>
      </trkpt>
      <trkpt lat="48.12139" lon="7.06496">
        <ele>1174</ele>
        <time>2019-04-15T10:24:54Z</time>
      </trkpt>
      <trkpt lat="48.1215" lon="7.06497">
        <ele>1174</ele>
        <time>2019-04-15T10:25:54Z</time>
      </trkpt>
      <trkpt lat="48.1216" lon="7.065">
        <ele>1173</ele>
        <time>2019-04-15T10:26:54Z</time>
      </trkpt>
      <trkpt lat="48.1217" lon="7.06505">
        <ele>1173</ele>
        <time>2019-04-15T10:27:54Z</time>
      </trkpt>
      <trkpt lat="48.12181" lon="7.06512">
        <ele>1171</ele>
        <time>2019-04-15T10:28:54Z</time>
      </trkpt>
      <trkpt lat="48.12191" lon="7.06523">
        <ele>1170</ele>
        <time>2019-04-15T10:29:54Z</time>
      </trkpt>
      <trkpt lat="48.12199" lon="7.06533">
        <ele>1170</ele>
        <time>2019-04-15T10:30:54Z</time>
      </trkpt>
      <trkpt lat="48.12207" lon="7.06547">
        <ele>1169</ele>
        <time>2019-04-15T10:31:54Z</time>
      </trkpt>
      <trkpt lat="48.12217" lon="7.06566">
        <ele>1168</ele>
        <time>2019-04-15T10:32:54Z</time>
      </trkpt>
      <trkpt lat="48.12228" lon="7.06595">
        <ele>1168</ele>
        <time>2019-04-15T10:33:54Z</time>
      </trkpt>
      <trkpt lat="48.12251" lon="7.06662">
        <ele>1168</ele>
        <time>2019-04-15T10:34:54Z</time>
      </trkpt>
      <trkpt lat="48.12272" lon="7.06726">
        <ele>1165</ele>
        <time>2019-04-15T10:35:54Z</time>
      </trkpt>
      <trkpt lat="48.12278" lon="7.06748">
        <ele>1165</ele>
        <time>2019-04-15T10:36:54Z</time>
      </trkpt>
      <trkpt lat="48.12285" lon="7.06769">
        <ele>1165</ele>
        <time>2019-04-15T10:37:54Z</time>
      </trkpt>
      <trkpt lat="48.12298" lon="7.06805">
        <ele>1165</ele>
        <time>2019-04-15T10:38:54Z</time>
      </trkpt>
      <trkpt lat="48.12311" lon="7.06846">
        <ele>1165</ele>
        <time>2019-04-15T10:39:54Z</time>
      </trkpt>
      <trkpt lat="48.12318" lon="7.06872">
        <ele>1165</ele>
        <time>2019-04-15T10:40:54Z</time>
      </trkpt>
      <trkpt lat="48.12325" lon="7.06903">
        <ele>1165</ele>
        <time>2019-04-15T10:41:54Z</time>
      </trkpt>
      <trkpt lat="48.12333" lon="7.06944">
        <ele>1165</ele>
        <time>2019-04-15T10:42:54Z</time>
      </trkpt>
      <trkpt lat="48.12341" lon="7.06987">
        <ele>1164</ele>
        <time>2019-04-15T10:43:54Z</time>
      </trkpt>
      <trkpt lat="48.12345" lon="7.07002">
        <ele>1163</ele>
        <time>2019-04-15T10:44:54Z</time>
      </trkpt>
      <trkpt lat="48.12348" lon="7.07029">
        <ele>1163</ele>
        <time>2019-04-15T10:45:54Z</time>
      </trkpt>
      <trkpt lat="48.12349" lon="7.07046">
        <ele>1163</ele>
        <time>2019-04-15T10:46:54Z</time>
      </trkpt>
      <trkpt lat="48.12352" lon="7.07087">
        <ele>1164</ele>
        <time>2019-04-15T10:47:54Z</time>
      </trkpt>
      <trkpt lat="48.12355" lon="7.07111">
        <ele>1165</ele>
        <time>2019-04-15T10:48:54Z</time>
      </trkpt>
      <trkpt lat="48.12357" lon="7.07132">
        <ele>1166</ele>
        <time>2019-04-15T10:49:54Z</time>
      </trkpt>
      <trkpt lat="48.12362" lon="7.07159">
        <ele>1167</ele>
        <time>2019-04-15T10:50:54Z</time>
      </trkpt>
      <trkpt lat="48.12365" lon="7.07179">
        <ele>1167</ele>
        <time>2019-04-15T10:51:54Z</time>
      </trkpt>
      <trkpt lat="48.12369" lon="7.07197">
        <ele>1168</ele>
        <time>2019-04-15T10:52:54Z</time>
      </trkpt>
      <trkpt lat="48.12373" lon="7.07209">
        <ele>1168</ele>
        <time>2019-04-15T10:53:54Z</time>
      </trkpt>
      <trkpt lat="48.12378" lon="7.07221">
        <ele>1167</ele>
        <time>2019-04-15T10:54:54Z</time>
      </trkpt>
      <trkpt lat="48.12383" lon="7.07234">
        <ele>1167</ele>
        <time>2019-04-15T10:55:54Z</time>
      </trkpt>
      <trkpt lat="48.12392" lon="7.07248">
        <ele>1166</ele>
        <time>2019-04-15T10:56:54Z</time>
      </trkpt>
      <trkpt lat="48.12399" lon="7.07257">
        <ele>1165</ele>
        <time>2019-04-15T10:57:54Z</time>
      </trkpt>
      <trkpt lat="48.12409" lon="7.07267">
        <ele>1164</ele>
        <time>2019-04-15T10:58:54Z</time>
      </trkpt>
      <trkpt lat="48.12427" lon="7.07276">
        <ele>1162</ele>
        <time>2019-04-15T10:59:54Z</time>
      </trkpt>
      <trkpt lat="48.12459" lon="7.0729">
        <ele>1162</ele>
        <time>2019-04-15T11:00:54Z</time>
      </trkpt>
      <trkpt lat="48.12487" lon="7.07301">
        <ele>1161</ele>
        <time>2019-04-15T11:01:54Z</time>
      </trkpt>
      <trkpt lat="48.12509" lon="7.0731">
        <ele>1160</ele>
        <time>2019-04-15T11:02:54Z</time>
      </trkpt>
      <trkpt lat="48.12523" lon="7.07314">
        <ele>1160</ele>
        <time>2019-04-15T11:03:54Z</time>
      </trkpt>
      <trkpt lat="48.12537" lon="7.07316">
        <ele>1160</ele>
        <time>2019-04-15T11:04:54Z</time>
      </trkpt>
      <trkpt lat="48.1256" lon="7.07316">
        <ele>1159</ele>
        <time>2019-04-15T11:05:54Z</time>
      </trkpt>
      <trkpt lat="48.12593" lon="7.07316">
        <ele>1158</ele>
        <time>2019-04-15T11:06:54Z</time>
      </trkpt>
      <trkpt lat="48.12627" lon="7.07316">
        <ele>1157</ele>
        <time>2019-04-15T11:07:54Z</time>
      </trkpt>
      <trkpt lat="48.12656" lon="7.07317">
        <ele>1156</ele>
        <time>2019-04-15T11:08:54Z</time>
      </trkpt>
      <trkpt lat="48.12679" lon="7.07316">
        <ele>1155</ele>
        <time>2019-04-15T11:09:54Z</time>
      </trkpt>
      <trkpt lat="48.12703" lon="7.07312">
        <ele>1154</ele>
        <time>2019-04-15T11:10:54Z</time>
      </trkpt>
      <trkpt lat="48.12729" lon="7.07307">
        <ele>1152</ele>
        <time>2019-04-15T11:11:54Z</time>
      </trkpt>
      <trkpt lat="48.12749" lon="7.07303">
        <ele>1151</ele>
        <time>2019-04-15T11:12:54Z</time>
      </trkpt>
      <trkpt lat="48.12763" lon="7.07299">
        <ele>1152</ele>
        <time>2019-04-15T11:13:54Z</time>
      </trkpt>
      <trkpt lat="48.12778" lon="7.07294">
        <ele>1153</ele>
        <time>2019-04-15T11:14:54Z</time>
      </trkpt>
      <trkpt lat="48.12802" lon="7.07281">
        <ele>1154</ele>
        <time>2019-04-15T11:15:54Z</time>
      </trkpt>
      <trkpt lat="48.12824" lon="7.07269">
        <ele>1155</ele>
        <time>2019-04-15T11:16:54Z</time>
      </trkpt>
      <trkpt lat="48.12854" lon="7.07252">
        <ele>1157</ele>
        <time>2019-04-15T11:17:54Z</time>
      </trkpt>
      <trkpt lat="48.12871" lon="7.07241">
        <ele>1158</ele>
        <time>2019-04-15T11:18:54Z</time>
      </trkpt>
      <trkpt lat="48.12899" lon="7.07221">
        <ele>1159</ele>
        <time>2019-04-15T11:19:54Z</time>
      </trkpt>
      <trkpt lat="48.12916" lon="7.07209">
        <ele>1160</ele>
        <time>2019-04-15T11:20:54Z</time>
      </trkpt>
      <trkpt lat="48.12925" lon="7.07204">
        <ele>1160</ele>
        <time>2019-04-15T11:21:54Z</time>
      </trkpt>
      <trkpt lat="48.12934" lon="7.07201">
        <ele>1160</ele>
        <time>2019-04-15T11:22:54Z</time>
      </trkpt>
      <trkpt lat="48.12942" lon="7.07199">
        <ele>1160</ele>
        <time>2019-04-15T11:23:54Z</time>
      </trkpt>
      <trkpt lat="48.12949" lon="7.07198">
        <ele>1160</ele>
        <time>2019-04-15T11:24:54Z</time>
      </trkpt>
      <trkpt lat="48.12959" lon="7.07198">
        <ele>1160</ele>
        <time>2019-04-15T11:25:54Z</time>
      </trkpt>
      <trkpt lat="48.12964" lon="7.07199">
        <ele>1160</ele>
        <time>2019-04-15T11:26:54Z</time>
      </trkpt>
      <trkpt lat="48.12964" lon="7.07199">
        <ele>1160</ele>
        <time>2019-04-15T11:27:54Z</time>
      </trkpt>
      <trkpt lat="48.12966" lon="7.07199">
        <ele>1160</ele>
        <time>2019-04-15T11:28:54Z</time>
      </trkpt>
      <trkpt lat="48.12975" lon="7.07202">
        <ele>1161</ele>
        <time>2019-04-15T11:29:54Z</time>
      </trkpt>
      <trkpt lat="48.12983" lon="7.07205">
        <ele>1161</ele>
        <time>2019-04-15T11:30:54Z</time>
      </trkpt>
      <trkpt lat="48.12992" lon="7.07211">
        <ele>1162</ele>
        <time>2019-04-15T11:31:54Z</time>
      </trkpt>
      <trkpt lat="48.12998" lon="7.07217">
        <ele>1162</ele>
        <time>2019-04-15T11:32:54Z</time>
      </trkpt>
      <trkpt lat="48.13003" lon="7.07223">
        <ele>1162</ele>
        <time>2019-04-15T11:33:54Z</time>
      </trkpt>
      <trkpt lat="48.1301" lon="7.07234">
        <ele>1162</ele>
        <time>2019-04-15T11:34:54Z</time>
      </trkpt>
      <trkpt lat="48.13019" lon="7.07254">
        <ele>1162</ele>
        <time>2019-04-15T11:35:54Z</time>
      </trkpt>
      <trkpt lat="48.13032" lon="7.07281">
        <ele>1163</ele>
        <time>2019-04-15T11:36:54Z</time>
      </trkpt>
      <trkpt lat="48.13042" lon="7.07304">
        <ele>1163</ele>
        <time>2019-04-15T11:37:54Z</time>
      </trkpt>
      <trkpt lat="48.1305" lon="7.0733">
        <ele>1164</ele>
        <time>2019-04-15T11:38:54Z</time>
      </trkpt>
      <trkpt lat="48.13067" lon="7.07379">
        <ele>1165</ele>
        <time>2019-04-15T11:39:54Z</time>
      </trkpt>
      <trkpt lat="48.1309" lon="7.07458">
        <ele>1168</ele>
        <time>2019-04-15T11:40:54Z</time>
      </trkpt>
      <trkpt lat="48.13102" lon="7.07503">
        <ele>1168</ele>
        <time>2019-04-15T11:41:54Z</time>
      </trkpt>
      <trkpt lat="48.13108" lon="7.07537">
        <ele>1167</ele>
        <time>2019-04-15T11:42:54Z</time>
      </trkpt>
      <trkpt lat="48.13111" lon="7.07559">
        <ele>1166</ele>
        <time>2019-04-15T11:43:54Z</time>
      </trkpt>
      <trkpt lat="48.13112" lon="7.07578">
        <ele>1166</ele>
        <time>2019-04-15T11:44:54Z</time>
      </trkpt>
      <trkpt lat="48.13116" lon="7.07597">
        <ele>1166</ele>
        <time>2019-04-15T11:45:54Z</time>
      </trkpt>
      <trkpt lat="48.13122" lon="7.07615">
        <ele>1166</ele>
        <time>2019-04-15T11:46:54Z</time>
      </trkpt>
      <trkpt lat="48.1315" lon="7.07686">
        <ele>1165</ele>
        <time>2019-04-15T11:47:54Z</time>
      </trkpt>
      <trkpt lat="48.13165" lon="7.07726">
        <ele>1164</ele>
        <time>2019-04-15T11:48:54Z</time>
      </trkpt>
      <trkpt lat="48.13175" lon="7.07751">
        <ele>1164</ele>
        <time>2019-04-15T11:49:54Z</time>
      </trkpt>
      <trkpt lat="48.13188" lon="7.07773">
        <ele>1165</ele>
        <time>2019-04-15T11:50:54Z</time>
      </trkpt>
      <trkpt lat="48.13204" lon="7.07791">
        <ele>1165</ele>
        <time>2019-04-15T11:51:54Z</time>
      </trkpt>
      <trkpt lat="48.13264" lon="7.07864">
        <ele>1164</ele>
        <time>2019-04-15T11:52:54Z</time>
      </trkpt>
      <trkpt lat="48.13318" lon="7.07926">
        <ele>1165</ele>
        <time>2019-04-15T11:53:54Z</time>
      </trkpt>
      <trkpt lat="48.13372" lon="7.07979">
        <ele>1163</ele>
        <time>2019-04-15T11:54:54Z</time>
      </trkpt>
      <trkpt lat="48.13443" lon="7.08039">
        <ele>1161</ele>
        <time>2019-04-15T11:55:54Z</time>
      </trkpt>
      <trkpt lat="48.1347" lon="7.08067">
        <ele>1163</ele>
        <time>2019-04-15T11:56:54Z</time>
      </trkpt>
      <trkpt lat="48.13483" lon="7.08081">
        <ele>1163</ele>
        <time>2019-04-15T11:57:54Z</time>
      </trkpt>
      <trkpt lat="48.13494" lon="7.08095">
        <ele>1164</ele>
        <time>2019-04-15T11:58:54Z</time>
      </trkpt>
      <trkpt lat="48.13519" lon="7.08137">
        <ele>1165</ele>
        <time>2019-04-15T11:59:54Z</time>
      </trkpt>
      <trkpt lat="48.13581" lon="7.08243">
        <ele>1162</ele>
        <time>2019-04-15T12:00:54Z</time>
      </trkpt>
      <trkpt lat="48.13586" lon="7.08254">
        <ele>1162</ele>
        <time>2019-04-15T12:01:54Z</time>
      </trkpt>
      <trkpt lat="48.13594" lon="7.08275">
        <ele>1162</ele>
        <time>2019-04-15T12:02:54Z</time>
      </trkpt>
      <trkpt lat="48.13617" lon="7.08349">
        <ele>1160</ele>
        <time>2019-04-15T12:03:54Z</time>
      </trkpt>
      <trkpt lat="48.13626" lon="7.08385">
        <ele>1159</ele>
        <time>2019-04-15T12:04:54Z</time>
      </trkpt>
      <trkpt lat="48.13632" lon="7.08422">
        <ele>1158</ele>
        <time>2019-04-15T12:05:54Z</time>
      </trkpt>
      <trkpt lat="48.13637" lon="7.08454">
        <ele>1157</ele>
        <time>2019-04-15T12:06:54Z</time>
      </trkpt>
      <trkpt lat="48.1364" lon="7.0848">
        <ele>1157</ele>
        <time>2019-04-15T12:07:54Z</time>
      </trkpt>
      <trkpt lat="48.13643" lon="7.08499">
        <ele>1157</ele>
        <time>2019-04-15T12:08:54Z</time>
      </trkpt>
      <trkpt lat="48.13646" lon="7.08515">
        <ele>1156</ele>
        <time>2019-04-15T12:09:54Z</time>
      </trkpt>
      <trkpt lat="48.13651" lon="7.08537">
        <ele>1155</ele>
        <time>2019-04-15T12:10:54Z</time>
      </trkpt>
      <trkpt lat="48.13665" lon="7.08591">
        <ele>1153</ele>
        <time>2019-04-15T12:11:54Z</time>
      </trkpt>
      <trkpt lat="48.13668" lon="7.08608">
        <ele>1152</ele>
        <time>2019-04-15T12:12:54Z</time>
      </trkpt>
      <trkpt lat="48.13669" lon="7.08627">
        <ele>1151</ele>
        <time>2019-04-15T12:13:54Z</time>
      </trkpt>
      <trkpt lat="48.1367" lon="7.08641">
        <ele>1150</ele>
        <time>2019-04-15T12:14:54Z</time>
      </trkpt>
      <trkpt lat="48.1367" lon="7.0866">
        <ele>1149</ele>
        <time>2019-04-15T12:15:54Z</time>
      </trkpt>
      <trkpt lat="48.13668" lon="7.08673">
        <ele>1149</ele>
        <time>2019-04-15T12:16:54Z</time>
      </trkpt>
      <trkpt lat="48.13666" lon="7.08689">
        <ele>1149</ele>
        <time>2019-04-15T12:17:54Z</time>
      </trkpt>
      <trkpt lat="48.13661" lon="7.08713">
        <ele>1149</ele>
        <time>2019-04-15T12:18:54Z</time>
      </trkpt>
      <trkpt lat="48.13649" lon="7.08765">
        <ele>1149</ele>
        <time>2019-04-15T12:19:54Z</time>
      </trkpt>
      <trkpt lat="48.13639" lon="7.08802">
        <ele>1149</ele>
        <time>2019-04-15T12:20:54Z</time>
      </trkpt>
      <trkpt lat="48.13632" lon="7.08828">
        <ele>1148</ele>
        <time>2019-04-15T12:21:54Z</time>
      </trkpt>
      <trkpt lat="48.1363" lon="7.08835">
        <ele>1148</ele>
        <time>2019-04-15T12:22:54Z</time>
      </trkpt>
      <trkpt lat="48.1363" lon="7.08839">
        <ele>1148</ele>
        <time>2019-04-15T12:23:54Z</time>
      </trkpt>
      <trkpt lat="48.1363" lon="7.08842">
        <ele>1148</ele>
        <time>2019-04-15T12:24:54Z</time>
      </trkpt>
      <trkpt lat="48.1363" lon="7.08845">
        <ele>1148</ele>
        <time>2019-04-15T12:25:54Z</time>
      </trkpt>
      <trkpt lat="48.1363" lon="7.0885">
        <ele>1147</ele>
        <time>2019-04-15T12:26:54Z</time>
      </trkpt>
      <trkpt lat="48.1363" lon="7.0885">
        <ele>1147</ele>
        <time>2019-04-15T12:27:54Z</time>
      </trkpt>
      <trkpt lat="48.13627" lon="7.08851">
        <ele>1147</ele>
        <time>2019-04-15T12:28:54Z</time>
      </trkpt>
      <trkpt lat="48.13626" lon="7.08852">
        <ele>1147</ele>
        <time>2019-04-15T12:29:54Z</time>
      </trkpt>
      <trkpt lat="48.1362" lon="7.08857">
        <ele>1147</ele>
        <time>2019-04-15T12:30:54Z</time>
      </trkpt>
      <trkpt lat="48.13615" lon="7.08863">
        <ele>1147</ele>
        <time>2019-04-15T12:31:54Z</time>
      </trkpt>
      <trkpt lat="48.13604" lon="7.08875">
        <ele>1146</ele>
        <time>2019-04-15T12:32:54Z</time>
      </trkpt>
      <trkpt lat="48.136" lon="7.0888">
        <ele>1146</ele>
        <time>2019-04-15T12:33:54Z</time>
      </trkpt>
      <trkpt lat="48.13598" lon="7.08884">
        <ele>1146</ele>
        <time>2019-04-15T12:34:54Z</time>
      </trkpt>
      <trkpt lat="48.13582" lon="7.08904">
        <ele>1144</ele>
        <time>2019-04-15T12:35:54Z</time>
      </trkpt>
      <trkpt lat="48.13568" lon="7.08924">
        <ele>1142</ele>
        <time>2019-04-15T12:36:54Z</time>
      </trkpt>
      <trkpt lat="48.13556" lon="7.08948">
        <ele>1140</ele>
        <time>2019-04-15T12:37:54Z</time>
      </trkpt>
      <trkpt lat="48.13547" lon="7.08973">
        <ele>1137</ele>
        <time>2019-04-15T12:38:54Z</time>
      </trkpt>
      <trkpt lat="48.13539" lon="7.08997">
        <ele>1134</ele>
        <time>2019-04-15T12:39:54Z</time>
      </trkpt>
      <trkpt lat="48.1353" lon="7.09036">
        <ele>1133</ele>
        <time>2019-04-15T12:40:54Z</time>
      </trkpt>
      <trkpt lat="48.13524" lon="7.09067">
        <ele>1131</ele>
        <time>2019-04-15T12:41:54Z</time>
      </trkpt>
      <trkpt lat="48.13517" lon="7.09103">
        <ele>1130</ele>
        <time>2019-04-15T12:42:54Z</time>
      </trkpt>
      <trkpt lat="48.13513" lon="7.09119">
        <ele>1128</ele>
        <time>2019-04-15T12:43:54Z</time>
      </trkpt>
      <trkpt lat="48.13507" lon="7.09147">
        <ele>1127</ele>
        <time>2019-04-15T12:44:54Z</time>
      </trkpt>
      <trkpt lat="48.13499" lon="7.09171">
        <ele>1125</ele>
        <time>2019-04-15T12:45:54Z</time>
      </trkpt>
      <trkpt lat="48.13494" lon="7.09186">
        <ele>1124</ele>
        <time>2019-04-15T12:46:54Z</time>
      </trkpt>
      <trkpt lat="48.13488" lon="7.092">
        <ele>1124</ele>
        <time>2019-04-15T12:47:54Z</time>
      </trkpt>
      <trkpt lat="48.13476" lon="7.09221">
        <ele>1122</ele>
        <time>2019-04-15T12:48:54Z</time>
      </trkpt>
      <trkpt lat="48.13467" lon="7.09233">
        <ele>1121</ele>
        <time>2019-04-15T12:49:54Z</time>
      </trkpt>
      <trkpt lat="48.13459" lon="7.09244">
        <ele>1120</ele>
        <time>2019-04-15T12:50:54Z</time>
      </trkpt>
      <trkpt lat="48.13449" lon="7.09255">
        <ele>1119</ele>
        <time>2019-04-15T12:51:54Z</time>
      </trkpt>
      <trkpt lat="48.1344" lon="7.09264">
        <ele>1117</ele>
        <time>2019-04-15T12:52:54Z</time>
      </trkpt>
      <trkpt lat="48.13428" lon="7.09275">
        <ele>1116</ele>
        <time>2019-04-15T12:53:54Z</time>
      </trkpt>
      <trkpt lat="48.13411" lon="7.09283">
        <ele>1114</ele>
        <time>2019-04-15T12:54:54Z</time>
      </trkpt>
      <trkpt lat="48.13398" lon="7.09285">
        <ele>1112</ele>
        <time>2019-04-15T12:55:54Z</time>
      </trkpt>
      <trkpt lat="48.13392" lon="7.09286">
        <ele>1112</ele>
        <time>2019-04-15T12:56:54Z</time>
      </trkpt>
      <trkpt lat="48.13385" lon="7.09285">
        <ele>1111</ele>
        <time>2019-04-15T12:57:54Z</time>
      </trkpt>
      <trkpt lat="48.13373" lon="7.09282">
        <ele>1110</ele>
        <time>2019-04-15T12:58:54Z</time>
      </trkpt>
      <trkpt lat="48.13366" lon="7.09277">
        <ele>1109</ele>
        <time>2019-04-15T12:59:54Z</time>
      </trkpt>
      <trkpt lat="48.13358" lon="7.09272">
        <ele>1108</ele>
        <time>2019-04-15T13:00:54Z</time>
      </trkpt>
      <trkpt lat="48.13351" lon="7.09266">
        <ele>1107</ele>
        <time>2019-04-15T13:01:54Z</time>
      </trkpt>
      <trkpt lat="48.13349" lon="7.09264">
        <ele>1107</ele>
        <time>2019-04-15T13:02:54Z</time>
      </trkpt>
      <trkpt lat="48.13324" lon="7.09238">
        <ele>1104</ele>
        <time>2019-04-15T13:03:54Z</time>
      </trkpt>
      <trkpt lat="48.13318" lon="7.09233">
        <ele>1104</ele>
        <time>2019-04-15T13:04:54Z</time>
      </trkpt>
      <trkpt lat="48.1331" lon="7.09229">
        <ele>1104</ele>
        <time>2019-04-15T13:05:54Z</time>
      </trkpt>
      <trkpt lat="48.13301" lon="7.09226">
        <ele>1104</ele>
        <time>2019-04-15T13:06:54Z</time>
      </trkpt>
      <trkpt lat="48.13292" lon="7.09225">
        <ele>1104</ele>
        <time>2019-04-15T13:07:54Z</time>
      </trkpt>
      <trkpt lat="48.1324" lon="7.09219">
        <ele>1103</ele>
        <time>2019-04-15T13:08:54Z</time>
      </trkpt>
      <trkpt lat="48.13204" lon="7.09214">
        <ele>1105</ele>
        <time>2019-04-15T13:09:54Z</time>
      </trkpt>
      <trkpt lat="48.13159" lon="7.09204">
        <ele>1105</ele>
        <time>2019-04-15T13:10:54Z</time>
      </trkpt>
      <trkpt lat="48.1312" lon="7.09196">
        <ele>1104</ele>
        <time>2019-04-15T13:11:54Z</time>
      </trkpt>
      <trkpt lat="48.13082" lon="7.09188">
        <ele>1103</ele>
        <time>2019-04-15T13:12:54Z</time>
      </trkpt>
      <trkpt lat="48.13048" lon="7.09181">
        <ele>1100</ele>
        <time>2019-04-15T13:13:54Z</time>
      </trkpt>
      <trkpt lat="48.13021" lon="7.09175">
        <ele>1098</ele>
        <time>2019-04-15T13:14:54Z</time>
      </trkpt>
      <trkpt lat="48.13005" lon="7.09173">
        <ele>1098</ele>
        <time>2019-04-15T13:15:54Z</time>
      </trkpt>
      <trkpt lat="48.12987" lon="7.09173">
        <ele>1096</ele>
        <time>2019-04-15T13:16:54Z</time>
      </trkpt>
      <trkpt lat="48.12971" lon="7.09174">
        <ele>1093</ele>
        <time>2019-04-15T13:17:54Z</time>
      </trkpt>
      <trkpt lat="48.12954" lon="7.09178">
        <ele>1092</ele>
        <time>2019-04-15T13:18:54Z</time>
      </trkpt>
      <trkpt lat="48.12941" lon="7.09184">
        <ele>1092</ele>
        <time>2019-04-15T13:19:54Z</time>
      </trkpt>
      <trkpt lat="48.12932" lon="7.09189">
        <ele>1091</ele>
        <time>2019-04-15T13:20:54Z</time>
      </trkpt>
      <trkpt lat="48.12923" lon="7.09195">
        <ele>1092</ele>
        <time>2019-04-15T13:21:54Z</time>
      </trkpt>
      <trkpt lat="48.1291" lon="7.09207">
        <ele>1092</ele>
        <time>2019-04-15T13:22:54Z</time>
      </trkpt>
      <trkpt lat="48.12888" lon="7.09228">
        <ele>1091</ele>
        <time>2019-04-15T13:23:54Z</time>
      </trkpt>
      <trkpt lat="48.12856" lon="7.09264">
        <ele>1088</ele>
        <time>2019-04-15T13:24:54Z</time>
      </trkpt>
      <trkpt lat="48.12833" lon="7.09291">
        <ele>1087</ele>
        <time>2019-04-15T13:25:54Z</time>
      </trkpt>
      <trkpt lat="48.12811" lon="7.0932">
        <ele>1088</ele>
        <time>2019-04-15T13:26:54Z</time>
      </trkpt>
      <trkpt lat="48.12788" lon="7.09348">
        <ele>1087</ele>
        <time>2019-04-15T13:27:54Z</time>
      </trkpt>
      <trkpt lat="48.12765" lon="7.09372">
        <ele>1085</ele>
        <time>2019-04-15T13:28:54Z</time>
      </trkpt>
      <trkpt lat="48.12747" lon="7.09391">
        <ele>1083</ele>
        <time>2019-04-15T13:29:54Z</time>
      </trkpt>
      <trkpt lat="48.12733" lon="7.09405">
        <ele>1082</ele>
        <time>2019-04-15T13:30:54Z</time>
      </trkpt>
      <trkpt lat="48.12714" lon="7.09422">
        <ele>1080</ele>
        <time>2019-04-15T13:31:54Z</time>
      </trkpt>
      <trkpt lat="48.12693" lon="7.0944">
        <ele>1077</ele>
        <time>2019-04-15T13:32:54Z</time>
      </trkpt>
      <trkpt lat="48.1268" lon="7.09451">
        <ele>1076</ele>
        <time>2019-04-15T13:33:54Z</time>
      </trkpt>
      <trkpt lat="48.12646" lon="7.0948">
        <ele>1073</ele>
        <time>2019-04-15T13:34:54Z</time>
      </trkpt>
      <trkpt lat="48.12626" lon="7.095">
        <ele>1072</ele>
        <time>2019-04-15T13:35:54Z</time>
      </trkpt>
      <trkpt lat="48.12608" lon="7.09522">
        <ele>1070</ele>
        <time>2019-04-15T13:36:54Z</time>
      </trkpt>
      <trkpt lat="48.12588" lon="7.09551">
        <ele>1068</ele>
        <time>2019-04-15T13:37:54Z</time>
      </trkpt>
      <trkpt lat="48.12571" lon="7.09579">
        <ele>1067</ele>
        <time>2019-04-15T13:38:54Z</time>
      </trkpt>
      <trkpt lat="48.12552" lon="7.09605">
        <ele>1065</ele>
        <time>2019-04-15T13:39:54Z</time>
      </trkpt>
      <trkpt lat="48.12539" lon="7.09624">
        <ele>1064</ele>
        <time>2019-04-15T13:40:54Z</time>
      </trkpt>
      <trkpt lat="48.12533" lon="7.09634">
        <ele>1063</ele>
        <time>2019-04-15T13:41:54Z</time>
      </trkpt>
      <trkpt lat="48.12523" lon="7.0965">
        <ele>1062</ele>
        <time>2019-04-15T13:42:54Z</time>
      </trkpt>
      <trkpt lat="48.12513" lon="7.09669">
        <ele>1062</ele>
        <time>2019-04-15T13:43:54Z</time>
      </trkpt>
      <trkpt lat="48.12505" lon="7.09688">
        <ele>1060</ele>
        <time>2019-04-15T13:44:54Z</time>
      </trkpt>
      <trkpt lat="48.12498" lon="7.09705">
        <ele>1060</ele>
        <time>2019-04-15T13:45:54Z</time>
      </trkpt>
      <trkpt lat="48.12496" lon="7.0971">
        <ele>1060</ele>
        <time>2019-04-15T13:46:54Z</time>
      </trkpt>
      <trkpt lat="48.12488" lon="7.09727">
        <ele>1060</ele>
        <time>2019-04-15T13:47:54Z</time>
      </trkpt>
      <trkpt lat="48.12482" lon="7.09736">
        <ele>1060</ele>
        <time>2019-04-15T13:48:54Z</time>
      </trkpt>
      <trkpt lat="48.1248" lon="7.09739">
        <ele>1060</ele>
        <time>2019-04-15T13:49:54Z</time>
      </trkpt>
      <trkpt lat="48.1247" lon="7.0975">
        <ele>1060</ele>
        <time>2019-04-15T13:50:54Z</time>
      </trkpt>
      <trkpt lat="48.12457" lon="7.09763">
        <ele>1058</ele>
        <time>2019-04-15T13:51:54Z</time>
      </trkpt>
      <trkpt lat="48.12442" lon="7.09776">
        <ele>1056</ele>
        <time>2019-04-15T13:52:54Z</time>
      </trkpt>
      <trkpt lat="48.12424" lon="7.0979">
        <ele>1054</ele>
        <time>2019-04-15T13:53:54Z</time>
      </trkpt>
      <trkpt lat="48.12401" lon="7.09807">
        <ele>1051</ele>
        <time>2019-04-15T13:54:54Z</time>
      </trkpt>
      <trkpt lat="48.12398" lon="7.0981">
        <ele>1051</ele>
        <time>2019-04-15T13:55:54Z</time>
      </trkpt>
      <trkpt lat="48.12389" lon="7.09817">
        <ele>1049</ele>
        <time>2019-04-15T13:56:54Z</time>
      </trkpt>
      <trkpt lat="48.12384" lon="7.09824">
        <ele>1048</ele>
        <time>2019-04-15T13:57:54Z</time>
      </trkpt>
      <trkpt lat="48.1238" lon="7.09832">
        <ele>1046</ele>
        <time>2019-04-15T13:58:54Z</time>
      </trkpt>
      <trkpt lat="48.12375" lon="7.09847">
        <ele>1043</ele>
        <time>2019-04-15T13:59:54Z</time>
      </trkpt>
      <trkpt lat="48.12369" lon="7.09873">
        <ele>1037</ele>
        <time>2019-04-15T14:00:54Z</time>
      </trkpt>
      <trkpt lat="48.12364" lon="7.09908">
        <ele>1030</ele>
        <time>2019-04-15T14:01:54Z</time>
      </trkpt>
      <trkpt lat="48.12359" lon="7.09938">
        <ele>1026</ele>
        <time>2019-04-15T14:02:54Z</time>
      </trkpt>
      <trkpt lat="48.12354" lon="7.09956">
        <ele>1024</ele>
        <time>2019-04-15T14:03:54Z</time>
      </trkpt>
      <trkpt lat="48.12348" lon="7.09969">
        <ele>1024</ele>
        <time>2019-04-15T14:04:54Z</time>
      </trkpt>
      <trkpt lat="48.12341" lon="7.0998">
        <ele>1025</ele>
        <time>2019-04-15T14:05:54Z</time>
      </trkpt>
      <trkpt lat="48.12333" lon="7.09987">
        <ele>1026</ele>
        <time>2019-04-15T14:06:54Z</time>
      </trkpt>
      <trkpt lat="48.12326" lon="7.0999">
        <ele>1026</ele>
        <time>2019-04-15T14:07:54Z</time>
      </trkpt>
      <trkpt lat="48.12317" lon="7.09991">
        <ele>1025</ele>
        <time>2019-04-15T14:08:54Z</time>
      </trkpt>
      <trkpt lat="48.12309" lon="7.09991">
        <ele>1025</ele>
        <time>2019-04-15T14:09:54Z</time>
      </trkpt>
      <trkpt lat="48.12303" lon="7.09991">
        <ele>1024</ele>
        <time>2019-04-15T14:10:54Z</time>
      </trkpt>
      <trkpt lat="48.12294" lon="7.09986">
        <ele>1025</ele>
        <time>2019-04-15T14:11:54Z</time>
      </trkpt>
      <trkpt lat="48.12278" lon="7.09975">
        <ele>1025</ele>
        <time>2019-04-15T14:12:54Z</time>
      </trkpt>
      <trkpt lat="48.12261" lon="7.09958">
        <ele>1026</ele>
        <time>2019-04-15T14:13:54Z</time>
      </trkpt>
      <trkpt lat="48.12239" lon="7.09939">
        <ele>1029</ele>
        <time>2019-04-15T14:14:54Z</time>
      </trkpt>
      <trkpt lat="48.12229" lon="7.09934">
        <ele>1029</ele>
        <time>2019-04-15T14:15:54Z</time>
      </trkpt>
      <trkpt lat="48.1222" lon="7.09931">
        <ele>1030</ele>
        <time>2019-04-15T14:16:54Z</time>
      </trkpt>
      <trkpt lat="48.1221" lon="7.09933">
        <ele>1030</ele>
        <time>2019-04-15T14:17:54Z</time>
      </trkpt>
      <trkpt lat="48.12198" lon="7.09938">
        <ele>1030</ele>
        <time>2019-04-15T14:18:54Z</time>
      </trkpt>
      <trkpt lat="48.12188" lon="7.09949">
        <ele>1029</ele>
        <time>2019-04-15T14:19:54Z</time>
      </trkpt>
      <trkpt lat="48.1218" lon="7.09962">
        <ele>1028</ele>
        <time>2019-04-15T14:20:54Z</time>
      </trkpt>
      <trkpt lat="48.12174" lon="7.09982">
        <ele>1027</ele>
        <time>2019-04-15T14:21:54Z</time>
      </trkpt>
      <trkpt lat="48.1217" lon="7.10006">
        <ele>1026</ele>
        <time>2019-04-15T14:22:54Z</time>
      </trkpt>
      <trkpt lat="48.12168" lon="7.10036">
        <ele>1025</ele>
        <time>2019-04-15T14:23:54Z</time>
      </trkpt>
      <trkpt lat="48.12166" lon="7.10056">
        <ele>1024</ele>
        <time>2019-04-15T14:24:54Z</time>
      </trkpt>
      <trkpt lat="48.12168" lon="7.10084">
        <ele>1023</ele>
        <time>2019-04-15T14:25:54Z</time>
      </trkpt>
      <trkpt lat="48.12173" lon="7.10113">
        <ele>1021</ele>
        <time>2019-04-15T14:26:54Z</time>
      </trkpt>
      <trkpt lat="48.12179" lon="7.10144">
        <ele>1019</ele>
        <time>2019-04-15T14:27:54Z</time>
      </trkpt>
      <trkpt lat="48.12188" lon="7.10173">
        <ele>1017</ele>
        <time>2019-04-15T14:28:54Z</time>
      </trkpt>
      <trkpt lat="48.12198" lon="7.102">
        <ele>1016</ele>
        <time>2019-04-15T14:29:54Z</time>
      </trkpt>
      <trkpt lat="48.12215" lon="7.10231">
        <ele>1015</ele>
        <time>2019-04-15T14:30:54Z</time>
      </trkpt>
      <trkpt lat="48.12238" lon="7.10272">
        <ele>1015</ele>
        <time>2019-04-15T14:31:54Z</time>
      </trkpt>
      <trkpt lat="48.12256" lon="7.10303">
        <ele>1014</ele>
        <time>2019-04-15T14:32:54Z</time>
      </trkpt>
      <trkpt lat="48.12269" lon="7.10326">
        <ele>1012</ele>
        <time>2019-04-15T14:33:54Z</time>
      </trkpt>
      <trkpt lat="48.12281" lon="7.10349">
        <ele>1010</ele>
        <time>2019-04-15T14:34:54Z</time>
      </trkpt>
      <trkpt lat="48.1229" lon="7.10369">
        <ele>1007</ele>
        <time>2019-04-15T14:35:54Z</time>
      </trkpt>
      <trkpt lat="48.12295" lon="7.10391">
        <ele>1006</ele>
        <time>2019-04-15T14:36:54Z</time>
      </trkpt>
      <trkpt lat="48.12298" lon="7.10414">
        <ele>1004</ele>
        <time>2019-04-15T14:37:54Z</time>
      </trkpt>
      <trkpt lat="48.12299" lon="7.10437">
        <ele>1003</ele>
        <time>2019-04-15T14:38:54Z</time>
      </trkpt>
      <trkpt lat="48.12298" lon="7.10454">
        <ele>1002</ele>
        <time>2019-04-15T14:39:54Z</time>
      </trkpt>
      <trkpt lat="48.12296" lon="7.10474">
        <ele>1000</ele>
        <time>2019-04-15T14:40:54Z</time>
      </trkpt>
      <trkpt lat="48.12289" lon="7.10498">
        <ele>1000</ele>
        <time>2019-04-15T14:41:54Z</time>
      </trkpt>
      <trkpt lat="48.12276" lon="7.10533">
        <ele>1000</ele>
        <time>2019-04-15T14:42:54Z</time>
      </trkpt>
      <trkpt lat="48.12266" lon="7.10556">
        <ele>1001</ele>
        <time>2019-04-15T14:43:54Z</time>
      </trkpt>
      <trkpt lat="48.12259" lon="7.10574">
        <ele>1000</ele>
        <time>2019-04-15T14:44:54Z</time>
      </trkpt>
      <trkpt lat="48.12248" lon="7.10596">
        <ele>1002</ele>
        <time>2019-04-15T14:45:54Z</time>
      </trkpt>
      <trkpt lat="48.12233" lon="7.1063">
        <ele>1005</ele>
        <time>2019-04-15T14:46:54Z</time>
      </trkpt>
      <trkpt lat="48.12216" lon="7.10663">
        <ele>1008</ele>
        <time>2019-04-15T14:47:54Z</time>
      </trkpt>
      <trkpt lat="48.12206" lon="7.10685">
        <ele>1008</ele>
        <time>2019-04-15T14:48:54Z</time>
      </trkpt>
      <trkpt lat="48.12195" lon="7.10709">
        <ele>1008</ele>
        <time>2019-04-15T14:49:54Z</time>
      </trkpt>
      <trkpt lat="48.1219" lon="7.10726">
        <ele>1006</ele>
        <time>2019-04-15T14:50:54Z</time>
      </trkpt>
      <trkpt lat="48.12184" lon="7.10748">
        <ele>1005</ele>
        <time>2019-04-15T14:51:54Z</time>
      </trkpt>
      <trkpt lat="48.1218" lon="7.10777">
        <ele>1003</ele>
        <time>2019-04-15T14:52:54Z</time>
      </trkpt>
      <trkpt lat="48.12176" lon="7.1082">
        <ele>1000</ele>
        <time>2019-04-15T14:53:54Z</time>
      </trkpt>
      <trkpt lat="48.12172" lon="7.10864">
        <ele>998</ele>
        <time>2019-04-15T14:54:54Z</time>
      </trkpt>
      <trkpt lat="48.12172" lon="7.10906">
        <ele>996</ele>
        <time>2019-04-15T14:55:54Z</time>
      </trkpt>
      <trkpt lat="48.12172" lon="7.1093">
        <ele>995</ele>
        <time>2019-04-15T14:56:54Z</time>
      </trkpt>
      <trkpt lat="48.12172" lon="7.10941">
        <ele>995</ele>
        <time>2019-04-15T14:57:54Z</time>
      </trkpt>
      <trkpt lat="48.12171" lon="7.10955">
        <ele>994</ele>
        <time>2019-04-15T14:58:54Z</time>
      </trkpt>
      <trkpt lat="48.12167" lon="7.10972">
        <ele>993</ele>
        <time>2019-04-15T14:59:54Z</time>
      </trkpt>
      <trkpt lat="48.12161" lon="7.10992">
        <ele>992</ele>
        <time>2019-04-15T15:00:54Z</time>
      </trkpt>
      <trkpt lat="48.12148" lon="7.11023">
        <ele>992</ele>
        <time>2019-04-15T15:01:54Z</time>
      </trkpt>
      <trkpt lat="48.12136" lon="7.11045">
        <ele>991</ele>
        <time>2019-04-15T15:02:54Z</time>
      </trkpt>
      <trkpt lat="48.12133" lon="7.11054">
        <ele>990</ele>
        <time>2019-04-15T15:03:54Z</time>
      </trkpt>
      <trkpt lat="48.12126" lon="7.11072">
        <ele>989</ele>
        <time>2019-04-15T15:04:54Z</time>
      </trkpt>
      <trkpt lat="48.12124" lon="7.11076">
        <ele>989</ele>
        <time>2019-04-15T15:05:54Z</time>
      </trkpt>
      <trkpt lat="48.12111" lon="7.11097">
        <ele>987</ele>
        <time>2019-04-15T15:06:54Z</time>
      </trkpt>
      <trkpt lat="48.12099" lon="7.11111">
        <ele>986</ele>
        <time>2019-04-15T15:07:54Z</time>
      </trkpt>
      <trkpt lat="48.12085" lon="7.1112">
        <ele>986</ele>
        <time>2019-04-15T15:08:54Z</time>
      </trkpt>
      <trkpt lat="48.12057" lon="7.11133">
        <ele>978</ele>
        <time>2019-04-15T15:09:54Z</time>
      </trkpt>
      <trkpt lat="48.12049" lon="7.11138">
        <ele>976</ele>
        <time>2019-04-15T15:10:54Z</time>
      </trkpt>
      <trkpt lat="48.12038" lon="7.11147">
        <ele>973</ele>
        <time>2019-04-15T15:11:54Z</time>
      </trkpt>
      <trkpt lat="48.12013" lon="7.11174">
        <ele>967</ele>
        <time>2019-04-15T15:12:54Z</time>
      </trkpt>
      <trkpt lat="48.11986" lon="7.11207">
        <ele>964</ele>
        <time>2019-04-15T15:13:54Z</time>
      </trkpt>
      <trkpt lat="48.11969" lon="7.11232">
        <ele>962</ele>
        <time>2019-04-15T15:14:54Z</time>
      </trkpt>
      <trkpt lat="48.11962" lon="7.1125">
        <ele>963</ele>
        <time>2019-04-15T15:15:54Z</time>
      </trkpt>
      <trkpt lat="48.1196" lon="7.11266">
        <ele>961</ele>
        <time>2019-04-15T15:16:54Z</time>
      </trkpt>
      <trkpt lat="48.1196" lon="7.11281">
        <ele>960</ele>
        <time>2019-04-15T15:17:54Z</time>
      </trkpt>
      <trkpt lat="48.11964" lon="7.11297">
        <ele>960</ele>
        <time>2019-04-15T15:18:54Z</time>
      </trkpt>
      <trkpt lat="48.11971" lon="7.11311">
        <ele>961</ele>
        <time>2019-04-15T15:19:54Z</time>
      </trkpt>
      <trkpt lat="48.11982" lon="7.11322">
        <ele>962</ele>
        <time>2019-04-15T15:20:54Z</time>
      </trkpt>
      <trkpt lat="48.11991" lon="7.11328">
        <ele>964</ele>
        <time>2019-04-15T15:21:54Z</time>
      </trkpt>
      <trkpt lat="48.12011" lon="7.11337">
        <ele>966</ele>
        <time>2019-04-15T15:22:54Z</time>
      </trkpt>
      <trkpt lat="48.12034" lon="7.11346">
        <ele>967</ele>
        <time>2019-04-15T15:23:54Z</time>
      </trkpt>
      <trkpt lat="48.12064" lon="7.11356">
        <ele>968</ele>
        <time>2019-04-15T15:24:54Z</time>
      </trkpt>
      <trkpt lat="48.12091" lon="7.11367">
        <ele>969</ele>
        <time>2019-04-15T15:25:54Z</time>
      </trkpt>
      <trkpt lat="48.12121" lon="7.11387">
        <ele>966</ele>
        <time>2019-04-15T15:26:54Z</time>
      </trkpt>
      <trkpt lat="48.12168" lon="7.11426">
        <ele>962</ele>
        <time>2019-04-15T15:27:54Z</time>
      </trkpt>
      <trkpt lat="48.1222" lon="7.11469">
        <ele>955</ele>
        <time>2019-04-15T15:28:54Z</time>
      </trkpt>
      <trkpt lat="48.12241" lon="7.1149">
        <ele>952</ele>
        <time>2019-04-15T15:29:54Z</time>
      </trkpt>
      <trkpt lat="48.12253" lon="7.11507">
        <ele>950</ele>
        <time>2019-04-15T15:30:54Z</time>
      </trkpt>
      <trkpt lat="48.1226" lon="7.11522">
        <ele>949</ele>
        <time>2019-04-15T15:31:54Z</time>
      </trkpt>
      <trkpt lat="48.12269" lon="7.11551">
        <ele>948</ele>
        <time>2019-04-15T15:32:54Z</time>
      </trkpt>
      <trkpt lat="48.12276" lon="7.11583">
        <ele>946</ele>
        <time>2019-04-15T15:33:54Z</time>
      </trkpt>
      <trkpt lat="48.12286" lon="7.11625">
        <ele>937</ele>
        <time>2019-04-15T15:34:54Z</time>
      </trkpt>
      <trkpt lat="48.12292" lon="7.11648">
        <ele>933</ele>
        <time>2019-04-15T15:35:54Z</time>
      </trkpt>
      <trkpt lat="48.12302" lon="7.11667">
        <ele>933</ele>
        <time>2019-04-15T15:36:54Z</time>
      </trkpt>
      <trkpt lat="48.12313" lon="7.1169">
        <ele>928</ele>
        <time>2019-04-15T15:37:54Z</time>
      </trkpt>
      <trkpt lat="48.12323" lon="7.11707">
        <ele>925</ele>
        <time>2019-04-15T15:38:54Z</time>
      </trkpt>
      <trkpt lat="48.12333" lon="7.11721">
        <ele>923</ele>
        <time>2019-04-15T15:39:54Z</time>
      </trkpt>
      <trkpt lat="48.12351" lon="7.11735">
        <ele>920</ele>
        <time>2019-04-15T15:40:54Z</time>
      </trkpt>
      <trkpt lat="48.12369" lon="7.11746">
        <ele>919</ele>
        <time>2019-04-15T15:41:54Z</time>
      </trkpt>
      <trkpt lat="48.12397" lon="7.11764">
        <ele>920</ele>
        <time>2019-04-15T15:42:54Z</time>
      </trkpt>
      <trkpt lat="48.12423" lon="7.11777">
        <ele>921</ele>
        <time>2019-04-15T15:43:54Z</time>
      </trkpt>
      <trkpt lat="48.12425" lon="7.11778">
        <ele>920</ele>
        <time>2019-04-15T15:44:54Z</time>
      </trkpt>
      <trkpt lat="48.12443" lon="7.11787">
        <ele>918</ele>
        <time>2019-04-15T15:45:54Z</time>
      </trkpt>
      <trkpt lat="48.12449" lon="7.11789">
        <ele>918</ele>
        <time>2019-04-15T15:46:54Z</time>
      </trkpt>
      <trkpt lat="48.12463" lon="7.11794">
        <ele>917</ele>
        <time>2019-04-15T15:47:54Z</time>
      </trkpt>
      <trkpt lat="48.1247" lon="7.11796">
        <ele>916</ele>
        <time>2019-04-15T15:48:54Z</time>
      </trkpt>
      <trkpt lat="48.12495" lon="7.11806">
        <ele>915</ele>
        <time>2019-04-15T15:49:54Z</time>
      </trkpt>
      <trkpt lat="48.12523" lon="7.11815">
        <ele>909</ele>
        <time>2019-04-15T15:50:54Z</time>
      </trkpt>
      <trkpt lat="48.12548" lon="7.11825">
        <ele>904</ele>
        <time>2019-04-15T15:51:54Z</time>
      </trkpt>
      <trkpt lat="48.12559" lon="7.11834">
        <ele>902</ele>
        <time>2019-04-15T15:52:54Z</time>
      </trkpt>
      <trkpt lat="48.12565" lon="7.11839">
        <ele>902</ele>
        <time>2019-04-15T15:53:54Z</time>
      </trkpt>
      <trkpt lat="48.12579" lon="7.11855">
        <ele>901</ele>
        <time>2019-04-15T15:54:54Z</time>
      </trkpt>
      <trkpt lat="48.12592" lon="7.11878">
        <ele>898</ele>
        <time>2019-04-15T15:55:54Z</time>
      </trkpt>
      <trkpt lat="48.12599" lon="7.119">
        <ele>897</ele>
        <time>2019-04-15T15:56:54Z</time>
      </trkpt>
      <trkpt lat="48.12604" lon="7.11924">
        <ele>896</ele>
        <time>2019-04-15T15:57:54Z</time>
      </trkpt>
      <trkpt lat="48.12606" lon="7.11939">
        <ele>894</ele>
        <time>2019-04-15T15:58:54Z</time>
      </trkpt>
      <trkpt lat="48.12605" lon="7.11958">
        <ele>894</ele>
        <time>2019-04-15T15:59:54Z</time>
      </trkpt>
      <trkpt lat="48.12604" lon="7.11979">
        <ele>893</ele>
        <time>2019-04-15T16:00:54Z</time>
      </trkpt>
      <trkpt lat="48.12601" lon="7.11994">
        <ele>893</ele>
        <time>2019-04-15T16:01:54Z</time>
      </trkpt>
      <trkpt lat="48.12596" lon="7.12012">
        <ele>893</ele>
        <time>2019-04-15T16:02:54Z</time>
      </trkpt>
      <trkpt lat="48.12585" lon="7.12037">
        <ele>894</ele>
        <time>2019-04-15T16:03:54Z</time>
      </trkpt>
      <trkpt lat="48.12566" lon="7.12069">
        <ele>890</ele>
        <time>2019-04-15T16:04:54Z</time>
      </trkpt>
      <trkpt lat="48.12552" lon="7.12095">
        <ele>887</ele>
        <time>2019-04-15T16:05:54Z</time>
      </trkpt>
      <trkpt lat="48.12545" lon="7.12104">
        <ele>887</ele>
        <time>2019-04-15T16:06:54Z</time>
      </trkpt>
      <trkpt lat="48.12535" lon="7.12116">
        <ele>886</ele>
        <time>2019-04-15T16:07:54Z</time>
      </trkpt>
      <trkpt lat="48.12524" lon="7.12126">
        <ele>885</ele>
        <time>2019-04-15T16:08:54Z</time>
      </trkpt>
      <trkpt lat="48.12511" lon="7.12131">
        <ele>885</ele>
        <time>2019-04-15T16:09:54Z</time>
      </trkpt>
      <trkpt lat="48.12497" lon="7.12135">
        <ele>885</ele>
        <time>2019-04-15T16:10:54Z</time>
      </trkpt>
      <trkpt lat="48.12481" lon="7.12136">
        <ele>883</ele>
        <time>2019-04-15T16:11:54Z</time>
      </trkpt>
      <trkpt lat="48.12472" lon="7.12133">
        <ele>882</ele>
        <time>2019-04-15T16:12:54Z</time>
      </trkpt>
      <trkpt lat="48.12461" lon="7.12127">
        <ele>882</ele>
        <time>2019-04-15T16:13:54Z</time>
      </trkpt>
      <trkpt lat="48.12437" lon="7.1211">
        <ele>883</ele>
        <time>2019-04-15T16:14:54Z</time>
      </trkpt>
      <trkpt lat="48.12399" lon="7.1208">
        <ele>883</ele>
        <time>2019-04-15T16:15:54Z</time>
      </trkpt>
      <trkpt lat="48.12379" lon="7.12059">
        <ele>881</ele>
        <time>2019-04-15T16:16:54Z</time>
      </trkpt>
      <trkpt lat="48.12362" lon="7.12032">
        <ele>881</ele>
        <time>2019-04-15T16:17:54Z</time>
      </trkpt>
      <trkpt lat="48.12339" lon="7.11995">
        <ele>880</ele>
        <time>2019-04-15T16:18:54Z</time>
      </trkpt>
      <trkpt lat="48.12321" lon="7.11964">
        <ele>876</ele>
        <time>2019-04-15T16:19:54Z</time>
      </trkpt>
      <trkpt lat="48.12303" lon="7.11921">
        <ele>874</ele>
        <time>2019-04-15T16:20:54Z</time>
      </trkpt>
      <trkpt lat="48.12289" lon="7.11889">
        <ele>874</ele>
        <time>2019-04-15T16:21:54Z</time>
      </trkpt>
      <trkpt lat="48.12275" lon="7.11868">
        <ele>872</ele>
        <time>2019-04-15T16:22:54Z</time>
      </trkpt>
      <trkpt lat="48.12258" lon="7.11855">
        <ele>869</ele>
        <time>2019-04-15T16:23:54Z</time>
      </trkpt>
      <trkpt lat="48.12226" lon="7.11836">
        <ele>865</ele>
        <time>2019-04-15T16:24:54Z</time>
      </trkpt>
      <trkpt lat="48.1222" lon="7.11833">
        <ele>865</ele>
        <time>2019-04-15T16:25:54Z</time>
      </trkpt>
      <trkpt lat="48.12197" lon="7.11822">
        <ele>863</ele>
        <time>2019-04-15T16:26:54Z</time>
      </trkpt>
      <trkpt lat="48.12173" lon="7.11812">
        <ele>860</ele>
        <time>2019-04-15T16:27:54Z</time>
      </trkpt>
      <trkpt lat="48.12152" lon="7.11801">
        <ele>858</ele>
        <time>2019-04-15T16:28:54Z</time>
      </trkpt>
      <trkpt lat="48.12124" lon="7.11783">
        <ele>855</ele>
        <time>2019-04-15T16:29:54Z</time>
      </trkpt>
      <trkpt lat="48.1208" lon="7.11748">
        <ele>853</ele>
        <time>2019-04-15T16:30:54Z</time>
      </trkpt>
      <trkpt lat="48.12034" lon="7.11712">
        <ele>855</ele>
        <time>2019-04-15T16:31:54Z</time>
      </trkpt>
      <trkpt lat="48.12005" lon="7.11685">
        <ele>856</ele>
        <time>2019-04-15T16:32:54Z</time>
      </trkpt>
      <trkpt lat="48.1198" lon="7.1167">
        <ele>855</ele>
        <time>2019-04-15T16:33:54Z</time>
      </trkpt>
      <trkpt lat="48.11953" lon="7.11662">
        <ele>852</ele>
        <time>2019-04-15T16:34:54Z</time>
      </trkpt>
      <trkpt lat="48.11942" lon="7.11659">
        <ele>851</ele>
        <time>2019-04-15T16:35:54Z</time>
      </trkpt>
      <trkpt lat="48.1193" lon="7.11654">
        <ele>850</ele>
        <time>2019-04-15T16:36:54Z</time>
      </trkpt>
      <trkpt lat="48.11908" lon="7.1165">
        <ele>847</ele>
        <time>2019-04-15T16:37:54Z</time>
      </trkpt>
      <trkpt lat="48.1188" lon="7.11651">
        <ele>842</ele>
        <time>2019-04-15T16:38:54Z</time>
      </trkpt>
      <trkpt lat="48.11849" lon="7.11649">
        <ele>838</ele>
        <time>2019-04-15T16:39:54Z</time>
      </trkpt>
      <trkpt lat="48.11817" lon="7.11641">
        <ele>835</ele>
        <time>2019-04-15T16:40:54Z</time>
      </trkpt>
      <trkpt lat="48.11787" lon="7.11632">
        <ele>832</ele>
        <time>2019-04-15T16:41:54Z</time>
      </trkpt>
      <trkpt lat="48.11759" lon="7.11619">
        <ele>830</ele>
        <time>2019-04-15T16:42:54Z</time>
      </trkpt>
      <trkpt lat="48.11736" lon="7.11605">
        <ele>827</ele>
        <time>2019-04-15T16:43:54Z</time>
      </trkpt>
      <trkpt lat="48.11714" lon="7.11587">
        <ele>824</ele>
        <time>2019-04-15T16:44:54Z</time>
      </trkpt>
      <trkpt lat="48.1169" lon="7.11565">
        <ele>822</ele>
        <time>2019-04-15T16:45:54Z</time>
      </trkpt>
      <trkpt lat="48.11671" lon="7.11541">
        <ele>821</ele>
        <time>2019-04-15T16:46:54Z</time>
      </trkpt>
      <trkpt lat="48.11655" lon="7.11519">
        <ele>820</ele>
        <time>2019-04-15T16:47:54Z</time>
      </trkpt>
      <trkpt lat="48.11638" lon="7.11493">
        <ele>818</ele>
        <time>2019-04-15T16:48:54Z</time>
      </trkpt>
      <trkpt lat="48.1162" lon="7.11463">
        <ele>816</ele>
        <time>2019-04-15T16:49:54Z</time>
      </trkpt>
      <trkpt lat="48.11604" lon="7.11435">
        <ele>814</ele>
        <time>2019-04-15T16:50:54Z</time>
      </trkpt>
      <trkpt lat="48.11591" lon="7.11407">
        <ele>813</ele>
        <time>2019-04-15T16:51:54Z</time>
      </trkpt>
      <trkpt lat="48.11578" lon="7.11379">
        <ele>812</ele>
        <time>2019-04-15T16:52:54Z</time>
      </trkpt>
      <trkpt lat="48.11565" lon="7.11349">
        <ele>811</ele>
        <time>2019-04-15T16:53:54Z</time>
      </trkpt>
      <trkpt lat="48.11559" lon="7.11332">
        <ele>811</ele>
        <time>2019-04-15T16:54:54Z</time>
      </trkpt>
      <trkpt lat="48.11548" lon="7.11307">
        <ele>808</ele>
        <time>2019-04-15T16:55:54Z</time>
      </trkpt>
      <trkpt lat="48.11534" lon="7.11276">
        <ele>805</ele>
        <time>2019-04-15T16:56:54Z</time>
      </trkpt>
      <trkpt lat="48.11526" lon="7.11256">
        <ele>804</ele>
        <time>2019-04-15T16:57:54Z</time>
      </trkpt>
      <trkpt lat="48.11515" lon="7.11242">
        <ele>802</ele>
        <time>2019-04-15T16:58:54Z</time>
      </trkpt>
      <trkpt lat="48.11511" lon="7.11237">
        <ele>801</ele>
        <time>2019-04-15T16:59:54Z</time>
      </trkpt>
      <trkpt lat="48.11495" lon="7.11224">
        <ele>800</ele>
        <time>2019-04-15T17:00:54Z</time>
      </trkpt>
      <trkpt lat="48.11477" lon="7.11214">
        <ele>800</ele>
        <time>2019-04-15T17:01:54Z</time>
      </trkpt>
      <trkpt lat="48.11441" lon="7.11198">
        <ele>799</ele>
        <time>2019-04-15T17:02:54Z</time>
      </trkpt>
      <trkpt lat="48.11404" lon="7.11179">
        <ele>798</ele>
        <time>2019-04-15T17:03:54Z</time>
      </trkpt>
      <trkpt lat="48.11379" lon="7.11167">
        <ele>796</ele>
        <time>2019-04-15T17:04:54Z</time>
      </trkpt>
      <trkpt lat="48.11375" lon="7.11165">
        <ele>796</ele>
        <time>2019-04-15T17:05:54Z</time>
      </trkpt>
      <trkpt lat="48.11368" lon="7.11161">
        <ele>795</ele>
        <time>2019-04-15T17:06:54Z</time>
      </trkpt>
      <trkpt lat="48.11353" lon="7.11154">
        <ele>794</ele>
        <time>2019-04-15T17:07:54Z</time>
      </trkpt>
      <trkpt lat="48.11339" lon="7.1115">
        <ele>792</ele>
        <time>2019-04-15T17:08:54Z</time>
      </trkpt>
      <trkpt lat="48.1133" lon="7.11151">
        <ele>791</ele>
        <time>2019-04-15T17:09:54Z</time>
      </trkpt>
      <trkpt lat="48.11317" lon="7.11155">
        <ele>791</ele>
        <time>2019-04-15T17:10:54Z</time>
      </trkpt>
      <trkpt lat="48.11304" lon="7.11161">
        <ele>791</ele>
        <time>2019-04-15T17:11:54Z</time>
      </trkpt>
      <trkpt lat="48.11287" lon="7.11179">
        <ele>789</ele>
        <time>2019-04-15T17:12:54Z</time>
      </trkpt>
      <trkpt lat="48.11273" lon="7.11195">
        <ele>787</ele>
        <time>2019-04-15T17:13:54Z</time>
      </trkpt>
      <trkpt lat="48.11264" lon="7.1121">
        <ele>784</ele>
        <time>2019-04-15T17:14:54Z</time>
      </trkpt>
      <trkpt lat="48.11253" lon="7.11236">
        <ele>780</ele>
        <time>2019-04-15T17:15:54Z</time>
      </trkpt>
      <trkpt lat="48.11241" lon="7.11267">
        <ele>778</ele>
        <time>2019-04-15T17:16:54Z</time>
      </trkpt>
      <trkpt lat="48.11238" lon="7.11275">
        <ele>777</ele>
        <time>2019-04-15T17:17:54Z</time>
      </trkpt>
      <trkpt lat="48.11234" lon="7.11283">
        <ele>777</ele>
        <time>2019-04-15T17:18:54Z</time>
      </trkpt>
      <trkpt lat="48.11226" lon="7.11298">
        <ele>777</ele>
        <time>2019-04-15T17:19:54Z</time>
      </trkpt>
      <trkpt lat="48.11214" lon="7.11319">
        <ele>776</ele>
        <time>2019-04-15T17:20:54Z</time>
      </trkpt>
      <trkpt lat="48.11207" lon="7.11329">
        <ele>775</ele>
        <time>2019-04-15T17:21:54Z</time>
      </trkpt>
      <trkpt lat="48.11202" lon="7.11336">
        <ele>775</ele>
        <time>2019-04-15T17:22:54Z</time>
      </trkpt>
      <trkpt lat="48.11189" lon="7.11352">
        <ele>774</ele>
        <time>2019-04-15T17:23:54Z</time>
      </trkpt>
      <trkpt lat="48.11171" lon="7.11364">
        <ele>773</ele>
        <time>2019-04-15T17:24:54Z</time>
      </trkpt>
      <trkpt lat="48.11151" lon="7.11374">
        <ele>772</ele>
        <time>2019-04-15T17:25:54Z</time>
      </trkpt>
      <trkpt lat="48.11122" lon="7.11386">
        <ele>770</ele>
        <time>2019-04-15T17:26:54Z</time>
      </trkpt>
      <trkpt lat="48.11103" lon="7.11393">
        <ele>769</ele>
        <time>2019-04-15T17:27:54Z</time>
      </trkpt>
      <trkpt lat="48.11098" lon="7.11395">
        <ele>768</ele>
        <time>2019-04-15T17:28:54Z</time>
      </trkpt>
      <trkpt lat="48.11085" lon="7.11401">
        <ele>768</ele>
        <time>2019-04-15T17:29:54Z</time>
      </trkpt>
      <trkpt lat="48.11062" lon="7.11415">
        <ele>767</ele>
        <time>2019-04-15T17:30:54Z</time>
      </trkpt>
      <trkpt lat="48.11045" lon="7.11429">
        <ele>765</ele>
        <time>2019-04-15T17:31:54Z</time>
      </trkpt>
      <trkpt lat="48.11035" lon="7.11437">
        <ele>764</ele>
        <time>2019-04-15T17:32:54Z</time>
      </trkpt>
      <trkpt lat="48.11022" lon="7.11448">
        <ele>763</ele>
        <time>2019-04-15T17:33:54Z</time>
      </trkpt>
      <trkpt lat="48.1101" lon="7.11459">
        <ele>763</ele>
        <time>2019-04-15T17:34:54Z</time>
      </trkpt>
      <trkpt lat="48.11003" lon="7.11471">
        <ele>762</ele>
        <time>2019-04-15T17:35:54Z</time>
      </trkpt>
      <trkpt lat="48.10996" lon="7.11487">
        <ele>761</ele>
        <time>2019-04-15T17:36:54Z</time>
      </trkpt>
      <trkpt lat="48.10985" lon="7.11518">
        <ele>760</ele>
        <time>2019-04-15T17:37:54Z</time>
      </trkpt>
      <trkpt lat="48.10976" lon="7.11548">
        <ele>760</ele>
        <time>2019-04-15T17:38:54Z</time>
      </trkpt>
      <trkpt lat="48.10969" lon="7.11578">
        <ele>759</ele>
        <time>2019-04-15T17:39:54Z</time>
      </trkpt>
      <trkpt lat="48.10967" lon="7.11597">
        <ele>759</ele>
        <time>2019-04-15T17:40:54Z</time>
      </trkpt>
      <trkpt lat="48.10967" lon="7.11622">
        <ele>757</ele>
        <time>2019-04-15T17:41:54Z</time>
      </trkpt>
      <trkpt lat="48.10969" lon="7.11649">
        <ele>756</ele>
        <time>2019-04-15T17:42:54Z</time>
      </trkpt>
      <trkpt lat="48.10975" lon="7.11682">
        <ele>754</ele>
        <time>2019-04-15T17:43:54Z</time>
      </trkpt>
      <trkpt lat="48.10981" lon="7.11699">
        <ele>753</ele>
        <time>2019-04-15T17:44:54Z</time>
      </trkpt>
      <trkpt lat="48.1099" lon="7.11715">
        <ele>751</ele>
        <time>2019-04-15T17:45:54Z</time>
      </trkpt>
      <trkpt lat="48.11002" lon="7.1173">
        <ele>749</ele>
        <time>2019-04-15T17:46:54Z</time>
      </trkpt>
      <trkpt lat="48.11019" lon="7.11748">
        <ele>748</ele>
        <time>2019-04-15T17:47:54Z</time>
      </trkpt>
      <trkpt lat="48.11046" lon="7.11774">
        <ele>746</ele>
        <time>2019-04-15T17:48:54Z</time>
      </trkpt>
      <trkpt lat="48.11078" lon="7.11807">
        <ele>742</ele>
        <time>2019-04-15T17:49:54Z</time>
      </trkpt>
      <trkpt lat="48.11113" lon="7.11844">
        <ele>739</ele>
        <time>2019-04-15T17:50:54Z</time>
      </trkpt>
      <trkpt lat="48.11143" lon="7.11876">
        <ele>735</ele>
        <time>2019-04-15T17:51:54Z</time>
      </trkpt>
      <trkpt lat="48.11157" lon="7.11891">
        <ele>732</ele>
        <time>2019-04-15T17:52:54Z</time>
      </trkpt>
      <trkpt lat="48.1117" lon="7.11905">
        <ele>729</ele>
        <time>2019-04-15T17:53:54Z</time>
      </trkpt>
      <trkpt lat="48.11182" lon="7.11917">
        <ele>728</ele>
        <time>2019-04-15T17:54:54Z</time>
      </trkpt>
      <trkpt lat="48.11192" lon="7.11921">
        <ele>727</ele>
        <time>2019-04-15T17:55:54Z</time>
      </trkpt>
      <trkpt lat="48.11204" lon="7.11925">
        <ele>726</ele>
        <time>2019-04-15T17:56:54Z</time>
      </trkpt>
      <trkpt lat="48.11214" lon="7.11924">
        <ele>725</ele>
        <time>2019-04-15T17:57:54Z</time>
      </trkpt>
      <trkpt lat="48.11228" lon="7.11922">
        <ele>724</ele>
        <time>2019-04-15T17:58:54Z</time>
      </trkpt>
      <trkpt lat="48.11242" lon="7.11916">
        <ele>723</ele>
        <time>2019-04-15T17:59:54Z</time>
      </trkpt>
      <trkpt lat="48.11262" lon="7.11908">
        <ele>722</ele>
        <time>2019-04-15T18:00:54Z</time>
      </trkpt>
      <trkpt lat="48.11268" lon="7.11905">
        <ele>722</ele>
        <time>2019-04-15T18:01:54Z</time>
      </trkpt>
      <trkpt lat="48.11283" lon="7.11898">
        <ele>722</ele>
        <time>2019-04-15T18:02:54Z</time>
      </trkpt>
      <trkpt lat="48.11302" lon="7.11889">
        <ele>721</ele>
        <time>2019-04-15T18:03:54Z</time>
      </trkpt>
      <trkpt lat="48.11316" lon="7.11886">
        <ele>720</ele>
        <time>2019-04-15T18:04:54Z</time>
      </trkpt>
      <trkpt lat="48.1133" lon="7.11885">
        <ele>719</ele>
        <time>2019-04-15T18:05:54Z</time>
      </trkpt>
      <trkpt lat="48.11346" lon="7.11886">
        <ele>718</ele>
        <time>2019-04-15T18:06:54Z</time>
      </trkpt>
      <trkpt lat="48.11362" lon="7.11891">
        <ele>716</ele>
        <time>2019-04-15T18:07:54Z</time>
      </trkpt>
      <trkpt lat="48.11377" lon="7.11899">
        <ele>714</ele>
        <time>2019-04-15T18:08:54Z</time>
      </trkpt>
      <trkpt lat="48.1139" lon="7.1191">
        <ele>713</ele>
        <time>2019-04-15T18:09:54Z</time>
      </trkpt>
      <trkpt lat="48.11401" lon="7.11923">
        <ele>711</ele>
        <time>2019-04-15T18:10:54Z</time>
      </trkpt>
      <trkpt lat="48.11414" lon="7.11944">
        <ele>709</ele>
        <time>2019-04-15T18:11:54Z</time>
      </trkpt>
      <trkpt lat="48.11428" lon="7.11969">
        <ele>707</ele>
        <time>2019-04-15T18:12:54Z</time>
      </trkpt>
      <trkpt lat="48.11446" lon="7.11999">
        <ele>703</ele>
        <time>2019-04-15T18:13:54Z</time>
      </trkpt>
      <trkpt lat="48.11454" lon="7.12015">
        <ele>702</ele>
        <time>2019-04-15T18:14:54Z</time>
      </trkpt>
      <trkpt lat="48.11461" lon="7.12033">
        <ele>700</ele>
        <time>2019-04-15T18:15:54Z</time>
      </trkpt>
      <trkpt lat="48.11468" lon="7.12049">
        <ele>698</ele>
        <time>2019-04-15T18:16:54Z</time>
      </trkpt>
      <trkpt lat="48.11481" lon="7.12088">
        <ele>695</ele>
        <time>2019-04-15T18:17:54Z</time>
      </trkpt>
      <trkpt lat="48.11492" lon="7.12126">
        <ele>693</ele>
        <time>2019-04-15T18:18:54Z</time>
      </trkpt>
      <trkpt lat="48.11497" lon="7.12145">
        <ele>692</ele>
        <time>2019-04-15T18:19:54Z</time>
      </trkpt>
      <trkpt lat="48.11505" lon="7.12174">
        <ele>690</ele>
        <time>2019-04-15T18:20:54Z</time>
      </trkpt>
      <trkpt lat="48.11511" lon="7.12205">
        <ele>689</ele>
        <time>2019-04-15T18:21:54Z</time>
      </trkpt>
      <trkpt lat="48.11516" lon="7.1224">
        <ele>688</ele>
        <time>2019-04-15T18:22:54Z</time>
      </trkpt>
      <trkpt lat="48.11522" lon="7.12276">
        <ele>686</ele>
        <time>2019-04-15T18:23:54Z</time>
      </trkpt>
      <trkpt lat="48.11527" lon="7.12305">
        <ele>684</ele>
        <time>2019-04-15T18:24:54Z</time>
      </trkpt>
      <trkpt lat="48.11531" lon="7.12331">
        <ele>682</ele>
        <time>2019-04-15T18:25:54Z</time>
      </trkpt>
      <trkpt lat="48.11535" lon="7.12346">
        <ele>680</ele>
        <time>2019-04-15T18:26:54Z</time>
      </trkpt>
      <trkpt lat="48.11539" lon="7.12361">
        <ele>679</ele>
        <time>2019-04-15T18:27:54Z</time>
      </trkpt>
      <trkpt lat="48.11546" lon="7.12384">
        <ele>676</ele>
        <time>2019-04-15T18:28:54Z</time>
      </trkpt>
      <trkpt lat="48.11557" lon="7.12414">
        <ele>672</ele>
        <time>2019-04-15T18:29:54Z</time>
      </trkpt>
      <trkpt lat="48.11566" lon="7.12436">
        <ele>669</ele>
        <time>2019-04-15T18:30:54Z</time>
      </trkpt>
      <trkpt lat="48.11572" lon="7.12451">
        <ele>667</ele>
        <time>2019-04-15T18:31:54Z</time>
      </trkpt>
      <trkpt lat="48.11585" lon="7.12484">
        <ele>664</ele>
        <time>2019-04-15T18:32:54Z</time>
      </trkpt>
      <trkpt lat="48.11602" lon="7.12522">
        <ele>662</ele>
        <time>2019-04-15T18:33:54Z</time>
      </trkpt>
      <trkpt lat="48.11612" lon="7.12548">
        <ele>661</ele>
        <time>2019-04-15T18:34:54Z</time>
      </trkpt>
      <trkpt lat="48.11622" lon="7.12575">
        <ele>659</ele>
        <time>2019-04-15T18:35:54Z</time>
      </trkpt>
      <trkpt lat="48.11624" lon="7.12583">
        <ele>659</ele>
        <time>2019-04-15T18:36:54Z</time>
      </trkpt>
      <trkpt lat="48.11632" lon="7.12615">
        <ele>657</ele>
        <time>2019-04-15T18:37:54Z</time>
      </trkpt>
      <trkpt lat="48.11636" lon="7.12641">
        <ele>656</ele>
        <time>2019-04-15T18:38:54Z</time>
      </trkpt>
      <trkpt lat="48.11638" lon="7.12669">
        <ele>655</ele>
        <time>2019-04-15T18:39:54Z</time>
      </trkpt>
      <trkpt lat="48.11638" lon="7.12701">
        <ele>652</ele>
        <time>2019-04-15T18:40:54Z</time>
      </trkpt>
      <trkpt lat="48.11638" lon="7.12734">
        <ele>649</ele>
        <time>2019-04-15T18:41:54Z</time>
      </trkpt>
      <trkpt lat="48.11638" lon="7.12764">
        <ele>646</ele>
        <time>2019-04-15T18:42:54Z</time>
      </trkpt>
      <trkpt lat="48.11638" lon="7.12796">
        <ele>643</ele>
        <time>2019-04-15T18:43:54Z</time>
      </trkpt>
      <trkpt lat="48.11638" lon="7.12813">
        <ele>642</ele>
        <time>2019-04-15T18:44:54Z</time>
      </trkpt>
      <trkpt lat="48.11639" lon="7.12823">
        <ele>641</ele>
        <time>2019-04-15T18:45:54Z</time>
      </trkpt>
      <trkpt lat="48.11641" lon="7.12842">
        <ele>640</ele>
        <time>2019-04-15T18:46:54Z</time>
      </trkpt>
      <trkpt lat="48.11644" lon="7.1286">
        <ele>638</ele>
        <time>2019-04-15T18:47:54Z</time>
      </trkpt>
      <trkpt lat="48.1165" lon="7.12886">
        <ele>636</ele>
        <time>2019-04-15T18:48:54Z</time>
      </trkpt>
      <trkpt lat="48.11662" lon="7.12922">
        <ele>633</ele>
        <time>2019-04-15T18:49:54Z</time>
      </trkpt>
      <trkpt lat="48.11679" lon="7.12965">
        <ele>630</ele>
        <time>2019-04-15T18:50:54Z</time>
      </trkpt>
      <trkpt lat="48.11692" lon="7.12997">
        <ele>628</ele>
        <time>2019-04-15T18:51:54Z</time>
      </trkpt>
      <trkpt lat="48.11695" lon="7.13006">
        <ele>628</ele>
        <time>2019-04-15T18:52:54Z</time>
      </trkpt>
      <trkpt lat="48.1171" lon="7.1304">
        <ele>626</ele>
        <time>2019-04-15T18:53:54Z</time>
      </trkpt>
      <trkpt lat="48.1172" lon="7.1307">
        <ele>624</ele>
        <time>2019-04-15T18:54:54Z</time>
      </trkpt>
      <trkpt lat="48.11725" lon="7.13092">
        <ele>622</ele>
        <time>2019-04-15T18:55:54Z</time>
      </trkpt>
      <trkpt lat="48.11734" lon="7.13128">
        <ele>620</ele>
        <time>2019-04-15T18:56:54Z</time>
      </trkpt>
      <trkpt lat="48.11738" lon="7.13164">
        <ele>619</ele>
        <time>2019-04-15T18:57:54Z</time>
      </trkpt>
      <trkpt lat="48.11744" lon="7.13207">
        <ele>616</ele>
        <time>2019-04-15T18:58:54Z</time>
      </trkpt>
      <trkpt lat="48.1175" lon="7.13245">
        <ele>613</ele>
        <time>2019-04-15T18:59:54Z</time>
      </trkpt>
      <trkpt lat="48.11754" lon="7.13262">
        <ele>613</ele>
        <time>2019-04-15T19:00:54Z</time>
      </trkpt>
      <trkpt lat="48.1176" lon="7.13294">
        <ele>612</ele>
        <time>2019-04-15T19:01:54Z</time>
      </trkpt>
      <trkpt lat="48.11766" lon="7.13329">
        <ele>612</ele>
        <time>2019-04-15T19:02:54Z</time>
      </trkpt>
      <trkpt lat="48.11774" lon="7.13361">
        <ele>611</ele>
        <time>2019-04-15T19:03:54Z</time>
      </trkpt>
      <trkpt lat="48.11781" lon="7.1339">
        <ele>611</ele>
        <time>2019-04-15T19:04:54Z</time>
      </trkpt>
      <trkpt lat="48.11796" lon="7.13436">
        <ele>609</ele>
        <time>2019-04-15T19:05:54Z</time>
      </trkpt>
      <trkpt lat="48.11806" lon="7.13473">
        <ele>608</ele>
        <time>2019-04-15T19:06:54Z</time>
      </trkpt>
      <trkpt lat="48.11816" lon="7.1351">
        <ele>605</ele>
        <time>2019-04-15T19:07:54Z</time>
      </trkpt>
      <trkpt lat="48.11824" lon="7.13536">
        <ele>603</ele>
        <time>2019-04-15T19:08:54Z</time>
      </trkpt>
      <trkpt lat="48.11827" lon="7.13548">
        <ele>602</ele>
        <time>2019-04-15T19:09:54Z</time>
      </trkpt>
      <trkpt lat="48.1183" lon="7.13567">
        <ele>600</ele>
        <time>2019-04-15T19:10:54Z</time>
      </trkpt>
      <trkpt lat="48.11832" lon="7.13586">
        <ele>599</ele>
        <time>2019-04-15T19:11:54Z</time>
      </trkpt>
      <trkpt lat="48.11833" lon="7.13601">
        <ele>598</ele>
        <time>2019-04-15T19:12:54Z</time>
      </trkpt>
      <trkpt lat="48.11833" lon="7.13611">
        <ele>597</ele>
        <time>2019-04-15T19:13:54Z</time>
      </trkpt>
      <trkpt lat="48.11833" lon="7.13637">
        <ele>595</ele>
        <time>2019-04-15T19:14:54Z</time>
      </trkpt>
      <trkpt lat="48.11831" lon="7.13667">
        <ele>593</ele>
        <time>2019-04-15T19:15:54Z</time>
      </trkpt>
      <trkpt lat="48.11829" lon="7.13695">
        <ele>591</ele>
        <time>2019-04-15T19:16:54Z</time>
      </trkpt>
      <trkpt lat="48.11824" lon="7.13744">
        <ele>590</ele>
        <time>2019-04-15T19:17:54Z</time>
      </trkpt>
      <trkpt lat="48.1182" lon="7.13794">
        <ele>589</ele>
        <time>2019-04-15T19:18:54Z</time>
      </trkpt>
      <trkpt lat="48.11816" lon="7.1385">
        <ele>588</ele>
        <time>2019-04-15T19:19:54Z</time>
      </trkpt>
      <trkpt lat="48.11812" lon="7.13911">
        <ele>584</ele>
        <time>2019-04-15T19:20:54Z</time>
      </trkpt>
      <trkpt lat="48.11806" lon="7.13961">
        <ele>581</ele>
        <time>2019-04-15T19:21:54Z</time>
      </trkpt>
      <trkpt lat="48.11801" lon="7.13998">
        <ele>579</ele>
        <time>2019-04-15T19:22:54Z</time>
      </trkpt>
      <trkpt lat="48.11798" lon="7.1402">
        <ele>578</ele>
        <time>2019-04-15T19:23:54Z</time>
      </trkpt>
      <trkpt lat="48.11796" lon="7.14033">
        <ele>577</ele>
        <time>2019-04-15T19:24:54Z</time>
      </trkpt>
      <trkpt lat="48.11795" lon="7.14044">
        <ele>577</ele>
        <time>2019-04-15T19:25:54Z</time>
      </trkpt>
      <trkpt lat="48.11792" lon="7.14062">
        <ele>576</ele>
        <time>2019-04-15T19:26:54Z</time>
      </trkpt>
      <trkpt lat="48.11792" lon="7.14079">
        <ele>575</ele>
        <time>2019-04-15T19:27:54Z</time>
      </trkpt>
      <trkpt lat="48.11793" lon="7.14106">
        <ele>573</ele>
        <time>2019-04-15T19:28:54Z</time>
      </trkpt>
      <trkpt lat="48.11793" lon="7.14116">
        <ele>573</ele>
        <time>2019-04-15T19:29:54Z</time>
      </trkpt>
      <trkpt lat="48.11796" lon="7.14167">
        <ele>569</ele>
        <time>2019-04-15T19:30:54Z</time>
      </trkpt>
      <trkpt lat="48.11799" lon="7.1421">
        <ele>567</ele>
        <time>2019-04-15T19:31:54Z</time>
      </trkpt>
      <trkpt lat="48.118" lon="7.1424">
        <ele>566</ele>
        <time>2019-04-15T19:32:54Z</time>
      </trkpt>
      <trkpt lat="48.118" lon="7.14291">
        <ele>563</ele>
        <time>2019-04-15T19:33:54Z</time>
      </trkpt>
      <trkpt lat="48.118" lon="7.14326">
        <ele>562</ele>
        <time>2019-04-15T19:34:54Z</time>
      </trkpt>
      <trkpt lat="48.118" lon="7.14326">
        <ele>562</ele>
        <time>2019-04-15T19:35:54Z</time>
      </trkpt>
      <trkpt lat="48.118" lon="7.14338">
        <ele>562</ele>
        <time>2019-04-15T19:36:54Z</time>
      </trkpt>
      <trkpt lat="48.11802" lon="7.14354">
        <ele>561</ele>
        <time>2019-04-15T19:37:54Z</time>
      </trkpt>
      <trkpt lat="48.11803" lon="7.14363">
        <ele>561</ele>
        <time>2019-04-15T19:38:54Z</time>
      </trkpt>
      <trkpt lat="48.1181" lon="7.14392">
        <ele>560</ele>
        <time>2019-04-15T19:39:54Z</time>
      </trkpt>
      <trkpt lat="48.11822" lon="7.14425">
        <ele>558</ele>
        <time>2019-04-15T19:40:54Z</time>
      </trkpt>
      <trkpt lat="48.11837" lon="7.14455">
        <ele>557</ele>
        <time>2019-04-15T19:41:54Z</time>
      </trkpt>
      <trkpt lat="48.11851" lon="7.14475">
        <ele>557</ele>
        <time>2019-04-15T19:42:54Z</time>
      </trkpt>
      <trkpt lat="48.11875" lon="7.14499">
        <ele>555</ele>
        <time>2019-04-15T19:43:54Z</time>
      </trkpt>
      <trkpt lat="48.1191" lon="7.14527">
        <ele>554</ele>
        <time>2019-04-15T19:44:54Z</time>
      </trkpt>
      <trkpt lat="48.11941" lon="7.14548">
        <ele>552</ele>
        <time>2019-04-15T19:45:54Z</time>
      </trkpt>
      <trkpt lat="48.1195" lon="7.14556">
        <ele>552</ele>
        <time>2019-04-15T19:46:54Z</time>
      </trkpt>
      <trkpt lat="48.11955" lon="7.14562">
        <ele>551</ele>
        <time>2019-04-15T19:47:54Z</time>
      </trkpt>
      <trkpt lat="48.11961" lon="7.1457">
        <ele>551</ele>
        <time>2019-04-15T19:48:54Z</time>
      </trkpt>
      <trkpt lat="48.11975" lon="7.14596">
        <ele>550</ele>
        <time>2019-04-15T19:49:54Z</time>
      </trkpt>
      <trkpt lat="48.12002" lon="7.1465">
        <ele>544</ele>
        <time>2019-04-15T19:50:54Z</time>
      </trkpt>
      <trkpt lat="48.12012" lon="7.14665">
        <ele>544</ele>
        <time>2019-04-15T19:51:54Z</time>
      </trkpt>
      <trkpt lat="48.12024" lon="7.14686">
        <ele>544</ele>
        <time>2019-04-15T19:52:54Z</time>
      </trkpt>
      <trkpt lat="48.12033" lon="7.14703">
        <ele>544</ele>
        <time>2019-04-15T19:53:54Z</time>
      </trkpt>
      <trkpt lat="48.12043" lon="7.14723">
        <ele>543</ele>
        <time>2019-04-15T19:54:54Z</time>
      </trkpt>
      <trkpt lat="48.12049" lon="7.14734">
        <ele>543</ele>
        <time>2019-04-15T19:55:54Z</time>
      </trkpt>
      <trkpt lat="48.12054" lon="7.14749">
        <ele>542</ele>
        <time>2019-04-15T19:56:54Z</time>
      </trkpt>
      <trkpt lat="48.12061" lon="7.14766">
        <ele>542</ele>
        <time>2019-04-15T19:57:54Z</time>
      </trkpt>
      <trkpt lat="48.12066" lon="7.14781">
        <ele>541</ele>
        <time>2019-04-15T19:58:54Z</time>
      </trkpt>
      <trkpt lat="48.12074" lon="7.14797">
        <ele>540</ele>
        <time>2019-04-15T19:59:54Z</time>
      </trkpt>
      <trkpt lat="48.12105" lon="7.14855">
        <ele>535</ele>
        <time>2019-04-15T20:00:54Z</time>
      </trkpt>
      <trkpt lat="48.12117" lon="7.14879">
        <ele>534</ele>
        <time>2019-04-15T20:01:54Z</time>
      </trkpt>
      <trkpt lat="48.12137" lon="7.14914">
        <ele>533</ele>
        <time>2019-04-15T20:02:54Z</time>
      </trkpt>
      <trkpt lat="48.12157" lon="7.1495">
        <ele>530</ele>
        <time>2019-04-15T20:03:54Z</time>
      </trkpt>
      <trkpt lat="48.12174" lon="7.14981">
        <ele>528</ele>
        <time>2019-04-15T20:04:54Z</time>
      </trkpt>
      <trkpt lat="48.12192" lon="7.15012">
        <ele>526</ele>
        <time>2019-04-15T20:05:54Z</time>
      </trkpt>
      <trkpt lat="48.12215" lon="7.15053">
        <ele>524</ele>
        <time>2019-04-15T20:06:54Z</time>
      </trkpt>
      <trkpt lat="48.12234" lon="7.15087">
        <ele>522</ele>
        <time>2019-04-15T20:07:54Z</time>
      </trkpt>
      <trkpt lat="48.12239" lon="7.15097">
        <ele>522</ele>
        <time>2019-04-15T20:08:54Z</time>
      </trkpt>
      <trkpt lat="48.12267" lon="7.15146">
        <ele>519</ele>
        <time>2019-04-15T20:09:54Z</time>
      </trkpt>
      <trkpt lat="48.12289" lon="7.15187">
        <ele>518</ele>
        <time>2019-04-15T20:10:54Z</time>
      </trkpt>
      <trkpt lat="48.123" lon="7.15207">
        <ele>517</ele>
        <time>2019-04-15T20:11:54Z</time>
      </trkpt>
      <trkpt lat="48.12306" lon="7.15219">
        <ele>517</ele>
        <time>2019-04-15T20:12:54Z</time>
      </trkpt>
      <trkpt lat="48.1232" lon="7.15242">
        <ele>515</ele>
        <time>2019-04-15T20:13:54Z</time>
      </trkpt>
      <trkpt lat="48.12329" lon="7.15255">
        <ele>514</ele>
        <time>2019-04-15T20:14:54Z</time>
      </trkpt>
      <trkpt lat="48.1233" lon="7.15255">
        <ele>514</ele>
        <time>2019-04-15T20:15:54Z</time>
      </trkpt>
      <trkpt lat="48.12336" lon="7.15262">
        <ele>514</ele>
        <time>2019-04-15T20:16:54Z</time>
      </trkpt>
      <trkpt lat="48.12347" lon="7.1527">
        <ele>514</ele>
        <time>2019-04-15T20:17:54Z</time>
      </trkpt>
      <trkpt lat="48.12347" lon="7.1527">
        <ele>514</ele>
        <time>2019-04-15T20:18:54Z</time>
      </trkpt>
      <trkpt lat="48.12359" lon="7.15236">
        <ele>515</ele>
        <time>2019-04-15T20:19:54Z</time>
      </trkpt>
      <trkpt lat="48.12375" lon="7.15191">
        <ele>517</ele>
        <time>2019-04-15T20:20:54Z</time>
      </trkpt>
      <trkpt lat="48.12397" lon="7.15145">
        <ele>519</ele>
        <time>2019-04-15T20:21:54Z</time>
      </trkpt>
      <trkpt lat="48.12408" lon="7.15121">
        <ele>519</ele>
        <time>2019-04-15T20:22:54Z</time>
      </trkpt>
      <trkpt lat="48.12417" lon="7.15101">
        <ele>520</ele>
        <time>2019-04-15T20:23:54Z</time>
      </trkpt>
      <trkpt lat="48.12435" lon="7.15098">
        <ele>521</ele>
        <time>2019-04-15T20:24:54Z</time>
      </trkpt>
      <trkpt lat="48.12446" lon="7.15098">
        <ele>522</ele>
        <time>2019-04-15T20:25:54Z</time>
      </trkpt>
      <trkpt lat="48.12453" lon="7.15099">
        <ele>522</ele>
        <time>2019-04-15T20:26:54Z</time>
      </trkpt>
      <trkpt lat="48.12465" lon="7.15112">
        <ele>523</ele>
        <time>2019-04-15T20:27:54Z</time>
      </trkpt>
      <trkpt lat="48.12478" lon="7.15125">
        <ele>523</ele>
        <time>2019-04-15T20:28:54Z</time>
      </trkpt>
      <trkpt lat="48.12483" lon="7.15134">
        <ele>523</ele>
        <time>2019-04-15T20:29:54Z</time>
      </trkpt>
      <trkpt lat="48.12486" lon="7.15144">
        <ele>523</ele>
        <time>2019-04-15T20:30:54Z</time>
      </trkpt>
      <trkpt lat="48.12492" lon="7.15169">
        <ele>522</ele>
        <time>2019-04-15T20:31:54Z</time>
      </trkpt>
      <trkpt lat="48.12495" lon="7.15182">
        <ele>521</ele>
        <time>2019-04-15T20:32:54Z</time>
      </trkpt>
      <trkpt lat="48.125" lon="7.15188">
        <ele>521</ele>
        <time>2019-04-15T20:33:54Z</time>
      </trkpt>
      <trkpt lat="48.12515" lon="7.15199">
        <ele>520</ele>
        <time>2019-04-15T20:34:54Z</time>
      </trkpt>
      <trkpt lat="48.12523" lon="7.15205">
        <ele>520</ele>
        <time>2019-04-15T20:35:54Z</time>
      </trkpt>
      <trkpt lat="48.1254" lon="7.15212">
        <ele>519</ele>
        <time>2019-04-15T20:36:54Z</time>
      </trkpt>
      <trkpt lat="48.1255" lon="7.15213">
        <ele>519</ele>
        <time>2019-04-15T20:37:54Z</time>
      </trkpt>
      <trkpt lat="48.12561" lon="7.15213">
        <ele>519</ele>
        <time>2019-04-15T20:38:54Z</time>
      </trkpt>
      <trkpt lat="48.12571" lon="7.15208">
        <ele>519</ele>
        <time>2019-04-15T20:39:54Z</time>
      </trkpt>
      <trkpt lat="48.12579" lon="7.15203">
        <ele>520</ele>
        <time>2019-04-15T20:40:54Z</time>
      </trkpt>
      <trkpt lat="48.12595" lon="7.1519">
        <ele>520</ele>
        <time>2019-04-15T20:41:54Z</time>
      </trkpt>
      <trkpt lat="48.12617" lon="7.15175">
        <ele>521</ele>
        <time>2019-04-15T20:42:54Z</time>
      </trkpt>
      <trkpt lat="48.12639" lon="7.15164">
        <ele>521</ele>
        <time>2019-04-15T20:43:54Z</time>
      </trkpt>
      <trkpt lat="48.12653" lon="7.15158">
        <ele>521</ele>
        <time>2019-04-15T20:44:54Z</time>
      </trkpt>
      <trkpt lat="48.12669" lon="7.15151">
        <ele>521</ele>
        <time>2019-04-15T20:45:54Z</time>
      </trkpt>
      <trkpt lat="48.12682" lon="7.15143">
        <ele>522</ele>
        <time>2019-04-15T20:46:54Z</time>
      </trkpt>
      <trkpt lat="48.12697" lon="7.15136">
        <ele>523</ele>
        <time>2019-04-15T20:47:54Z</time>
      </trkpt>
      <trkpt lat="48.12704" lon="7.15134">
        <ele>523</ele>
        <time>2019-04-15T20:48:54Z</time>
      </trkpt>
      <trkpt lat="48.12704" lon="7.15134">
        <ele>523</ele>
        <time>2019-04-15T20:49:54Z</time>
      </trkpt>
      <trkpt lat="48.12708" lon="7.15136">
        <ele>523</ele>
        <time>2019-04-15T20:50:54Z</time>
      </trkpt>
      <trkpt lat="48.12713" lon="7.15144">
        <ele>522</ele>
        <time>2019-04-15T20:51:54Z</time>
      </trkpt>
      <trkpt lat="48.12719" lon="7.15158">
        <ele>521</ele>
        <time>2019-04-15T20:52:54Z</time>
      </trkpt>
      <trkpt lat="48.12719" lon="7.15158">
        <ele>521</ele>
        <time>2019-04-15T20:53:54Z</time>
      </trkpt>
      <trkpt lat="48.12731" lon="7.15133">
        <ele>523</ele>
        <time>2019-04-15T20:54:54Z</time>
      </trkpt>
      <trkpt lat="48.12738" lon="7.15124">
        <ele>524</ele>
        <time>2019-04-15T20:55:54Z</time>
      </trkpt>
      <trkpt lat="48.12751" lon="7.15107">
        <ele>524</ele>
        <time>2019-04-15T20:56:54Z</time>
      </trkpt>
      <trkpt lat="48.12763" lon="7.15088">
        <ele>526</ele>
        <time>2019-04-15T20:57:54Z</time>
      </trkpt>
      <trkpt lat="48.1277" lon="7.15077">
        <ele>526</ele>
        <time>2019-04-15T20:58:54Z</time>
      </trkpt>
      <trkpt lat="48.12772" lon="7.15065">
        <ele>527</ele>
        <time>2019-04-15T20:59:54Z</time>
      </trkpt>
      <trkpt lat="48.12776" lon="7.15044">
        <ele>528</ele>
        <time>2019-04-15T21:00:54Z</time>
      </trkpt>
      <trkpt lat="48.12779" lon="7.1503">
        <ele>529</ele>
        <time>2019-04-15T21:01:54Z</time>
      </trkpt>
      <trkpt lat="48.12784" lon="7.15024">
        <ele>529</ele>
        <time>2019-04-15T21:02:54Z</time>
      </trkpt>
      <trkpt lat="48.12792" lon="7.15019">
        <ele>529</ele>
        <time>2019-04-15T21:03:54Z</time>
      </trkpt>
      <trkpt lat="48.12803" lon="7.15009">
        <ele>530</ele>
        <time>2019-04-15T21:04:54Z</time>
      </trkpt>
      <trkpt lat="48.12814" lon="7.14998">
        <ele>531</ele>
        <time>2019-04-15T21:05:54Z</time>
      </trkpt>
      <trkpt lat="48.12823" lon="7.14981">
        <ele>531</ele>
        <time>2019-04-15T21:06:54Z</time>
      </trkpt>
      <trkpt lat="48.12833" lon="7.14961">
        <ele>531</ele>
        <time>2019-04-15T21:07:54Z</time>
      </trkpt>
      <trkpt lat="48.12845" lon="7.14938">
        <ele>533</ele>
        <time>2019-04-15T21:08:54Z</time>
      </trkpt>
      <trkpt lat="48.12858" lon="7.14912">
        <ele>535</ele>
        <time>2019-04-15T21:09:54Z</time>
      </trkpt>
      <trkpt lat="48.12872" lon="7.14892">
        <ele>539</ele>
        <time>2019-04-15T21:10:54Z</time>
      </trkpt>
      <trkpt lat="48.12886" lon="7.14873">
        <ele>542</ele>
        <time>2019-04-15T21:11:54Z</time>
      </trkpt>
      <trkpt lat="48.12898" lon="7.14861">
        <ele>545</ele>
        <time>2019-04-15T21:12:54Z</time>
      </trkpt>
      <trkpt lat="48.12913" lon="7.14847">
        <ele>547</ele>
        <time>2019-04-15T21:13:54Z</time>
      </trkpt>
      <trkpt lat="48.12934" lon="7.14827">
        <ele>553</ele>
        <time>2019-04-15T21:14:54Z</time>
      </trkpt>
      <trkpt lat="48.12958" lon="7.14804">
        <ele>561</ele>
        <time>2019-04-15T21:15:54Z</time>
      </trkpt>
      <trkpt lat="48.12983" lon="7.14777">
        <ele>566</ele>
        <time>2019-04-15T21:16:54Z</time>
      </trkpt>
      <trkpt lat="48.12983" lon="7.14777">
        <ele>566</ele>
        <time>2019-04-15T21:17:54Z</time>
      </trkpt>
      <trkpt lat="48.13" lon="7.14763">
        <ele>568</ele>
        <time>2019-04-15T21:18:54Z</time>
      </trkpt>
      <trkpt lat="48.13024" lon="7.14742">
        <ele>568</ele>
        <time>2019-04-15T21:19:54Z</time>
      </trkpt>
      <trkpt lat="48.13045" lon="7.14724">
        <ele>567</ele>
        <time>2019-04-15T21:20:54Z</time>
      </trkpt>
      <trkpt lat="48.13059" lon="7.14714">
        <ele>566</ele>
        <time>2019-04-15T21:21:54Z</time>
      </trkpt>
      <trkpt lat="48.13082" lon="7.14699">
        <ele>562</ele>
        <time>2019-04-15T21:22:54Z</time>
      </trkpt>
      <trkpt lat="48.13112" lon="7.14683">
        <ele>563</ele>
        <time>2019-04-15T21:23:54Z</time>
      </trkpt>
      <trkpt lat="48.13158" lon="7.14655">
        <ele>563</ele>
        <time>2019-04-15T21:24:54Z</time>
      </trkpt>
      <trkpt lat="48.13191" lon="7.14636">
        <ele>566</ele>
        <time>2019-04-15T21:25:54Z</time>
      </trkpt>
      <trkpt lat="48.13203" lon="7.1463">
        <ele>567</ele>
        <time>2019-04-15T21:26:54Z</time>
      </trkpt>
      <trkpt lat="48.13232" lon="7.14617">
        <ele>569</ele>
        <time>2019-04-15T21:27:54Z</time>
      </trkpt>
      <trkpt lat="48.1325" lon="7.14606">
        <ele>570</ele>
        <time>2019-04-15T21:28:54Z</time>
      </trkpt>
      <trkpt lat="48.13272" lon="7.14589">
        <ele>571</ele>
        <time>2019-04-15T21:29:54Z</time>
      </trkpt>
      <trkpt lat="48.13296" lon="7.14572">
        <ele>573</ele>
        <time>2019-04-15T21:30:54Z</time>
      </trkpt>
      <trkpt lat="48.13323" lon="7.1455">
        <ele>576</ele>
        <time>2019-04-15T21:31:54Z</time>
      </trkpt>
      <trkpt lat="48.13335" lon="7.14539">
        <ele>577</ele>
        <time>2019-04-15T21:32:54Z</time>
      </trkpt>
      <trkpt lat="48.13356" lon="7.14524">
        <ele>580</ele>
        <time>2019-04-15T21:33:54Z</time>
      </trkpt>
      <trkpt lat="48.13375" lon="7.14509">
        <ele>583</ele>
        <time>2019-04-15T21:34:54Z</time>
      </trkpt>
      <trkpt lat="48.13393" lon="7.14498">
        <ele>585</ele>
        <time>2019-04-15T21:35:54Z</time>
      </trkpt>
      <trkpt lat="48.13401" lon="7.145">
        <ele>585</ele>
        <time>2019-04-15T21:36:54Z</time>
      </trkpt>
    </trkseg>
  </trk>
</gpx>